<?xml version="1.0" encoding="UTF-8" standalone="yes"?>
<gpx xmlns="http://www.topografix.com/GPX/1/1" xmlns:gpxtrx="http://www.garmin.com/xmlschemas/GpxExtensions/v3" xmlns:rcxx="http://www.routeconverter.de/xmlschemas/RouteCatalogExtensions/1.0" xmlns:xsi="http://www.w3.org/2001/XMLSchema-instance" xmlns:gpxtpx="http://www.garmin.com/xmlschemas/TrackPointExtension/v1" xmlns:gpxx="http://www.garmin.com/xmlschemas/WaypointExtension/v1" xmlns:nmea="http://trekbuddy.net/2009/01/gpx/nmea" creator="Generated by Christian Pesch's RouteConverter. See http://www.routeconverter.com" version="1.1">
    <metadata>
        <name>20120517_rv_seewald_rv</name>
        <link href="http://www.gpsies.com/">
            <text>20120517_rv_seewald_rv on GPSies.com</text>
        </link>
        <time>2012-05-17T15:51:18Z</time>
    </metadata>
    <trk>
        <name>20120517_rv_seewald_rv on GPSies.com</name>
        <trkseg>
            <trkpt lon="9.604040566795334" lat="47.772310601591414">
                <ele>429.7774694400017</ele>
                <time>2012-05-17T15:51:53.000Z</time>
                <name>Position 1</name>
            </trkpt>
            <trkpt lon="9.604503" lat="47.773402">
                <ele>429.5951433600022</ele>
                <time>2012-05-17T15:51:58.000Z</time>
                <name>Position 2</name>
            </trkpt>
            <trkpt lon="9.604495" lat="47.773564">
                <ele>429.2961407999993</ele>
                <time>2012-05-17T15:52:05.000Z</time>
                <name>Position 3</name>
            </trkpt>
            <trkpt lon="9.604497" lat="47.773712">
                <ele>429.0546758399953</ele>
                <time>2012-05-17T15:52:11.000Z</time>
                <name>Position 4</name>
            </trkpt>
            <trkpt lon="9.604502" lat="47.77386">
                <ele>428.82088320000173</ele>
                <time>2012-05-17T15:52:17.000Z</time>
                <name>Position 5</name>
            </trkpt>
            <trkpt lon="9.604507" lat="47.774015">
                <ele>428.57312880000217</ele>
                <time>2012-05-17T15:52:23.000Z</time>
                <name>Position 6</name>
            </trkpt>
            <trkpt lon="9.60451" lat="47.774163">
                <ele>428.3302127999961</ele>
                <time>2012-05-17T15:52:29.000Z</time>
                <name>Position 7</name>
            </trkpt>
            <trkpt lon="9.60442" lat="47.774313">
                <ele>428.5814175999962</ele>
                <time>2012-05-17T15:52:35.000Z</time>
                <name>Position 8</name>
            </trkpt>
            <trkpt lon="9.604208" lat="47.774383">
                <ele>428.3651238400005</ele>
                <time>2012-05-17T15:52:42.000Z</time>
                <name>Position 9</name>
            </trkpt>
            <trkpt lon="9.603958" lat="47.774398">
                <ele>428.19377791999403</ele>
                <time>2012-05-17T15:52:48.000Z</time>
                <name>Position 10</name>
            </trkpt>
            <trkpt lon="9.603701" lat="47.774393">
                <ele>428.0112598400072</ele>
                <time>2012-05-17T15:52:55.000Z</time>
                <name>Position 11</name>
            </trkpt>
            <trkpt lon="9.603447" lat="47.774389">
                <ele>427.8395830399984</ele>
                <time>2012-05-17T15:53:02.000Z</time>
                <name>Position 12</name>
            </trkpt>
            <trkpt lon="9.603195" lat="47.774397">
                <ele>427.61039999999986</ele>
                <time>2012-05-17T15:53:09.000Z</time>
                <name>Position 13</name>
            </trkpt>
            <trkpt lon="9.60294" lat="47.774399">
                <ele>427.30680000000325</ele>
                <time>2012-05-17T15:53:16.000Z</time>
                <name>Position 14</name>
            </trkpt>
            <trkpt lon="9.602673" lat="47.774402">
                <ele>426.9900000000016</ele>
                <time>2012-05-17T15:53:23.000Z</time>
                <name>Position 15</name>
            </trkpt>
            <trkpt lon="9.602397" lat="47.774414">
                <ele>426.81034656000014</ele>
                <time>2012-05-17T15:53:30.000Z</time>
                <name>Position 16</name>
            </trkpt>
            <trkpt lon="9.602116" lat="47.774418">
                <ele>426.84546816000125</ele>
                <time>2012-05-17T15:53:38.000Z</time>
                <name>Position 17</name>
            </trkpt>
            <trkpt lon="9.601837" lat="47.774435">
                <ele>426.8490504000052</ele>
                <time>2012-05-17T15:53:45.000Z</time>
                <name>Position 18</name>
            </trkpt>
            <trkpt lon="9.601548" lat="47.774465">
                <ele>426.7840000000017</ele>
                <time>2012-05-17T15:53:53.000Z</time>
                <name>Position 19</name>
            </trkpt>
            <trkpt lon="9.601289" lat="47.774519">
                <ele>426.6544000000049</ele>
                <time>2012-05-17T15:54:01.000Z</time>
                <name>Position 20</name>
            </trkpt>
            <trkpt lon="9.601031" lat="47.77456">
                <ele>426.55599999999754</ele>
                <time>2012-05-17T15:54:08.000Z</time>
                <name>Position 21</name>
            </trkpt>
            <trkpt lon="9.600796" lat="47.774599">
                <ele>426.3977267199966</ele>
                <time>2012-05-17T15:54:14.000Z</time>
                <name>Position 22</name>
            </trkpt>
            <trkpt lon="9.600575" lat="47.774671">
                <ele>425.9224360000014</ele>
                <time>2012-05-17T15:54:21.000Z</time>
                <name>Position 23</name>
            </trkpt>
            <trkpt lon="9.600589" lat="47.774857">
                <ele>425.69226064000327</ele>
                <time>2012-05-17T15:54:28.000Z</time>
                <name>Position 24</name>
            </trkpt>
            <trkpt lon="9.600629" lat="47.77503">
                <ele>425.48165439999946</ele>
                <time>2012-05-17T15:54:35.000Z</time>
                <name>Position 25</name>
            </trkpt>
            <trkpt lon="9.600651" lat="47.775221">
                <ele>425.3508515199993</ele>
                <time>2012-05-17T15:54:43.000Z</time>
                <name>Position 26</name>
            </trkpt>
            <trkpt lon="9.600685" lat="47.775404">
                <ele>425.1877887999983</ele>
                <time>2012-05-17T15:54:50.000Z</time>
                <name>Position 27</name>
            </trkpt>
            <trkpt lon="9.600707" lat="47.775536">
                <ele>425.0518182399983</ele>
                <time>2012-05-17T15:54:56.000Z</time>
                <name>Position 28</name>
            </trkpt>
            <trkpt lon="9.600591" lat="47.775623">
                <ele>425.1872041599992</ele>
                <time>2012-05-17T15:55:00.000Z</time>
                <name>Position 29</name>
            </trkpt>
            <trkpt lon="9.600416" lat="47.775742">
                <ele>425.50142464000197</ele>
                <time>2012-05-17T15:55:07.000Z</time>
                <name>Position 30</name>
            </trkpt>
            <trkpt lon="9.600293" lat="47.775844">
                <ele>425.81410047999753</ele>
                <time>2012-05-17T15:55:12.000Z</time>
                <name>Position 31</name>
            </trkpt>
            <trkpt lon="9.600166" lat="47.77581">
                <ele>426.0847552000007</ele>
                <time>2012-05-17T15:55:16.000Z</time>
                <name>Position 32</name>
            </trkpt>
            <trkpt lon="9.60012" lat="47.775704">
                <ele>426.1014975999972</ele>
                <time>2012-05-17T15:55:20.000Z</time>
                <name>Position 33</name>
            </trkpt>
            <trkpt lon="9.599986" lat="47.775616">
                <ele>426.2223999999986</ele>
                <time>2012-05-17T15:55:25.000Z</time>
                <name>Position 34</name>
            </trkpt>
            <trkpt lon="9.599819" lat="47.775532">
                <ele>425.92119999999807</ele>
                <time>2012-05-17T15:55:31.000Z</time>
                <name>Position 35</name>
            </trkpt>
            <trkpt lon="9.599608" lat="47.775558">
                <ele>425.6991999999958</ele>
                <time>2012-05-17T15:55:37.000Z</time>
                <name>Position 36</name>
            </trkpt>
            <trkpt lon="9.599389" lat="47.775598">
                <ele>425.48440000000306</ele>
                <time>2012-05-17T15:55:43.000Z</time>
                <name>Position 37</name>
            </trkpt>
            <trkpt lon="9.599163" lat="47.77564">
                <ele>425.26697920000356</ele>
                <time>2012-05-17T15:55:49.000Z</time>
                <name>Position 38</name>
            </trkpt>
            <trkpt lon="9.598933" lat="47.77571">
                <ele>425.3105007999948</ele>
                <time>2012-05-17T15:55:56.000Z</time>
                <name>Position 39</name>
            </trkpt>
            <trkpt lon="9.598698" lat="47.775767">
                <ele>425.37563296000354</ele>
                <time>2012-05-17T15:56:03.000Z</time>
                <name>Position 40</name>
            </trkpt>
            <trkpt lon="9.59845" lat="47.775819">
                <ele>425.46800799999653</ele>
                <time>2012-05-17T15:56:10.000Z</time>
                <name>Position 41</name>
            </trkpt>
            <trkpt lon="9.598227" lat="47.775862">
                <ele>425.5043894399995</ele>
                <time>2012-05-17T15:56:16.000Z</time>
                <name>Position 42</name>
            </trkpt>
            <trkpt lon="9.597992" lat="47.775894">
                <ele>425.5298188800005</ele>
                <time>2012-05-17T15:56:22.000Z</time>
                <name>Position 43</name>
            </trkpt>
            <trkpt lon="9.597806" lat="47.775915">
                <ele>425.5620143999982</ele>
                <time>2012-05-17T15:56:27.000Z</time>
                <name>Position 44</name>
            </trkpt>
            <trkpt lon="9.597573" lat="47.775973">
                <ele>425.65291824000036</ele>
                <time>2012-05-17T15:56:34.000Z</time>
                <name>Position 45</name>
            </trkpt>
            <trkpt lon="9.597341" lat="47.776018">
                <ele>425.7216000000006</ele>
                <time>2012-05-17T15:56:41.000Z</time>
                <name>Position 46</name>
            </trkpt>
            <trkpt lon="9.597104" lat="47.776062">
                <ele>425.7744000000037</ele>
                <time>2012-05-17T15:56:47.000Z</time>
                <name>Position 47</name>
            </trkpt>
            <trkpt lon="9.596883" lat="47.776118">
                <ele>425.84159999999605</ele>
                <time>2012-05-17T15:56:54.000Z</time>
                <name>Position 48</name>
            </trkpt>
            <trkpt lon="9.596662" lat="47.776173">
                <ele>425.91091743999976</ele>
                <time>2012-05-17T15:57:00.000Z</time>
                <name>Position 49</name>
            </trkpt>
            <trkpt lon="9.596451" lat="47.776209">
                <ele>426.09293296000124</ele>
                <time>2012-05-17T15:57:06.000Z</time>
                <name>Position 50</name>
            </trkpt>
            <trkpt lon="9.59628" lat="47.77626">
                <ele>426.2384320000003</ele>
                <time>2012-05-17T15:57:11.000Z</time>
                <name>Position 51</name>
            </trkpt>
            <trkpt lon="9.596056" lat="47.776309">
                <ele>426.3853177599988</ele>
                <time>2012-05-17T15:57:17.000Z</time>
                <name>Position 52</name>
            </trkpt>
            <trkpt lon="9.595835" lat="47.776359">
                <ele>426.49926160000035</ele>
                <time>2012-05-17T15:57:23.000Z</time>
                <name>Position 53</name>
            </trkpt>
            <trkpt lon="9.595618" lat="47.776415">
                <ele>426.3196367999999</ele>
                <time>2012-05-17T15:57:30.000Z</time>
                <name>Position 54</name>
            </trkpt>
            <trkpt lon="9.595414" lat="47.776483">
                <ele>426.1077052800005</ele>
                <time>2012-05-17T15:57:36.000Z</time>
                <name>Position 55</name>
            </trkpt>
            <trkpt lon="9.595261" lat="47.77654">
                <ele>425.91759360000304</ele>
                <time>2012-05-17T15:57:41.000Z</time>
                <name>Position 56</name>
            </trkpt>
            <trkpt lon="9.595114" lat="47.776487">
                <ele>425.82290591999737</ele>
                <time>2012-05-17T15:57:45.000Z</time>
                <name>Position 57</name>
            </trkpt>
            <trkpt lon="9.595024" lat="47.776449">
                <ele>425.78247744000095</ele>
                <time>2012-05-17T15:57:48.000Z</time>
                <name>Position 58</name>
            </trkpt>
            <trkpt lon="9.594907" lat="47.776495">
                <ele>425.81760000000463</ele>
                <time>2012-05-17T15:57:52.000Z</time>
                <name>Position 59</name>
            </trkpt>
            <trkpt lon="9.594796" lat="47.776561">
                <ele>425.87159999999835</ele>
                <time>2012-05-17T15:57:56.000Z</time>
                <name>Position 60</name>
            </trkpt>
            <trkpt lon="9.594671" lat="47.776634">
                <ele>425.93399999999855</ele>
                <time>2012-05-17T15:58:00.000Z</time>
                <name>Position 61</name>
            </trkpt>
            <trkpt lon="9.594564" lat="47.776719">
                <ele>426.3729708799991</ele>
                <time>2012-05-17T15:58:04.000Z</time>
                <name>Position 62</name>
            </trkpt>
            <trkpt lon="9.594564" lat="47.776814">
                <ele>427.00790528001073</ele>
                <time>2012-05-17T15:58:08.000Z</time>
                <name>Position 63</name>
            </trkpt>
            <trkpt lon="9.59463" lat="47.776898">
                <ele>427.42416320001644</ele>
                <time>2012-05-17T15:58:12.000Z</time>
                <name>Position 64</name>
            </trkpt>
            <trkpt lon="9.594733" lat="47.776965">
                <ele>427.5965095999827</ele>
                <time>2012-05-17T15:58:16.000Z</time>
                <name>Position 65</name>
            </trkpt>
            <trkpt lon="9.59486" lat="47.77703">
                <ele>427.63174400001674</ele>
                <time>2012-05-17T15:58:20.000Z</time>
                <name>Position 66</name>
            </trkpt>
            <trkpt lon="9.594977" lat="47.777096">
                <ele>427.6310585600008</ele>
                <time>2012-05-17T15:58:24.000Z</time>
                <name>Position 67</name>
            </trkpt>
            <trkpt lon="9.595051" lat="47.777159">
                <ele>427.81592911998854</ele>
                <time>2012-05-17T15:58:28.000Z</time>
                <name>Position 68</name>
            </trkpt>
            <trkpt lon="9.595115" lat="47.777218">
                <ele>428.01049759999034</ele>
                <time>2012-05-17T15:58:30.000Z</time>
                <name>Position 69</name>
            </trkpt>
            <trkpt lon="9.595155" lat="47.777291">
                <ele>428.2647463999922</ele>
                <time>2012-05-17T15:58:34.000Z</time>
                <name>Position 70</name>
            </trkpt>
            <trkpt lon="9.595172" lat="47.77738">
                <ele>428.6003648000037</ele>
                <time>2012-05-17T15:58:37.000Z</time>
                <name>Position 71</name>
            </trkpt>
            <trkpt lon="9.595151" lat="47.777472">
                <ele>429.02146496001365</ele>
                <time>2012-05-17T15:58:41.000Z</time>
                <name>Position 72</name>
            </trkpt>
            <trkpt lon="9.595116" lat="47.777559">
                <ele>429.252978559996</ele>
                <time>2012-05-17T15:58:44.000Z</time>
                <name>Position 73</name>
            </trkpt>
            <trkpt lon="9.595061" lat="47.777634">
                <ele>429.46731776000127</ele>
                <time>2012-05-17T15:58:48.000Z</time>
                <name>Position 74</name>
            </trkpt>
            <trkpt lon="9.594969" lat="47.777706">
                <ele>429.94197919999846</ele>
                <time>2012-05-17T15:58:52.000Z</time>
                <name>Position 75</name>
            </trkpt>
            <trkpt lon="9.594873" lat="47.777766">
                <ele>430.6720304000013</ele>
                <time>2012-05-17T15:58:55.000Z</time>
                <name>Position 76</name>
            </trkpt>
            <trkpt lon="9.59475" lat="47.777809">
                <ele>431.62699999999734</ele>
                <time>2012-05-17T15:58:59.000Z</time>
                <name>Position 77</name>
            </trkpt>
            <trkpt lon="9.594632" lat="47.777831">
                <ele>432.5406175999914</ele>
                <time>2012-05-17T15:59:02.000Z</time>
                <name>Position 78</name>
            </trkpt>
            <trkpt lon="9.594485" lat="47.777843">
                <ele>433.65544399998186</ele>
                <time>2012-05-17T15:59:06.000Z</time>
                <name>Position 79</name>
            </trkpt>
            <trkpt lon="9.594349" lat="47.777835">
                <ele>434.5970120000233</ele>
                <time>2012-05-17T15:59:10.000Z</time>
                <name>Position 80</name>
            </trkpt>
            <trkpt lon="9.594237" lat="47.777818">
                <ele>435.2909648000253</ele>
                <time>2012-05-17T15:59:13.000Z</time>
                <name>Position 81</name>
            </trkpt>
            <trkpt lon="9.594123" lat="47.777782">
                <ele>436.0713356800172</ele>
                <time>2012-05-17T15:59:16.000Z</time>
                <name>Position 82</name>
            </trkpt>
            <trkpt lon="9.594046" lat="47.777737">
                <ele>436.71683776000657</ele>
                <time>2012-05-17T15:59:19.000Z</time>
                <name>Position 83</name>
            </trkpt>
            <trkpt lon="9.59398" lat="47.777684">
                <ele>437.18988160000254</ele>
                <time>2012-05-17T15:59:22.000Z</time>
                <name>Position 84</name>
            </trkpt>
            <trkpt lon="9.593914" lat="47.777619">
                <ele>437.6054060800113</ele>
                <time>2012-05-17T15:59:25.000Z</time>
                <name>Position 85</name>
            </trkpt>
            <trkpt lon="9.593848" lat="47.777553">
                <ele>438.03935871999107</ele>
                <time>2012-05-17T15:59:28.000Z</time>
                <name>Position 86</name>
            </trkpt>
            <trkpt lon="9.59378" lat="47.777464">
                <ele>438.22142080001214</ele>
                <time>2012-05-17T15:59:32.000Z</time>
                <name>Position 87</name>
            </trkpt>
            <trkpt lon="9.593707" lat="47.777367">
                <ele>438.09825855997684</ele>
                <time>2012-05-17T15:59:37.000Z</time>
                <name>Position 88</name>
            </trkpt>
            <trkpt lon="9.593608" lat="47.777266">
                <ele>438.1558067199727</ele>
                <time>2012-05-17T15:59:41.000Z</time>
                <name>Position 89</name>
            </trkpt>
            <trkpt lon="9.593444" lat="47.777241">
                <ele>439.7854969599577</ele>
                <time>2012-05-17T15:59:46.000Z</time>
                <name>Position 90</name>
            </trkpt>
            <trkpt lon="9.593319" lat="47.777302">
                <ele>442.0534601599927</ele>
                <time>2012-05-17T15:59:50.000Z</time>
                <name>Position 91</name>
            </trkpt>
            <trkpt lon="9.593297" lat="47.777394">
                <ele>443.50983776001584</ele>
                <time>2012-05-17T15:59:54.000Z</time>
                <name>Position 92</name>
            </trkpt>
            <trkpt lon="9.593381" lat="47.777478">
                <ele>443.5864403200163</ele>
                <time>2012-05-17T15:59:58.000Z</time>
                <name>Position 93</name>
            </trkpt>
            <trkpt lon="9.593478" lat="47.77756">
                <ele>442.9033984000154</ele>
                <time>2012-05-17T16:00:02.000Z</time>
                <name>Position 94</name>
            </trkpt>
            <trkpt lon="9.593537" lat="47.777652">
                <ele>442.63035712002403</ele>
                <time>2012-05-17T16:00:06.000Z</time>
                <name>Position 95</name>
            </trkpt>
            <trkpt lon="9.59361" lat="47.777755">
                <ele>442.27518399999536</ele>
                <time>2012-05-17T16:00:11.000Z</time>
                <name>Position 96</name>
            </trkpt>
            <trkpt lon="9.593682" lat="47.777858">
                <ele>441.9754892800189</ele>
                <time>2012-05-17T16:00:15.000Z</time>
                <name>Position 97</name>
            </trkpt>
            <trkpt lon="9.593718" lat="47.777977">
                <ele>442.24043967998944</ele>
                <time>2012-05-17T16:00:20.000Z</time>
                <name>Position 98</name>
            </trkpt>
            <trkpt lon="9.593681" lat="47.778069">
                <ele>443.21172832001093</ele>
                <time>2012-05-17T16:00:24.000Z</time>
                <name>Position 99</name>
            </trkpt>
            <trkpt lon="9.59365" lat="47.778141">
                <ele>443.9813919999858</ele>
                <time>2012-05-17T16:00:27.000Z</time>
                <name>Position 100</name>
            </trkpt>
            <trkpt lon="9.593633" lat="47.778206">
                <ele>444.5425062399789</ele>
                <time>2012-05-17T16:00:29.000Z</time>
                <name>Position 101</name>
            </trkpt>
            <trkpt lon="9.593598" lat="47.778253">
                <ele>445.19476671999604</ele>
                <time>2012-05-17T16:00:32.000Z</time>
                <name>Position 102</name>
            </trkpt>
            <trkpt lon="9.593574" lat="47.778292">
                <ele>445.6737510399995</ele>
                <time>2012-05-17T16:00:33.000Z</time>
                <name>Position 103</name>
            </trkpt>
            <trkpt lon="9.593576" lat="47.778323">
                <ele>445.8223782399959</ele>
                <time>2012-05-17T16:00:35.000Z</time>
                <name>Position 104</name>
            </trkpt>
            <trkpt lon="9.593567" lat="47.778373">
                <ele>446.14010592000636</ele>
                <time>2012-05-17T16:00:37.000Z</time>
                <name>Position 105</name>
            </trkpt>
            <trkpt lon="9.593561" lat="47.778424">
                <ele>446.41695168001206</ele>
                <time>2012-05-17T16:00:39.000Z</time>
                <name>Position 106</name>
            </trkpt>
            <trkpt lon="9.593541" lat="47.77847">
                <ele>446.8314623999934</ele>
                <time>2012-05-17T16:00:40.000Z</time>
                <name>Position 107</name>
            </trkpt>
            <trkpt lon="9.593508" lat="47.778517">
                <ele>447.4028083200044</ele>
                <time>2012-05-17T16:00:43.000Z</time>
                <name>Position 108</name>
            </trkpt>
            <trkpt lon="9.593475" lat="47.778571">
                <ele>448.01383200000055</ele>
                <time>2012-05-17T16:00:45.000Z</time>
                <name>Position 109</name>
            </trkpt>
            <trkpt lon="9.593414" lat="47.778607">
                <ele>448.8788217600134</ele>
                <time>2012-05-17T16:00:47.000Z</time>
                <name>Position 110</name>
            </trkpt>
            <trkpt lon="9.593355" lat="47.778592">
                <ele>449.49145920000706</ele>
                <time>2012-05-17T16:00:49.000Z</time>
                <name>Position 111</name>
            </trkpt>
            <trkpt lon="9.593306" lat="47.778551">
                <ele>449.7501673599999</ele>
                <time>2012-05-17T16:00:51.000Z</time>
                <name>Position 112</name>
            </trkpt>
            <trkpt lon="9.593258" lat="47.778504">
                <ele>449.88011391998657</ele>
                <time>2012-05-17T16:00:53.000Z</time>
                <name>Position 113</name>
            </trkpt>
            <trkpt lon="9.59319" lat="47.778497">
                <ele>450.3513808000083</ele>
                <time>2012-05-17T16:00:55.000Z</time>
                <name>Position 114</name>
            </trkpt>
            <trkpt lon="9.593155" lat="47.778538">
                <ele>450.8189583999914</ele>
                <time>2012-05-17T16:00:57.000Z</time>
                <name>Position 115</name>
            </trkpt>
            <trkpt lon="9.593114" lat="47.778599">
                <ele>451.4383081599994</ele>
                <time>2012-05-17T16:01:00.000Z</time>
                <name>Position 116</name>
            </trkpt>
            <trkpt lon="9.593052" lat="47.778642">
                <ele>452.1322470399874</ele>
                <time>2012-05-17T16:01:02.000Z</time>
                <name>Position 117</name>
            </trkpt>
            <trkpt lon="9.592973" lat="47.778649">
                <ele>452.77339312000265</ele>
                <time>2012-05-17T16:01:04.000Z</time>
                <name>Position 118</name>
            </trkpt>
            <trkpt lon="9.592903" lat="47.778635">
                <ele>453.2333368000088</ele>
                <time>2012-05-17T16:01:06.000Z</time>
                <name>Position 119</name>
            </trkpt>
            <trkpt lon="9.592894" lat="47.778584">
                <ele>453.02498176001626</ele>
                <time>2012-05-17T16:01:08.000Z</time>
                <name>Position 120</name>
            </trkpt>
            <trkpt lon="9.59285" lat="47.778551">
                <ele>453.17629599999844</ele>
                <time>2012-05-17T16:01:10.000Z</time>
                <name>Position 121</name>
            </trkpt>
            <trkpt lon="9.592802" lat="47.778503">
                <ele>453.2698153599977</ele>
                <time>2012-05-17T16:01:12.000Z</time>
                <name>Position 122</name>
            </trkpt>
            <trkpt lon="9.592751" lat="47.778474">
                <ele>453.48595744001676</ele>
                <time>2012-05-17T16:01:14.000Z</time>
                <name>Position 123</name>
            </trkpt>
            <trkpt lon="9.592698" lat="47.778426">
                <ele>453.6039788800149</ele>
                <time>2012-05-17T16:01:16.000Z</time>
                <name>Position 124</name>
            </trkpt>
            <trkpt lon="9.592646" lat="47.778372">
                <ele>453.67267071998293</ele>
                <time>2012-05-17T16:01:19.000Z</time>
                <name>Position 125</name>
            </trkpt>
            <trkpt lon="9.592608" lat="47.778317">
                <ele>453.69517952000035</ele>
                <time>2012-05-17T16:01:21.000Z</time>
                <name>Position 126</name>
            </trkpt>
            <trkpt lon="9.592569" lat="47.778255">
                <ele>453.88585040000805</ele>
                <time>2012-05-17T16:01:24.000Z</time>
                <name>Position 127</name>
            </trkpt>
            <trkpt lon="9.592507" lat="47.778215">
                <ele>454.304021600008</ele>
                <time>2012-05-17T16:01:26.000Z</time>
                <name>Position 128</name>
            </trkpt>
            <trkpt lon="9.592441" lat="47.778156">
                <ele>454.76773375999625</ele>
                <time>2012-05-17T16:01:29.000Z</time>
                <name>Position 129</name>
            </trkpt>
            <trkpt lon="9.592388" lat="47.778108">
                <ele>455.1340582400067</ele>
                <time>2012-05-17T16:01:32.000Z</time>
                <name>Position 130</name>
            </trkpt>
            <trkpt lon="9.592335" lat="47.778054">
                <ele>455.4844303999939</ele>
                <time>2012-05-17T16:01:34.000Z</time>
                <name>Position 131</name>
            </trkpt>
            <trkpt lon="9.592254" lat="47.777971">
                <ele>456.0032470399973</ele>
                <time>2012-05-17T16:01:38.000Z</time>
                <name>Position 132</name>
            </trkpt>
            <trkpt lon="9.592175" lat="47.777925">
                <ele>456.5489000000115</ele>
                <time>2012-05-17T16:01:41.000Z</time>
                <name>Position 133</name>
            </trkpt>
            <trkpt lon="9.592096" lat="47.777879">
                <ele>457.0840870399996</ele>
                <time>2012-05-17T16:01:44.000Z</time>
                <name>Position 134</name>
            </trkpt>
            <trkpt lon="9.592001" lat="47.777822">
                <ele>457.7105763200025</ele>
                <time>2012-05-17T16:01:47.000Z</time>
                <name>Position 135</name>
            </trkpt>
            <trkpt lon="9.591898" lat="47.777773">
                <ele>458.3986582400033</ele>
                <time>2012-05-17T16:01:51.000Z</time>
                <name>Position 136</name>
            </trkpt>
            <trkpt lon="9.591797" lat="47.777736">
                <ele>459.0837075199963</ele>
                <time>2012-05-17T16:01:54.000Z</time>
                <name>Position 137</name>
            </trkpt>
            <trkpt lon="9.591672" lat="47.777726">
                <ele>460.00226431999636</ele>
                <time>2012-05-17T16:01:57.000Z</time>
                <name>Position 138</name>
            </trkpt>
            <trkpt lon="9.591552" lat="47.77773">
                <ele>460.4268223999957</ele>
                <time>2012-05-17T16:02:01.000Z</time>
                <name>Position 139</name>
            </trkpt>
            <trkpt lon="9.591431" lat="47.777739">
                <ele>460.8408929599932</ele>
                <time>2012-05-17T16:02:04.000Z</time>
                <name>Position 140</name>
            </trkpt>
            <trkpt lon="9.591323" lat="47.777754">
                <ele>461.2211004800056</ele>
                <time>2012-05-17T16:02:07.000Z</time>
                <name>Position 141</name>
            </trkpt>
            <trkpt lon="9.591179" lat="47.777784">
                <ele>461.7377638399935</ele>
                <time>2012-05-17T16:02:11.000Z</time>
                <name>Position 142</name>
            </trkpt>
            <trkpt lon="9.591058" lat="47.777799">
                <ele>462.14673248000145</ele>
                <time>2012-05-17T16:02:14.000Z</time>
                <name>Position 143</name>
            </trkpt>
            <trkpt lon="9.590929" lat="47.777823">
                <ele>462.58769647999975</ele>
                <time>2012-05-17T16:02:18.000Z</time>
                <name>Position 144</name>
            </trkpt>
            <trkpt lon="9.590786" lat="47.77786">
                <ele>462.842937599995</ele>
                <time>2012-05-17T16:02:22.000Z</time>
                <name>Position 145</name>
            </trkpt>
            <trkpt lon="9.590626" lat="47.777885">
                <ele>462.5793455999969</ele>
                <time>2012-05-17T16:02:26.000Z</time>
                <name>Position 146</name>
            </trkpt>
            <trkpt lon="9.590473" lat="47.777936">
                <ele>462.38463167999316</ele>
                <time>2012-05-17T16:02:31.000Z</time>
                <name>Position 147</name>
            </trkpt>
            <trkpt lon="9.590319" lat="47.777974">
                <ele>462.185463359999</ele>
                <time>2012-05-17T16:02:35.000Z</time>
                <name>Position 148</name>
            </trkpt>
            <trkpt lon="9.590166" lat="47.777954">
                <ele>461.8794758400021</ele>
                <time>2012-05-17T16:02:39.000Z</time>
                <name>Position 149</name>
            </trkpt>
            <trkpt lon="9.590078" lat="47.777839">
                <ele>461.4627235200003</ele>
                <time>2012-05-17T16:02:45.000Z</time>
                <name>Position 150</name>
            </trkpt>
            <trkpt lon="9.589998" lat="47.777705">
                <ele>460.9890095999929</ele>
                <time>2012-05-17T16:02:50.000Z</time>
                <name>Position 151</name>
            </trkpt>
            <trkpt lon="9.589906" lat="47.777559">
                <ele>460.52081375999086</ele>
                <time>2012-05-17T16:02:57.000Z</time>
                <name>Position 152</name>
            </trkpt>
            <trkpt lon="9.589851" lat="47.777409">
                <ele>459.90392495999305</ele>
                <time>2012-05-17T16:03:03.000Z</time>
                <name>Position 153</name>
            </trkpt>
            <trkpt lon="9.589769" lat="47.777256">
                <ele>459.13276416000576</ele>
                <time>2012-05-17T16:03:09.000Z</time>
                <name>Position 154</name>
            </trkpt>
            <trkpt lon="9.589675" lat="47.777097">
                <ele>458.36420399998957</ele>
                <time>2012-05-17T16:03:16.000Z</time>
                <name>Position 155</name>
            </trkpt>
            <trkpt lon="9.589554" lat="47.776935">
                <ele>457.6156656000067</ele>
                <time>2012-05-17T16:03:24.000Z</time>
                <name>Position 156</name>
            </trkpt>
            <trkpt lon="9.58943" lat="47.776772">
                <ele>456.91914240000426</ele>
                <time>2012-05-17T16:03:31.000Z</time>
                <name>Position 157</name>
            </trkpt>
            <trkpt lon="9.58927" lat="47.776614">
                <ele>456.4132896000033</ele>
                <time>2012-05-17T16:03:39.000Z</time>
                <name>Position 158</name>
            </trkpt>
            <trkpt lon="9.58916" lat="47.776462">
                <ele>456.2503296000023</ele>
                <time>2012-05-17T16:03:45.000Z</time>
                <name>Position 159</name>
            </trkpt>
            <trkpt lon="9.589026" lat="47.776325">
                <ele>456.059616</ele>
                <time>2012-05-17T16:03:52.000Z</time>
                <name>Position 160</name>
            </trkpt>
            <trkpt lon="9.588879" lat="47.776183">
                <ele>455.97510816000107</ele>
                <time>2012-05-17T16:03:59.000Z</time>
                <name>Position 161</name>
            </trkpt>
            <trkpt lon="9.588731" lat="47.776047">
                <ele>456.01110816000056</ele>
                <time>2012-05-17T16:04:06.000Z</time>
                <name>Position 162</name>
            </trkpt>
            <trkpt lon="9.588597" lat="47.775916">
                <ele>456.147173759999</ele>
                <time>2012-05-17T16:04:12.000Z</time>
                <name>Position 163</name>
            </trkpt>
            <trkpt lon="9.588454" lat="47.775806">
                <ele>456.3129011200039</ele>
                <time>2012-05-17T16:04:18.000Z</time>
                <name>Position 164</name>
            </trkpt>
            <trkpt lon="9.588244" lat="47.775817">
                <ele>456.37740224000277</ele>
                <time>2012-05-17T16:04:23.000Z</time>
                <name>Position 165</name>
            </trkpt>
            <trkpt lon="9.588027" lat="47.775886">
                <ele>456.02273536000075</ele>
                <time>2012-05-17T16:04:30.000Z</time>
                <name>Position 166</name>
            </trkpt>
            <trkpt lon="9.587784" lat="47.775957">
                <ele>455.4967494400038</ele>
                <time>2012-05-17T16:04:37.000Z</time>
                <name>Position 167</name>
            </trkpt>
            <trkpt lon="9.587542" lat="47.775994">
                <ele>454.99143424000846</ele>
                <time>2012-05-17T16:04:44.000Z</time>
                <name>Position 168</name>
            </trkpt>
            <trkpt lon="9.587323" lat="47.775986">
                <ele>454.9893116799896</ele>
                <time>2012-05-17T16:04:50.000Z</time>
                <name>Position 169</name>
            </trkpt>
            <trkpt lon="9.587088" lat="47.776036">
                <ele>454.8906380800071</ele>
                <time>2012-05-17T16:04:56.000Z</time>
                <name>Position 170</name>
            </trkpt>
            <trkpt lon="9.586871" lat="47.776093">
                <ele>454.8003956799918</ele>
                <time>2012-05-17T16:05:02.000Z</time>
                <name>Position 171</name>
            </trkpt>
            <trkpt lon="9.586762" lat="47.776135">
                <ele>454.734587200009</ele>
                <time>2012-05-17T16:05:06.000Z</time>
                <name>Position 172</name>
            </trkpt>
            <trkpt lon="9.586716" lat="47.776166">
                <ele>454.67796735999195</ele>
                <time>2012-05-17T16:05:08.000Z</time>
                <name>Position 173</name>
            </trkpt>
            <trkpt lon="9.586661" lat="47.776222">
                <ele>454.6048284800108</ele>
                <time>2012-05-17T16:05:10.000Z</time>
                <name>Position 174</name>
            </trkpt>
            <trkpt lon="9.586563" lat="47.776257">
                <ele>455.1663550399976</ele>
                <time>2012-05-17T16:05:13.000Z</time>
                <name>Position 175</name>
            </trkpt>
            <trkpt lon="9.58642" lat="47.776288">
                <ele>456.0233023999948</ele>
                <time>2012-05-17T16:05:17.000Z</time>
                <name>Position 176</name>
            </trkpt>
            <trkpt lon="9.586278" lat="47.776318">
                <ele>456.8639417599895</ele>
                <time>2012-05-17T16:05:21.000Z</time>
                <name>Position 177</name>
            </trkpt>
            <trkpt lon="9.586124" lat="47.776351">
                <ele>457.7602745600065</ele>
                <time>2012-05-17T16:05:26.000Z</time>
                <name>Position 178</name>
            </trkpt>
            <trkpt lon="9.58598" lat="47.776387">
                <ele>458.56773440000563</ele>
                <time>2012-05-17T16:05:30.000Z</time>
                <name>Position 179</name>
            </trkpt>
            <trkpt lon="9.585881" lat="47.776422">
                <ele>459.0780060800086</ele>
                <time>2012-05-17T16:05:33.000Z</time>
                <name>Position 180</name>
            </trkpt>
            <trkpt lon="9.585754" lat="47.77644">
                <ele>459.584083199998</ele>
                <time>2012-05-17T16:05:36.000Z</time>
                <name>Position 181</name>
            </trkpt>
            <trkpt lon="9.585699" lat="47.776444">
                <ele>459.75321792000926</ele>
                <time>2012-05-17T16:05:38.000Z</time>
                <name>Position 182</name>
            </trkpt>
            <trkpt lon="9.585587" lat="47.776469">
                <ele>460.0131489600053</ele>
                <time>2012-05-17T16:05:41.000Z</time>
                <name>Position 183</name>
            </trkpt>
            <trkpt lon="9.585456" lat="47.776505">
                <ele>460.2511295999973</ele>
                <time>2012-05-17T16:05:45.000Z</time>
                <name>Position 184</name>
            </trkpt>
            <trkpt lon="9.58535" lat="47.776556">
                <ele>460.289472000004</ele>
                <time>2012-05-17T16:05:48.000Z</time>
                <name>Position 185</name>
            </trkpt>
            <trkpt lon="9.585258" lat="47.776588">
                <ele>460.35952128002145</ele>
                <time>2012-05-17T16:05:51.000Z</time>
                <name>Position 186</name>
            </trkpt>
            <trkpt lon="9.585116" lat="47.776619">
                <ele>460.54091328002494</ele>
                <time>2012-05-17T16:05:55.000Z</time>
                <name>Position 187</name>
            </trkpt>
            <trkpt lon="9.584967" lat="47.77663">
                <ele>460.92065760001685</ele>
                <time>2012-05-17T16:05:59.000Z</time>
                <name>Position 188</name>
            </trkpt>
            <trkpt lon="9.584848" lat="47.776652">
                <ele>461.3319897600146</ele>
                <time>2012-05-17T16:06:02.000Z</time>
                <name>Position 189</name>
            </trkpt>
            <trkpt lon="9.584712" lat="47.776696">
                <ele>461.6577395199933</ele>
                <time>2012-05-17T16:06:06.000Z</time>
                <name>Position 190</name>
            </trkpt>
            <trkpt lon="9.584609" lat="47.776718">
                <ele>461.95318911997873</ele>
                <time>2012-05-17T16:06:09.000Z</time>
                <name>Position 191</name>
            </trkpt>
            <trkpt lon="9.584517" lat="47.776744">
                <ele>462.13925247999424</ele>
                <time>2012-05-17T16:06:12.000Z</time>
                <name>Position 192</name>
            </trkpt>
            <trkpt lon="9.584362" lat="47.776776">
                <ele>462.5046131200168</ele>
                <time>2012-05-17T16:06:16.000Z</time>
                <name>Position 193</name>
            </trkpt>
            <trkpt lon="9.584204" lat="47.776801">
                <ele>462.898887040013</ele>
                <time>2012-05-17T16:06:21.000Z</time>
                <name>Position 194</name>
            </trkpt>
            <trkpt lon="9.58405" lat="47.776751">
                <ele>463.47753600002835</ele>
                <time>2012-05-17T16:06:25.000Z</time>
                <name>Position 195</name>
            </trkpt>
            <trkpt lon="9.583958" lat="47.776706">
                <ele>463.84843776002975</ele>
                <time>2012-05-17T16:06:28.000Z</time>
                <name>Position 196</name>
            </trkpt>
            <trkpt lon="9.583804" lat="47.776668">
                <ele>464.05179263999355</ele>
                <time>2012-05-17T16:06:33.000Z</time>
                <name>Position 197</name>
            </trkpt>
            <trkpt lon="9.583716" lat="47.776583">
                <ele>464.51549631998614</ele>
                <time>2012-05-17T16:06:37.000Z</time>
                <name>Position 198</name>
            </trkpt>
            <trkpt lon="9.583652" lat="47.776484">
                <ele>465.1137779199773</ele>
                <time>2012-05-17T16:06:41.000Z</time>
                <name>Position 199</name>
            </trkpt>
            <trkpt lon="9.583619" lat="47.776337">
                <ele>466.0807883200138</ele>
                <time>2012-05-17T16:06:47.000Z</time>
                <name>Position 200</name>
            </trkpt>
            <trkpt lon="9.583564" lat="47.776206">
                <ele>466.9405849599873</ele>
                <time>2012-05-17T16:06:53.000Z</time>
                <name>Position 201</name>
            </trkpt>
            <trkpt lon="9.583518" lat="47.776107">
                <ele>467.6023734399779</ele>
                <time>2012-05-17T16:06:57.000Z</time>
                <name>Position 202</name>
            </trkpt>
            <trkpt lon="9.583425" lat="47.775991">
                <ele>468.38561200001686</ele>
                <time>2012-05-17T16:07:02.000Z</time>
                <name>Position 203</name>
            </trkpt>
            <trkpt lon="9.583379" lat="47.775827">
                <ele>469.49281647999953</ele>
                <time>2012-05-17T16:07:09.000Z</time>
                <name>Position 204</name>
            </trkpt>
            <trkpt lon="9.583343" lat="47.775638">
                <ele>469.2683190400006</ele>
                <time>2012-05-17T16:07:16.000Z</time>
                <name>Position 205</name>
            </trkpt>
            <trkpt lon="9.583308" lat="47.775466">
                <ele>468.8562009600064</ele>
                <time>2012-05-17T16:07:23.000Z</time>
                <name>Position 206</name>
            </trkpt>
            <trkpt lon="9.583248" lat="47.775279">
                <ele>468.219949439993</ele>
                <time>2012-05-17T16:07:31.000Z</time>
                <name>Position 207</name>
            </trkpt>
            <trkpt lon="9.583177" lat="47.775084">
                <ele>467.60606975999445</ele>
                <time>2012-05-17T16:07:39.000Z</time>
                <name>Position 208</name>
            </trkpt>
            <trkpt lon="9.583107" lat="47.774882">
                <ele>467.19269280000094</ele>
                <time>2012-05-17T16:07:47.000Z</time>
                <name>Position 209</name>
            </trkpt>
            <trkpt lon="9.583036" lat="47.77468">
                <ele>467.0170560000028</ele>
                <time>2012-05-17T16:07:56.000Z</time>
                <name>Position 210</name>
            </trkpt>
            <trkpt lon="9.58293" lat="47.774495">
                <ele>466.94051999999533</ele>
                <time>2012-05-17T16:08:04.000Z</time>
                <name>Position 211</name>
            </trkpt>
            <trkpt lon="9.582851" lat="47.774332">
                <ele>467.12423039999715</ele>
                <time>2012-05-17T16:08:11.000Z</time>
                <name>Position 212</name>
            </trkpt>
            <trkpt lon="9.58276" lat="47.774134">
                <ele>467.43633919999303</ele>
                <time>2012-05-17T16:08:19.000Z</time>
                <name>Position 213</name>
            </trkpt>
            <trkpt lon="9.582674" lat="47.773973">
                <ele>467.17054975999605</ele>
                <time>2012-05-17T16:08:26.000Z</time>
                <name>Position 214</name>
            </trkpt>
            <trkpt lon="9.582591" lat="47.773813">
                <ele>466.9829110399947</ele>
                <time>2012-05-17T16:08:32.000Z</time>
                <name>Position 215</name>
            </trkpt>
            <trkpt lon="9.582465" lat="47.773662">
                <ele>466.7187055999972</ele>
                <time>2012-05-17T16:08:39.000Z</time>
                <name>Position 216</name>
            </trkpt>
            <trkpt lon="9.582377" lat="47.773495">
                <ele>466.1652967999947</ele>
                <time>2012-05-17T16:08:46.000Z</time>
                <name>Position 217</name>
            </trkpt>
            <trkpt lon="9.582267" lat="47.773349">
                <ele>465.66423056000014</ele>
                <time>2012-05-17T16:08:53.000Z</time>
                <name>Position 218</name>
            </trkpt>
            <trkpt lon="9.58215" lat="47.773243">
                <ele>464.86276800000405</ele>
                <time>2012-05-17T16:08:58.000Z</time>
                <name>Position 219</name>
            </trkpt>
            <trkpt lon="9.582065" lat="47.773129">
                <ele>464.2307663999905</ele>
                <time>2012-05-17T16:09:03.000Z</time>
                <name>Position 220</name>
            </trkpt>
            <trkpt lon="9.581926" lat="47.773031">
                <ele>463.75617984000615</ele>
                <time>2012-05-17T16:09:09.000Z</time>
                <name>Position 221</name>
            </trkpt>
            <trkpt lon="9.581786" lat="47.772881">
                <ele>463.4632262399982</ele>
                <time>2012-05-17T16:09:16.000Z</time>
                <name>Position 222</name>
            </trkpt>
            <trkpt lon="9.581588" lat="47.772762">
                <ele>463.51072383999997</ele>
                <time>2012-05-17T16:09:23.000Z</time>
                <name>Position 223</name>
            </trkpt>
            <trkpt lon="9.581397" lat="47.772699">
                <ele>463.6835459199929</ele>
                <time>2012-05-17T16:09:29.000Z</time>
                <name>Position 224</name>
            </trkpt>
            <trkpt lon="9.581191" lat="47.772613">
                <ele>464.17719712000076</ele>
                <time>2012-05-17T16:09:35.000Z</time>
                <name>Position 225</name>
            </trkpt>
            <trkpt lon="9.581008" lat="47.772495">
                <ele>465.0650271999962</ele>
                <time>2012-05-17T16:09:42.000Z</time>
                <name>Position 226</name>
            </trkpt>
            <trkpt lon="9.580804" lat="47.772387">
                <ele>464.9406387200087</ele>
                <time>2012-05-17T16:09:49.000Z</time>
                <name>Position 227</name>
            </trkpt>
            <trkpt lon="9.580597" lat="47.772266">
                <ele>462.8638092799925</ele>
                <time>2012-05-17T16:09:57.000Z</time>
                <name>Position 228</name>
            </trkpt>
            <trkpt lon="9.580426" lat="47.772135">
                <ele>461.50936639999503</ele>
                <time>2012-05-17T16:10:03.000Z</time>
                <name>Position 229</name>
            </trkpt>
            <trkpt lon="9.580432" lat="47.772009">
                <ele>461.68975232000315</ele>
                <time>2012-05-17T16:10:09.000Z</time>
                <name>Position 230</name>
            </trkpt>
            <trkpt lon="9.580517" lat="47.771799">
                <ele>462.31711712000106</ele>
                <time>2012-05-17T16:10:17.000Z</time>
                <name>Position 231</name>
            </trkpt>
            <trkpt lon="9.580624" lat="47.771645">
                <ele>462.5385247999952</ele>
                <time>2012-05-17T16:10:24.000Z</time>
                <name>Position 232</name>
            </trkpt>
            <trkpt lon="9.58074" lat="47.771546">
                <ele>461.9256704000083</ele>
                <time>2012-05-17T16:10:29.000Z</time>
                <name>Position 233</name>
            </trkpt>
            <trkpt lon="9.580788" lat="47.771462">
                <ele>461.1798425599959</ele>
                <time>2012-05-17T16:10:33.000Z</time>
                <name>Position 234</name>
            </trkpt>
            <trkpt lon="9.580707" lat="47.771361">
                <ele>459.9664275199885</ele>
                <time>2012-05-17T16:10:37.000Z</time>
                <name>Position 235</name>
            </trkpt>
            <trkpt lon="9.58056" lat="47.771266">
                <ele>458.81960959997326</ele>
                <time>2012-05-17T16:10:43.000Z</time>
                <name>Position 236</name>
            </trkpt>
            <trkpt lon="9.580395" lat="47.771199">
                <ele>458.05196480002263</ele>
                <time>2012-05-17T16:10:48.000Z</time>
                <name>Position 237</name>
            </trkpt>
            <trkpt lon="9.580211" lat="47.771119">
                <ele>457.307987839991</ele>
                <time>2012-05-17T16:10:54.000Z</time>
                <name>Position 238</name>
            </trkpt>
            <trkpt lon="9.580026" lat="47.771024">
                <ele>456.6413542399816</ele>
                <time>2012-05-17T16:11:00.000Z</time>
                <name>Position 239</name>
            </trkpt>
            <trkpt lon="9.579846" lat="47.770935">
                <ele>455.12279840000394</ele>
                <time>2012-05-17T16:11:06.000Z</time>
                <name>Position 240</name>
            </trkpt>
            <trkpt lon="9.579495" lat="47.770812">
                <ele>453.0302271999968</ele>
                <time>2012-05-17T16:11:17.000Z</time>
                <name>Position 241</name>
            </trkpt>
            <trkpt lon="9.579267" lat="47.770689">
                <ele>451.76669343999464</ele>
                <time>2012-05-17T16:11:25.000Z</time>
                <name>Position 242</name>
            </trkpt>
            <trkpt lon="9.579172" lat="47.77048">
                <ele>451.09617279999804</ele>
                <time>2012-05-17T16:11:33.000Z</time>
                <name>Position 243</name>
            </trkpt>
            <trkpt lon="9.579075" lat="47.770252">
                <ele>450.21913599999624</ele>
                <time>2012-05-17T16:11:43.000Z</time>
                <name>Position 244</name>
            </trkpt>
            <trkpt lon="9.57898" lat="47.770049">
                <ele>449.4256287999976</ele>
                <time>2012-05-17T16:11:51.000Z</time>
                <name>Position 245</name>
            </trkpt>
            <trkpt lon="9.578872" lat="47.769853">
                <ele>449.20955008001016</ele>
                <time>2012-05-17T16:12:00.000Z</time>
                <name>Position 246</name>
            </trkpt>
            <trkpt lon="9.578795" lat="47.769694">
                <ele>449.33194239999307</ele>
                <time>2012-05-17T16:12:06.000Z</time>
                <name>Position 247</name>
            </trkpt>
            <trkpt lon="9.578701" lat="47.769652">
                <ele>449.0079097600002</ele>
                <time>2012-05-17T16:12:10.000Z</time>
                <name>Position 248</name>
            </trkpt>
            <trkpt lon="9.578493" lat="47.769585">
                <ele>448.2591664000025</ele>
                <time>2012-05-17T16:12:16.000Z</time>
                <name>Position 249</name>
            </trkpt>
            <trkpt lon="9.578311" lat="47.769481">
                <ele>447.98461792000467</ele>
                <time>2012-05-17T16:12:22.000Z</time>
                <name>Position 250</name>
            </trkpt>
            <trkpt lon="9.578166" lat="47.76938">
                <ele>448.3780096000076</ele>
                <time>2012-05-17T16:12:28.000Z</time>
                <name>Position 251</name>
            </trkpt>
            <trkpt lon="9.57801" lat="47.769347">
                <ele>448.41432639998766</ele>
                <time>2012-05-17T16:12:32.000Z</time>
                <name>Position 252</name>
            </trkpt>
            <trkpt lon="9.577846" lat="47.769452">
                <ele>447.94607103999584</ele>
                <time>2012-05-17T16:12:38.000Z</time>
                <name>Position 253</name>
            </trkpt>
            <trkpt lon="9.577629" lat="47.769555">
                <ele>447.5785264000086</ele>
                <time>2012-05-17T16:12:45.000Z</time>
                <name>Position 254</name>
            </trkpt>
            <trkpt lon="9.577427" lat="47.769623">
                <ele>447.5633209599917</ele>
                <time>2012-05-17T16:12:51.000Z</time>
                <name>Position 255</name>
            </trkpt>
            <trkpt lon="9.577186" lat="47.769683">
                <ele>447.8341388799989</ele>
                <time>2012-05-17T16:12:58.000Z</time>
                <name>Position 256</name>
            </trkpt>
            <trkpt lon="9.576974" lat="47.7697">
                <ele>448.1289279999987</ele>
                <time>2012-05-17T16:13:04.000Z</time>
                <name>Position 257</name>
            </trkpt>
            <trkpt lon="9.576772" lat="47.769621">
                <ele>448.99885311999475</ele>
                <time>2012-05-17T16:13:10.000Z</time>
                <name>Position 258</name>
            </trkpt>
            <trkpt lon="9.576658" lat="47.769508">
                <ele>450.1288614399861</ele>
                <time>2012-05-17T16:13:16.000Z</time>
                <name>Position 259</name>
            </trkpt>
            <trkpt lon="9.576556" lat="47.769389">
                <ele>452.1739206400281</ele>
                <time>2012-05-17T16:13:21.000Z</time>
                <name>Position 260</name>
            </trkpt>
            <trkpt lon="9.576425" lat="47.769317">
                <ele>454.4267559999865</ele>
                <time>2012-05-17T16:13:26.000Z</time>
                <name>Position 261</name>
            </trkpt>
            <trkpt lon="9.576311" lat="47.769352">
                <ele>455.4329171200213</ele>
                <time>2012-05-17T16:13:29.000Z</time>
                <name>Position 262</name>
            </trkpt>
            <trkpt lon="9.576173" lat="47.76942">
                <ele>456.1639936000384</ele>
                <time>2012-05-17T16:13:34.000Z</time>
                <name>Position 263</name>
            </trkpt>
            <trkpt lon="9.576046" lat="47.769487">
                <ele>456.55448992003255</ele>
                <time>2012-05-17T16:13:38.000Z</time>
                <name>Position 264</name>
            </trkpt>
            <trkpt lon="9.575897" lat="47.769532">
                <ele>457.30864384003877</ele>
                <time>2012-05-17T16:13:43.000Z</time>
                <name>Position 265</name>
            </trkpt>
            <trkpt lon="9.575759" lat="47.769576">
                <ele>457.9316601599917</ele>
                <time>2012-05-17T16:13:47.000Z</time>
                <name>Position 266</name>
            </trkpt>
            <trkpt lon="9.575656" lat="47.769616">
                <ele>458.3605670400102</ele>
                <time>2012-05-17T16:13:50.000Z</time>
                <name>Position 267</name>
            </trkpt>
            <trkpt lon="9.575564" lat="47.769642">
                <ele>458.94381312004236</ele>
                <time>2012-05-17T16:13:53.000Z</time>
                <name>Position 268</name>
            </trkpt>
            <trkpt lon="9.575443" lat="47.76967">
                <ele>459.85045440003535</ele>
                <time>2012-05-17T16:13:56.000Z</time>
                <name>Position 269</name>
            </trkpt>
            <trkpt lon="9.575336" lat="47.769672">
                <ele>461.0291980800013</ele>
                <time>2012-05-17T16:13:59.000Z</time>
                <name>Position 270</name>
            </trkpt>
            <trkpt lon="9.575237" lat="47.76966">
                <ele>462.3237407999797</ele>
                <time>2012-05-17T16:14:02.000Z</time>
                <name>Position 271</name>
            </trkpt>
            <trkpt lon="9.575116" lat="47.769663">
                <ele>463.6423699199879</ele>
                <time>2012-05-17T16:14:05.000Z</time>
                <name>Position 272</name>
            </trkpt>
            <trkpt lon="9.575022" lat="47.769671">
                <ele>464.59409087996164</ele>
                <time>2012-05-17T16:14:07.000Z</time>
                <name>Position 273</name>
            </trkpt>
            <trkpt lon="9.574928" lat="47.769666">
                <ele>466.04845055999243</ele>
                <time>2012-05-17T16:14:10.000Z</time>
                <name>Position 274</name>
            </trkpt>
            <trkpt lon="9.574818" lat="47.769661">
                <ele>467.8398585600004</ele>
                <time>2012-05-17T16:14:13.000Z</time>
                <name>Position 275</name>
            </trkpt>
            <trkpt lon="9.574748" lat="47.769648">
                <ele>469.0567948800375</ele>
                <time>2012-05-17T16:14:15.000Z</time>
                <name>Position 276</name>
            </trkpt>
            <trkpt lon="9.574649" lat="47.769624">
                <ele>470.7642547199856</ele>
                <time>2012-05-17T16:14:18.000Z</time>
                <name>Position 277</name>
            </trkpt>
            <trkpt lon="9.574515" lat="47.76961">
                <ele>472.8554880000018</ele>
                <time>2012-05-17T16:14:21.000Z</time>
                <name>Position 278</name>
            </trkpt>
            <trkpt lon="9.574419" lat="47.769605">
                <ele>474.2979263999953</ele>
                <time>2012-05-17T16:14:24.000Z</time>
                <name>Position 279</name>
            </trkpt>
            <trkpt lon="9.574305" lat="47.769587">
                <ele>476.0036351999885</ele>
                <time>2012-05-17T16:14:27.000Z</time>
                <name>Position 280</name>
            </trkpt>
            <trkpt lon="9.574186" lat="47.769603">
                <ele>477.7386297600095</ele>
                <time>2012-05-17T16:14:30.000Z</time>
                <name>Position 281</name>
            </trkpt>
            <trkpt lon="9.574035" lat="47.769602">
                <ele>478.10493919999846</ele>
                <time>2012-05-17T16:14:35.000Z</time>
                <name>Position 282</name>
            </trkpt>
            <trkpt lon="9.573923" lat="47.769597">
                <ele>478.1673953599956</ele>
                <time>2012-05-17T16:14:38.000Z</time>
                <name>Position 283</name>
            </trkpt>
            <trkpt lon="9.573811" lat="47.769598">
                <ele>478.23851168000397</ele>
                <time>2012-05-17T16:14:41.000Z</time>
                <name>Position 284</name>
            </trkpt>
            <trkpt lon="9.573725" lat="47.769591">
                <ele>478.27907599999725</ele>
                <time>2012-05-17T16:14:43.000Z</time>
                <name>Position 285</name>
            </trkpt>
            <trkpt lon="9.573563" lat="47.769597">
                <ele>478.39048015999464</ele>
                <time>2012-05-17T16:14:47.000Z</time>
                <name>Position 286</name>
            </trkpt>
            <trkpt lon="9.573434" lat="47.769633">
                <ele>478.5516003199971</ele>
                <time>2012-05-17T16:14:51.000Z</time>
                <name>Position 287</name>
            </trkpt>
            <trkpt lon="9.573326" lat="47.76966">
                <ele>478.67196160000384</ele>
                <time>2012-05-17T16:14:54.000Z</time>
                <name>Position 288</name>
            </trkpt>
            <trkpt lon="9.573199" lat="47.769656">
                <ele>478.4569734399973</ele>
                <time>2012-05-17T16:14:58.000Z</time>
                <name>Position 289</name>
            </trkpt>
            <trkpt lon="9.573074" lat="47.76967">
                <ele>478.2673407999982</ele>
                <time>2012-05-17T16:15:01.000Z</time>
                <name>Position 290</name>
            </trkpt>
            <trkpt lon="9.572927" lat="47.769688">
                <ele>478.01862976000007</ele>
                <time>2012-05-17T16:15:05.000Z</time>
                <name>Position 291</name>
            </trkpt>
            <trkpt lon="9.572809" lat="47.76971">
                <ele>477.79224639999677</ele>
                <time>2012-05-17T16:15:08.000Z</time>
                <name>Position 292</name>
            </trkpt>
            <trkpt lon="9.572684" lat="47.769753">
                <ele>477.4934195199994</ele>
                <time>2012-05-17T16:15:12.000Z</time>
                <name>Position 293</name>
            </trkpt>
            <trkpt lon="9.572548" lat="47.769815">
                <ele>477.0656511999958</ele>
                <time>2012-05-17T16:15:16.000Z</time>
                <name>Position 294</name>
            </trkpt>
            <trkpt lon="9.57243" lat="47.769902">
                <ele>476.49307839999767</ele>
                <time>2012-05-17T16:15:21.000Z</time>
                <name>Position 295</name>
            </trkpt>
            <trkpt lon="9.572301" lat="47.769978">
                <ele>475.84270431999335</ele>
                <time>2012-05-17T16:15:26.000Z</time>
                <name>Position 296</name>
            </trkpt>
            <trkpt lon="9.572196" lat="47.770046">
                <ele>475.2906956799982</ele>
                <time>2012-05-17T16:15:30.000Z</time>
                <name>Position 297</name>
            </trkpt>
            <trkpt lon="9.572091" lat="47.770113">
                <ele>474.88201983999824</ele>
                <time>2012-05-17T16:15:34.000Z</time>
                <name>Position 298</name>
            </trkpt>
            <trkpt lon="9.572018" lat="47.770192">
                <ele>474.6789068799992</ele>
                <time>2012-05-17T16:15:37.000Z</time>
                <name>Position 299</name>
            </trkpt>
            <trkpt lon="9.571968" lat="47.770268">
                <ele>474.6192755200002</ele>
                <time>2012-05-17T16:15:41.000Z</time>
                <name>Position 300</name>
            </trkpt>
            <trkpt lon="9.57196" lat="47.770359">
                <ele>474.6352671999994</ele>
                <time>2012-05-17T16:15:44.000Z</time>
                <name>Position 301</name>
            </trkpt>
            <trkpt lon="9.571914" lat="47.770454">
                <ele>474.7312268800013</ele>
                <time>2012-05-17T16:15:48.000Z</time>
                <name>Position 302</name>
            </trkpt>
            <trkpt lon="9.571897" lat="47.770577">
                <ele>474.87536512000315</ele>
                <time>2012-05-17T16:15:53.000Z</time>
                <name>Position 303</name>
            </trkpt>
            <trkpt lon="9.571853" lat="47.770691">
                <ele>475.17512703999535</ele>
                <time>2012-05-17T16:15:58.000Z</time>
                <name>Position 304</name>
            </trkpt>
            <trkpt lon="9.571833" lat="47.770801">
                <ele>475.4475558399988</ele>
                <time>2012-05-17T16:16:02.000Z</time>
                <name>Position 305</name>
            </trkpt>
            <trkpt lon="9.571816" lat="47.770919">
                <ele>475.306291200002</ele>
                <time>2012-05-17T16:16:07.000Z</time>
                <name>Position 306</name>
            </trkpt>
            <trkpt lon="9.571797" lat="47.771029">
                <ele>475.0647864000038</ele>
                <time>2012-05-17T16:16:12.000Z</time>
                <name>Position 307</name>
            </trkpt>
            <trkpt lon="9.571777" lat="47.771134">
                <ele>474.87755039998166</ele>
                <time>2012-05-17T16:16:16.000Z</time>
                <name>Position 308</name>
            </trkpt>
            <trkpt lon="9.571755" lat="47.771238">
                <ele>474.74143200001373</ele>
                <time>2012-05-17T16:16:20.000Z</time>
                <name>Position 309</name>
            </trkpt>
            <trkpt lon="9.571703" lat="47.771326">
                <ele>474.97071840000046</ele>
                <time>2012-05-17T16:16:24.000Z</time>
                <name>Position 310</name>
            </trkpt>
            <trkpt lon="9.571705" lat="47.771415">
                <ele>474.71346000000983</ele>
                <time>2012-05-17T16:16:27.000Z</time>
                <name>Position 311</name>
            </trkpt>
            <trkpt lon="9.571697" lat="47.771506">
                <ele>474.5566895999904</ele>
                <time>2012-05-17T16:16:31.000Z</time>
                <name>Position 312</name>
            </trkpt>
            <trkpt lon="9.571677" lat="47.771605">
                <ele>474.52858800000536</ele>
                <time>2012-05-17T16:16:35.000Z</time>
                <name>Position 313</name>
            </trkpt>
            <trkpt lon="9.571642" lat="47.77171">
                <ele>474.8183999999923</ele>
                <time>2012-05-17T16:16:39.000Z</time>
                <name>Position 314</name>
            </trkpt>
            <trkpt lon="9.571608" lat="47.771809">
                <ele>475.3044000000038</ele>
                <time>2012-05-17T16:16:43.000Z</time>
                <name>Position 315</name>
            </trkpt>
            <trkpt lon="9.571603" lat="47.771907">
                <ele>475.47600000000324</ele>
                <time>2012-05-17T16:16:47.000Z</time>
                <name>Position 316</name>
            </trkpt>
            <trkpt lon="9.571652" lat="47.772043">
                <ele>475.10999999999365</ele>
                <time>2012-05-17T16:16:53.000Z</time>
                <name>Position 317</name>
            </trkpt>
            <trkpt lon="9.571661" lat="47.772183">
                <ele>475.18079999999185</ele>
                <time>2012-05-17T16:16:59.000Z</time>
                <name>Position 318</name>
            </trkpt>
            <trkpt lon="9.571641" lat="47.7723">
                <ele>475.53720000000646</ele>
                <time>2012-05-17T16:17:03.000Z</time>
                <name>Position 319</name>
            </trkpt>
            <trkpt lon="9.571637" lat="47.772422">
                <ele>475.72679999999036</ele>
                <time>2012-05-17T16:17:08.000Z</time>
                <name>Position 320</name>
            </trkpt>
            <trkpt lon="9.57162" lat="47.772533">
                <ele>475.7245823999848</ele>
                <time>2012-05-17T16:17:13.000Z</time>
                <name>Position 321</name>
            </trkpt>
            <trkpt lon="9.571627" lat="47.772642">
                <ele>474.72748896002764</ele>
                <time>2012-05-17T16:17:17.000Z</time>
                <name>Position 322</name>
            </trkpt>
            <trkpt lon="9.571621" lat="47.772745">
                <ele>473.91908879999363</ele>
                <time>2012-05-17T16:17:21.000Z</time>
                <name>Position 323</name>
            </trkpt>
            <trkpt lon="9.571614" lat="47.772855">
                <ele>473.0598767999998</ele>
                <time>2012-05-17T16:17:25.000Z</time>
                <name>Position 324</name>
            </trkpt>
            <trkpt lon="9.571559" lat="47.772942">
                <ele>472.8814723199915</ele>
                <time>2012-05-17T16:17:29.000Z</time>
                <name>Position 325</name>
            </trkpt>
            <trkpt lon="9.571494" lat="47.77303">
                <ele>472.781020800019</ele>
                <time>2012-05-17T16:17:33.000Z</time>
                <name>Position 326</name>
            </trkpt>
            <trkpt lon="9.5714" lat="47.773114">
                <ele>472.986623999999</ele>
                <time>2012-05-17T16:17:37.000Z</time>
                <name>Position 327</name>
            </trkpt>
            <trkpt lon="9.571303" lat="47.773179">
                <ele>473.3684212800075</ele>
                <time>2012-05-17T16:17:41.000Z</time>
                <name>Position 328</name>
            </trkpt>
            <trkpt lon="9.571192" lat="47.773245">
                <ele>473.85917759997636</ele>
                <time>2012-05-17T16:17:45.000Z</time>
                <name>Position 329</name>
            </trkpt>
            <trkpt lon="9.571069" lat="47.773313">
                <ele>474.42589967998964</ele>
                <time>2012-05-17T16:17:49.000Z</time>
                <name>Position 330</name>
            </trkpt>
            <trkpt lon="9.570959" lat="47.773397">
                <ele>475.08744223999</ele>
                <time>2012-05-17T16:17:54.000Z</time>
                <name>Position 331</name>
            </trkpt>
            <trkpt lon="9.570828" lat="47.773479">
                <ele>475.9967251199918</ele>
                <time>2012-05-17T16:17:59.000Z</time>
                <name>Position 332</name>
            </trkpt>
            <trkpt lon="9.570708" lat="47.773553">
                <ele>476.1522182400027</ele>
                <time>2012-05-17T16:18:03.000Z</time>
                <name>Position 333</name>
            </trkpt>
            <trkpt lon="9.570524" lat="47.773652">
                <ele>476.269812480007</ele>
                <time>2012-05-17T16:18:09.000Z</time>
                <name>Position 334</name>
            </trkpt>
            <trkpt lon="9.570278" lat="47.773751">
                <ele>476.32600128001974</ele>
                <time>2012-05-17T16:18:17.000Z</time>
                <name>Position 335</name>
            </trkpt>
            <trkpt lon="9.569995" lat="47.773837">
                <ele>476.2715735999978</ele>
                <time>2012-05-17T16:18:25.000Z</time>
                <name>Position 336</name>
            </trkpt>
            <trkpt lon="9.569789" lat="47.773904">
                <ele>475.786208639986</ele>
                <time>2012-05-17T16:18:32.000Z</time>
                <name>Position 337</name>
            </trkpt>
            <trkpt lon="9.569621" lat="47.773949">
                <ele>475.44719375998505</ele>
                <time>2012-05-17T16:18:36.000Z</time>
                <name>Position 338</name>
            </trkpt>
            <trkpt lon="9.569476" lat="47.773986">
                <ele>475.15392383999426</ele>
                <time>2012-05-17T16:18:41.000Z</time>
                <name>Position 339</name>
            </trkpt>
            <trkpt lon="9.569327" lat="47.774009">
                <ele>474.97719792000566</ele>
                <time>2012-05-17T16:18:45.000Z</time>
                <name>Position 340</name>
            </trkpt>
            <trkpt lon="9.56916" lat="47.774036">
                <ele>474.76365439997784</ele>
                <time>2012-05-17T16:18:49.000Z</time>
                <name>Position 341</name>
            </trkpt>
            <trkpt lon="9.56898" lat="47.774059">
                <ele>474.7865407999897</ele>
                <time>2012-05-17T16:18:54.000Z</time>
                <name>Position 342</name>
            </trkpt>
            <trkpt lon="9.568809" lat="47.774061">
                <ele>474.99802255996855</ele>
                <time>2012-05-17T16:18:59.000Z</time>
                <name>Position 343</name>
            </trkpt>
            <trkpt lon="9.568623" lat="47.774058">
                <ele>475.28067296003576</ele>
                <time>2012-05-17T16:19:04.000Z</time>
                <name>Position 344</name>
            </trkpt>
            <trkpt lon="9.568445" lat="47.774053">
                <ele>475.57532239997795</ele>
                <time>2012-05-17T16:19:09.000Z</time>
                <name>Position 345</name>
            </trkpt>
            <trkpt lon="9.568292" lat="47.774027">
                <ele>476.2727481600387</ele>
                <time>2012-05-17T16:19:13.000Z</time>
                <name>Position 346</name>
            </trkpt>
            <trkpt lon="9.568129" lat="47.774002">
                <ele>477.5557939199676</ele>
                <time>2012-05-17T16:19:17.000Z</time>
                <name>Position 347</name>
            </trkpt>
            <trkpt lon="9.567965" lat="47.773966">
                <ele>478.893465599993</ele>
                <time>2012-05-17T16:19:22.000Z</time>
                <name>Position 348</name>
            </trkpt>
            <trkpt lon="9.567789" lat="47.773937">
                <ele>480.1795123200306</ele>
                <time>2012-05-17T16:19:27.000Z</time>
                <name>Position 349</name>
            </trkpt>
            <trkpt lon="9.567627" lat="47.773931">
                <ele>481.1719948800183</ele>
                <time>2012-05-17T16:19:31.000Z</time>
                <name>Position 350</name>
            </trkpt>
            <trkpt lon="9.567465" lat="47.773931">
                <ele>481.9504896000148</ele>
                <time>2012-05-17T16:19:36.000Z</time>
                <name>Position 351</name>
            </trkpt>
            <trkpt lon="9.567272" lat="47.773908">
                <ele>482.25949824000566</ele>
                <time>2012-05-17T16:19:41.000Z</time>
                <name>Position 352</name>
            </trkpt>
            <trkpt lon="9.567092" lat="47.773866">
                <ele>482.5766092800066</ele>
                <time>2012-05-17T16:19:46.000Z</time>
                <name>Position 353</name>
            </trkpt>
            <trkpt lon="9.566905" lat="47.773816">
                <ele>482.83019520000914</ele>
                <time>2012-05-17T16:19:51.000Z</time>
                <name>Position 354</name>
            </trkpt>
            <trkpt lon="9.56676" lat="47.773723">
                <ele>483.04691520000574</ele>
                <time>2012-05-17T16:19:57.000Z</time>
                <name>Position 355</name>
            </trkpt>
            <trkpt lon="9.566604" lat="47.773638">
                <ele>483.189386240002</ele>
                <time>2012-05-17T16:20:02.000Z</time>
                <name>Position 356</name>
            </trkpt>
            <trkpt lon="9.566444" lat="47.773568">
                <ele>483.36888704000114</ele>
                <time>2012-05-17T16:20:07.000Z</time>
                <name>Position 357</name>
            </trkpt>
            <trkpt lon="9.56631" lat="47.773502">
                <ele>483.4708544000001</ele>
                <time>2012-05-17T16:20:12.000Z</time>
                <name>Position 358</name>
            </trkpt>
            <trkpt lon="9.566163" lat="47.773437">
                <ele>483.5259747200005</ele>
                <time>2012-05-17T16:20:17.000Z</time>
                <name>Position 359</name>
            </trkpt>
            <trkpt lon="9.566014" lat="47.773377">
                <ele>483.52967936000243</ele>
                <time>2012-05-17T16:20:21.000Z</time>
                <name>Position 360</name>
            </trkpt>
            <trkpt lon="9.565878" lat="47.773316">
                <ele>483.68719999998757</ele>
                <time>2012-05-17T16:20:26.000Z</time>
                <name>Position 361</name>
            </trkpt>
            <trkpt lon="9.565755" lat="47.773285">
                <ele>484.2603839999897</ele>
                <time>2012-05-17T16:20:29.000Z</time>
                <name>Position 362</name>
            </trkpt>
            <trkpt lon="9.565608" lat="47.773244">
                <ele>485.04410496001697</ele>
                <time>2012-05-17T16:20:34.000Z</time>
                <name>Position 363</name>
            </trkpt>
            <trkpt lon="9.565472" lat="47.773195">
                <ele>485.7189791999932</ele>
                <time>2012-05-17T16:20:38.000Z</time>
                <name>Position 364</name>
            </trkpt>
            <trkpt lon="9.56534" lat="47.773166">
                <ele>486.13221119998195</ele>
                <time>2012-05-17T16:20:41.000Z</time>
                <name>Position 365</name>
            </trkpt>
            <trkpt lon="9.565206" lat="47.773124">
                <ele>486.5063731199905</ele>
                <time>2012-05-17T16:20:45.000Z</time>
                <name>Position 366</name>
            </trkpt>
            <trkpt lon="9.565059" lat="47.773089">
                <ele>486.74686848000266</ele>
                <time>2012-05-17T16:20:50.000Z</time>
                <name>Position 367</name>
            </trkpt>
            <trkpt lon="9.564947" lat="47.773025">
                <ele>486.8159400000026</ele>
                <time>2012-05-17T16:20:54.000Z</time>
                <name>Position 368</name>
            </trkpt>
            <trkpt lon="9.564824" lat="47.77297">
                <ele>486.6867839999997</ele>
                <time>2012-05-17T16:20:58.000Z</time>
                <name>Position 369</name>
            </trkpt>
            <trkpt lon="9.564677" lat="47.772917">
                <ele>486.41897519999884</ele>
                <time>2012-05-17T16:21:02.000Z</time>
                <name>Position 370</name>
            </trkpt>
            <trkpt lon="9.56453" lat="47.772858">
                <ele>486.0258719999974</ele>
                <time>2012-05-17T16:21:07.000Z</time>
                <name>Position 371</name>
            </trkpt>
            <trkpt lon="9.564394" lat="47.772791">
                <ele>485.51169119999355</ele>
                <time>2012-05-17T16:21:11.000Z</time>
                <name>Position 372</name>
            </trkpt>
            <trkpt lon="9.564262" lat="47.772737">
                <ele>484.93252319999493</ele>
                <time>2012-05-17T16:21:15.000Z</time>
                <name>Position 373</name>
            </trkpt>
            <trkpt lon="9.564126" lat="47.772682">
                <ele>484.3354579200151</ele>
                <time>2012-05-17T16:21:20.000Z</time>
                <name>Position 374</name>
            </trkpt>
            <trkpt lon="9.563976" lat="47.772623">
                <ele>483.8953708800148</ele>
                <time>2012-05-17T16:21:24.000Z</time>
                <name>Position 375</name>
            </trkpt>
            <trkpt lon="9.56384" lat="47.772562">
                <ele>483.43476480000385</ele>
                <time>2012-05-17T16:21:29.000Z</time>
                <name>Position 376</name>
            </trkpt>
            <trkpt lon="9.563693" lat="47.772503">
                <ele>482.9480462400025</ele>
                <time>2012-05-17T16:21:33.000Z</time>
                <name>Position 377</name>
            </trkpt>
            <trkpt lon="9.563559" lat="47.772443">
                <ele>483.44341823996916</ele>
                <time>2012-05-17T16:21:38.000Z</time>
                <name>Position 378</name>
            </trkpt>
            <trkpt lon="9.563447" lat="47.772343">
                <ele>484.69161792000943</ele>
                <time>2012-05-17T16:21:43.000Z</time>
                <name>Position 379</name>
            </trkpt>
            <trkpt lon="9.563449" lat="47.772208">
                <ele>486.45451584001165</ele>
                <time>2012-05-17T16:21:48.000Z</time>
                <name>Position 380</name>
            </trkpt>
            <trkpt lon="9.563462" lat="47.772054">
                <ele>488.41572096003995</ele>
                <time>2012-05-17T16:21:54.000Z</time>
                <name>Position 381</name>
            </trkpt>
            <trkpt lon="9.563464" lat="47.771913">
                <ele>490.22600064002995</ele>
                <time>2012-05-17T16:22:00.000Z</time>
                <name>Position 382</name>
            </trkpt>
            <trkpt lon="9.563442" lat="47.771762">
                <ele>492.3337420799664</ele>
                <time>2012-05-17T16:22:06.000Z</time>
                <name>Position 383</name>
            </trkpt>
            <trkpt lon="9.563404" lat="47.771613">
                <ele>493.4021222400176</ele>
                <time>2012-05-17T16:22:12.000Z</time>
                <name>Position 384</name>
            </trkpt>
            <trkpt lon="9.563316" lat="47.771468">
                <ele>492.6483110399863</ele>
                <time>2012-05-17T16:22:18.000Z</time>
                <name>Position 385</name>
            </trkpt>
            <trkpt lon="9.563237" lat="47.771279">
                <ele>491.27043983999374</ele>
                <time>2012-05-17T16:22:26.000Z</time>
                <name>Position 386</name>
            </trkpt>
            <trkpt lon="9.563154" lat="47.771052">
                <ele>489.92552063997346</ele>
                <time>2012-05-17T16:22:35.000Z</time>
                <name>Position 387</name>
            </trkpt>
            <trkpt lon="9.563157" lat="47.77077">
                <ele>487.6841471999875</ele>
                <time>2012-05-17T16:22:47.000Z</time>
                <name>Position 388</name>
            </trkpt>
            <trkpt lon="9.563113" lat="47.770512">
                <ele>485.871578879973</ele>
                <time>2012-05-17T16:22:57.000Z</time>
                <name>Position 389</name>
            </trkpt>
            <trkpt lon="9.563023" lat="47.770314">
                <ele>484.506562559993</ele>
                <time>2012-05-17T16:23:05.000Z</time>
                <name>Position 390</name>
            </trkpt>
            <trkpt lon="9.562933" lat="47.770181">
                <ele>483.42074304001085</ele>
                <time>2012-05-17T16:23:11.000Z</time>
                <name>Position 391</name>
            </trkpt>
            <trkpt lon="9.562814" lat="47.770056">
                <ele>482.1710323199611</ele>
                <time>2012-05-17T16:23:17.000Z</time>
                <name>Position 392</name>
            </trkpt>
            <trkpt lon="9.562726" lat="47.769923">
                <ele>481.0051055999911</ele>
                <time>2012-05-17T16:23:23.000Z</time>
                <name>Position 393</name>
            </trkpt>
            <trkpt lon="9.562614" lat="47.769799">
                <ele>480.3702191999945</ele>
                <time>2012-05-17T16:23:29.000Z</time>
                <name>Position 394</name>
            </trkpt>
            <trkpt lon="9.562511" lat="47.769667">
                <ele>479.87522639999025</ele>
                <time>2012-05-17T16:23:35.000Z</time>
                <name>Position 395</name>
            </trkpt>
            <trkpt lon="9.562407" lat="47.769541">
                <ele>479.5199999999833</ele>
                <time>2012-05-17T16:23:41.000Z</time>
                <name>Position 396</name>
            </trkpt>
            <trkpt lon="9.5623" lat="47.769408">
                <ele>479.1383999999918</ele>
                <time>2012-05-17T16:23:47.000Z</time>
                <name>Position 397</name>
            </trkpt>
            <trkpt lon="9.56219" lat="47.76928">
                <ele>478.78800000001104</ele>
                <time>2012-05-17T16:23:53.000Z</time>
                <name>Position 398</name>
            </trkpt>
            <trkpt lon="9.562104" lat="47.76915">
                <ele>478.371392000016</ele>
                <time>2012-05-17T16:23:58.000Z</time>
                <name>Position 399</name>
            </trkpt>
            <trkpt lon="9.561996" lat="47.769023">
                <ele>477.98386495998375</ele>
                <time>2012-05-17T16:24:04.000Z</time>
                <name>Position 400</name>
            </trkpt>
            <trkpt lon="9.561917" lat="47.768888">
                <ele>477.4281075199842</ele>
                <time>2012-05-17T16:24:10.000Z</time>
                <name>Position 401</name>
            </trkpt>
            <trkpt lon="9.561934" lat="47.768765">
                <ele>476.75765120000847</ele>
                <time>2012-05-17T16:24:15.000Z</time>
                <name>Position 402</name>
            </trkpt>
            <trkpt lon="9.562142" lat="47.768722">
                <ele>476.299930879985</ele>
                <time>2012-05-17T16:24:21.000Z</time>
                <name>Position 403</name>
            </trkpt>
            <trkpt lon="9.562399" lat="47.768709">
                <ele>475.9616739200051</ele>
                <time>2012-05-17T16:24:28.000Z</time>
                <name>Position 404</name>
            </trkpt>
            <trkpt lon="9.56264" lat="47.76869">
                <ele>475.04009599999756</ele>
                <time>2012-05-17T16:24:34.000Z</time>
                <name>Position 405</name>
            </trkpt>
            <trkpt lon="9.562892" lat="47.768669">
                <ele>473.6373228800094</ele>
                <time>2012-05-17T16:24:41.000Z</time>
                <name>Position 406</name>
            </trkpt>
            <trkpt lon="9.563188" lat="47.768641">
                <ele>472.00038848000463</ele>
                <time>2012-05-17T16:24:49.000Z</time>
                <name>Position 407</name>
            </trkpt>
            <trkpt lon="9.563537" lat="47.768613">
                <ele>470.6824000000042</ele>
                <time>2012-05-17T16:24:58.000Z</time>
                <name>Position 408</name>
            </trkpt>
            <trkpt lon="9.563881" lat="47.768573">
                <ele>469.7608000000075</ele>
                <time>2012-05-17T16:25:08.000Z</time>
                <name>Position 409</name>
            </trkpt>
            <trkpt lon="9.56423" lat="47.768552">
                <ele>468.9250879999989</ele>
                <time>2012-05-17T16:25:17.000Z</time>
                <name>Position 410</name>
            </trkpt>
            <trkpt lon="9.564579" lat="47.768531">
                <ele>468.3875671999982</ele>
                <time>2012-05-17T16:25:27.000Z</time>
                <name>Position 411</name>
            </trkpt>
            <trkpt lon="9.564912" lat="47.768492">
                <ele>468.02933119999494</ele>
                <time>2012-05-17T16:25:36.000Z</time>
                <name>Position 412</name>
            </trkpt>
            <trkpt lon="9.565236" lat="47.768399">
                <ele>468.8076838399925</ele>
                <time>2012-05-17T16:25:45.000Z</time>
                <name>Position 413</name>
            </trkpt>
            <trkpt lon="9.565497" lat="47.768293">
                <ele>469.7123342400013</ele>
                <time>2012-05-17T16:25:53.000Z</time>
                <name>Position 414</name>
            </trkpt>
            <trkpt lon="9.565789" lat="47.768257">
                <ele>470.3984731200012</ele>
                <time>2012-05-17T16:26:01.000Z</time>
                <name>Position 415</name>
            </trkpt>
            <trkpt lon="9.566065" lat="47.768222">
                <ele>471.1482960000023</ele>
                <time>2012-05-17T16:26:09.000Z</time>
                <name>Position 416</name>
            </trkpt>
            <trkpt lon="9.566341" lat="47.768181">
                <ele>471.7707911999927</ele>
                <time>2012-05-17T16:26:17.000Z</time>
                <name>Position 417</name>
            </trkpt>
            <trkpt lon="9.566582" lat="47.768103">
                <ele>471.95361120001917</ele>
                <time>2012-05-17T16:26:24.000Z</time>
                <name>Position 418</name>
            </trkpt>
            <trkpt lon="9.566841" lat="47.768025">
                <ele>470.9219840000094</ele>
                <time>2012-05-17T16:26:31.000Z</time>
                <name>Position 419</name>
            </trkpt>
            <trkpt lon="9.567132" lat="47.767953">
                <ele>469.08178495998277</ele>
                <time>2012-05-17T16:26:40.000Z</time>
                <name>Position 420</name>
            </trkpt>
            <trkpt lon="9.567509" lat="47.767854">
                <ele>466.25706080000185</ele>
                <time>2012-05-17T16:26:51.000Z</time>
                <name>Position 421</name>
            </trkpt>
            <trkpt lon="9.567895" lat="47.767734">
                <ele>462.46570399997734</ele>
                <time>2012-05-17T16:27:02.000Z</time>
                <name>Position 422</name>
            </trkpt>
            <trkpt lon="9.568294" lat="47.767613">
                <ele>459.2632015999863</ele>
                <time>2012-05-17T16:27:14.000Z</time>
                <name>Position 423</name>
            </trkpt>
            <trkpt lon="9.568691" lat="47.767491">
                <ele>457.1877414400013</ele>
                <time>2012-05-17T16:27:26.000Z</time>
                <name>Position 424</name>
            </trkpt>
            <trkpt lon="9.569043" lat="47.767366">
                <ele>455.8497491200001</ele>
                <time>2012-05-17T16:27:36.000Z</time>
                <name>Position 425</name>
            </trkpt>
            <trkpt lon="9.569328" lat="47.767215">
                <ele>456.21322240000194</ele>
                <time>2012-05-17T16:27:46.000Z</time>
                <name>Position 426</name>
            </trkpt>
            <trkpt lon="9.569455" lat="47.767013">
                <ele>456.942404799999</ele>
                <time>2012-05-17T16:27:55.000Z</time>
                <name>Position 427</name>
            </trkpt>
            <trkpt lon="9.569384" lat="47.7668">
                <ele>456.7205439999945</ele>
                <time>2012-05-17T16:28:04.000Z</time>
                <name>Position 428</name>
            </trkpt>
            <trkpt lon="9.569292" lat="47.766601">
                <ele>456.14949696000656</ele>
                <time>2012-05-17T16:28:12.000Z</time>
                <name>Position 429</name>
            </trkpt>
            <trkpt lon="9.569202" lat="47.766416">
                <ele>455.3856921600026</ele>
                <time>2012-05-17T16:28:20.000Z</time>
                <name>Position 430</name>
            </trkpt>
            <trkpt lon="9.569124" lat="47.766229">
                <ele>454.97738048000286</ele>
                <time>2012-05-17T16:28:28.000Z</time>
                <name>Position 431</name>
            </trkpt>
            <trkpt lon="9.569052" lat="47.766055">
                <ele>454.8303968000017</ele>
                <time>2012-05-17T16:28:35.000Z</time>
                <name>Position 432</name>
            </trkpt>
            <trkpt lon="9.568979" lat="47.765863">
                <ele>454.74476576000137</ele>
                <time>2012-05-17T16:28:43.000Z</time>
                <name>Position 433</name>
            </trkpt>
            <trkpt lon="9.568893" lat="47.765684">
                <ele>455.84740287999864</ele>
                <time>2012-05-17T16:28:50.000Z</time>
                <name>Position 434</name>
            </trkpt>
            <trkpt lon="9.568783" lat="47.765508">
                <ele>456.9742393600187</ele>
                <time>2012-05-17T16:28:58.000Z</time>
                <name>Position 435</name>
            </trkpt>
            <trkpt lon="9.568634" lat="47.765354">
                <ele>457.694928639988</ele>
                <time>2012-05-17T16:29:05.000Z</time>
                <name>Position 436</name>
            </trkpt>
            <trkpt lon="9.568471" lat="47.765182">
                <ele>458.1960812799888</ele>
                <time>2012-05-17T16:29:13.000Z</time>
                <name>Position 437</name>
            </trkpt>
            <trkpt lon="9.56832" lat="47.765009">
                <ele>458.3882912000026</ele>
                <time>2012-05-17T16:29:21.000Z</time>
                <name>Position 438</name>
            </trkpt>
            <trkpt lon="9.568166" lat="47.764829">
                <ele>458.8903750400071</ele>
                <time>2012-05-17T16:29:30.000Z</time>
                <name>Position 439</name>
            </trkpt>
            <trkpt lon="9.56808" lat="47.764651">
                <ele>459.5665087999965</ele>
                <time>2012-05-17T16:29:37.000Z</time>
                <name>Position 440</name>
            </trkpt>
            <trkpt lon="9.56809" lat="47.764477">
                <ele>460.96124480000185</ele>
                <time>2012-05-17T16:29:44.000Z</time>
                <name>Position 441</name>
            </trkpt>
            <trkpt lon="9.568211" lat="47.764308">
                <ele>463.6777836799995</ele>
                <time>2012-05-17T16:29:52.000Z</time>
                <name>Position 442</name>
            </trkpt>
            <trkpt lon="9.568351" lat="47.764188">
                <ele>466.2761708800267</ele>
                <time>2012-05-17T16:29:58.000Z</time>
                <name>Position 443</name>
            </trkpt>
            <trkpt lon="9.568377" lat="47.764032">
                <ele>467.4002643199989</ele>
                <time>2012-05-17T16:30:04.000Z</time>
                <name>Position 444</name>
            </trkpt>
            <trkpt lon="9.568315" lat="47.763857">
                <ele>468.5284759999905</ele>
                <time>2012-05-17T16:30:11.000Z</time>
                <name>Position 445</name>
            </trkpt>
            <trkpt lon="9.568203" lat="47.763723">
                <ele>468.39033680001484</ele>
                <time>2012-05-17T16:30:17.000Z</time>
                <name>Position 446</name>
            </trkpt>
            <trkpt lon="9.568156" lat="47.763589">
                <ele>469.0559647999747</ele>
                <time>2012-05-17T16:30:23.000Z</time>
                <name>Position 447</name>
            </trkpt>
            <trkpt lon="9.568178" lat="47.763414">
                <ele>470.71058240001963</ele>
                <time>2012-05-17T16:30:30.000Z</time>
                <name>Position 448</name>
            </trkpt>
            <trkpt lon="9.568228" lat="47.763268">
                <ele>471.751509759997</ele>
                <time>2012-05-17T16:30:36.000Z</time>
                <name>Position 449</name>
            </trkpt>
            <trkpt lon="9.568302" lat="47.763107">
                <ele>472.28461215999454</ele>
                <time>2012-05-17T16:30:43.000Z</time>
                <name>Position 450</name>
            </trkpt>
            <trkpt lon="9.568405" lat="47.762938">
                <ele>472.2827983999994</ele>
                <time>2012-05-17T16:30:50.000Z</time>
                <name>Position 451</name>
            </trkpt>
            <trkpt lon="9.568459" lat="47.762764">
                <ele>472.1506265599986</ele>
                <time>2012-05-17T16:30:57.000Z</time>
                <name>Position 452</name>
            </trkpt>
            <trkpt lon="9.568518" lat="47.762585">
                <ele>472.0341968000017</ele>
                <time>2012-05-17T16:31:05.000Z</time>
                <name>Position 453</name>
            </trkpt>
            <trkpt lon="9.568548" lat="47.76239">
                <ele>471.5207936000149</ele>
                <time>2012-05-17T16:31:12.000Z</time>
                <name>Position 454</name>
            </trkpt>
            <trkpt lon="9.568577" lat="47.762224">
                <ele>470.72791424001605</ele>
                <time>2012-05-17T16:31:19.000Z</time>
                <name>Position 455</name>
            </trkpt>
            <trkpt lon="9.568594" lat="47.762073">
                <ele>470.0166425600068</ele>
                <time>2012-05-17T16:31:25.000Z</time>
                <name>Position 456</name>
            </trkpt>
            <trkpt lon="9.568633" lat="47.76194">
                <ele>469.2814976000114</ele>
                <time>2012-05-17T16:31:31.000Z</time>
                <name>Position 457</name>
            </trkpt>
            <trkpt lon="9.568641" lat="47.761802">
                <ele>468.6303161600154</ele>
                <time>2012-05-17T16:31:36.000Z</time>
                <name>Position 458</name>
            </trkpt>
            <trkpt lon="9.568705" lat="47.761643">
                <ele>467.5678655999982</ele>
                <time>2012-05-17T16:31:43.000Z</time>
                <name>Position 459</name>
            </trkpt>
            <trkpt lon="9.568774" lat="47.761509">
                <ele>466.4605958399825</ele>
                <time>2012-05-17T16:31:48.000Z</time>
                <name>Position 460</name>
            </trkpt>
            <trkpt lon="9.568886" lat="47.76135">
                <ele>465.1952640000036</ele>
                <time>2012-05-17T16:31:55.000Z</time>
                <name>Position 461</name>
            </trkpt>
            <trkpt lon="9.569026" lat="47.761177">
                <ele>464.01565248001725</ele>
                <time>2012-05-17T16:32:03.000Z</time>
                <name>Position 462</name>
            </trkpt>
            <trkpt lon="9.569124" lat="47.761013">
                <ele>463.1909548799933</ele>
                <time>2012-05-17T16:32:10.000Z</time>
                <name>Position 463</name>
            </trkpt>
            <trkpt lon="9.569166" lat="47.760915">
                <ele>462.7943135999899</ele>
                <time>2012-05-17T16:32:14.000Z</time>
                <name>Position 464</name>
            </trkpt>
            <trkpt lon="9.569121" lat="47.760793">
                <ele>462.3627569599985</ele>
                <time>2012-05-17T16:32:19.000Z</time>
                <name>Position 465</name>
            </trkpt>
            <trkpt lon="9.569049" lat="47.760661">
                <ele>461.96720047999685</ele>
                <time>2012-05-17T16:32:25.000Z</time>
                <name>Position 466</name>
            </trkpt>
            <trkpt lon="9.568945" lat="47.760523">
                <ele>461.67997519999864</ele>
                <time>2012-05-17T16:32:31.000Z</time>
                <name>Position 467</name>
            </trkpt>
            <trkpt lon="9.568849" lat="47.760382">
                <ele>461.49457375999947</ele>
                <time>2012-05-17T16:32:38.000Z</time>
                <name>Position 468</name>
            </trkpt>
            <trkpt lon="9.568748" lat="47.760263">
                <ele>461.478327680005</ele>
                <time>2012-05-17T16:32:43.000Z</time>
                <name>Position 469</name>
            </trkpt>
            <trkpt lon="9.568607" lat="47.760171">
                <ele>461.7169630399995</ele>
                <time>2012-05-17T16:32:48.000Z</time>
                <name>Position 470</name>
            </trkpt>
            <trkpt lon="9.568471" lat="47.760098">
                <ele>462.06268255999765</ele>
                <time>2012-05-17T16:32:53.000Z</time>
                <name>Position 471</name>
            </trkpt>
            <trkpt lon="9.568357" lat="47.760032">
                <ele>462.41807167999804</ele>
                <time>2012-05-17T16:32:57.000Z</time>
                <name>Position 472</name>
            </trkpt>
            <trkpt lon="9.568243" lat="47.759985">
                <ele>462.7711999999984</ele>
                <time>2012-05-17T16:33:01.000Z</time>
                <name>Position 473</name>
            </trkpt>
            <trkpt lon="9.568124" lat="47.759946">
                <ele>463.05920000000026</ele>
                <time>2012-05-17T16:33:04.000Z</time>
                <name>Position 474</name>
            </trkpt>
            <trkpt lon="9.568013" lat="47.759905">
                <ele>463.3112000000099</ele>
                <time>2012-05-17T16:33:08.000Z</time>
                <name>Position 475</name>
            </trkpt>
            <trkpt lon="9.567828" lat="47.759844">
                <ele>463.75760000000196</ele>
                <time>2012-05-17T16:33:13.000Z</time>
                <name>Position 476</name>
            </trkpt>
            <trkpt lon="9.567668" lat="47.759804">
                <ele>464.1896000000112</ele>
                <time>2012-05-17T16:33:18.000Z</time>
                <name>Position 477</name>
            </trkpt>
            <trkpt lon="9.567536" lat="47.759769">
                <ele>464.5387999999928</ele>
                <time>2012-05-17T16:33:22.000Z</time>
                <name>Position 478</name>
            </trkpt>
            <trkpt lon="9.5674" lat="47.75972">
                <ele>464.53136000000575</ele>
                <time>2012-05-17T16:33:26.000Z</time>
                <name>Position 479</name>
            </trkpt>
            <trkpt lon="9.567242" lat="47.759687">
                <ele>464.4502284799976</ele>
                <time>2012-05-17T16:33:30.000Z</time>
                <name>Position 480</name>
            </trkpt>
            <trkpt lon="9.567045" lat="47.759639">
                <ele>464.27334559999923</ele>
                <time>2012-05-17T16:33:36.000Z</time>
                <name>Position 481</name>
            </trkpt>
            <trkpt lon="9.566926" lat="47.759596">
                <ele>464.0665395200096</ele>
                <time>2012-05-17T16:33:39.000Z</time>
                <name>Position 482</name>
            </trkpt>
            <trkpt lon="9.566819" lat="47.759546">
                <ele>463.792378880001</ele>
                <time>2012-05-17T16:33:43.000Z</time>
                <name>Position 483</name>
            </trkpt>
            <trkpt lon="9.566643" lat="47.759506">
                <ele>463.59807104001254</ele>
                <time>2012-05-17T16:33:48.000Z</time>
                <name>Position 484</name>
            </trkpt>
            <trkpt lon="9.566494" lat="47.759453">
                <ele>463.6972121600016</ele>
                <time>2012-05-17T16:33:52.000Z</time>
                <name>Position 485</name>
            </trkpt>
            <trkpt lon="9.566231" lat="47.759346">
                <ele>463.91938688000283</ele>
                <time>2012-05-17T16:34:01.000Z</time>
                <name>Position 486</name>
            </trkpt>
            <trkpt lon="9.566077" lat="47.759243">
                <ele>463.951167679991</ele>
                <time>2012-05-17T16:34:07.000Z</time>
                <name>Position 487</name>
            </trkpt>
            <trkpt lon="9.565926" lat="47.759128">
                <ele>464.104520959998</ele>
                <time>2012-05-17T16:34:13.000Z</time>
                <name>Position 488</name>
            </trkpt>
            <trkpt lon="9.565807" lat="47.758948">
                <ele>464.4339244799996</ele>
                <time>2012-05-17T16:34:21.000Z</time>
                <name>Position 489</name>
            </trkpt>
            <trkpt lon="9.565796" lat="47.758726">
                <ele>464.2137292800001</ele>
                <time>2012-05-17T16:34:29.000Z</time>
                <name>Position 490</name>
            </trkpt>
            <trkpt lon="9.565885" lat="47.758475">
                <ele>463.32961999999793</ele>
                <time>2012-05-17T16:34:40.000Z</time>
                <name>Position 491</name>
            </trkpt>
            <trkpt lon="9.566069" lat="47.758217">
                <ele>461.3420732800041</ele>
                <time>2012-05-17T16:34:51.000Z</time>
                <name>Position 492</name>
            </trkpt>
            <trkpt lon="9.566195" lat="47.757969">
                <ele>459.8484688000063</ele>
                <time>2012-05-17T16:35:02.000Z</time>
                <name>Position 493</name>
            </trkpt>
            <trkpt lon="9.566204" lat="47.757742">
                <ele>459.17698047999926</ele>
                <time>2012-05-17T16:35:11.000Z</time>
                <name>Position 494</name>
            </trkpt>
            <trkpt lon="9.566168" lat="47.757506">
                <ele>458.5186508799978</ele>
                <time>2012-05-17T16:35:20.000Z</time>
                <name>Position 495</name>
            </trkpt>
            <trkpt lon="9.566108" lat="47.757291">
                <ele>458.91893631999585</ele>
                <time>2012-05-17T16:35:29.000Z</time>
                <name>Position 496</name>
            </trkpt>
            <trkpt lon="9.56613" lat="47.757069">
                <ele>459.3502767999979</ele>
                <time>2012-05-17T16:35:38.000Z</time>
                <name>Position 497</name>
            </trkpt>
            <trkpt lon="9.56614" lat="47.756879">
                <ele>459.71616640000366</ele>
                <time>2012-05-17T16:35:46.000Z</time>
                <name>Position 498</name>
            </trkpt>
            <trkpt lon="9.566105" lat="47.756738">
                <ele>460.0307056000027</ele>
                <time>2012-05-17T16:35:51.000Z</time>
                <name>Position 499</name>
            </trkpt>
            <trkpt lon="9.566058" lat="47.756639">
                <ele>460.3363478400009</ele>
                <time>2012-05-17T16:35:56.000Z</time>
                <name>Position 500</name>
            </trkpt>
            <trkpt lon="9.565966" lat="47.756564">
                <ele>460.7747596800122</ele>
                <time>2012-05-17T16:35:59.000Z</time>
                <name>Position 501</name>
            </trkpt>
            <trkpt lon="9.565927" lat="47.756509">
                <ele>461.0806017599944</ele>
                <time>2012-05-17T16:36:02.000Z</time>
                <name>Position 502</name>
            </trkpt>
            <trkpt lon="9.565859" lat="47.756447">
                <ele>461.4992433599943</ele>
                <time>2012-05-17T16:36:05.000Z</time>
                <name>Position 503</name>
            </trkpt>
            <trkpt lon="9.56585" lat="47.756348">
                <ele>461.9866559999894</ele>
                <time>2012-05-17T16:36:09.000Z</time>
                <name>Position 504</name>
            </trkpt>
            <trkpt lon="9.565847" lat="47.756229">
                <ele>462.55856016001246</ele>
                <time>2012-05-17T16:36:14.000Z</time>
                <name>Position 505</name>
            </trkpt>
            <trkpt lon="9.565882" lat="47.756047">
                <ele>463.28572127998876</ele>
                <time>2012-05-17T16:36:21.000Z</time>
                <name>Position 506</name>
            </trkpt>
            <trkpt lon="9.565844" lat="47.755838">
                <ele>464.426615040013</ele>
                <time>2012-05-17T16:36:29.000Z</time>
                <name>Position 507</name>
            </trkpt>
            <trkpt lon="9.565693" lat="47.755641">
                <ele>464.48119999999204</ele>
                <time>2012-05-17T16:36:38.000Z</time>
                <name>Position 508</name>
            </trkpt>
            <trkpt lon="9.565511" lat="47.755497">
                <ele>464.83639999999053</ele>
                <time>2012-05-17T16:36:46.000Z</time>
                <name>Position 509</name>
            </trkpt>
            <trkpt lon="9.565357" lat="47.755312">
                <ele>464.90960000001036</ele>
                <time>2012-05-17T16:36:54.000Z</time>
                <name>Position 510</name>
            </trkpt>
            <trkpt lon="9.565245" lat="47.755165">
                <ele>464.91799999998915</ele>
                <time>2012-05-17T16:37:01.000Z</time>
                <name>Position 511</name>
            </trkpt>
            <trkpt lon="9.565087" lat="47.755078">
                <ele>465.3631999999906</ele>
                <time>2012-05-17T16:37:06.000Z</time>
                <name>Position 512</name>
            </trkpt>
            <trkpt lon="9.564981" lat="47.754957">
                <ele>465.1663059199787</ele>
                <time>2012-05-17T16:37:12.000Z</time>
                <name>Position 513</name>
            </trkpt>
            <trkpt lon="9.564904" lat="47.754823">
                <ele>464.2262739200128</ele>
                <time>2012-05-17T16:37:18.000Z</time>
                <name>Position 514</name>
            </trkpt>
            <trkpt lon="9.564845" lat="47.754688">
                <ele>463.34375360001115</ele>
                <time>2012-05-17T16:37:23.000Z</time>
                <name>Position 515</name>
            </trkpt>
            <trkpt lon="9.564781" lat="47.754541">
                <ele>462.48620096002264</ele>
                <time>2012-05-17T16:37:30.000Z</time>
                <name>Position 516</name>
            </trkpt>
            <trkpt lon="9.564733" lat="47.754393">
                <ele>461.6551174399999</ele>
                <time>2012-05-17T16:37:36.000Z</time>
                <name>Position 517</name>
            </trkpt>
            <trkpt lon="9.564653" lat="47.754276">
                <ele>461.281873279983</ele>
                <time>2012-05-17T16:37:41.000Z</time>
                <name>Position 518</name>
            </trkpt>
            <trkpt lon="9.564583" lat="47.754115">
                <ele>460.75399999998956</ele>
                <time>2012-05-17T16:37:48.000Z</time>
                <name>Position 519</name>
            </trkpt>
            <trkpt lon="9.564559" lat="47.75397">
                <ele>460.2020000000169</ele>
                <time>2012-05-17T16:37:53.000Z</time>
                <name>Position 520</name>
            </trkpt>
            <trkpt lon="9.564552" lat="47.753785">
                <ele>459.3559999999978</ele>
                <time>2012-05-17T16:38:01.000Z</time>
                <name>Position 521</name>
            </trkpt>
            <trkpt lon="9.564538" lat="47.753651">
                <ele>458.7967999999857</ele>
                <time>2012-05-17T16:38:06.000Z</time>
                <name>Position 522</name>
            </trkpt>
            <trkpt lon="9.564488" lat="47.753508">
                <ele>458.41039999997855</ele>
                <time>2012-05-17T16:38:12.000Z</time>
                <name>Position 523</name>
            </trkpt>
            <trkpt lon="9.564446" lat="47.753339">
                <ele>457.85119999998346</ele>
                <time>2012-05-17T16:38:19.000Z</time>
                <name>Position 524</name>
            </trkpt>
            <trkpt lon="9.564395" lat="47.753191">
                <ele>456.65599600001394</ele>
                <time>2012-05-17T16:38:25.000Z</time>
                <name>Position 525</name>
            </trkpt>
            <trkpt lon="9.564366" lat="47.753009">
                <ele>454.87748319998695</ele>
                <time>2012-05-17T16:38:32.000Z</time>
                <name>Position 526</name>
            </trkpt>
            <trkpt lon="9.564326" lat="47.752864">
                <ele>453.4504192000272</ele>
                <time>2012-05-17T16:38:38.000Z</time>
                <name>Position 527</name>
            </trkpt>
            <trkpt lon="9.564282" lat="47.752778">
                <ele>452.6051487999906</ele>
                <time>2012-05-17T16:38:42.000Z</time>
                <name>Position 528</name>
            </trkpt>
            <trkpt lon="9.564282" lat="47.752701">
                <ele>451.7450896000194</ele>
                <time>2012-05-17T16:38:45.000Z</time>
                <name>Position 529</name>
            </trkpt>
            <trkpt lon="9.564264" lat="47.752576">
                <ele>450.35873919997346</ele>
                <time>2012-05-17T16:38:50.000Z</time>
                <name>Position 530</name>
            </trkpt>
            <trkpt lon="9.564282" lat="47.752428">
                <ele>449.07995776001076</ele>
                <time>2012-05-17T16:38:56.000Z</time>
                <name>Position 531</name>
            </trkpt>
            <trkpt lon="9.564264" lat="47.752364">
                <ele>448.7030617599999</ele>
                <time>2012-05-17T16:38:58.000Z</time>
                <name>Position 532</name>
            </trkpt>
            <trkpt lon="9.564213" lat="47.752239">
                <ele>447.95141392001767</ele>
                <time>2012-05-17T16:39:04.000Z</time>
                <name>Position 533</name>
            </trkpt>
            <trkpt lon="9.56409" lat="47.75207">
                <ele>446.92294400001913</ele>
                <time>2012-05-17T16:39:11.000Z</time>
                <name>Position 534</name>
            </trkpt>
            <trkpt lon="9.563987" lat="47.751926">
                <ele>446.1374105599861</ele>
                <time>2012-05-17T16:39:18.000Z</time>
                <name>Position 535</name>
            </trkpt>
            <trkpt lon="9.563875" lat="47.751762">
                <ele>445.3419199999971</ele>
                <time>2012-05-17T16:39:25.000Z</time>
                <name>Position 536</name>
            </trkpt>
            <trkpt lon="9.563666" lat="47.751657">
                <ele>445.1472463999931</ele>
                <time>2012-05-17T16:39:32.000Z</time>
                <name>Position 537</name>
            </trkpt>
            <trkpt lon="9.563394" lat="47.751582">
                <ele>445.9998176000052</ele>
                <time>2012-05-17T16:39:40.000Z</time>
                <name>Position 538</name>
            </trkpt>
            <trkpt lon="9.56319" lat="47.751425">
                <ele>447.8557600000164</ele>
                <time>2012-05-17T16:39:48.000Z</time>
                <name>Position 539</name>
            </trkpt>
            <trkpt lon="9.563111" lat="47.751226">
                <ele>449.7553676799833</ele>
                <time>2012-05-17T16:39:56.000Z</time>
                <name>Position 540</name>
            </trkpt>
            <trkpt lon="9.563163" lat="47.751062">
                <ele>450.76342528002283</ele>
                <time>2012-05-17T16:40:03.000Z</time>
                <name>Position 541</name>
            </trkpt>
            <trkpt lon="9.563235" lat="47.7509">
                <ele>451.5911199999858</ele>
                <time>2012-05-17T16:40:10.000Z</time>
                <name>Position 542</name>
            </trkpt>
            <trkpt lon="9.563274" lat="47.750761">
                <ele>451.92425952000366</ele>
                <time>2012-05-17T16:40:16.000Z</time>
                <name>Position 543</name>
            </trkpt>
            <trkpt lon="9.563276" lat="47.750645">
                <ele>452.0233536000007</ele>
                <time>2012-05-17T16:40:20.000Z</time>
                <name>Position 544</name>
            </trkpt>
            <trkpt lon="9.563208" lat="47.750514">
                <ele>452.46230016000067</ele>
                <time>2012-05-17T16:40:26.000Z</time>
                <name>Position 545</name>
            </trkpt>
            <trkpt lon="9.563089" lat="47.750383">
                <ele>453.0310641600012</ele>
                <time>2012-05-17T16:40:32.000Z</time>
                <name>Position 546</name>
            </trkpt>
            <trkpt lon="9.562949" lat="47.750267">
                <ele>453.54530544000147</ele>
                <time>2012-05-17T16:40:38.000Z</time>
                <name>Position 547</name>
            </trkpt>
            <trkpt lon="9.56285" lat="47.750166">
                <ele>453.8074080000026</ele>
                <time>2012-05-17T16:40:43.000Z</time>
                <name>Position 548</name>
            </trkpt>
            <trkpt lon="9.56267" lat="47.750071">
                <ele>454.2102575999955</ele>
                <time>2012-05-17T16:40:49.000Z</time>
                <name>Position 549</name>
            </trkpt>
            <trkpt lon="9.562538" lat="47.749959">
                <ele>454.4132870400004</ele>
                <time>2012-05-17T16:40:55.000Z</time>
                <name>Position 550</name>
            </trkpt>
            <trkpt lon="9.562385" lat="47.749868">
                <ele>455.0807039999952</ele>
                <time>2012-05-17T16:41:00.000Z</time>
                <name>Position 551</name>
            </trkpt>
            <trkpt lon="9.562244" lat="47.749822">
                <ele>455.7079104000042</ele>
                <time>2012-05-17T16:41:04.000Z</time>
                <name>Position 552</name>
            </trkpt>
            <trkpt lon="9.562086" lat="47.749759">
                <ele>456.26562719998867</ele>
                <time>2012-05-17T16:41:09.000Z</time>
                <name>Position 553</name>
            </trkpt>
            <trkpt lon="9.561935" lat="47.749703">
                <ele>456.68180399998573</ele>
                <time>2012-05-17T16:41:14.000Z</time>
                <name>Position 554</name>
            </trkpt>
            <trkpt lon="9.56174" lat="47.749591">
                <ele>456.82195200001115</ele>
                <time>2012-05-17T16:41:21.000Z</time>
                <name>Position 555</name>
            </trkpt>
            <trkpt lon="9.561597" lat="47.749474">
                <ele>456.7839366399909</ele>
                <time>2012-05-17T16:41:27.000Z</time>
                <name>Position 556</name>
            </trkpt>
            <trkpt lon="9.561489" lat="47.749341">
                <ele>456.7359971200069</ele>
                <time>2012-05-17T16:41:33.000Z</time>
                <name>Position 557</name>
            </trkpt>
            <trkpt lon="9.561373" lat="47.749234">
                <ele>456.9614521600089</ele>
                <time>2012-05-17T16:41:38.000Z</time>
                <name>Position 558</name>
            </trkpt>
            <trkpt lon="9.561309" lat="47.749105">
                <ele>456.74743920000356</ele>
                <time>2012-05-17T16:41:44.000Z</time>
                <name>Position 559</name>
            </trkpt>
            <trkpt lon="9.56125" lat="47.748995">
                <ele>456.57300000000856</ele>
                <time>2012-05-17T16:41:48.000Z</time>
                <name>Position 560</name>
            </trkpt>
            <trkpt lon="9.561175" lat="47.748867">
                <ele>456.38943599998106</ele>
                <time>2012-05-17T16:41:54.000Z</time>
                <name>Position 561</name>
            </trkpt>
            <trkpt lon="9.561094" lat="47.748744">
                <ele>456.2458521600075</ele>
                <time>2012-05-17T16:41:59.000Z</time>
                <name>Position 562</name>
            </trkpt>
            <trkpt lon="9.560997" lat="47.748643">
                <ele>456.30301776000476</ele>
                <time>2012-05-17T16:42:04.000Z</time>
                <name>Position 563</name>
            </trkpt>
            <trkpt lon="9.560861" lat="47.74854">
                <ele>456.5657663999959</ele>
                <time>2012-05-17T16:42:10.000Z</time>
                <name>Position 564</name>
            </trkpt>
            <trkpt lon="9.560745" lat="47.748391">
                <ele>456.3613295999844</ele>
                <time>2012-05-17T16:42:16.000Z</time>
                <name>Position 565</name>
            </trkpt>
            <trkpt lon="9.560639" lat="47.748265">
                <ele>455.7393672000465</ele>
                <time>2012-05-17T16:42:22.000Z</time>
                <name>Position 566</name>
            </trkpt>
            <trkpt lon="9.560558" lat="47.748147">
                <ele>454.6904323200371</ele>
                <time>2012-05-17T16:42:27.000Z</time>
                <name>Position 567</name>
            </trkpt>
            <trkpt lon="9.560454" lat="47.74804">
                <ele>454.0326912000398</ele>
                <time>2012-05-17T16:42:32.000Z</time>
                <name>Position 568</name>
            </trkpt>
            <trkpt lon="9.560371" lat="47.747944">
                <ele>453.44520767996084</ele>
                <time>2012-05-17T16:42:37.000Z</time>
                <name>Position 569</name>
            </trkpt>
            <trkpt lon="9.560303" lat="47.747897">
                <ele>453.398457120027</ele>
                <time>2012-05-17T16:42:39.000Z</time>
                <name>Position 570</name>
            </trkpt>
            <trkpt lon="9.560206" lat="47.747827">
                <ele>453.3450038400033</ele>
                <time>2012-05-17T16:42:43.000Z</time>
                <name>Position 571</name>
            </trkpt>
            <trkpt lon="9.560136" lat="47.747766">
                <ele>453.22348031998416</ele>
                <time>2012-05-17T16:42:46.000Z</time>
                <name>Position 572</name>
            </trkpt>
            <trkpt lon="9.560057" lat="47.747714">
                <ele>453.3166953600178</ele>
                <time>2012-05-17T16:42:49.000Z</time>
                <name>Position 573</name>
            </trkpt>
            <trkpt lon="9.559978" lat="47.747656">
                <ele>453.4026316799993</ele>
                <time>2012-05-17T16:42:52.000Z</time>
                <name>Position 574</name>
            </trkpt>
            <trkpt lon="9.559866" lat="47.747627">
                <ele>454.22077632001833</ele>
                <time>2012-05-17T16:42:56.000Z</time>
                <name>Position 575</name>
            </trkpt>
            <trkpt lon="9.559719" lat="47.747568">
                <ele>455.1591379200163</ele>
                <time>2012-05-17T16:43:00.000Z</time>
                <name>Position 576</name>
            </trkpt>
            <trkpt lon="9.559576" lat="47.747492">
                <ele>456.05528448000535</ele>
                <time>2012-05-17T16:43:05.000Z</time>
                <name>Position 577</name>
            </trkpt>
            <trkpt lon="9.55944" lat="47.747407">
                <ele>457.2881952000034</ele>
                <time>2012-05-17T16:43:10.000Z</time>
                <name>Position 578</name>
            </trkpt>
            <trkpt lon="9.559289" lat="47.747311">
                <ele>458.69190576001233</ele>
                <time>2012-05-17T16:43:16.000Z</time>
                <name>Position 579</name>
            </trkpt>
            <trkpt lon="9.559164" lat="47.747283">
                <ele>459.9911667200033</ele>
                <time>2012-05-17T16:43:19.000Z</time>
                <name>Position 580</name>
            </trkpt>
            <trkpt lon="9.559048" lat="47.747253">
                <ele>460.43459263999864</ele>
                <time>2012-05-17T16:43:23.000Z</time>
                <name>Position 581</name>
            </trkpt>
            <trkpt lon="9.558945" lat="47.747198">
                <ele>460.74280159999466</ele>
                <time>2012-05-17T16:43:26.000Z</time>
                <name>Position 582</name>
            </trkpt>
            <trkpt lon="9.558831" lat="47.747162">
                <ele>461.1366243200102</ele>
                <time>2012-05-17T16:43:30.000Z</time>
                <name>Position 583</name>
            </trkpt>
            <trkpt lon="9.55871" lat="47.747113">
                <ele>461.50870879999803</ele>
                <time>2012-05-17T16:43:33.000Z</time>
                <name>Position 584</name>
            </trkpt>
            <trkpt lon="9.5586" lat="47.747044">
                <ele>461.75350400000707</ele>
                <time>2012-05-17T16:43:37.000Z</time>
                <name>Position 585</name>
            </trkpt>
            <trkpt lon="9.558514" lat="47.746972">
                <ele>461.86936447999585</ele>
                <time>2012-05-17T16:43:41.000Z</time>
                <name>Position 586</name>
            </trkpt>
            <trkpt lon="9.558376" lat="47.746893">
                <ele>462.14729407999664</ele>
                <time>2012-05-17T16:43:46.000Z</time>
                <name>Position 587</name>
            </trkpt>
            <trkpt lon="9.558225" lat="47.746808">
                <ele>461.57699200000684</ele>
                <time>2012-05-17T16:43:51.000Z</time>
                <name>Position 588</name>
            </trkpt>
            <trkpt lon="9.558082" lat="47.74675">
                <ele>460.714239999996</ele>
                <time>2012-05-17T16:43:56.000Z</time>
                <name>Position 589</name>
            </trkpt>
            <trkpt lon="9.557992" lat="47.746706">
                <ele>460.0805324800199</ele>
                <time>2012-05-17T16:43:59.000Z</time>
                <name>Position 590</name>
            </trkpt>
            <trkpt lon="9.557962" lat="47.746671">
                <ele>459.7424684799945</ele>
                <time>2012-05-17T16:44:00.000Z</time>
                <name>Position 591</name>
            </trkpt>
            <trkpt lon="9.557948" lat="47.746672">
                <ele>459.6814374399789</ele>
                <time>2012-05-17T16:44:01.000Z</time>
                <name>Position 592</name>
            </trkpt>
            <trkpt lon="9.557962" lat="47.746671">
                <ele>459.7424684799945</ele>
                <time>2012-05-17T16:44:01.000Z</time>
                <name>Position 593</name>
            </trkpt>
            <trkpt lon="9.557975" lat="47.74667">
                <ele>459.7988800000133</ele>
                <time>2012-05-17T16:44:02.000Z</time>
                <name>Position 594</name>
            </trkpt>
            <trkpt lon="9.557988" lat="47.746675">
                <ele>459.888976000018</ele>
                <time>2012-05-17T16:44:02.000Z</time>
                <name>Position 595</name>
            </trkpt>
            <trkpt lon="9.558001" lat="47.746674">
                <ele>459.9452377599969</ele>
                <time>2012-05-17T16:44:02.000Z</time>
                <name>Position 596</name>
            </trkpt>
            <trkpt lon="9.557999" lat="47.746673">
                <ele>459.9301964800095</ele>
                <time>2012-05-17T16:44:02.000Z</time>
                <name>Position 597</name>
            </trkpt>
            <trkpt lon="9.558001" lat="47.74668">
                <ele>459.9783231999917</ele>
                <time>2012-05-17T16:44:03.000Z</time>
                <name>Position 598</name>
            </trkpt>
            <trkpt lon="9.557988" lat="47.746669">
                <ele>459.8554412799835</ele>
                <time>2012-05-17T16:44:03.000Z</time>
                <name>Position 599</name>
            </trkpt>
            <trkpt lon="9.55799" lat="47.746669">
                <ele>459.8650143999849</ele>
                <time>2012-05-17T16:44:03.000Z</time>
                <name>Position 600</name>
            </trkpt>
            <trkpt lon="9.557977" lat="47.74667">
                <ele>459.8084416000061</ele>
                <time>2012-05-17T16:44:04.000Z</time>
                <name>Position 601</name>
            </trkpt>
            <trkpt lon="9.557962" lat="47.746665">
                <ele>459.7140559999995</ele>
                <time>2012-05-17T16:44:04.000Z</time>
                <name>Position 602</name>
            </trkpt>
            <trkpt lon="9.557964" lat="47.746671">
                <ele>459.75201855999586</ele>
                <time>2012-05-17T16:44:04.000Z</time>
                <name>Position 603</name>
            </trkpt>
            <trkpt lon="9.557975" lat="47.746664">
                <ele>459.7740800000096</ele>
                <time>2012-05-17T16:44:05.000Z</time>
                <name>Position 604</name>
            </trkpt>
            <trkpt lon="9.557975" lat="47.746658">
                <ele>459.76075999999586</ele>
                <time>2012-05-17T16:44:05.000Z</time>
                <name>Position 605</name>
            </trkpt>
            <trkpt lon="9.557959" lat="47.746652">
                <ele>459.67232959999603</ele>
                <time>2012-05-17T16:44:05.000Z</time>
                <name>Position 606</name>
            </trkpt>
            <trkpt lon="9.557946" lat="47.746653">
                <ele>459.61331360000116</ele>
                <time>2012-05-17T16:44:06.000Z</time>
                <name>Position 607</name>
            </trkpt>
            <trkpt lon="9.557946" lat="47.746647">
                <ele>459.60124640000305</ele>
                <time>2012-05-17T16:44:06.000Z</time>
                <name>Position 608</name>
            </trkpt>
            <trkpt lon="9.557944" lat="47.746635">
                <ele>459.5679679999995</ele>
                <time>2012-05-17T16:44:07.000Z</time>
                <name>Position 609</name>
            </trkpt>
            <trkpt lon="9.557931" lat="47.746642">
                <ele>459.5218544000024</ele>
                <time>2012-05-17T16:44:07.000Z</time>
                <name>Position 610</name>
            </trkpt>
            <trkpt lon="9.557933" lat="47.746648">
                <ele>459.54260480000187</ele>
                <time>2012-05-17T16:44:07.000Z</time>
                <name>Position 611</name>
            </trkpt>
            <trkpt lon="9.557935" lat="47.746655">
                <ele>459.56545999999656</ele>
                <time>2012-05-17T16:44:08.000Z</time>
                <name>Position 612</name>
            </trkpt>
            <trkpt lon="9.557935" lat="47.746649">
                <ele>459.5538679999983</ele>
                <time>2012-05-17T16:44:08.000Z</time>
                <name>Position 613</name>
            </trkpt>
            <trkpt lon="9.557935" lat="47.746643">
                <ele>459.54227600000013</ele>
                <time>2012-05-17T16:44:08.000Z</time>
                <name>Position 614</name>
            </trkpt>
            <trkpt lon="9.557935" lat="47.746637">
                <ele>459.5306840000019</ele>
                <time>2012-05-17T16:44:08.000Z</time>
                <name>Position 615</name>
            </trkpt>
            <trkpt lon="9.557935" lat="47.746631">
                <ele>459.5190920000037</ele>
                <time>2012-05-17T16:44:09.000Z</time>
                <name>Position 616</name>
            </trkpt>
            <trkpt lon="9.557924" lat="47.746638">
                <ele>459.4820863999943</ele>
                <time>2012-05-17T16:44:09.000Z</time>
                <name>Position 617</name>
            </trkpt>
            <trkpt lon="9.557924" lat="47.746632">
                <ele>459.470969599996</ele>
                <time>2012-05-17T16:44:09.000Z</time>
                <name>Position 618</name>
            </trkpt>
            <trkpt lon="9.557927" lat="47.746639">
                <ele>459.49774160000067</ele>
                <time>2012-05-17T16:44:09.000Z</time>
                <name>Position 619</name>
            </trkpt>
            <trkpt lon="9.557913" lat="47.746634">
                <ele>459.42446239999686</ele>
                <time>2012-05-17T16:44:10.000Z</time>
                <name>Position 620</name>
            </trkpt>
            <trkpt lon="9.557913" lat="47.746628">
                <ele>459.4138207999985</ele>
                <time>2012-05-17T16:44:10.000Z</time>
                <name>Position 621</name>
            </trkpt>
            <trkpt lon="9.557913" lat="47.746622">
                <ele>459.40317920000024</ele>
                <time>2012-05-17T16:44:10.000Z</time>
                <name>Position 622</name>
            </trkpt>
            <trkpt lon="9.557913" lat="47.746616">
                <ele>459.3925376000019</ele>
                <time>2012-05-17T16:44:11.000Z</time>
                <name>Position 623</name>
            </trkpt>
            <trkpt lon="9.557911" lat="47.746609">
                <ele>459.37135280000206</ele>
                <time>2012-05-17T16:44:11.000Z</time>
                <name>Position 624</name>
            </trkpt>
            <trkpt lon="9.557898" lat="47.746604">
                <ele>459.3060223999954</ele>
                <time>2012-05-17T16:44:11.000Z</time>
                <name>Position 625</name>
            </trkpt>
            <trkpt lon="9.557898" lat="47.746598">
                <ele>459.296028799997</ele>
                <time>2012-05-17T16:44:12.000Z</time>
                <name>Position 626</name>
            </trkpt>
            <trkpt lon="9.557869" lat="47.746588">
                <ele>459.1565984000046</ele>
                <time>2012-05-17T16:44:12.000Z</time>
                <name>Position 627</name>
            </trkpt>
            <trkpt lon="9.557773" lat="47.746536">
                <ele>458.7103615999961</ele>
                <time>2012-05-17T16:44:16.000Z</time>
                <name>Position 628</name>
            </trkpt>
            <trkpt lon="9.557617" lat="47.746451">
                <ele>458.13872240000137</ele>
                <time>2012-05-17T16:44:21.000Z</time>
                <name>Position 629</name>
            </trkpt>
            <trkpt lon="9.557448" lat="47.746366">
                <ele>457.7585139199991</ele>
                <time>2012-05-17T16:44:27.000Z</time>
                <name>Position 630</name>
            </trkpt>
            <trkpt lon="9.557273" lat="47.746285">
                <ele>457.53795920000005</ele>
                <time>2012-05-17T16:44:33.000Z</time>
                <name>Position 631</name>
            </trkpt>
            <trkpt lon="9.557095" lat="47.746203">
                <ele>457.3548103999982</ele>
                <time>2012-05-17T16:44:38.000Z</time>
                <name>Position 632</name>
            </trkpt>
            <trkpt lon="9.55693" lat="47.74612">
                <ele>457.2367040000038</ele>
                <time>2012-05-17T16:44:44.000Z</time>
                <name>Position 633</name>
            </trkpt>
            <trkpt lon="9.556718" lat="47.746024">
                <ele>457.1180940800036</ele>
                <time>2012-05-17T16:44:51.000Z</time>
                <name>Position 634</name>
            </trkpt>
            <trkpt lon="9.556522" lat="47.745958">
                <ele>457.270517759995</ele>
                <time>2012-05-17T16:44:57.000Z</time>
                <name>Position 635</name>
            </trkpt>
            <trkpt lon="9.556307" lat="47.745856">
                <ele>457.8302419199846</ele>
                <time>2012-05-17T16:45:04.000Z</time>
                <name>Position 636</name>
            </trkpt>
            <trkpt lon="9.556123" lat="47.745717">
                <ele>458.3405249600021</ele>
                <time>2012-05-17T16:45:11.000Z</time>
                <name>Position 637</name>
            </trkpt>
            <trkpt lon="9.555926" lat="47.745593">
                <ele>458.70927008000115</ele>
                <time>2012-05-17T16:45:18.000Z</time>
                <name>Position 638</name>
            </trkpt>
            <trkpt lon="9.555717" lat="47.745475">
                <ele>458.51119999999946</ele>
                <time>2012-05-17T16:45:26.000Z</time>
                <name>Position 639</name>
            </trkpt>
            <trkpt lon="9.555482" lat="47.745348">
                <ele>457.81759999999844</ele>
                <time>2012-05-17T16:45:34.000Z</time>
                <name>Position 640</name>
            </trkpt>
            <trkpt lon="9.55527" lat="47.745212">
                <ele>457.21759999999773</ele>
                <time>2012-05-17T16:45:42.000Z</time>
                <name>Position 641</name>
            </trkpt>
            <trkpt lon="9.555059" lat="47.745112">
                <ele>456.57800000000105</ele>
                <time>2012-05-17T16:45:49.000Z</time>
                <name>Position 642</name>
            </trkpt>
            <trkpt lon="9.554842" lat="47.745009">
                <ele>456.4871523199955</ele>
                <time>2012-05-17T16:45:56.000Z</time>
                <name>Position 643</name>
            </trkpt>
            <trkpt lon="9.55462" lat="47.744911">
                <ele>456.22830080000546</ele>
                <time>2012-05-17T16:46:03.000Z</time>
                <name>Position 644</name>
            </trkpt>
            <trkpt lon="9.554423" lat="47.744811">
                <ele>455.9766363199958</ele>
                <time>2012-05-17T16:46:10.000Z</time>
                <name>Position 645</name>
            </trkpt>
            <trkpt lon="9.554203" lat="47.744719">
                <ele>455.81089808000854</ele>
                <time>2012-05-17T16:46:17.000Z</time>
                <name>Position 646</name>
            </trkpt>
            <trkpt lon="9.553982" lat="47.744633">
                <ele>455.49519264000014</ele>
                <time>2012-05-17T16:46:24.000Z</time>
                <name>Position 647</name>
            </trkpt>
            <trkpt lon="9.553758" lat="47.744529">
                <ele>455.1563740799999</ele>
                <time>2012-05-17T16:46:31.000Z</time>
                <name>Position 648</name>
            </trkpt>
            <trkpt lon="9.55355" lat="47.744436">
                <ele>454.90723200000014</ele>
                <time>2012-05-17T16:46:38.000Z</time>
                <name>Position 649</name>
            </trkpt>
            <trkpt lon="9.553343" lat="47.744349">
                <ele>454.7213380799995</ele>
                <time>2012-05-17T16:46:44.000Z</time>
                <name>Position 650</name>
            </trkpt>
            <trkpt lon="9.55312" lat="47.744233">
                <ele>454.8763552000023</ele>
                <time>2012-05-17T16:46:52.000Z</time>
                <name>Position 651</name>
            </trkpt>
            <trkpt lon="9.552918" lat="47.744101">
                <ele>455.35312607999725</ele>
                <time>2012-05-17T16:46:59.000Z</time>
                <name>Position 652</name>
            </trkpt>
            <trkpt lon="9.552733" lat="47.743993">
                <ele>456.1122686399838</ele>
                <time>2012-05-17T16:47:06.000Z</time>
                <name>Position 653</name>
            </trkpt>
            <trkpt lon="9.552525" lat="47.743841">
                <ele>457.0449239999849</ele>
                <time>2012-05-17T16:47:14.000Z</time>
                <name>Position 654</name>
            </trkpt>
            <trkpt lon="9.552294" lat="47.743705">
                <ele>457.68930240000657</ele>
                <time>2012-05-17T16:47:22.000Z</time>
                <name>Position 655</name>
            </trkpt>
            <trkpt lon="9.552095" lat="47.743592">
                <ele>458.0741088000015</ele>
                <time>2012-05-17T16:47:29.000Z</time>
                <name>Position 656</name>
            </trkpt>
            <trkpt lon="9.551895" lat="47.743472">
                <ele>458.35001280000927</ele>
                <time>2012-05-17T16:47:37.000Z</time>
                <name>Position 657</name>
            </trkpt>
            <trkpt lon="9.551761" lat="47.743382">
                <ele>458.48317824000935</ele>
                <time>2012-05-17T16:47:42.000Z</time>
                <name>Position 658</name>
            </trkpt>
            <trkpt lon="9.55161" lat="47.743285">
                <ele>458.367664</ele>
                <time>2012-05-17T16:47:47.000Z</time>
                <name>Position 659</name>
            </trkpt>
            <trkpt lon="9.551474" lat="47.743201">
                <ele>458.1130873600061</ele>
                <time>2012-05-17T16:47:52.000Z</time>
                <name>Position 660</name>
            </trkpt>
            <trkpt lon="9.551344" lat="47.743101">
                <ele>458.15650815998583</ele>
                <time>2012-05-17T16:47:58.000Z</time>
                <name>Position 661</name>
            </trkpt>
            <trkpt lon="9.551202" lat="47.743008">
                <ele>458.3565222399794</ele>
                <time>2012-05-17T16:48:03.000Z</time>
                <name>Position 662</name>
            </trkpt>
            <trkpt lon="9.551055" lat="47.742943">
                <ele>458.5636336000247</ele>
                <time>2012-05-17T16:48:08.000Z</time>
                <name>Position 663</name>
            </trkpt>
            <trkpt lon="9.550954" lat="47.74286">
                <ele>459.1297215999984</ele>
                <time>2012-05-17T16:48:12.000Z</time>
                <name>Position 664</name>
            </trkpt>
            <trkpt lon="9.550787" lat="47.742794">
                <ele>459.8541411199702</ele>
                <time>2012-05-17T16:48:17.000Z</time>
                <name>Position 665</name>
            </trkpt>
            <trkpt lon="9.550638" lat="47.742723">
                <ele>460.9237289600165</ele>
                <time>2012-05-17T16:48:22.000Z</time>
                <name>Position 666</name>
            </trkpt>
            <trkpt lon="9.550499" lat="47.742649">
                <ele>461.7152110399992</ele>
                <time>2012-05-17T16:48:27.000Z</time>
                <name>Position 667</name>
            </trkpt>
            <trkpt lon="9.55035" lat="47.742584">
                <ele>462.21977599999764</ele>
                <time>2012-05-17T16:48:32.000Z</time>
                <name>Position 668</name>
            </trkpt>
            <trkpt lon="9.550192" lat="47.742532">
                <ele>462.4587737600042</ele>
                <time>2012-05-17T16:48:36.000Z</time>
                <name>Position 669</name>
            </trkpt>
            <trkpt lon="9.550052" lat="47.74244">
                <ele>462.34701440000487</ele>
                <time>2012-05-17T16:48:42.000Z</time>
                <name>Position 670</name>
            </trkpt>
            <trkpt lon="9.549916" lat="47.74238">
                <ele>462.29828479999316</ele>
                <time>2012-05-17T16:48:46.000Z</time>
                <name>Position 671</name>
            </trkpt>
            <trkpt lon="9.549769" lat="47.742327">
                <ele>462.30445328000883</ele>
                <time>2012-05-17T16:48:51.000Z</time>
                <name>Position 672</name>
            </trkpt>
            <trkpt lon="9.549602" lat="47.742225">
                <ele>462.15999199999294</ele>
                <time>2012-05-17T16:48:57.000Z</time>
                <name>Position 673</name>
            </trkpt>
            <trkpt lon="9.549449" lat="47.742134">
                <ele>461.9924009600007</ele>
                <time>2012-05-17T16:49:02.000Z</time>
                <name>Position 674</name>
            </trkpt>
            <trkpt lon="9.549247" lat="47.742042">
                <ele>461.8077814399928</ele>
                <time>2012-05-17T16:49:09.000Z</time>
                <name>Position 675</name>
            </trkpt>
            <trkpt lon="9.54904" lat="47.741873">
                <ele>461.39334079999253</ele>
                <time>2012-05-17T16:49:18.000Z</time>
                <name>Position 676</name>
            </trkpt>
            <trkpt lon="9.548803" lat="47.741663">
                <ele>460.4642403200255</ele>
                <time>2012-05-17T16:49:28.000Z</time>
                <name>Position 677</name>
            </trkpt>
            <trkpt lon="9.548656" lat="47.741438">
                <ele>458.3667046400214</ele>
                <time>2012-05-17T16:49:38.000Z</time>
                <name>Position 678</name>
            </trkpt>
            <trkpt lon="9.548564" lat="47.741197">
                <ele>456.24279103999584</ele>
                <time>2012-05-17T16:49:48.000Z</time>
                <name>Position 679</name>
            </trkpt>
            <trkpt lon="9.548537" lat="47.740969">
                <ele>454.2303766399986</ele>
                <time>2012-05-17T16:49:57.000Z</time>
                <name>Position 680</name>
            </trkpt>
            <trkpt lon="9.548644" lat="47.740736">
                <ele>452.82765696000274</ele>
                <time>2012-05-17T16:50:07.000Z</time>
                <name>Position 681</name>
            </trkpt>
            <trkpt lon="9.548727" lat="47.740531">
                <ele>452.74661328000326</ele>
                <time>2012-05-17T16:50:15.000Z</time>
                <name>Position 682</name>
            </trkpt>
            <trkpt lon="9.548729" lat="47.740325">
                <ele>452.8707720000016</ele>
                <time>2012-05-17T16:50:24.000Z</time>
                <name>Position 683</name>
            </trkpt>
            <trkpt lon="9.548729" lat="47.740125">
                <ele>452.9968200000014</ele>
                <time>2012-05-17T16:50:32.000Z</time>
                <name>Position 684</name>
            </trkpt>
            <trkpt lon="9.548748" lat="47.739962">
                <ele>452.89352831999594</ele>
                <time>2012-05-17T16:50:38.000Z</time>
                <name>Position 685</name>
            </trkpt>
            <trkpt lon="9.548787" lat="47.739845">
                <ele>452.37702480000434</ele>
                <time>2012-05-17T16:50:43.000Z</time>
                <name>Position 686</name>
            </trkpt>
            <trkpt lon="9.548715" lat="47.739696">
                <ele>452.2599648000077</ele>
                <time>2012-05-17T16:50:49.000Z</time>
                <name>Position 687</name>
            </trkpt>
            <trkpt lon="9.548644" lat="47.739559">
                <ele>452.2605427200024</ele>
                <time>2012-05-17T16:50:55.000Z</time>
                <name>Position 688</name>
            </trkpt>
            <trkpt lon="9.548576" lat="47.739392">
                <ele>452.2594214400011</ele>
                <time>2012-05-17T16:51:02.000Z</time>
                <name>Position 689</name>
            </trkpt>
            <trkpt lon="9.548493" lat="47.739232">
                <ele>452.47386431999826</ele>
                <time>2012-05-17T16:51:09.000Z</time>
                <name>Position 690</name>
            </trkpt>
            <trkpt lon="9.548402" lat="47.739075">
                <ele>453.13372800000474</ele>
                <time>2012-05-17T16:51:15.000Z</time>
                <name>Position 691</name>
            </trkpt>
            <trkpt lon="9.548358" lat="47.738934">
                <ele>453.6181286399973</ele>
                <time>2012-05-17T16:51:21.000Z</time>
                <name>Position 692</name>
            </trkpt>
            <trkpt lon="9.548308" lat="47.738779">
                <ele>454.0585158399972</ele>
                <time>2012-05-17T16:51:28.000Z</time>
                <name>Position 693</name>
            </trkpt>
            <trkpt lon="9.548192" lat="47.738654">
                <ele>454.5849241600017</ele>
                <time>2012-05-17T16:51:33.000Z</time>
                <name>Position 694</name>
            </trkpt>
            <trkpt lon="9.548025" lat="47.738558">
                <ele>455.16990399999804</ele>
                <time>2012-05-17T16:51:39.000Z</time>
                <name>Position 695</name>
            </trkpt>
            <trkpt lon="9.547858" lat="47.738474">
                <ele>455.6645670400001</ele>
                <time>2012-05-17T16:51:45.000Z</time>
                <name>Position 696</name>
            </trkpt>
            <trkpt lon="9.547735" lat="47.738419">
                <ele>455.9808208000017</ele>
                <time>2012-05-17T16:51:49.000Z</time>
                <name>Position 697</name>
            </trkpt>
            <trkpt lon="9.547615" lat="47.738388">
                <ele>456.2714943999993</ele>
                <time>2012-05-17T16:51:52.000Z</time>
                <name>Position 698</name>
            </trkpt>
            <trkpt lon="9.547481" lat="47.73834">
                <ele>456.5992000000041</ele>
                <time>2012-05-17T16:51:57.000Z</time>
                <name>Position 699</name>
            </trkpt>
            <trkpt lon="9.547362" lat="47.73825">
                <ele>457.09616000000227</ele>
                <time>2012-05-17T16:52:01.000Z</time>
                <name>Position 700</name>
            </trkpt>
            <trkpt lon="9.547241" lat="47.738136">
                <ele>457.4488102399974</ele>
                <time>2012-05-17T16:52:07.000Z</time>
                <name>Position 701</name>
            </trkpt>
            <trkpt lon="9.547103" lat="47.738063">
                <ele>457.78742335999317</ele>
                <time>2012-05-17T16:52:12.000Z</time>
                <name>Position 702</name>
            </trkpt>
            <trkpt lon="9.546956" lat="47.737998">
                <ele>458.06045311999287</ele>
                <time>2012-05-17T16:52:16.000Z</time>
                <name>Position 703</name>
            </trkpt>
            <trkpt lon="9.54679" lat="47.737943">
                <ele>458.31169280000637</ele>
                <time>2012-05-17T16:52:21.000Z</time>
                <name>Position 704</name>
            </trkpt>
            <trkpt lon="9.546669" lat="47.737893">
                <ele>458.3811180799993</ele>
                <time>2012-05-17T16:52:25.000Z</time>
                <name>Position 705</name>
            </trkpt>
            <trkpt lon="9.546546" lat="47.737832">
                <ele>458.5279999999899</ele>
                <time>2012-05-17T16:52:29.000Z</time>
                <name>Position 706</name>
            </trkpt>
            <trkpt lon="9.54643" lat="47.737796">
                <ele>458.77280000001133</ele>
                <time>2012-05-17T16:52:33.000Z</time>
                <name>Position 707</name>
            </trkpt>
            <trkpt lon="9.546305" lat="47.737739">
                <ele>458.949199999988</ele>
                <time>2012-05-17T16:52:37.000Z</time>
                <name>Position 708</name>
            </trkpt>
            <trkpt lon="9.54618" lat="47.737647">
                <ele>458.9576000000137</ele>
                <time>2012-05-17T16:52:42.000Z</time>
                <name>Position 709</name>
            </trkpt>
            <trkpt lon="9.546026" lat="47.737556">
                <ele>459.07519999999175</ele>
                <time>2012-05-17T16:52:47.000Z</time>
                <name>Position 710</name>
            </trkpt>
            <trkpt lon="9.545901" lat="47.737487">
                <ele>459.24333343999945</ele>
                <time>2012-05-17T16:52:52.000Z</time>
                <name>Position 711</name>
            </trkpt>
            <trkpt lon="9.545734" lat="47.737434">
                <ele>459.6403187200017</ele>
                <time>2012-05-17T16:52:57.000Z</time>
                <name>Position 712</name>
            </trkpt>
            <trkpt lon="9.545594" lat="47.737378">
                <ele>459.84390784000044</ele>
                <time>2012-05-17T16:53:01.000Z</time>
                <name>Position 713</name>
            </trkpt>
            <trkpt lon="9.545543" lat="47.737359">
                <ele>459.909701439995</ele>
                <time>2012-05-17T16:53:03.000Z</time>
                <name>Position 714</name>
            </trkpt>
            <trkpt lon="9.545421" lat="47.737338">
                <ele>460.1028217600042</ele>
                <time>2012-05-17T16:53:06.000Z</time>
                <name>Position 715</name>
            </trkpt>
            <trkpt lon="9.545326" lat="47.737274">
                <ele>460.11618687999936</ele>
                <time>2012-05-17T16:53:10.000Z</time>
                <name>Position 716</name>
            </trkpt>
            <trkpt lon="9.545226" lat="47.73725">
                <ele>460.2203200000098</ele>
                <time>2012-05-17T16:53:12.000Z</time>
                <name>Position 717</name>
            </trkpt>
            <trkpt lon="9.545129" lat="47.737214">
                <ele>460.2670547200062</ele>
                <time>2012-05-17T16:53:15.000Z</time>
                <name>Position 718</name>
            </trkpt>
            <trkpt lon="9.545028" lat="47.737171">
                <ele>460.27493055998707</ele>
                <time>2012-05-17T16:53:19.000Z</time>
                <name>Position 719</name>
            </trkpt>
            <trkpt lon="9.544956" lat="47.737163">
                <ele>460.3407616000069</ele>
                <time>2012-05-17T16:53:21.000Z</time>
                <name>Position 720</name>
            </trkpt>
            <trkpt lon="9.544879" lat="47.737142">
                <ele>460.37788959999637</ele>
                <time>2012-05-17T16:53:23.000Z</time>
                <name>Position 721</name>
            </trkpt>
            <trkpt lon="9.544778" lat="47.737111">
                <ele>460.454977599996</ele>
                <time>2012-05-17T16:53:26.000Z</time>
                <name>Position 722</name>
            </trkpt>
            <trkpt lon="9.544686" lat="47.737066">
                <ele>460.5419871999973</ele>
                <time>2012-05-17T16:53:29.000Z</time>
                <name>Position 723</name>
            </trkpt>
            <trkpt lon="9.544585" lat="47.737036">
                <ele>460.71803200000284</ele>
                <time>2012-05-17T16:53:32.000Z</time>
                <name>Position 724</name>
            </trkpt>
            <trkpt lon="9.544464" lat="47.736956">
                <ele>460.9978048000013</ele>
                <time>2012-05-17T16:53:36.000Z</time>
                <name>Position 725</name>
            </trkpt>
            <trkpt lon="9.54435" lat="47.736886">
                <ele>461.3831200000029</ele>
                <time>2012-05-17T16:53:41.000Z</time>
                <name>Position 726</name>
            </trkpt>
            <trkpt lon="9.544225" lat="47.736836">
                <ele>461.8847200000036</ele>
                <time>2012-05-17T16:53:45.000Z</time>
                <name>Position 727</name>
            </trkpt>
            <trkpt lon="9.544085" lat="47.736803">
                <ele>462.25476719999455</ele>
                <time>2012-05-17T16:53:49.000Z</time>
                <name>Position 728</name>
            </trkpt>
            <trkpt lon="9.543936" lat="47.736737">
                <ele>462.58463808000516</ele>
                <time>2012-05-17T16:53:53.000Z</time>
                <name>Position 729</name>
            </trkpt>
            <trkpt lon="9.543793" lat="47.736685">
                <ele>462.89453519999506</ele>
                <time>2012-05-17T16:53:58.000Z</time>
                <name>Position 730</name>
            </trkpt>
            <trkpt lon="9.543681" lat="47.736579">
                <ele>462.93371055999904</ele>
                <time>2012-05-17T16:54:03.000Z</time>
                <name>Position 731</name>
            </trkpt>
            <trkpt lon="9.54353" lat="47.736489">
                <ele>463.00048479999754</ele>
                <time>2012-05-17T16:54:08.000Z</time>
                <name>Position 732</name>
            </trkpt>
            <trkpt lon="9.543368" lat="47.736424">
                <ele>463.1550860800007</ele>
                <time>2012-05-17T16:54:13.000Z</time>
                <name>Position 733</name>
            </trkpt>
            <trkpt lon="9.54321" lat="47.736373">
                <ele>463.0080656000005</ele>
                <time>2012-05-17T16:54:18.000Z</time>
                <name>Position 734</name>
            </trkpt>
            <trkpt lon="9.543032" lat="47.736297">
                <ele>462.8144172800001</ele>
                <time>2012-05-17T16:54:24.000Z</time>
                <name>Position 735</name>
            </trkpt>
            <trkpt lon="9.542885" lat="47.736225">
                <ele>462.7494200000019</ele>
                <time>2012-05-17T16:54:29.000Z</time>
                <name>Position 736</name>
            </trkpt>
            <trkpt lon="9.542745" lat="47.736162">
                <ele>462.76506079999973</ele>
                <time>2012-05-17T16:54:33.000Z</time>
                <name>Position 737</name>
            </trkpt>
            <trkpt lon="9.542607" lat="47.736095">
                <ele>462.86455280000223</ele>
                <time>2012-05-17T16:54:38.000Z</time>
                <name>Position 738</name>
            </trkpt>
            <trkpt lon="9.542449" lat="47.735985">
                <ele>463.25840000000267</ele>
                <time>2012-05-17T16:54:44.000Z</time>
                <name>Position 739</name>
            </trkpt>
            <trkpt lon="9.542275" lat="47.735881">
                <ele>463.92560000000213</ele>
                <time>2012-05-17T16:54:50.000Z</time>
                <name>Position 740</name>
            </trkpt>
            <trkpt lon="9.542126" lat="47.735769">
                <ele>464.3362105599985</ele>
                <time>2012-05-17T16:54:56.000Z</time>
                <name>Position 741</name>
            </trkpt>
            <trkpt lon="9.541946" lat="47.735686">
                <ele>464.53625344000324</ele>
                <time>2012-05-17T16:55:02.000Z</time>
                <name>Position 742</name>
            </trkpt>
            <trkpt lon="9.541797" lat="47.735627">
                <ele>464.59929856000156</ele>
                <time>2012-05-17T16:55:07.000Z</time>
                <name>Position 743</name>
            </trkpt>
            <trkpt lon="9.541657" lat="47.735535">
                <ele>464.4111055999961</ele>
                <time>2012-05-17T16:55:12.000Z</time>
                <name>Position 744</name>
            </trkpt>
            <trkpt lon="9.541492" lat="47.735462">
                <ele>463.93079551999415</ele>
                <time>2012-05-17T16:55:17.000Z</time>
                <name>Position 745</name>
            </trkpt>
            <trkpt lon="9.541352" lat="47.735364">
                <ele>463.48052863999146</ele>
                <time>2012-05-17T16:55:23.000Z</time>
                <name>Position 746</name>
            </trkpt>
            <trkpt lon="9.541181" lat="47.735319">
                <ele>463.20220831999296</ele>
                <time>2012-05-17T16:55:28.000Z</time>
                <name>Position 747</name>
            </trkpt>
            <trkpt lon="9.541014" lat="47.735276">
                <ele>462.9748083199984</ele>
                <time>2012-05-17T16:55:33.000Z</time>
                <name>Position 748</name>
            </trkpt>
            <trkpt lon="9.540863" lat="47.735168">
                <ele>462.7159539200018</ele>
                <time>2012-05-17T16:55:38.000Z</time>
                <name>Position 749</name>
            </trkpt>
            <trkpt lon="9.540703" lat="47.735067">
                <ele>462.85547631999924</ele>
                <time>2012-05-17T16:55:44.000Z</time>
                <name>Position 750</name>
            </trkpt>
            <trkpt lon="9.540532" lat="47.734975">
                <ele>463.1389599999936</ele>
                <time>2012-05-17T16:55:50.000Z</time>
                <name>Position 751</name>
            </trkpt>
            <trkpt lon="9.540363" lat="47.734894">
                <ele>463.14264159998737</ele>
                <time>2012-05-17T16:55:56.000Z</time>
                <name>Position 752</name>
            </trkpt>
            <trkpt lon="9.540282" lat="47.734711">
                <ele>462.3291855999854</ele>
                <time>2012-05-17T16:56:04.000Z</time>
                <name>Position 753</name>
            </trkpt>
            <trkpt lon="9.540249" lat="47.734556">
                <ele>461.5016031999869</ele>
                <time>2012-05-17T16:56:10.000Z</time>
                <name>Position 754</name>
            </trkpt>
            <trkpt lon="9.54026" lat="47.734435">
                <ele>460.8656799999873</ele>
                <time>2012-05-17T16:56:15.000Z</time>
                <name>Position 755</name>
            </trkpt>
            <trkpt lon="9.540251" lat="47.734284">
                <ele>460.0363552000112</ele>
                <time>2012-05-17T16:56:21.000Z</time>
                <name>Position 756</name>
            </trkpt>
            <trkpt lon="9.540222" lat="47.73412">
                <ele>458.95195519997867</ele>
                <time>2012-05-17T16:56:27.000Z</time>
                <name>Position 757</name>
            </trkpt>
            <trkpt lon="9.540189" lat="47.733949">
                <ele>457.52972048001845</ele>
                <time>2012-05-17T16:56:34.000Z</time>
                <name>Position 758</name>
            </trkpt>
            <trkpt lon="9.540134" lat="47.733793">
                <ele>456.0599081599889</ele>
                <time>2012-05-17T16:56:41.000Z</time>
                <name>Position 759</name>
            </trkpt>
            <trkpt lon="9.540035" lat="47.733622">
                <ele>454.13315359997125</ele>
                <time>2012-05-17T16:56:48.000Z</time>
                <name>Position 760</name>
            </trkpt>
            <trkpt lon="9.539978" lat="47.733447">
                <ele>452.3911971199833</ele>
                <time>2012-05-17T16:56:55.000Z</time>
                <name>Position 761</name>
            </trkpt>
            <trkpt lon="9.539971" lat="47.733256">
                <ele>451.60954112000525</ele>
                <time>2012-05-17T16:57:03.000Z</time>
                <name>Position 762</name>
            </trkpt>
            <trkpt lon="9.539979" lat="47.733064">
                <ele>452.07971072000487</ele>
                <time>2012-05-17T16:57:10.000Z</time>
                <name>Position 763</name>
            </trkpt>
            <trkpt lon="9.540014" lat="47.7329">
                <ele>452.59711999999547</ele>
                <time>2012-05-17T16:57:17.000Z</time>
                <name>Position 764</name>
            </trkpt>
            <trkpt lon="9.540069" lat="47.732742">
                <ele>453.12222559999896</ele>
                <time>2012-05-17T16:57:24.000Z</time>
                <name>Position 765</name>
            </trkpt>
            <trkpt lon="9.540152" lat="47.732608">
                <ele>453.5413952000029</ele>
                <time>2012-05-17T16:57:29.000Z</time>
                <name>Position 766</name>
            </trkpt>
            <trkpt lon="9.540338" lat="47.732611">
                <ele>453.9093296000003</ele>
                <time>2012-05-17T16:57:34.000Z</time>
                <name>Position 767</name>
            </trkpt>
            <trkpt lon="9.540509" lat="47.732621">
                <ele>454.26384080000236</ele>
                <time>2012-05-17T16:57:39.000Z</time>
                <name>Position 768</name>
            </trkpt>
            <trkpt lon="9.540662" lat="47.732665">
                <ele>454.6848559999916</ele>
                <time>2012-05-17T16:57:44.000Z</time>
                <name>Position 769</name>
            </trkpt>
            <trkpt lon="9.54086" lat="47.732713">
                <ele>455.19533759998734</ele>
                <time>2012-05-17T16:57:49.000Z</time>
                <name>Position 770</name>
            </trkpt>
            <trkpt lon="9.541085" lat="47.732747">
                <ele>454.75173840001395</ele>
                <time>2012-05-17T16:57:55.000Z</time>
                <name>Position 771</name>
            </trkpt>
            <trkpt lon="9.541298" lat="47.732795">
                <ele>454.481371200018</ele>
                <time>2012-05-17T16:58:01.000Z</time>
                <name>Position 772</name>
            </trkpt>
            <trkpt lon="9.541541" lat="47.732835">
                <ele>454.1825352000085</ele>
                <time>2012-05-17T16:58:08.000Z</time>
                <name>Position 773</name>
            </trkpt>
            <trkpt lon="9.54173" lat="47.732869">
                <ele>454.10575840000683</ele>
                <time>2012-05-17T16:58:13.000Z</time>
                <name>Position 774</name>
            </trkpt>
            <trkpt lon="9.54198" lat="47.732907">
                <ele>454.2293151999763</ele>
                <time>2012-05-17T16:58:20.000Z</time>
                <name>Position 775</name>
            </trkpt>
            <trkpt lon="9.542203" lat="47.732981">
                <ele>454.7904577600215</ele>
                <time>2012-05-17T16:58:27.000Z</time>
                <name>Position 776</name>
            </trkpt>
            <trkpt lon="9.54244" lat="47.733026">
                <ele>455.1884608000249</ele>
                <time>2012-05-17T16:58:34.000Z</time>
                <name>Position 777</name>
            </trkpt>
            <trkpt lon="9.542662" lat="47.733053">
                <ele>455.2762115199786</ele>
                <time>2012-05-17T16:58:40.000Z</time>
                <name>Position 778</name>
            </trkpt>
            <trkpt lon="9.542909" lat="47.733078">
                <ele>455.2912566399872</ele>
                <time>2012-05-17T16:58:46.000Z</time>
                <name>Position 779</name>
            </trkpt>
            <trkpt lon="9.543192" lat="47.733146">
                <ele>455.9167782399703</ele>
                <time>2012-05-17T16:58:55.000Z</time>
                <name>Position 780</name>
            </trkpt>
            <trkpt lon="9.543479" lat="47.733214">
                <ele>455.68315679995845</ele>
                <time>2012-05-17T16:59:03.000Z</time>
                <name>Position 781</name>
            </trkpt>
            <trkpt lon="9.543764" lat="47.733282">
                <ele>454.3023744000338</ele>
                <time>2012-05-17T16:59:11.000Z</time>
                <name>Position 782</name>
            </trkpt>
            <trkpt lon="9.544049" lat="47.733349">
                <ele>452.6040726399823</ele>
                <time>2012-05-17T16:59:19.000Z</time>
                <name>Position 783</name>
            </trkpt>
            <trkpt lon="9.54433" lat="47.733398">
                <ele>451.25920000000684</ele>
                <time>2012-05-17T16:59:27.000Z</time>
                <name>Position 784</name>
            </trkpt>
            <trkpt lon="9.544567" lat="47.7334">
                <ele>450.13840000002284</ele>
                <time>2012-05-17T16:59:33.000Z</time>
                <name>Position 785</name>
            </trkpt>
            <trkpt lon="9.544757" lat="47.733322">
                <ele>448.6193712000018</ele>
                <time>2012-05-17T16:59:39.000Z</time>
                <name>Position 786</name>
            </trkpt>
            <trkpt lon="9.544871" lat="47.733186">
                <ele>447.62875680000934</ele>
                <time>2012-05-17T16:59:45.000Z</time>
                <name>Position 787</name>
            </trkpt>
            <trkpt lon="9.544888" lat="47.733026">
                <ele>447.0521664000069</ele>
                <time>2012-05-17T16:59:52.000Z</time>
                <name>Position 788</name>
            </trkpt>
            <trkpt lon="9.544864" lat="47.732875">
                <ele>446.603999999999</ele>
                <time>2012-05-17T16:59:58.000Z</time>
                <name>Position 789</name>
            </trkpt>
            <trkpt lon="9.54482" lat="47.7327">
                <ele>446.0232000000045</ele>
                <time>2012-05-17T17:00:05.000Z</time>
                <name>Position 790</name>
            </trkpt>
            <trkpt lon="9.544747" lat="47.73252">
                <ele>445.28083200000293</ele>
                <time>2012-05-17T17:00:13.000Z</time>
                <name>Position 791</name>
            </trkpt>
            <trkpt lon="9.544673" lat="47.732328">
                <ele>444.9456172800015</ele>
                <time>2012-05-17T17:00:20.000Z</time>
                <name>Position 792</name>
            </trkpt>
            <trkpt lon="9.544582" lat="47.73213">
                <ele>444.5529791999977</ele>
                <time>2012-05-17T17:00:29.000Z</time>
                <name>Position 793</name>
            </trkpt>
            <trkpt lon="9.544523" lat="47.731943">
                <ele>444.16241568000106</ele>
                <time>2012-05-17T17:00:36.000Z</time>
                <name>Position 794</name>
            </trkpt>
            <trkpt lon="9.544466" lat="47.731762">
                <ele>443.7242150400047</ele>
                <time>2012-05-17T17:00:44.000Z</time>
                <name>Position 795</name>
            </trkpt>
            <trkpt lon="9.544419" lat="47.73158">
                <ele>443.6889087999951</ele>
                <time>2012-05-17T17:00:51.000Z</time>
                <name>Position 796</name>
            </trkpt>
            <trkpt lon="9.544371" lat="47.731386">
                <ele>444.163416639998</ele>
                <time>2012-05-17T17:00:59.000Z</time>
                <name>Position 797</name>
            </trkpt>
            <trkpt lon="9.544338" lat="47.731196">
                <ele>444.6950771200091</ele>
                <time>2012-05-17T17:01:07.000Z</time>
                <name>Position 798</name>
            </trkpt>
            <trkpt lon="9.544305" lat="47.731007">
                <ele>445.24139440000505</ele>
                <time>2012-05-17T17:01:14.000Z</time>
                <name>Position 799</name>
            </trkpt>
            <trkpt lon="9.544269" lat="47.730824">
                <ele>445.7764492800054</ele>
                <time>2012-05-17T17:01:22.000Z</time>
                <name>Position 800</name>
            </trkpt>
            <trkpt lon="9.544273" lat="47.730631">
                <ele>446.42163743999294</ele>
                <time>2012-05-17T17:01:30.000Z</time>
                <name>Position 801</name>
            </trkpt>
            <trkpt lon="9.544253" lat="47.730452">
                <ele>446.9851852800007</ele>
                <time>2012-05-17T17:01:37.000Z</time>
                <name>Position 802</name>
            </trkpt>
            <trkpt lon="9.544284" lat="47.730275">
                <ele>447.6029280000034</ele>
                <time>2012-05-17T17:01:44.000Z</time>
                <name>Position 803</name>
            </trkpt>
            <trkpt lon="9.544433" lat="47.730129">
                <ele>448.13454816000575</ele>
                <time>2012-05-17T17:01:51.000Z</time>
                <name>Position 804</name>
            </trkpt>
            <trkpt lon="9.544673" lat="47.730021">
                <ele>448.4550230399987</ele>
                <time>2012-05-17T17:01:59.000Z</time>
                <name>Position 805</name>
            </trkpt>
            <trkpt lon="9.544923" lat="47.729917">
                <ele>448.3284091200004</ele>
                <time>2012-05-17T17:02:07.000Z</time>
                <name>Position 806</name>
            </trkpt>
            <trkpt lon="9.545162" lat="47.729833">
                <ele>447.8268844799987</ele>
                <time>2012-05-17T17:02:14.000Z</time>
                <name>Position 807</name>
            </trkpt>
            <trkpt lon="9.545403" lat="47.729756">
                <ele>447.14760384000584</ele>
                <time>2012-05-17T17:02:21.000Z</time>
                <name>Position 808</name>
            </trkpt>
            <trkpt lon="9.545624" lat="47.729666">
                <ele>446.3493619200067</ele>
                <time>2012-05-17T17:02:28.000Z</time>
                <name>Position 809</name>
            </trkpt>
            <trkpt lon="9.545841" lat="47.729597">
                <ele>445.53324911999437</ele>
                <time>2012-05-17T17:02:34.000Z</time>
                <name>Position 810</name>
            </trkpt>
            <trkpt lon="9.546084" lat="47.729526">
                <ele>444.1926950399976</ele>
                <time>2012-05-17T17:02:42.000Z</time>
                <name>Position 811</name>
            </trkpt>
            <trkpt lon="9.546309" lat="47.729431">
                <ele>442.8753422399891</ele>
                <time>2012-05-17T17:02:49.000Z</time>
                <name>Position 812</name>
            </trkpt>
            <trkpt lon="9.546443" lat="47.729291">
                <ele>441.79284528001347</ele>
                <time>2012-05-17T17:02:55.000Z</time>
                <name>Position 813</name>
            </trkpt>
            <trkpt lon="9.546506" lat="47.729138">
                <ele>441.18283840000146</ele>
                <time>2012-05-17T17:03:02.000Z</time>
                <name>Position 814</name>
            </trkpt>
            <trkpt lon="9.546462" lat="47.729011">
                <ele>441.75460960000083</ele>
                <time>2012-05-17T17:03:07.000Z</time>
                <name>Position 815</name>
            </trkpt>
            <trkpt lon="9.546403" lat="47.728913">
                <ele>442.18523920000484</ele>
                <time>2012-05-17T17:03:11.000Z</time>
                <name>Position 816</name>
            </trkpt>
            <trkpt lon="9.546313" lat="47.728868">
                <ele>442.44627520000415</ele>
                <time>2012-05-17T17:03:14.000Z</time>
                <name>Position 817</name>
            </trkpt>
            <trkpt lon="9.546297" lat="47.728869">
                <ele>442.46733039999486</ele>
                <time>2012-05-17T17:03:15.000Z</time>
                <name>Position 818</name>
            </trkpt>
            <trkpt lon="9.546326" lat="47.728855">
                <ele>442.45794399999266</ele>
                <time>2012-05-17T17:03:16.000Z</time>
                <name>Position 819</name>
            </trkpt>
            <trkpt lon="9.546317" lat="47.728863">
                <ele>442.451888800007</ele>
                <time>2012-05-17T17:03:16.000Z</time>
                <name>Position 820</name>
            </trkpt>
            <trkpt lon="9.546319" lat="47.728876">
                <ele>442.4192032000004</ele>
                <time>2012-05-17T17:03:17.000Z</time>
                <name>Position 821</name>
            </trkpt>
            <trkpt lon="9.546306" lat="47.728883">
                <ele>442.42337439999375</ele>
                <time>2012-05-17T17:03:17.000Z</time>
                <name>Position 822</name>
            </trkpt>
            <trkpt lon="9.546245" lat="47.728861">
                <ele>442.55719599999566</ele>
                <time>2012-05-17T17:03:19.000Z</time>
                <name>Position 823</name>
            </trkpt>
            <trkpt lon="9.546115" lat="47.728838">
                <ele>442.758135999997</ele>
                <time>2012-05-17T17:03:22.000Z</time>
                <name>Position 824</name>
            </trkpt>
            <trkpt lon="9.545979" lat="47.728784">
                <ele>442.9177407999989</ele>
                <time>2012-05-17T17:03:27.000Z</time>
                <name>Position 825</name>
            </trkpt>
            <trkpt lon="9.545878" lat="47.728707">
                <ele>442.93542879999995</ele>
                <time>2012-05-17T17:03:31.000Z</time>
                <name>Position 826</name>
            </trkpt>
            <trkpt lon="9.545788" lat="47.728652">
                <ele>443.0120025599961</ele>
                <time>2012-05-17T17:03:34.000Z</time>
                <name>Position 827</name>
            </trkpt>
            <trkpt lon="9.545709" lat="47.7286">
                <ele>443.166143999999</ele>
                <time>2012-05-17T17:03:37.000Z</time>
                <name>Position 828</name>
            </trkpt>
            <trkpt lon="9.545621" lat="47.728439">
                <ele>443.168708640001</ele>
                <time>2012-05-17T17:03:44.000Z</time>
                <name>Position 829</name>
            </trkpt>
            <trkpt lon="9.545496" lat="47.7283">
                <ele>443.5486400000199</ele>
                <time>2012-05-17T17:03:50.000Z</time>
                <name>Position 830</name>
            </trkpt>
            <trkpt lon="9.545387" lat="47.728201">
                <ele>444.4163336000098</ele>
                <time>2012-05-17T17:03:55.000Z</time>
                <name>Position 831</name>
            </trkpt>
            <trkpt lon="9.54527" lat="47.728128">
                <ele>444.9903680000104</ele>
                <time>2012-05-17T17:04:00.000Z</time>
                <name>Position 832</name>
            </trkpt>
            <trkpt lon="9.545176" lat="47.728046">
                <ele>445.47610880000474</ele>
                <time>2012-05-17T17:04:04.000Z</time>
                <name>Position 833</name>
            </trkpt>
            <trkpt lon="9.545055" lat="47.727973">
                <ele>445.80789200000544</ele>
                <time>2012-05-17T17:04:08.000Z</time>
                <name>Position 834</name>
            </trkpt>
            <trkpt lon="9.544961" lat="47.727922">
                <ele>445.98080000000186</ele>
                <time>2012-05-17T17:04:11.000Z</time>
                <name>Position 835</name>
            </trkpt>
            <trkpt lon="9.544838" lat="47.727848">
                <ele>446.24719999999434</ele>
                <time>2012-05-17T17:04:16.000Z</time>
                <name>Position 836</name>
            </trkpt>
            <trkpt lon="9.54472" lat="47.727769">
                <ele>446.5315999999925</ele>
                <time>2012-05-17T17:04:20.000Z</time>
                <name>Position 837</name>
            </trkpt>
            <trkpt lon="9.544614" lat="47.727666">
                <ele>446.9024000000028</ele>
                <time>2012-05-17T17:04:25.000Z</time>
                <name>Position 838</name>
            </trkpt>
            <trkpt lon="9.544454" lat="47.727608">
                <ele>447.1112000000128</ele>
                <time>2012-05-17T17:04:30.000Z</time>
                <name>Position 839</name>
            </trkpt>
            <trkpt lon="9.544288" lat="47.727531">
                <ele>447.38840000000357</ele>
                <time>2012-05-17T17:04:36.000Z</time>
                <name>Position 840</name>
            </trkpt>
            <trkpt lon="9.544121" lat="47.727459">
                <ele>447.6310076799827</ele>
                <time>2012-05-17T17:04:41.000Z</time>
                <name>Position 841</name>
            </trkpt>
            <trkpt lon="9.543981" lat="47.727397">
                <ele>447.6173238399828</ele>
                <time>2012-05-17T17:04:46.000Z</time>
                <name>Position 842</name>
            </trkpt>
            <trkpt lon="9.543812" lat="47.727348">
                <ele>447.4055411200064</ele>
                <time>2012-05-17T17:04:51.000Z</time>
                <name>Position 843</name>
            </trkpt>
            <trkpt lon="9.543665" lat="47.727282">
                <ele>447.2890335999912</ele>
                <time>2012-05-17T17:04:55.000Z</time>
                <name>Position 844</name>
            </trkpt>
            <trkpt lon="9.543507" lat="47.72716">
                <ele>447.3108544000089</ele>
                <time>2012-05-17T17:05:02.000Z</time>
                <name>Position 845</name>
            </trkpt>
            <trkpt lon="9.543373" lat="47.727023">
                <ele>447.36689247999317</ele>
                <time>2012-05-17T17:05:08.000Z</time>
                <name>Position 846</name>
            </trkpt>
            <trkpt lon="9.543263" lat="47.726912">
                <ele>447.8005894400053</ele>
                <time>2012-05-17T17:05:14.000Z</time>
                <name>Position 847</name>
            </trkpt>
            <trkpt lon="9.543173" lat="47.726779">
                <ele>448.39174207999963</ele>
                <time>2012-05-17T17:05:20.000Z</time>
                <name>Position 848</name>
            </trkpt>
            <trkpt lon="9.543173" lat="47.726643">
                <ele>448.7612075199924</ele>
                <time>2012-05-17T17:05:25.000Z</time>
                <name>Position 849</name>
            </trkpt>
            <trkpt lon="9.543201" lat="47.726494">
                <ele>449.1816899199928</ele>
                <time>2012-05-17T17:05:31.000Z</time>
                <name>Position 850</name>
            </trkpt>
            <trkpt lon="9.543291" lat="47.726411">
                <ele>449.42444368000406</ele>
                <time>2012-05-17T17:05:35.000Z</time>
                <name>Position 851</name>
            </trkpt>
            <trkpt lon="9.543359" lat="47.726293">
                <ele>449.9269678400078</ele>
                <time>2012-05-17T17:05:40.000Z</time>
                <name>Position 852</name>
            </trkpt>
            <trkpt lon="9.543392" lat="47.726181">
                <ele>450.4069126400126</ele>
                <time>2012-05-17T17:05:45.000Z</time>
                <name>Position 853</name>
            </trkpt>
            <trkpt lon="9.543453" lat="47.726068">
                <ele>450.9201132800053</ele>
                <time>2012-05-17T17:05:50.000Z</time>
                <name>Position 854</name>
            </trkpt>
            <trkpt lon="9.54347" lat="47.725932">
                <ele>451.367052799998</ele>
                <time>2012-05-17T17:05:55.000Z</time>
                <name>Position 855</name>
            </trkpt>
            <trkpt lon="9.543525" lat="47.725805">
                <ele>451.75889999999964</ele>
                <time>2012-05-17T17:06:00.000Z</time>
                <name>Position 856</name>
            </trkpt>
            <trkpt lon="9.543593" lat="47.725659">
                <ele>451.9040663999999</ele>
                <time>2012-05-17T17:06:06.000Z</time>
                <name>Position 857</name>
            </trkpt>
            <trkpt lon="9.543643" lat="47.7255">
                <ele>451.92840000000126</ele>
                <time>2012-05-17T17:06:13.000Z</time>
                <name>Position 858</name>
            </trkpt>
            <trkpt lon="9.543706" lat="47.725335">
                <ele>451.80607199999974</ele>
                <time>2012-05-17T17:06:20.000Z</time>
                <name>Position 859</name>
            </trkpt>
            <trkpt lon="9.543771" lat="47.725182">
                <ele>451.53591839999893</ele>
                <time>2012-05-17T17:06:26.000Z</time>
                <name>Position 860</name>
            </trkpt>
            <trkpt lon="9.543857" lat="47.725041">
                <ele>451.0425864000001</ele>
                <time>2012-05-17T17:06:32.000Z</time>
                <name>Position 861</name>
            </trkpt>
            <trkpt lon="9.543949" lat="47.724908">
                <ele>450.7656000000041</ele>
                <time>2012-05-17T17:06:38.000Z</time>
                <name>Position 862</name>
            </trkpt>
            <trkpt lon="9.544016" lat="47.724762">
                <ele>450.7944000000081</ele>
                <time>2012-05-17T17:06:44.000Z</time>
                <name>Position 863</name>
            </trkpt>
            <trkpt lon="9.54411" lat="47.724601">
                <ele>450.7296000000012</ele>
                <time>2012-05-17T17:06:51.000Z</time>
                <name>Position 864</name>
            </trkpt>
            <trkpt lon="9.544178" lat="47.724449">
                <ele>450.7769923199985</ele>
                <time>2012-05-17T17:06:58.000Z</time>
                <name>Position 865</name>
            </trkpt>
            <trkpt lon="9.544261" lat="47.724302">
                <ele>450.8172163199942</ele>
                <time>2012-05-17T17:07:04.000Z</time>
                <name>Position 866</name>
            </trkpt>
            <trkpt lon="9.544331" lat="47.724156">
                <ele>450.91344832000095</ele>
                <time>2012-05-17T17:07:10.000Z</time>
                <name>Position 867</name>
            </trkpt>
            <trkpt lon="9.544399" lat="47.724009">
                <ele>450.7690979199976</ele>
                <time>2012-05-17T17:07:16.000Z</time>
                <name>Position 868</name>
            </trkpt>
            <trkpt lon="9.544423" lat="47.723865">
                <ele>450.7999023999972</ele>
                <time>2012-05-17T17:07:22.000Z</time>
                <name>Position 869</name>
            </trkpt>
            <trkpt lon="9.544473" lat="47.723719">
                <ele>450.7921494399978</ele>
                <time>2012-05-17T17:07:28.000Z</time>
                <name>Position 870</name>
            </trkpt>
            <trkpt lon="9.544521" lat="47.72356">
                <ele>450.8434912000018</ele>
                <time>2012-05-17T17:07:34.000Z</time>
                <name>Position 871</name>
            </trkpt>
            <trkpt lon="9.544575" lat="47.723368">
                <ele>450.96923199999924</ele>
                <time>2012-05-17T17:07:42.000Z</time>
                <name>Position 872</name>
            </trkpt>
            <trkpt lon="9.544629" lat="47.723164">
                <ele>450.65153535999434</ele>
                <time>2012-05-17T17:07:51.000Z</time>
                <name>Position 873</name>
            </trkpt>
            <trkpt lon="9.544682" lat="47.722959">
                <ele>450.26098528000506</ele>
                <time>2012-05-17T17:07:59.000Z</time>
                <name>Position 874</name>
            </trkpt>
            <trkpt lon="9.544754" lat="47.722721">
                <ele>449.84348704000007</ele>
                <time>2012-05-17T17:08:09.000Z</time>
                <name>Position 875</name>
            </trkpt>
            <trkpt lon="9.544852" lat="47.722527">
                <ele>449.5381542399992</ele>
                <time>2012-05-17T17:08:17.000Z</time>
                <name>Position 876</name>
            </trkpt>
            <trkpt lon="9.544957" lat="47.722352">
                <ele>448.9946924800025</ele>
                <time>2012-05-17T17:08:24.000Z</time>
                <name>Position 877</name>
            </trkpt>
            <trkpt lon="9.545044" lat="47.722154">
                <ele>448.2544000000118</ele>
                <time>2012-05-17T17:08:33.000Z</time>
                <name>Position 878</name>
            </trkpt>
            <trkpt lon="9.545123" lat="47.721929">
                <ele>447.4444000000105</ele>
                <time>2012-05-17T17:08:42.000Z</time>
                <name>Position 879</name>
            </trkpt>
            <trkpt lon="9.545201" lat="47.721704">
                <ele>446.6344000000092</ele>
                <time>2012-05-17T17:08:51.000Z</time>
                <name>Position 880</name>
            </trkpt>
            <trkpt lon="9.545269" lat="47.721493">
                <ele>447.05792847999254</ele>
                <time>2012-05-17T17:09:00.000Z</time>
                <name>Position 881</name>
            </trkpt>
            <trkpt lon="9.545334" lat="47.721275">
                <ele>447.7216240000043</ele>
                <time>2012-05-17T17:09:09.000Z</time>
                <name>Position 882</name>
            </trkpt>
            <trkpt lon="9.545415" lat="47.721057">
                <ele>448.33046319999437</ele>
                <time>2012-05-17T17:09:18.000Z</time>
                <name>Position 883</name>
            </trkpt>
            <trkpt lon="9.545502" lat="47.720852">
                <ele>448.843893759997</ele>
                <time>2012-05-17T17:09:26.000Z</time>
                <name>Position 884</name>
            </trkpt>
            <trkpt lon="9.545605" lat="47.720659">
                <ele>448.1463999999914</ele>
                <time>2012-05-17T17:09:34.000Z</time>
                <name>Position 885</name>
            </trkpt>
            <trkpt lon="9.545721" lat="47.720459">
                <ele>447.2871999999928</ele>
                <time>2012-05-17T17:09:43.000Z</time>
                <name>Position 886</name>
            </trkpt>
            <trkpt lon="9.54581" lat="47.720254">
                <ele>446.44239999998985</ele>
                <time>2012-05-17T17:09:52.000Z</time>
                <name>Position 887</name>
            </trkpt>
            <trkpt lon="9.545922" lat="47.720035">
                <ele>445.315737600014</ele>
                <time>2012-05-17T17:10:01.000Z</time>
                <name>Position 888</name>
            </trkpt>
            <trkpt lon="9.546005" lat="47.719835">
                <ele>443.6940000000267</ele>
                <time>2012-05-17T17:10:09.000Z</time>
                <name>Position 889</name>
            </trkpt>
            <trkpt lon="9.546103" lat="47.719629">
                <ele>441.8579999999811</ele>
                <time>2012-05-17T17:10:18.000Z</time>
                <name>Position 890</name>
            </trkpt>
            <trkpt lon="9.546186" lat="47.71943">
                <ele>440.1264000000172</ele>
                <time>2012-05-17T17:10:26.000Z</time>
                <name>Position 891</name>
            </trkpt>
            <trkpt lon="9.546288" lat="47.71923">
                <ele>438.31920000002043</ele>
                <time>2012-05-17T17:10:34.000Z</time>
                <name>Position 892</name>
            </trkpt>
            <trkpt lon="9.546404" lat="47.71903">
                <ele>437.67021440000354</ele>
                <time>2012-05-17T17:10:43.000Z</time>
                <name>Position 893</name>
            </trkpt>
            <trkpt lon="9.546489" lat="47.718831">
                <ele>437.7734460799991</ele>
                <time>2012-05-17T17:10:51.000Z</time>
                <name>Position 894</name>
            </trkpt>
            <trkpt lon="9.54659" lat="47.718649">
                <ele>437.90409920000167</ele>
                <time>2012-05-17T17:10:59.000Z</time>
                <name>Position 895</name>
            </trkpt>
            <trkpt lon="9.546677" lat="47.718475">
                <ele>438.0795239999997</ele>
                <time>2012-05-17T17:11:07.000Z</time>
                <name>Position 896</name>
            </trkpt>
            <trkpt lon="9.546743" lat="47.718316">
                <ele>437.90802112000216</ele>
                <time>2012-05-17T17:11:13.000Z</time>
                <name>Position 897</name>
            </trkpt>
            <trkpt lon="9.546852" lat="47.718096">
                <ele>437.766158079995</ele>
                <time>2012-05-17T17:11:22.000Z</time>
                <name>Position 898</name>
            </trkpt>
            <trkpt lon="9.546913" lat="47.717906">
                <ele>438.06273472000345</ele>
                <time>2012-05-17T17:11:30.000Z</time>
                <name>Position 899</name>
            </trkpt>
            <trkpt lon="9.547" lat="47.717725">
                <ele>438.3279999999911</ele>
                <time>2012-05-17T17:11:38.000Z</time>
                <name>Position 900</name>
            </trkpt>
            <trkpt lon="9.547081" lat="47.717495">
                <ele>439.01741679999975</ele>
                <time>2012-05-17T17:11:47.000Z</time>
                <name>Position 901</name>
            </trkpt>
            <trkpt lon="9.54714" lat="47.71731">
                <ele>439.1224960000019</ele>
                <time>2012-05-17T17:11:55.000Z</time>
                <name>Position 902</name>
            </trkpt>
            <trkpt lon="9.547245" lat="47.717148">
                <ele>438.96965439999684</ele>
                <time>2012-05-17T17:12:02.000Z</time>
                <name>Position 903</name>
            </trkpt>
            <trkpt lon="9.547409" lat="47.717006">
                <ele>438.4851337600031</ele>
                <time>2012-05-17T17:12:09.000Z</time>
                <name>Position 904</name>
            </trkpt>
            <trkpt lon="9.547599" lat="47.716881">
                <ele>437.6453785599989</ele>
                <time>2012-05-17T17:12:16.000Z</time>
                <name>Position 905</name>
            </trkpt>
            <trkpt lon="9.547776" lat="47.716757">
                <ele>436.92319167999284</ele>
                <time>2012-05-17T17:12:23.000Z</time>
                <name>Position 906</name>
            </trkpt>
            <trkpt lon="9.547866" lat="47.716648">
                <ele>436.8355238399998</ele>
                <time>2012-05-17T17:12:28.000Z</time>
                <name>Position 907</name>
            </trkpt>
            <trkpt lon="9.547846" lat="47.716541">
                <ele>437.46797568000414</ele>
                <time>2012-05-17T17:12:32.000Z</time>
                <name>Position 908</name>
            </trkpt>
            <trkpt lon="9.547754" lat="47.716466">
                <ele>438.33800832001975</ele>
                <time>2012-05-17T17:12:36.000Z</time>
                <name>Position 909</name>
            </trkpt>
            <trkpt lon="9.547629" lat="47.716397">
                <ele>439.3986134399937</ele>
                <time>2012-05-17T17:12:41.000Z</time>
                <name>Position 910</name>
            </trkpt>
            <trkpt lon="9.547486" lat="47.716323">
                <ele>440.6014867199869</ele>
                <time>2012-05-17T17:12:46.000Z</time>
                <name>Position 911</name>
            </trkpt>
            <trkpt lon="9.547307" lat="47.716252">
                <ele>441.45342336001426</ele>
                <time>2012-05-17T17:12:51.000Z</time>
                <name>Position 912</name>
            </trkpt>
            <trkpt lon="9.547116" lat="47.716171">
                <ele>442.2208646399884</ele>
                <time>2012-05-17T17:12:57.000Z</time>
                <name>Position 913</name>
            </trkpt>
            <trkpt lon="9.546914" lat="47.716098">
                <ele>442.8053452799954</ele>
                <time>2012-05-17T17:13:03.000Z</time>
                <name>Position 914</name>
            </trkpt>
            <trkpt lon="9.546737" lat="47.716028">
                <ele>443.18753663999763</ele>
                <time>2012-05-17T17:13:09.000Z</time>
                <name>Position 915</name>
            </trkpt>
            <trkpt lon="9.546541" lat="47.715916">
                <ele>443.2649593599995</ele>
                <time>2012-05-17T17:13:16.000Z</time>
                <name>Position 916</name>
            </trkpt>
            <trkpt lon="9.546353" lat="47.715795">
                <ele>443.15228559999986</ele>
                <time>2012-05-17T17:13:23.000Z</time>
                <name>Position 917</name>
            </trkpt>
            <trkpt lon="9.546171" lat="47.715665">
                <ele>442.9870503999983</ele>
                <time>2012-05-17T17:13:30.000Z</time>
                <name>Position 918</name>
            </trkpt>
            <trkpt lon="9.545973" lat="47.71557">
                <ele>442.72056160000005</ele>
                <time>2012-05-17T17:13:37.000Z</time>
                <name>Position 919</name>
            </trkpt>
            <trkpt lon="9.54582" lat="47.715492">
                <ele>442.5</ele>
                <time>2012-05-17T17:13:42.000Z</time>
                <name>Position 920</name>
            </trkpt>
            <trkpt lon="9.545634" lat="47.715418">
                <ele>442.5</ele>
                <time>2012-05-17T17:13:48.000Z</time>
                <name>Position 921</name>
            </trkpt>
            <trkpt lon="9.545454" lat="47.715329">
                <ele>442.5</ele>
                <time>2012-05-17T17:13:54.000Z</time>
                <name>Position 922</name>
            </trkpt>
            <trkpt lon="9.545278" lat="47.71526">
                <ele>442.5</ele>
                <time>2012-05-17T17:13:59.000Z</time>
                <name>Position 923</name>
            </trkpt>
            <trkpt lon="9.545066" lat="47.715151">
                <ele>442.5</ele>
                <time>2012-05-17T17:14:06.000Z</time>
                <name>Position 924</name>
            </trkpt>
            <trkpt lon="9.544879" lat="47.715053">
                <ele>442.51846943999914</ele>
                <time>2012-05-17T17:14:13.000Z</time>
                <name>Position 925</name>
            </trkpt>
            <trkpt lon="9.544673" lat="47.714983">
                <ele>442.5699801600142</ele>
                <time>2012-05-17T17:14:19.000Z</time>
                <name>Position 926</name>
            </trkpt>
            <trkpt lon="9.544492" lat="47.714916">
                <ele>442.75820927999297</ele>
                <time>2012-05-17T17:14:24.000Z</time>
                <name>Position 927</name>
            </trkpt>
            <trkpt lon="9.544325" lat="47.714802">
                <ele>442.91817600000326</ele>
                <time>2012-05-17T17:14:31.000Z</time>
                <name>Position 928</name>
            </trkpt>
            <trkpt lon="9.544145" lat="47.714695">
                <ele>442.811452000002</ele>
                <time>2012-05-17T17:14:37.000Z</time>
                <name>Position 929</name>
            </trkpt>
            <trkpt lon="9.544011" lat="47.714629">
                <ele>442.50890991999705</ele>
                <time>2012-05-17T17:14:42.000Z</time>
                <name>Position 930</name>
            </trkpt>
            <trkpt lon="9.543922" lat="47.714579">
                <ele>442.26661984000066</ele>
                <time>2012-05-17T17:14:45.000Z</time>
                <name>Position 931</name>
            </trkpt>
            <trkpt lon="9.543803" lat="47.714518">
                <ele>441.8847587200009</ele>
                <time>2012-05-17T17:14:49.000Z</time>
                <name>Position 932</name>
            </trkpt>
            <trkpt lon="9.543647" lat="47.714433">
                <ele>441.2839076799995</ele>
                <time>2012-05-17T17:14:54.000Z</time>
                <name>Position 933</name>
            </trkpt>
            <trkpt lon="9.543441" lat="47.714334">
                <ele>440.34056992000006</ele>
                <time>2012-05-17T17:15:01.000Z</time>
                <name>Position 934</name>
            </trkpt>
            <trkpt lon="9.54324" lat="47.714255">
                <ele>439.71200000000323</ele>
                <time>2012-05-17T17:15:07.000Z</time>
                <name>Position 935</name>
            </trkpt>
            <trkpt lon="9.543038" lat="47.714181">
                <ele>439.53440000000825</ele>
                <time>2012-05-17T17:15:14.000Z</time>
                <name>Position 936</name>
            </trkpt>
            <trkpt lon="9.542867" lat="47.714091">
                <ele>439.83403503998557</ele>
                <time>2012-05-17T17:15:19.000Z</time>
                <name>Position 937</name>
            </trkpt>
            <trkpt lon="9.542709" lat="47.713993">
                <ele>440.38519983998924</ele>
                <time>2012-05-17T17:15:25.000Z</time>
                <name>Position 938</name>
            </trkpt>
            <trkpt lon="9.542536" lat="47.713877">
                <ele>441.19295104002026</ele>
                <time>2012-05-17T17:15:32.000Z</time>
                <name>Position 939</name>
            </trkpt>
            <trkpt lon="9.542343" lat="47.713836">
                <ele>442.2017286399943</ele>
                <time>2012-05-17T17:15:37.000Z</time>
                <name>Position 940</name>
            </trkpt>
            <trkpt lon="9.542163" lat="47.713747">
                <ele>443.42903248000835</ele>
                <time>2012-05-17T17:15:43.000Z</time>
                <name>Position 941</name>
            </trkpt>
            <trkpt lon="9.541972" lat="47.71366">
                <ele>444.55231360001255</ele>
                <time>2012-05-17T17:15:49.000Z</time>
                <name>Position 942</name>
            </trkpt>
            <trkpt lon="9.541723" lat="47.713522">
                <ele>445.86608608000915</ele>
                <time>2012-05-17T17:15:58.000Z</time>
                <name>Position 943</name>
            </trkpt>
            <trkpt lon="9.541477" lat="47.713402">
                <ele>445.93626271999756</ele>
                <time>2012-05-17T17:16:06.000Z</time>
                <name>Position 944</name>
            </trkpt>
            <trkpt lon="9.541251" lat="47.713285">
                <ele>445.4444000000007</ele>
                <time>2012-05-17T17:16:14.000Z</time>
                <name>Position 945</name>
            </trkpt>
            <trkpt lon="9.541054" lat="47.713178">
                <ele>444.8432000000009</ele>
                <time>2012-05-17T17:16:21.000Z</time>
                <name>Position 946</name>
            </trkpt>
            <trkpt lon="9.540916" lat="47.713111">
                <ele>444.43159999999557</ele>
                <time>2012-05-17T17:16:25.000Z</time>
                <name>Position 947</name>
            </trkpt>
            <trkpt lon="9.540775" lat="47.713025">
                <ele>443.92000000000206</ele>
                <time>2012-05-17T17:16:31.000Z</time>
                <name>Position 948</name>
            </trkpt>
            <trkpt lon="9.540635" lat="47.712927">
                <ele>443.2984000000004</ele>
                <time>2012-05-17T17:16:36.000Z</time>
                <name>Position 949</name>
            </trkpt>
            <trkpt lon="9.540495" lat="47.712835">
                <ele>442.6839999999977</ele>
                <time>2012-05-17T17:16:41.000Z</time>
                <name>Position 950</name>
            </trkpt>
            <trkpt lon="9.540335" lat="47.712771">
                <ele>442.0311999999981</ele>
                <time>2012-05-17T17:16:46.000Z</time>
                <name>Position 951</name>
            </trkpt>
            <trkpt lon="9.540172" lat="47.7127">
                <ele>441.35919999999794</ele>
                <time>2012-05-17T17:16:52.000Z</time>
                <name>Position 952</name>
            </trkpt>
            <trkpt lon="9.540023" lat="47.712635">
                <ele>440.7447999999973</ele>
                <time>2012-05-17T17:16:56.000Z</time>
                <name>Position 953</name>
            </trkpt>
            <trkpt lon="9.539887" lat="47.712562">
                <ele>440.32337727999794</ele>
                <time>2012-05-17T17:17:01.000Z</time>
                <name>Position 954</name>
            </trkpt>
            <trkpt lon="9.539705" lat="47.71246">
                <ele>439.79497599999917</ele>
                <time>2012-05-17T17:17:07.000Z</time>
                <name>Position 955</name>
            </trkpt>
            <trkpt lon="9.539528" lat="47.71239">
                <ele>439.459494400002</ele>
                <time>2012-05-17T17:17:13.000Z</time>
                <name>Position 956</name>
            </trkpt>
            <trkpt lon="9.53935" lat="47.712314">
                <ele>439.23908800000225</ele>
                <time>2012-05-17T17:17:19.000Z</time>
                <name>Position 957</name>
            </trkpt>
            <trkpt lon="9.539162" lat="47.71224">
                <ele>439.1089471999944</ele>
                <time>2012-05-17T17:17:24.000Z</time>
                <name>Position 958</name>
            </trkpt>
            <trkpt lon="9.539" lat="47.712157">
                <ele>438.8055200000051</ele>
                <time>2012-05-17T17:17:30.000Z</time>
                <name>Position 959</name>
            </trkpt>
            <trkpt lon="9.538778" lat="47.712051">
                <ele>438.4296963199947</ele>
                <time>2012-05-17T17:17:37.000Z</time>
                <name>Position 960</name>
            </trkpt>
            <trkpt lon="9.538563" lat="47.711961">
                <ele>438.08894191999224</ele>
                <time>2012-05-17T17:17:44.000Z</time>
                <name>Position 961</name>
            </trkpt>
            <trkpt lon="9.538373" lat="47.71188">
                <ele>437.8393855999974</ele>
                <time>2012-05-17T17:17:50.000Z</time>
                <name>Position 962</name>
            </trkpt>
            <trkpt lon="9.538202" lat="47.711759">
                <ele>437.41452415999765</ele>
                <time>2012-05-17T17:17:57.000Z</time>
                <name>Position 963</name>
            </trkpt>
            <trkpt lon="9.538046" lat="47.711661">
                <ele>436.7874892799983</ele>
                <time>2012-05-17T17:18:03.000Z</time>
                <name>Position 964</name>
            </trkpt>
            <trkpt lon="9.537873" lat="47.71161">
                <ele>435.88112639999537</ele>
                <time>2012-05-17T17:18:08.000Z</time>
                <name>Position 965</name>
            </trkpt>
            <trkpt lon="9.537632" lat="47.711534">
                <ele>434.7191654400006</ele>
                <time>2012-05-17T17:18:15.000Z</time>
                <name>Position 966</name>
            </trkpt>
            <trkpt lon="9.537384" lat="47.71142">
                <ele>434.0372160000125</ele>
                <time>2012-05-17T17:18:23.000Z</time>
                <name>Position 967</name>
            </trkpt>
            <trkpt lon="9.537171" lat="47.711296">
                <ele>434.1332352000183</ele>
                <time>2012-05-17T17:18:31.000Z</time>
                <name>Position 968</name>
            </trkpt>
            <trkpt lon="9.536948" lat="47.711185">
                <ele>434.4987359999985</ele>
                <time>2012-05-17T17:18:38.000Z</time>
                <name>Position 969</name>
            </trkpt>
            <trkpt lon="9.536753" lat="47.711021">
                <ele>435.7114535999797</ele>
                <time>2012-05-17T17:18:46.000Z</time>
                <name>Position 970</name>
            </trkpt>
            <trkpt lon="9.536566" lat="47.710882">
                <ele>437.77170944001574</ele>
                <time>2012-05-17T17:18:54.000Z</time>
                <name>Position 971</name>
            </trkpt>
            <trkpt lon="9.536389" lat="47.710782">
                <ele>439.5608246399998</ele>
                <time>2012-05-17T17:19:00.000Z</time>
                <name>Position 972</name>
            </trkpt>
            <trkpt lon="9.536191" lat="47.710746">
                <ele>440.95494047999665</ele>
                <time>2012-05-17T17:19:06.000Z</time>
                <name>Position 973</name>
            </trkpt>
            <trkpt lon="9.536014" lat="47.710688">
                <ele>442.1382297600008</ele>
                <time>2012-05-17T17:19:11.000Z</time>
                <name>Position 974</name>
            </trkpt>
            <trkpt lon="9.53583" lat="47.710645">
                <ele>443.27928799999825</ele>
                <time>2012-05-17T17:19:16.000Z</time>
                <name>Position 975</name>
            </trkpt>
            <trkpt lon="9.535674" lat="47.710618">
                <ele>443.47578175999325</ele>
                <time>2012-05-17T17:19:21.000Z</time>
                <name>Position 976</name>
            </trkpt>
            <trkpt lon="9.535523" lat="47.710604">
                <ele>443.6621465599915</ele>
                <time>2012-05-17T17:19:25.000Z</time>
                <name>Position 977</name>
            </trkpt>
            <trkpt lon="9.535343" lat="47.710568">
                <ele>443.7963603200077</ele>
                <time>2012-05-17T17:19:30.000Z</time>
                <name>Position 978</name>
            </trkpt>
            <trkpt lon="9.535164" lat="47.710502">
                <ele>443.75074303999236</ele>
                <time>2012-05-17T17:19:35.000Z</time>
                <name>Position 979</name>
            </trkpt>
            <trkpt lon="9.53503" lat="47.710454">
                <ele>443.6563615999925</ele>
                <time>2012-05-17T17:19:39.000Z</time>
                <name>Position 980</name>
            </trkpt>
            <trkpt lon="9.534892" lat="47.710362">
                <ele>443.05170176001457</ele>
                <time>2012-05-17T17:19:45.000Z</time>
                <name>Position 981</name>
            </trkpt>
            <trkpt lon="9.534765" lat="47.710198">
                <ele>442.1013967999924</ele>
                <time>2012-05-17T17:19:52.000Z</time>
                <name>Position 982</name>
            </trkpt>
            <trkpt lon="9.534644" lat="47.709971">
                <ele>441.08259967999913</ele>
                <time>2012-05-17T17:20:02.000Z</time>
                <name>Position 983</name>
            </trkpt>
            <trkpt lon="9.534534" lat="47.709807">
                <ele>441.09773216000207</ele>
                <time>2012-05-17T17:20:09.000Z</time>
                <name>Position 984</name>
            </trkpt>
            <trkpt lon="9.534462" lat="47.709621">
                <ele>441.28045664000194</ele>
                <time>2012-05-17T17:20:16.000Z</time>
                <name>Position 985</name>
            </trkpt>
            <trkpt lon="9.534418" lat="47.709452">
                <ele>441.52180352000096</ele>
                <time>2012-05-17T17:20:23.000Z</time>
                <name>Position 986</name>
            </trkpt>
            <trkpt lon="9.534402" lat="47.709293">
                <ele>441.7604355199967</ele>
                <time>2012-05-17T17:20:30.000Z</time>
                <name>Position 987</name>
            </trkpt>
            <trkpt lon="9.534446" lat="47.709067">
                <ele>442.34808992001155</ele>
                <time>2012-05-17T17:20:39.000Z</time>
                <name>Position 988</name>
            </trkpt>
            <trkpt lon="9.534553" lat="47.708886">
                <ele>443.0761404800005</ele>
                <time>2012-05-17T17:20:47.000Z</time>
                <name>Position 989</name>
            </trkpt>
            <trkpt lon="9.534629" lat="47.708732">
                <ele>443.7661836800116</ele>
                <time>2012-05-17T17:20:53.000Z</time>
                <name>Position 990</name>
            </trkpt>
            <trkpt lon="9.534736" lat="47.708588">
                <ele>444.38561408000567</ele>
                <time>2012-05-17T17:21:00.000Z</time>
                <name>Position 991</name>
            </trkpt>
            <trkpt lon="9.534872" lat="47.708449">
                <ele>444.98091967999056</ele>
                <time>2012-05-17T17:21:06.000Z</time>
                <name>Position 992</name>
            </trkpt>
            <trkpt lon="9.535012" lat="47.708317">
                <ele>445.4570822399999</ele>
                <time>2012-05-17T17:21:13.000Z</time>
                <name>Position 993</name>
            </trkpt>
            <trkpt lon="9.53513" lat="47.708165">
                <ele>445.06351199999807</ele>
                <time>2012-05-17T17:21:20.000Z</time>
                <name>Position 994</name>
            </trkpt>
            <trkpt lon="9.53525" lat="47.70802">
                <ele>444.71280000000235</ele>
                <time>2012-05-17T17:21:26.000Z</time>
                <name>Position 995</name>
            </trkpt>
            <trkpt lon="9.535355" lat="47.707882">
                <ele>444.4527216000037</ele>
                <time>2012-05-17T17:21:32.000Z</time>
                <name>Position 996</name>
            </trkpt>
            <trkpt lon="9.5355" lat="47.707763">
                <ele>444.11063999999806</ele>
                <time>2012-05-17T17:21:39.000Z</time>
                <name>Position 997</name>
            </trkpt>
            <trkpt lon="9.535642" lat="47.707637">
                <ele>443.8325462400035</ele>
                <time>2012-05-17T17:21:45.000Z</time>
                <name>Position 998</name>
            </trkpt>
            <trkpt lon="9.535749" lat="47.7075">
                <ele>443.70239999999876</ele>
                <time>2012-05-17T17:21:51.000Z</time>
                <name>Position 999</name>
            </trkpt>
            <trkpt lon="9.535884" lat="47.707366">
                <ele>442.6960000000023</ele>
                <time>2012-05-17T17:21:58.000Z</time>
                <name>Position 1000</name>
            </trkpt>
            <trkpt lon="9.535994" lat="47.707235">
                <ele>441.90999999998303</ele>
                <time>2012-05-17T17:22:04.000Z</time>
                <name>Position 1001</name>
            </trkpt>
            <trkpt lon="9.536108" lat="47.707105">
                <ele>441.12999999999124</ele>
                <time>2012-05-17T17:22:10.000Z</time>
                <name>Position 1002</name>
            </trkpt>
            <trkpt lon="9.536232" lat="47.706974">
                <ele>440.3440000000146</ele>
                <time>2012-05-17T17:22:16.000Z</time>
                <name>Position 1003</name>
            </trkpt>
            <trkpt lon="9.536315" lat="47.706839">
                <ele>439.5340000000133</ele>
                <time>2012-05-17T17:22:22.000Z</time>
                <name>Position 1004</name>
            </trkpt>
            <trkpt lon="9.536394" lat="47.706684">
                <ele>438.6040000000165</ele>
                <time>2012-05-17T17:22:28.000Z</time>
                <name>Position 1005</name>
            </trkpt>
            <trkpt lon="9.53649" lat="47.706536">
                <ele>438.1531583999994</ele>
                <time>2012-05-17T17:22:35.000Z</time>
                <name>Position 1006</name>
            </trkpt>
            <trkpt lon="9.536588" lat="47.706395">
                <ele>437.81722560000117</ele>
                <time>2012-05-17T17:22:41.000Z</time>
                <name>Position 1007</name>
            </trkpt>
            <trkpt lon="9.536687" lat="47.706195">
                <ele>437.40621040000315</ele>
                <time>2012-05-17T17:22:49.000Z</time>
                <name>Position 1008</name>
            </trkpt>
            <trkpt lon="9.536772" lat="47.706001">
                <ele>437.129768319999</ele>
                <time>2012-05-17T17:22:58.000Z</time>
                <name>Position 1009</name>
            </trkpt>
            <trkpt lon="9.53687" lat="47.705807">
                <ele>436.91784800000073</ele>
                <time>2012-05-17T17:23:06.000Z</time>
                <name>Position 1010</name>
            </trkpt>
            <trkpt lon="9.536942" lat="47.705627">
                <ele>436.5041647999988</ele>
                <time>2012-05-17T17:23:13.000Z</time>
                <name>Position 1011</name>
            </trkpt>
            <trkpt lon="9.537025" lat="47.70548">
                <ele>436.0244000000052</ele>
                <time>2012-05-17T17:23:19.000Z</time>
                <name>Position 1012</name>
            </trkpt>
            <trkpt lon="9.53701" lat="47.70541">
                <ele>435.7695200000015</ele>
                <time>2012-05-17T17:23:22.000Z</time>
                <name>Position 1013</name>
            </trkpt>
            <trkpt lon="9.536992" lat="47.705398">
                <ele>435.7386752000086</ele>
                <time>2012-05-17T17:23:23.000Z</time>
                <name>Position 1014</name>
            </trkpt>
            <trkpt lon="9.537008" lat="47.705392">
                <ele>435.7049792000119</ele>
                <time>2012-05-17T17:23:24.000Z</time>
                <name>Position 1015</name>
            </trkpt>
            <trkpt lon="9.537071" lat="47.705355">
                <ele>435.5038759999895</ele>
                <time>2012-05-17T17:23:26.000Z</time>
                <name>Position 1016</name>
            </trkpt>
            <trkpt lon="9.53724" lat="47.705292">
                <ele>434.991775999999</ele>
                <time>2012-05-17T17:23:31.000Z</time>
                <name>Position 1017</name>
            </trkpt>
            <trkpt lon="9.537454" lat="47.705257">
                <ele>434.4308816000206</ele>
                <time>2012-05-17T17:23:37.000Z</time>
                <name>Position 1018</name>
            </trkpt>
            <trkpt lon="9.53768" lat="47.705221">
                <ele>432.9670496000136</ele>
                <time>2012-05-17T17:23:43.000Z</time>
                <name>Position 1019</name>
            </trkpt>
            <trkpt lon="9.537851" lat="47.705174">
                <ele>431.48943967999674</ele>
                <time>2012-05-17T17:23:48.000Z</time>
                <name>Position 1020</name>
            </trkpt>
            <trkpt lon="9.53787" lat="47.705046">
                <ele>430.240726400027</ele>
                <time>2012-05-17T17:23:53.000Z</time>
                <name>Position 1021</name>
            </trkpt>
            <trkpt lon="9.537848" lat="47.704919">
                <ele>429.46780927997673</ele>
                <time>2012-05-17T17:23:58.000Z</time>
                <name>Position 1022</name>
            </trkpt>
            <trkpt lon="9.537855" lat="47.704804">
                <ele>428.6678048000159</ele>
                <time>2012-05-17T17:24:03.000Z</time>
                <name>Position 1023</name>
            </trkpt>
            <trkpt lon="9.537833" lat="47.704678">
                <ele>428.0159945600152</ele>
                <time>2012-05-17T17:24:08.000Z</time>
                <name>Position 1024</name>
            </trkpt>
            <trkpt lon="9.537848" lat="47.704536">
                <ele>426.97788031998084</ele>
                <time>2012-05-17T17:24:14.000Z</time>
                <name>Position 1025</name>
            </trkpt>
            <trkpt lon="9.537837" lat="47.704396">
                <ele>426.15649088002044</ele>
                <time>2012-05-17T17:24:19.000Z</time>
                <name>Position 1026</name>
            </trkpt>
            <trkpt lon="9.537808" lat="47.704244">
                <ele>425.4110988800176</ele>
                <time>2012-05-17T17:24:26.000Z</time>
                <name>Position 1027</name>
            </trkpt>
            <trkpt lon="9.53779" lat="47.704084">
                <ele>425.22351360000357</ele>
                <time>2012-05-17T17:24:32.000Z</time>
                <name>Position 1028</name>
            </trkpt>
            <trkpt lon="9.537764" lat="47.703933">
                <ele>425.7682771200099</ele>
                <time>2012-05-17T17:24:38.000Z</time>
                <name>Position 1029</name>
            </trkpt>
            <trkpt lon="9.537774" lat="47.703754">
                <ele>426.03271295998695</ele>
                <time>2012-05-17T17:24:45.000Z</time>
                <name>Position 1030</name>
            </trkpt>
            <trkpt lon="9.537765" lat="47.70362">
                <ele>426.4075679999963</ele>
                <time>2012-05-17T17:24:51.000Z</time>
                <name>Position 1031</name>
            </trkpt>
            <trkpt lon="9.537721" lat="47.703463">
                <ele>427.28106048000967</ele>
                <time>2012-05-17T17:24:57.000Z</time>
                <name>Position 1032</name>
            </trkpt>
            <trkpt lon="9.537669" lat="47.703314">
                <ele>428.1535248000037</ele>
                <time>2012-05-17T17:25:03.000Z</time>
                <name>Position 1033</name>
            </trkpt>
            <trkpt lon="9.537587" lat="47.70316">
                <ele>428.2121759999775</ele>
                <time>2012-05-17T17:25:10.000Z</time>
                <name>Position 1034</name>
            </trkpt>
            <trkpt lon="9.537491" lat="47.703007">
                <ele>428.2236585600027</ele>
                <time>2012-05-17T17:25:16.000Z</time>
                <name>Position 1035</name>
            </trkpt>
            <trkpt lon="9.537385" lat="47.702857">
                <ele>428.0561616000078</ele>
                <time>2012-05-17T17:25:23.000Z</time>
                <name>Position 1036</name>
            </trkpt>
            <trkpt lon="9.537302" lat="47.702703">
                <ele>427.7466412799946</ele>
                <time>2012-05-17T17:25:29.000Z</time>
                <name>Position 1037</name>
            </trkpt>
            <trkpt lon="9.537192" lat="47.702557">
                <ele>427.81663872000007</ele>
                <time>2012-05-17T17:25:36.000Z</time>
                <name>Position 1038</name>
            </trkpt>
            <trkpt lon="9.537069" lat="47.702412">
                <ele>428.00036736001226</ele>
                <time>2012-05-17T17:25:43.000Z</time>
                <name>Position 1039</name>
            </trkpt>
            <trkpt lon="9.536964" lat="47.702292">
                <ele>428.0765145600061</ele>
                <time>2012-05-17T17:25:48.000Z</time>
                <name>Position 1040</name>
            </trkpt>
            <trkpt lon="9.536846" lat="47.70216">
                <ele>428.0980031999894</ele>
                <time>2012-05-17T17:25:54.000Z</time>
                <name>Position 1041</name>
            </trkpt>
            <trkpt lon="9.536727" lat="47.702035">
                <ele>428.0955984000116</ele>
                <time>2012-05-17T17:26:00.000Z</time>
                <name>Position 1042</name>
            </trkpt>
            <trkpt lon="9.536644" lat="47.701899">
                <ele>427.5857830399747</ele>
                <time>2012-05-17T17:26:06.000Z</time>
                <name>Position 1043</name>
            </trkpt>
            <trkpt lon="9.536576" lat="47.701781">
                <ele>427.1665990399774</ele>
                <time>2012-05-17T17:26:11.000Z</time>
                <name>Position 1044</name>
            </trkpt>
            <trkpt lon="9.536507" lat="47.70165">
                <ele>426.9128000000027</ele>
                <time>2012-05-17T17:26:17.000Z</time>
                <name>Position 1045</name>
            </trkpt>
            <trkpt lon="9.536442" lat="47.701526">
                <ele>426.64400000001626</ele>
                <time>2012-05-17T17:26:22.000Z</time>
                <name>Position 1046</name>
            </trkpt>
            <trkpt lon="9.536349" lat="47.701399">
                <ele>426.62240000001964</ele>
                <time>2012-05-17T17:26:28.000Z</time>
                <name>Position 1047</name>
            </trkpt>
            <trkpt lon="9.536255" lat="47.701252">
                <ele>426.4663999999701</ele>
                <time>2012-05-17T17:26:34.000Z</time>
                <name>Position 1048</name>
            </trkpt>
            <trkpt lon="9.536152" lat="47.701126">
                <ele>426.5480000000199</ele>
                <time>2012-05-17T17:26:40.000Z</time>
                <name>Position 1049</name>
            </trkpt>
            <trkpt lon="9.536075" lat="47.700998">
                <ele>426.3655999999859</ele>
                <time>2012-05-17T17:26:46.000Z</time>
                <name>Position 1050</name>
            </trkpt>
            <trkpt lon="9.535965" lat="47.700822">
                <ele>426.1128928000327</ele>
                <time>2012-05-17T17:26:53.000Z</time>
                <name>Position 1051</name>
            </trkpt>
            <trkpt lon="9.535864" lat="47.700632">
                <ele>424.84294527998475</ele>
                <time>2012-05-17T17:27:01.000Z</time>
                <name>Position 1052</name>
            </trkpt>
            <trkpt lon="9.535728" lat="47.700452">
                <ele>423.38247807997806</ele>
                <time>2012-05-17T17:27:09.000Z</time>
                <name>Position 1053</name>
            </trkpt>
            <trkpt lon="9.535636" lat="47.700294">
                <ele>421.75222911999236</ele>
                <time>2012-05-17T17:27:16.000Z</time>
                <name>Position 1054</name>
            </trkpt>
            <trkpt lon="9.535575" lat="47.700165">
                <ele>420.28413999997883</ele>
                <time>2012-05-17T17:27:22.000Z</time>
                <name>Position 1055</name>
            </trkpt>
            <trkpt lon="9.5355" lat="47.700049">
                <ele>418.95855999999617</ele>
                <time>2012-05-17T17:27:27.000Z</time>
                <name>Position 1056</name>
            </trkpt>
            <trkpt lon="9.535425" lat="47.69994">
                <ele>418.3727199999963</ele>
                <time>2012-05-17T17:27:31.000Z</time>
                <name>Position 1057</name>
            </trkpt>
            <trkpt lon="9.535316" lat="47.699847">
                <ele>418.44402111999693</ele>
                <time>2012-05-17T17:27:36.000Z</time>
                <name>Position 1058</name>
            </trkpt>
            <trkpt lon="9.535169" lat="47.699781">
                <ele>418.62209584000374</ele>
                <time>2012-05-17T17:27:41.000Z</time>
                <name>Position 1059</name>
            </trkpt>
            <trkpt lon="9.535024" lat="47.699729">
                <ele>418.8013657599949</ele>
                <time>2012-05-17T17:27:45.000Z</time>
                <name>Position 1060</name>
            </trkpt>
            <trkpt lon="9.534869" lat="47.699696">
                <ele>419.0848000000059</ele>
                <time>2012-05-17T17:27:50.000Z</time>
                <name>Position 1061</name>
            </trkpt>
            <trkpt lon="9.534715" lat="47.699664">
                <ele>419.3775999999957</ele>
                <time>2012-05-17T17:27:54.000Z</time>
                <name>Position 1062</name>
            </trkpt>
            <trkpt lon="9.534544" lat="47.699607">
                <ele>419.65119999999985</ele>
                <time>2012-05-17T17:27:59.000Z</time>
                <name>Position 1063</name>
            </trkpt>
            <trkpt lon="9.534374" lat="47.699563">
                <ele>419.9535999999952</ele>
                <time>2012-05-17T17:28:04.000Z</time>
                <name>Position 1064</name>
            </trkpt>
            <trkpt lon="9.534216" lat="47.699524">
                <ele>420.2391999999904</ele>
                <time>2012-05-17T17:28:09.000Z</time>
                <name>Position 1065</name>
            </trkpt>
            <trkpt lon="9.534119" lat="47.699448">
                <ele>420.21308927999195</ele>
                <time>2012-05-17T17:28:13.000Z</time>
                <name>Position 1066</name>
            </trkpt>
            <trkpt lon="9.534124" lat="47.69935">
                <ele>419.9799360000057</ele>
                <time>2012-05-17T17:28:17.000Z</time>
                <name>Position 1067</name>
            </trkpt>
            <trkpt lon="9.534172" lat="47.699237">
                <ele>419.655999999992</ele>
                <time>2012-05-17T17:28:21.000Z</time>
                <name>Position 1068</name>
            </trkpt>
            <trkpt lon="9.53422" lat="47.699112">
                <ele>419.1835967999994</ele>
                <time>2012-05-17T17:28:26.000Z</time>
                <name>Position 1069</name>
            </trkpt>
            <trkpt lon="9.534265" lat="47.698987">
                <ele>418.668081600009</ele>
                <time>2012-05-17T17:28:32.000Z</time>
                <name>Position 1070</name>
            </trkpt>
            <trkpt lon="9.534311" lat="47.698862">
                <ele>418.1834438399936</ele>
                <time>2012-05-17T17:28:37.000Z</time>
                <name>Position 1071</name>
            </trkpt>
            <trkpt lon="9.534353" lat="47.698736">
                <ele>417.7335129599905</ele>
                <time>2012-05-17T17:28:42.000Z</time>
                <name>Position 1072</name>
            </trkpt>
            <trkpt lon="9.534399" lat="47.698611">
                <ele>417.3138076799985</ele>
                <time>2012-05-17T17:28:47.000Z</time>
                <name>Position 1073</name>
            </trkpt>
            <trkpt lon="9.534425" lat="47.698526">
                <ele>417.0502560000027</ele>
                <time>2012-05-17T17:28:51.000Z</time>
                <name>Position 1074</name>
            </trkpt>
            <trkpt lon="9.53439" lat="47.698478">
                <ele>416.92775040000424</ele>
                <time>2012-05-17T17:28:53.000Z</time>
                <name>Position 1075</name>
            </trkpt>
            <trkpt lon="9.534252" lat="47.698475">
                <ele>416.9751840000063</ele>
                <time>2012-05-17T17:28:56.000Z</time>
                <name>Position 1076</name>
            </trkpt>
            <trkpt lon="9.534087" lat="47.698475">
                <ele>417.1849480000077</ele>
                <time>2012-05-17T17:29:01.000Z</time>
                <name>Position 1077</name>
            </trkpt>
            <trkpt lon="9.53391" lat="47.69847">
                <ele>417.55748799999986</ele>
                <time>2012-05-17T17:29:06.000Z</time>
                <name>Position 1078</name>
            </trkpt>
            <trkpt lon="9.533733" lat="47.698464">
                <ele>417.92960128000425</ele>
                <time>2012-05-17T17:29:10.000Z</time>
                <name>Position 1079</name>
            </trkpt>
            <trkpt lon="9.533555" lat="47.698447">
                <ele>418.27708240000476</ele>
                <time>2012-05-17T17:29:15.000Z</time>
                <name>Position 1080</name>
            </trkpt>
            <trkpt lon="9.533354" lat="47.698432">
                <ele>418.690136319994</ele>
                <time>2012-05-17T17:29:21.000Z</time>
                <name>Position 1081</name>
            </trkpt>
            <trkpt lon="9.533165" lat="47.69841">
                <ele>419.05083200000445</ele>
                <time>2012-05-17T17:29:26.000Z</time>
                <name>Position 1082</name>
            </trkpt>
            <trkpt lon="9.532964" lat="47.698407">
                <ele>419.4848422400048</ele>
                <time>2012-05-17T17:29:31.000Z</time>
                <name>Position 1083</name>
            </trkpt>
            <trkpt lon="9.53278" lat="47.698364">
                <ele>419.85272959999696</ele>
                <time>2012-05-17T17:29:37.000Z</time>
                <name>Position 1084</name>
            </trkpt>
            <trkpt lon="9.532657" lat="47.698284">
                <ele>420.1712467199983</ele>
                <time>2012-05-17T17:29:41.000Z</time>
                <name>Position 1085</name>
            </trkpt>
            <trkpt lon="9.532585" lat="47.698175">
                <ele>420.4666200000033</ele>
                <time>2012-05-17T17:29:46.000Z</time>
                <name>Position 1086</name>
            </trkpt>
            <trkpt lon="9.532508" lat="47.698059">
                <ele>420.80683967999954</ele>
                <time>2012-05-17T17:29:51.000Z</time>
                <name>Position 1087</name>
            </trkpt>
            <trkpt lon="9.53237" lat="47.697973">
                <ele>421.08840000000276</ele>
                <time>2012-05-17T17:29:56.000Z</time>
                <name>Position 1088</name>
            </trkpt>
            <trkpt lon="9.532249" lat="47.697912">
                <ele>421.30679999999705</ele>
                <time>2012-05-17T17:30:00.000Z</time>
                <name>Position 1089</name>
            </trkpt>
            <trkpt lon="9.532175" lat="47.697803">
                <ele>421.526399999999</ele>
                <time>2012-05-17T17:30:05.000Z</time>
                <name>Position 1090</name>
            </trkpt>
            <trkpt lon="9.53205" lat="47.697722">
                <ele>421.7736000000016</ele>
                <time>2012-05-17T17:30:10.000Z</time>
                <name>Position 1091</name>
            </trkpt>
            <trkpt lon="9.531885" lat="47.697633">
                <ele>422.07839999999516</ele>
                <time>2012-05-17T17:30:15.000Z</time>
                <name>Position 1092</name>
            </trkpt>
            <trkpt lon="9.531721" lat="47.697537">
                <ele>422.39040000000466</ele>
                <time>2012-05-17T17:30:21.000Z</time>
                <name>Position 1093</name>
            </trkpt>
            <trkpt lon="9.531565" lat="47.697434">
                <ele>422.5</ele>
                <time>2012-05-17T17:30:27.000Z</time>
                <name>Position 1094</name>
            </trkpt>
            <trkpt lon="9.531449" lat="47.697321">
                <ele>422.5</ele>
                <time>2012-05-17T17:30:33.000Z</time>
                <name>Position 1095</name>
            </trkpt>
            <trkpt lon="9.531357" lat="47.697193">
                <ele>422.5</ele>
                <time>2012-05-17T17:30:38.000Z</time>
                <name>Position 1096</name>
            </trkpt>
            <trkpt lon="9.531304" lat="47.697062">
                <ele>422.5</ele>
                <time>2012-05-17T17:30:44.000Z</time>
                <name>Position 1097</name>
            </trkpt>
            <trkpt lon="9.531275" lat="47.696917">
                <ele>422.5</ele>
                <time>2012-05-17T17:30:50.000Z</time>
                <name>Position 1098</name>
            </trkpt>
            <trkpt lon="9.53126" lat="47.696758">
                <ele>422.5</ele>
                <time>2012-05-17T17:30:56.000Z</time>
                <name>Position 1099</name>
            </trkpt>
            <trkpt lon="9.53126" lat="47.69661">
                <ele>422.2943679999988</ele>
                <time>2012-05-17T17:31:02.000Z</time>
                <name>Position 1100</name>
            </trkpt>
            <trkpt lon="9.531257" lat="47.696456">
                <ele>421.73735295999154</ele>
                <time>2012-05-17T17:31:08.000Z</time>
                <name>Position 1101</name>
            </trkpt>
            <trkpt lon="9.531244" lat="47.69631">
                <ele>421.22216319998944</ele>
                <time>2012-05-17T17:31:14.000Z</time>
                <name>Position 1102</name>
            </trkpt>
            <trkpt lon="9.531128" lat="47.696261">
                <ele>421.1821350399983</ele>
                <time>2012-05-17T17:31:18.000Z</time>
                <name>Position 1103</name>
            </trkpt>
            <trkpt lon="9.530972" lat="47.696287">
                <ele>421.4371763199943</ele>
                <time>2012-05-17T17:31:22.000Z</time>
                <name>Position 1104</name>
            </trkpt>
            <trkpt lon="9.530788" lat="47.696321">
                <ele>421.69296511999437</ele>
                <time>2012-05-17T17:31:27.000Z</time>
                <name>Position 1105</name>
            </trkpt>
            <trkpt lon="9.530598" lat="47.69631">
                <ele>421.7648671999937</ele>
                <time>2012-05-17T17:31:32.000Z</time>
                <name>Position 1106</name>
            </trkpt>
            <trkpt lon="9.530458" lat="47.696212">
                <ele>421.6545382400053</ele>
                <time>2012-05-17T17:31:38.000Z</time>
                <name>Position 1107</name>
            </trkpt>
            <trkpt lon="9.530392" lat="47.696076">
                <ele>421.45778047999545</ele>
                <time>2012-05-17T17:31:43.000Z</time>
                <name>Position 1108</name>
            </trkpt>
            <trkpt lon="9.53035" lat="47.695932">
                <ele>421.248127999998</ele>
                <time>2012-05-17T17:31:49.000Z</time>
                <name>Position 1109</name>
            </trkpt>
            <trkpt lon="9.530308" lat="47.695781">
                <ele>421.0443891199947</ele>
                <time>2012-05-17T17:31:55.000Z</time>
                <name>Position 1110</name>
            </trkpt>
            <trkpt lon="9.530277" lat="47.695623">
                <ele>420.8313022399964</ele>
                <time>2012-05-17T17:32:02.000Z</time>
                <name>Position 1111</name>
            </trkpt>
            <trkpt lon="9.530233" lat="47.695459">
                <ele>420.64560367999786</ele>
                <time>2012-05-17T17:32:08.000Z</time>
                <name>Position 1112</name>
            </trkpt>
            <trkpt lon="9.530205" lat="47.695301">
                <ele>420.45805519999993</ele>
                <time>2012-05-17T17:32:15.000Z</time>
                <name>Position 1113</name>
            </trkpt>
            <trkpt lon="9.530163" lat="47.695151">
                <ele>420.32544272000405</ele>
                <time>2012-05-17T17:32:21.000Z</time>
                <name>Position 1114</name>
            </trkpt>
            <trkpt lon="9.530016" lat="47.695085">
                <ele>420.565558399999</ele>
                <time>2012-05-17T17:32:26.000Z</time>
                <name>Position 1115</name>
            </trkpt>
            <trkpt lon="9.529814" lat="47.695101">
                <ele>420.84440000000126</ele>
                <time>2012-05-17T17:32:31.000Z</time>
                <name>Position 1116</name>
            </trkpt>
            <trkpt lon="9.529587" lat="47.695119">
                <ele>421.1383999999986</ele>
                <time>2012-05-17T17:32:37.000Z</time>
                <name>Position 1117</name>
            </trkpt>
            <trkpt lon="9.529372" lat="47.695123">
                <ele>421.40120000000235</ele>
                <time>2012-05-17T17:32:43.000Z</time>
                <name>Position 1118</name>
            </trkpt>
            <trkpt lon="9.529164" lat="47.695101">
                <ele>421.629636480002</ele>
                <time>2012-05-17T17:32:49.000Z</time>
                <name>Position 1119</name>
            </trkpt>
            <trkpt lon="9.528967" lat="47.695053">
                <ele>422.2366843200013</ele>
                <time>2012-05-17T17:32:54.000Z</time>
                <name>Position 1120</name>
            </trkpt>
            <trkpt lon="9.528835" lat="47.694928">
                <ele>422.69399999999695</ele>
                <time>2012-05-17T17:33:01.000Z</time>
                <name>Position 1121</name>
            </trkpt>
            <trkpt lon="9.528783" lat="47.694791">
                <ele>422.88119999999753</ele>
                <time>2012-05-17T17:33:06.000Z</time>
                <name>Position 1122</name>
            </trkpt>
            <trkpt lon="9.528728" lat="47.694642">
                <ele>423.07920000000286</ele>
                <time>2012-05-17T17:33:12.000Z</time>
                <name>Position 1123</name>
            </trkpt>
            <trkpt lon="9.52866" lat="47.694475">
                <ele>423.3239999999987</ele>
                <time>2012-05-17T17:33:19.000Z</time>
                <name>Position 1124</name>
            </trkpt>
            <trkpt lon="9.528618" lat="47.694306">
                <ele>423.47520000000065</ele>
                <time>2012-05-17T17:33:26.000Z</time>
                <name>Position 1125</name>
            </trkpt>
            <trkpt lon="9.528591" lat="47.694136">
                <ele>423.487421439999</ele>
                <time>2012-05-17T17:33:33.000Z</time>
                <name>Position 1126</name>
            </trkpt>
            <trkpt lon="9.528558" lat="47.693959">
                <ele>423.12561567999745</ele>
                <time>2012-05-17T17:33:40.000Z</time>
                <name>Position 1127</name>
            </trkpt>
            <trkpt lon="9.528486" lat="47.693779">
                <ele>422.9347753600016</ele>
                <time>2012-05-17T17:33:48.000Z</time>
                <name>Position 1128</name>
            </trkpt>
            <trkpt lon="9.528415" lat="47.693612">
                <ele>422.8095712000008</ele>
                <time>2012-05-17T17:33:55.000Z</time>
                <name>Position 1129</name>
            </trkpt>
            <trkpt lon="9.528356" lat="47.693425">
                <ele>422.6141919999921</ele>
                <time>2012-05-17T17:34:02.000Z</time>
                <name>Position 1130</name>
            </trkpt>
            <trkpt lon="9.52826" lat="47.693254">
                <ele>422.95011200002773</ele>
                <time>2012-05-17T17:34:10.000Z</time>
                <name>Position 1131</name>
            </trkpt>
            <trkpt lon="9.528135" lat="47.693085">
                <ele>423.2733800000191</ele>
                <time>2012-05-17T17:34:17.000Z</time>
                <name>Position 1132</name>
            </trkpt>
            <trkpt lon="9.528001" lat="47.69293">
                <ele>423.50170399997796</ele>
                <time>2012-05-17T17:34:24.000Z</time>
                <name>Position 1133</name>
            </trkpt>
            <trkpt lon="9.527815" lat="47.692856">
                <ele>424.6965919999877</ele>
                <time>2012-05-17T17:34:30.000Z</time>
                <name>Position 1134</name>
            </trkpt>
            <trkpt lon="9.527582" lat="47.692747">
                <ele>425.7277711999618</ele>
                <time>2012-05-17T17:34:38.000Z</time>
                <name>Position 1135</name>
            </trkpt>
            <trkpt lon="9.527396" lat="47.692667">
                <ele>426.12775040000474</ele>
                <time>2012-05-17T17:34:44.000Z</time>
                <name>Position 1136</name>
            </trkpt>
            <trkpt lon="9.527188" lat="47.692574">
                <ele>426.46816640000054</ele>
                <time>2012-05-17T17:34:50.000Z</time>
                <name>Position 1137</name>
            </trkpt>
            <trkpt lon="9.527004" lat="47.69249">
                <ele>427.04720000000015</ele>
                <time>2012-05-17T17:34:56.000Z</time>
                <name>Position 1138</name>
            </trkpt>
            <trkpt lon="9.526903" lat="47.692389">
                <ele>427.53199999999117</ele>
                <time>2012-05-17T17:35:01.000Z</time>
                <name>Position 1139</name>
            </trkpt>
            <trkpt lon="9.526787" lat="47.692199">
                <ele>427.91120000000154</ele>
                <time>2012-05-17T17:35:09.000Z</time>
                <name>Position 1140</name>
            </trkpt>
            <trkpt lon="9.526705" lat="47.692052">
                <ele>428.14879999999425</ele>
                <time>2012-05-17T17:35:16.000Z</time>
                <name>Position 1141</name>
            </trkpt>
            <trkpt lon="9.526622" lat="47.691886">
                <ele>428.33389247999435</ele>
                <time>2012-05-17T17:35:23.000Z</time>
                <name>Position 1142</name>
            </trkpt>
            <trkpt lon="9.526517" lat="47.691753">
                <ele>428.76619343999596</ele>
                <time>2012-05-17T17:35:29.000Z</time>
                <name>Position 1143</name>
            </trkpt>
            <trkpt lon="9.526429" lat="47.691685">
                <ele>429.24892559999756</ele>
                <time>2012-05-17T17:35:32.000Z</time>
                <name>Position 1144</name>
            </trkpt>
            <trkpt lon="9.526315" lat="47.691579">
                <ele>429.5503943999827</ele>
                <time>2012-05-17T17:35:38.000Z</time>
                <name>Position 1145</name>
            </trkpt>
            <trkpt lon="9.526225" lat="47.691452">
                <ele>429.5285279999889</ele>
                <time>2012-05-17T17:35:43.000Z</time>
                <name>Position 1146</name>
            </trkpt>
            <trkpt lon="9.526199" lat="47.691288">
                <ele>428.85020927999994</ele>
                <time>2012-05-17T17:35:50.000Z</time>
                <name>Position 1147</name>
            </trkpt>
            <trkpt lon="9.526201" lat="47.691153">
                <ele>428.1152443199966</ele>
                <time>2012-05-17T17:35:55.000Z</time>
                <name>Position 1148</name>
            </trkpt>
            <trkpt lon="9.526111" lat="47.691056">
                <ele>428.32543104001496</ele>
                <time>2012-05-17T17:36:00.000Z</time>
                <name>Position 1149</name>
            </trkpt>
            <trkpt lon="9.526054" lat="47.690906">
                <ele>428.01829055998894</ele>
                <time>2012-05-17T17:36:06.000Z</time>
                <name>Position 1150</name>
            </trkpt>
            <trkpt lon="9.526025" lat="47.690766">
                <ele>427.5045840000151</ele>
                <time>2012-05-17T17:36:12.000Z</time>
                <name>Position 1151</name>
            </trkpt>
            <trkpt lon="9.52599" lat="47.690623">
                <ele>426.9694512000113</ele>
                <time>2012-05-17T17:36:18.000Z</time>
                <name>Position 1152</name>
            </trkpt>
            <trkpt lon="9.525968" lat="47.690491">
                <ele>426.38118528000365</ele>
                <time>2012-05-17T17:36:23.000Z</time>
                <name>Position 1153</name>
            </trkpt>
            <trkpt lon="9.525957" lat="47.690363">
                <ele>425.72295695998736</ele>
                <time>2012-05-17T17:36:28.000Z</time>
                <name>Position 1154</name>
            </trkpt>
            <trkpt lon="9.525928" lat="47.690258">
                <ele>425.33122943999723</ele>
                <time>2012-05-17T17:36:32.000Z</time>
                <name>Position 1155</name>
            </trkpt>
            <trkpt lon="9.525882" lat="47.690153">
                <ele>425.0568777600185</ele>
                <time>2012-05-17T17:36:37.000Z</time>
                <name>Position 1156</name>
            </trkpt>
            <trkpt lon="9.525829" lat="47.690111">
                <ele>425.1920000000107</ele>
                <time>2012-05-17T17:36:39.000Z</time>
                <name>Position 1157</name>
            </trkpt>
            <trkpt lon="9.525814" lat="47.690105">
                <ele>425.2460000000129</ele>
                <time>2012-05-17T17:36:39.000Z</time>
                <name>Position 1158</name>
            </trkpt>
            <trkpt lon="9.525799" lat="47.690088">
                <ele>425.23400000002187</ele>
                <time>2012-05-17T17:36:40.000Z</time>
                <name>Position 1159</name>
            </trkpt>
            <trkpt lon="9.52572" lat="47.690078">
                <ele>425.6479999999998</ele>
                <time>2012-05-17T17:36:42.000Z</time>
                <name>Position 1160</name>
            </trkpt>
            <trkpt lon="9.525615" lat="47.690064">
                <ele>426.1939999999962</ele>
                <time>2012-05-17T17:36:45.000Z</time>
                <name>Position 1161</name>
            </trkpt>
            <trkpt lon="9.525507" lat="47.690002">
                <ele>426.4700000000028</ele>
                <time>2012-05-17T17:36:49.000Z</time>
                <name>Position 1162</name>
            </trkpt>
            <trkpt lon="9.525378" lat="47.689967">
                <ele>426.9764374400228</ele>
                <time>2012-05-17T17:36:53.000Z</time>
                <name>Position 1163</name>
            </trkpt>
            <trkpt lon="9.525264" lat="47.689956">
                <ele>427.58247296001707</ele>
                <time>2012-05-17T17:36:56.000Z</time>
                <name>Position 1164</name>
            </trkpt>
            <trkpt lon="9.525106" lat="47.689922">
                <ele>428.2904940800255</ele>
                <time>2012-05-17T17:37:00.000Z</time>
                <name>Position 1165</name>
            </trkpt>
            <trkpt lon="9.524955" lat="47.689838">
                <ele>428.5810928000103</ele>
                <time>2012-05-17T17:37:06.000Z</time>
                <name>Position 1166</name>
            </trkpt>
            <trkpt lon="9.524826" lat="47.68972">
                <ele>428.5296704000129</ele>
                <time>2012-05-17T17:37:11.000Z</time>
                <name>Position 1167</name>
            </trkpt>
            <trkpt lon="9.524725" lat="47.689607">
                <ele>428.4572840000129</ele>
                <time>2012-05-17T17:37:17.000Z</time>
                <name>Position 1168</name>
            </trkpt>
            <trkpt lon="9.524633" lat="47.689556">
                <ele>428.7687353600197</ele>
                <time>2012-05-17T17:37:20.000Z</time>
                <name>Position 1169</name>
            </trkpt>
            <trkpt lon="9.524506" lat="47.689564">
                <ele>429.66245887998167</ele>
                <time>2012-05-17T17:37:23.000Z</time>
                <name>Position 1170</name>
            </trkpt>
            <trkpt lon="9.524379" lat="47.689553">
                <ele>430.46157583998615</ele>
                <time>2012-05-17T17:37:27.000Z</time>
                <name>Position 1171</name>
            </trkpt>
            <trkpt lon="9.524221" lat="47.689579">
                <ele>431.6247828800026</ele>
                <time>2012-05-17T17:37:31.000Z</time>
                <name>Position 1172</name>
            </trkpt>
            <trkpt lon="9.524061" lat="47.689539">
                <ele>431.86738304001034</ele>
                <time>2012-05-17T17:37:36.000Z</time>
                <name>Position 1173</name>
            </trkpt>
            <trkpt lon="9.523956" lat="47.689537">
                <ele>431.88942272000327</ele>
                <time>2012-05-17T17:37:39.000Z</time>
                <name>Position 1174</name>
            </trkpt>
            <trkpt lon="9.523851" lat="47.689536">
                <ele>431.91566335999414</ele>
                <time>2012-05-17T17:37:41.000Z</time>
                <name>Position 1175</name>
            </trkpt>
            <trkpt lon="9.523704" lat="47.689525">
                <ele>431.9454560000029</ele>
                <time>2012-05-17T17:37:45.000Z</time>
                <name>Position 1176</name>
            </trkpt>
            <trkpt lon="9.523601" lat="47.689417">
                <ele>431.94315392000027</ele>
                <time>2012-05-17T17:37:51.000Z</time>
                <name>Position 1177</name>
            </trkpt>
            <trkpt lon="9.523518" lat="47.689276">
                <ele>432.04189568000135</ele>
                <time>2012-05-17T17:37:57.000Z</time>
                <name>Position 1178</name>
            </trkpt>
            <trkpt lon="9.523421" lat="47.689181">
                <ele>432.2796377599997</ele>
                <time>2012-05-17T17:38:01.000Z</time>
                <name>Position 1179</name>
            </trkpt>
            <trkpt lon="9.52332" lat="47.689037">
                <ele>432.3099103999986</ele>
                <time>2012-05-17T17:38:08.000Z</time>
                <name>Position 1180</name>
            </trkpt>
            <trkpt lon="9.523228" lat="47.688904">
                <ele>431.89215871999977</ele>
                <time>2012-05-17T17:38:14.000Z</time>
                <name>Position 1181</name>
            </trkpt>
            <trkpt lon="9.523169" lat="47.688787">
                <ele>431.56015567999464</ele>
                <time>2012-05-17T17:38:18.000Z</time>
                <name>Position 1182</name>
            </trkpt>
            <trkpt lon="9.523123" lat="47.688676">
                <ele>431.2577868800012</ele>
                <time>2012-05-17T17:38:23.000Z</time>
                <name>Position 1183</name>
            </trkpt>
            <trkpt lon="9.523112" lat="47.68853">
                <ele>431.0018815999977</ele>
                <time>2012-05-17T17:38:29.000Z</time>
                <name>Position 1184</name>
            </trkpt>
            <trkpt lon="9.523145" lat="47.6884">
                <ele>430.9200800000002</ele>
                <time>2012-05-17T17:38:34.000Z</time>
                <name>Position 1185</name>
            </trkpt>
            <trkpt lon="9.52318" lat="47.688283">
                <ele>430.9257727999989</ele>
                <time>2012-05-17T17:38:39.000Z</time>
                <name>Position 1186</name>
            </trkpt>
            <trkpt lon="9.523228" lat="47.68817">
                <ele>431.07125119999785</ele>
                <time>2012-05-17T17:38:44.000Z</time>
                <name>Position 1187</name>
            </trkpt>
            <trkpt lon="9.523252" lat="47.688073">
                <ele>431.14621951999766</ele>
                <time>2012-05-17T17:38:48.000Z</time>
                <name>Position 1188</name>
            </trkpt>
            <trkpt lon="9.523297" lat="47.687966">
                <ele>431.33076223999745</ele>
                <time>2012-05-17T17:38:52.000Z</time>
                <name>Position 1189</name>
            </trkpt>
            <trkpt lon="9.523317" lat="47.687843">
                <ele>431.41813472000206</ele>
                <time>2012-05-17T17:38:57.000Z</time>
                <name>Position 1190</name>
            </trkpt>
            <trkpt lon="9.52335" lat="47.687719">
                <ele>431.5305120000013</ele>
                <time>2012-05-17T17:39:02.000Z</time>
                <name>Position 1191</name>
            </trkpt>
            <trkpt lon="9.523374" lat="47.687633">
                <ele>431.5643769600005</ele>
                <time>2012-05-17T17:39:06.000Z</time>
                <name>Position 1192</name>
            </trkpt>
            <trkpt lon="9.523371" lat="47.68752">
                <ele>431.5473695999989</ele>
                <time>2012-05-17T17:39:10.000Z</time>
                <name>Position 1193</name>
            </trkpt>
            <trkpt lon="9.523373" lat="47.687431">
                <ele>431.18486975998127</ele>
                <time>2012-05-17T17:39:14.000Z</time>
                <name>Position 1194</name>
            </trkpt>
            <trkpt lon="9.523341" lat="47.687307">
                <ele>430.5657542399846</ele>
                <time>2012-05-17T17:39:19.000Z</time>
                <name>Position 1195</name>
            </trkpt>
            <trkpt lon="9.523323" lat="47.6872">
                <ele>430.0069279999832</ele>
                <time>2012-05-17T17:39:23.000Z</time>
                <name>Position 1196</name>
            </trkpt>
            <trkpt lon="9.523316" lat="47.687085">
                <ele>429.4247168000121</ele>
                <time>2012-05-17T17:39:28.000Z</time>
                <name>Position 1197</name>
            </trkpt>
            <trkpt lon="9.523266" lat="47.686967">
                <ele>428.64095936001</ele>
                <time>2012-05-17T17:39:33.000Z</time>
                <name>Position 1198</name>
            </trkpt>
            <trkpt lon="9.523241" lat="47.68684">
                <ele>427.9535071999858</ele>
                <time>2012-05-17T17:39:38.000Z</time>
                <name>Position 1199</name>
            </trkpt>
            <trkpt lon="9.523213" lat="47.686676">
                <ele>427.10836543999324</ele>
                <time>2012-05-17T17:39:44.000Z</time>
                <name>Position 1200</name>
            </trkpt>
            <trkpt lon="9.523193" lat="47.686551">
                <ele>427.06492175999625</ele>
                <time>2012-05-17T17:39:49.000Z</time>
                <name>Position 1201</name>
            </trkpt>
            <trkpt lon="9.523173" lat="47.686449">
                <ele>427.07356463999736</ele>
                <time>2012-05-17T17:39:53.000Z</time>
                <name>Position 1202</name>
            </trkpt>
            <trkpt lon="9.523177" lat="47.686398">
                <ele>427.118646720003</ele>
                <time>2012-05-17T17:39:55.000Z</time>
                <name>Position 1203</name>
            </trkpt>
            <trkpt lon="9.523175" lat="47.68629">
                <ele>427.1876400000005</ele>
                <time>2012-05-17T17:40:00.000Z</time>
                <name>Position 1204</name>
            </trkpt>
            <trkpt lon="9.523197" lat="47.686174">
                <ele>427.2993609599988</ele>
                <time>2012-05-17T17:40:04.000Z</time>
                <name>Position 1205</name>
            </trkpt>
            <trkpt lon="9.52321" lat="47.686025">
                <ele>427.3978800000001</ele>
                <time>2012-05-17T17:40:10.000Z</time>
                <name>Position 1206</name>
            </trkpt>
            <trkpt lon="9.523267" lat="47.685887">
                <ele>427.4846212799998</ele>
                <time>2012-05-17T17:40:16.000Z</time>
                <name>Position 1207</name>
            </trkpt>
            <trkpt lon="9.523295" lat="47.685749">
                <ele>427.90479999999417</ele>
                <time>2012-05-17T17:40:22.000Z</time>
                <name>Position 1208</name>
            </trkpt>
            <trkpt lon="9.52331" lat="47.685632">
                <ele>428.46640000000866</ele>
                <time>2012-05-17T17:40:26.000Z</time>
                <name>Position 1209</name>
            </trkpt>
            <trkpt lon="9.523299" lat="47.685504">
                <ele>429.0807999999922</ele>
                <time>2012-05-17T17:40:32.000Z</time>
                <name>Position 1210</name>
            </trkpt>
            <trkpt lon="9.523279" lat="47.68539">
                <ele>429.6280000000091</ele>
                <time>2012-05-17T17:40:36.000Z</time>
                <name>Position 1211</name>
            </trkpt>
            <trkpt lon="9.52324" lat="47.68524">
                <ele>430.3479999999988</ele>
                <time>2012-05-17T17:40:42.000Z</time>
                <name>Position 1212</name>
            </trkpt>
            <trkpt lon="9.523207" lat="47.685128">
                <ele>430.88560000000575</ele>
                <time>2012-05-17T17:40:47.000Z</time>
                <name>Position 1213</name>
            </trkpt>
            <trkpt lon="9.523136" lat="47.685055">
                <ele>431.23600000000783</ele>
                <time>2012-05-17T17:40:50.000Z</time>
                <name>Position 1214</name>
            </trkpt>
            <trkpt lon="9.523064" lat="47.685047">
                <ele>431.27440000001326</ele>
                <time>2012-05-17T17:40:52.000Z</time>
                <name>Position 1215</name>
            </trkpt>
            <trkpt lon="9.522961" lat="47.685081">
                <ele>431.11120000001597</ele>
                <time>2012-05-17T17:40:55.000Z</time>
                <name>Position 1216</name>
            </trkpt>
            <trkpt lon="9.522806" lat="47.685125">
                <ele>430.9000000000035</ele>
                <time>2012-05-17T17:41:00.000Z</time>
                <name>Position 1217</name>
            </trkpt>
            <trkpt lon="9.522679" lat="47.685167">
                <ele>430.6984000000009</ele>
                <time>2012-05-17T17:41:04.000Z</time>
                <name>Position 1218</name>
            </trkpt>
            <trkpt lon="9.522543" lat="47.685195">
                <ele>430.5639999999992</ele>
                <time>2012-05-17T17:41:08.000Z</time>
                <name>Position 1219</name>
            </trkpt>
            <trkpt lon="9.522364" lat="47.685248">
                <ele>430.04926335999204</ele>
                <time>2012-05-17T17:41:13.000Z</time>
                <name>Position 1220</name>
            </trkpt>
            <trkpt lon="9.522206" lat="47.685297">
                <ele>429.47012416000996</ele>
                <time>2012-05-17T17:41:18.000Z</time>
                <name>Position 1221</name>
            </trkpt>
            <trkpt lon="9.522024" lat="47.68535">
                <ele>428.76899200000224</ele>
                <time>2012-05-17T17:41:23.000Z</time>
                <name>Position 1222</name>
            </trkpt>
            <trkpt lon="9.521834" lat="47.685398">
                <ele>428.02700416000533</ele>
                <time>2012-05-17T17:41:28.000Z</time>
                <name>Position 1223</name>
            </trkpt>
            <trkpt lon="9.521644" lat="47.685382">
                <ele>427.72466304002205</ele>
                <time>2012-05-17T17:41:34.000Z</time>
                <name>Position 1224</name>
            </trkpt>
            <trkpt lon="9.521571" lat="47.68523">
                <ele>428.7806304000218</ele>
                <time>2012-05-17T17:41:40.000Z</time>
                <name>Position 1225</name>
            </trkpt>
            <trkpt lon="9.521516" lat="47.685139">
                <ele>429.4388851200043</ele>
                <time>2012-05-17T17:41:44.000Z</time>
                <name>Position 1226</name>
            </trkpt>
            <trkpt lon="9.521486" lat="47.685033">
                <ele>430.2452294400226</ele>
                <time>2012-05-17T17:41:48.000Z</time>
                <name>Position 1227</name>
            </trkpt>
            <trkpt lon="9.521477" lat="47.684906">
                <ele>430.6485801600035</ele>
                <time>2012-05-17T17:41:53.000Z</time>
                <name>Position 1228</name>
            </trkpt>
            <trkpt lon="9.521516" lat="47.684755">
                <ele>430.92853439999544</ele>
                <time>2012-05-17T17:41:59.000Z</time>
                <name>Position 1229</name>
            </trkpt>
            <trkpt lon="9.52157" lat="47.684616">
                <ele>431.26124160000415</ele>
                <time>2012-05-17T17:42:05.000Z</time>
                <name>Position 1230</name>
            </trkpt>
            <trkpt lon="9.521664" lat="47.684479">
                <ele>431.7443980799912</ele>
                <time>2012-05-17T17:42:11.000Z</time>
                <name>Position 1231</name>
            </trkpt>
            <trkpt lon="9.521758" lat="47.684331">
                <ele>432.30318687999966</ele>
                <time>2012-05-17T17:42:18.000Z</time>
                <name>Position 1232</name>
            </trkpt>
            <trkpt lon="9.521841" lat="47.684196">
                <ele>432.8406361600004</ele>
                <time>2012-05-17T17:42:23.000Z</time>
                <name>Position 1233</name>
            </trkpt>
            <trkpt lon="9.521964" lat="47.684052">
                <ele>432.9287129600039</ele>
                <time>2012-05-17T17:42:30.000Z</time>
                <name>Position 1234</name>
            </trkpt>
            <trkpt lon="9.522075" lat="47.683915">
                <ele>432.7340599999957</ele>
                <time>2012-05-17T17:42:36.000Z</time>
                <name>Position 1235</name>
            </trkpt>
            <trkpt lon="9.522211" lat="47.683769">
                <ele>432.39407887999334</ele>
                <time>2012-05-17T17:42:43.000Z</time>
                <name>Position 1236</name>
            </trkpt>
            <trkpt lon="9.522344" lat="47.683611">
                <ele>431.83287487999615</ele>
                <time>2012-05-17T17:42:51.000Z</time>
                <name>Position 1237</name>
            </trkpt>
            <trkpt lon="9.522467" lat="47.683473">
                <ele>431.19008911999646</ele>
                <time>2012-05-17T17:42:57.000Z</time>
                <name>Position 1238</name>
            </trkpt>
            <trkpt lon="9.52258" lat="47.683291">
                <ele>430.3976767999853</ele>
                <time>2012-05-17T17:43:05.000Z</time>
                <name>Position 1239</name>
            </trkpt>
            <trkpt lon="9.522699" lat="47.683145">
                <ele>429.8887688000135</ele>
                <time>2012-05-17T17:43:12.000Z</time>
                <name>Position 1240</name>
            </trkpt>
            <trkpt lon="9.522806" lat="47.683002">
                <ele>429.42279872000677</ele>
                <time>2012-05-17T17:43:18.000Z</time>
                <name>Position 1241</name>
            </trkpt>
            <trkpt lon="9.522941" lat="47.682874">
                <ele>429.1160950399913</ele>
                <time>2012-05-17T17:43:24.000Z</time>
                <name>Position 1242</name>
            </trkpt>
            <trkpt lon="9.523066" lat="47.682743">
                <ele>428.82674528000825</ele>
                <time>2012-05-17T17:43:30.000Z</time>
                <name>Position 1243</name>
            </trkpt>
            <trkpt lon="9.523199" lat="47.682585">
                <ele>428.5000424000115</ele>
                <time>2012-05-17T17:43:38.000Z</time>
                <name>Position 1244</name>
            </trkpt>
            <trkpt lon="9.523319" lat="47.682446">
                <ele>428.33711455999844</ele>
                <time>2012-05-17T17:43:44.000Z</time>
                <name>Position 1245</name>
            </trkpt>
            <trkpt lon="9.523427" lat="47.682308">
                <ele>428.1257030399972</ele>
                <time>2012-05-17T17:43:50.000Z</time>
                <name>Position 1246</name>
            </trkpt>
            <trkpt lon="9.523558" lat="47.682196">
                <ele>427.9416499199928</ele>
                <time>2012-05-17T17:43:56.000Z</time>
                <name>Position 1247</name>
            </trkpt>
            <trkpt lon="9.523659" lat="47.682144">
                <ele>427.8694502400027</ele>
                <time>2012-05-17T17:44:00.000Z</time>
                <name>Position 1248</name>
            </trkpt>
            <trkpt lon="9.523683" lat="47.682123">
                <ele>427.82497295999156</ele>
                <time>2012-05-17T17:44:01.000Z</time>
                <name>Position 1249</name>
            </trkpt>
            <trkpt lon="9.523683" lat="47.682117">
                <ele>427.80755183999423</ele>
                <time>2012-05-17T17:44:01.000Z</time>
                <name>Position 1250</name>
            </trkpt>
            <trkpt lon="9.523696" lat="47.68211">
                <ele>427.7955264000038</ele>
                <time>2012-05-17T17:44:01.000Z</time>
                <name>Position 1251</name>
            </trkpt>
            <trkpt lon="9.523693" lat="47.68211">
                <ele>427.7936112000041</ele>
                <time>2012-05-17T17:44:01.000Z</time>
                <name>Position 1252</name>
            </trkpt>
            <trkpt lon="9.523696" lat="47.68211">
                <ele>427.7955264000038</ele>
                <time>2012-05-17T17:44:01.000Z</time>
                <name>Position 1253</name>
            </trkpt>
            <trkpt lon="9.523731" lat="47.682116">
                <ele>427.83570624000134</ele>
                <time>2012-05-17T17:44:02.000Z</time>
                <name>Position 1254</name>
            </trkpt>
            <trkpt lon="9.523779" lat="47.682127">
                <ele>427.9002235200031</ele>
                <time>2012-05-17T17:44:04.000Z</time>
                <name>Position 1255</name>
            </trkpt>
            <trkpt lon="9.523797" lat="47.682133">
                <ele>427.93056144000076</ele>
                <time>2012-05-17T17:44:04.000Z</time>
                <name>Position 1256</name>
            </trkpt>
            <trkpt lon="9.523814" lat="47.682145">
                <ele>427.97908319999476</ele>
                <time>2012-05-17T17:44:05.000Z</time>
                <name>Position 1257</name>
            </trkpt>
            <trkpt lon="9.523816" lat="47.682145">
                <ele>427.98046079999494</ele>
                <time>2012-05-17T17:44:05.000Z</time>
                <name>Position 1258</name>
            </trkpt>
            <trkpt lon="9.523832" lat="47.682145">
                <ele>427.9914815999952</ele>
                <time>2012-05-17T17:44:05.000Z</time>
                <name>Position 1259</name>
            </trkpt>
            <trkpt lon="9.523847" lat="47.68215">
                <ele>428.0175119999998</ele>
                <time>2012-05-17T17:44:06.000Z</time>
                <name>Position 1260</name>
            </trkpt>
            <trkpt lon="9.52386" lat="47.682143">
                <ele>428.0044512000114</ele>
                <time>2012-05-17T17:44:06.000Z</time>
                <name>Position 1261</name>
            </trkpt>
            <trkpt lon="9.523873" lat="47.682154">
                <ele>428.0483164799903</ele>
                <time>2012-05-17T17:44:07.000Z</time>
                <name>Position 1262</name>
            </trkpt>
            <trkpt lon="9.523875" lat="47.682167">
                <ele>428.0910599999991</ele>
                <time>2012-05-17T17:44:07.000Z</time>
                <name>Position 1263</name>
            </trkpt>
            <trkpt lon="9.523875" lat="47.682173">
                <ele>428.11013999999614</ele>
                <time>2012-05-17T17:44:08.000Z</time>
                <name>Position 1264</name>
            </trkpt>
            <trkpt lon="9.523889" lat="47.682172">
                <ele>428.1171475200043</ele>
                <time>2012-05-17T17:44:08.000Z</time>
                <name>Position 1265</name>
            </trkpt>
            <trkpt lon="9.523889" lat="47.682166">
                <ele>428.0979465600073</ele>
                <time>2012-05-17T17:44:08.000Z</time>
                <name>Position 1266</name>
            </trkpt>
            <trkpt lon="9.523889" lat="47.682172">
                <ele>428.1171475200043</ele>
                <time>2012-05-17T17:44:09.000Z</time>
                <name>Position 1267</name>
            </trkpt>
            <trkpt lon="9.523889" lat="47.682178">
                <ele>428.13634848000135</ele>
                <time>2012-05-17T17:44:09.000Z</time>
                <name>Position 1268</name>
            </trkpt>
            <trkpt lon="9.523886" lat="47.682171">
                <ele>428.1117686399887</ele>
                <time>2012-05-17T17:44:09.000Z</time>
                <name>Position 1269</name>
            </trkpt>
            <trkpt lon="9.523889" lat="47.682178">
                <ele>428.13634848000135</ele>
                <time>2012-05-17T17:44:09.000Z</time>
                <name>Position 1270</name>
            </trkpt>
            <trkpt lon="9.523886" lat="47.682171">
                <ele>428.1117686399887</ele>
                <time>2012-05-17T17:44:10.000Z</time>
                <name>Position 1271</name>
            </trkpt>
            <trkpt lon="9.523886" lat="47.682177">
                <ele>428.13094368000844</ele>
                <time>2012-05-17T17:44:10.000Z</time>
                <name>Position 1272</name>
            </trkpt>
            <trkpt lon="9.523886" lat="47.682171">
                <ele>428.1117686399887</ele>
                <time>2012-05-17T17:44:10.000Z</time>
                <name>Position 1273</name>
            </trkpt>
            <trkpt lon="9.523886" lat="47.682177">
                <ele>428.13094368000844</ele>
                <time>2012-05-17T17:44:10.000Z</time>
                <name>Position 1274</name>
            </trkpt>
            <trkpt lon="9.523886" lat="47.682171">
                <ele>428.1117686399887</ele>
                <time>2012-05-17T17:44:11.000Z</time>
                <name>Position 1275</name>
            </trkpt>
            <trkpt lon="9.523889" lat="47.682178">
                <ele>428.13634848000135</ele>
                <time>2012-05-17T17:44:11.000Z</time>
                <name>Position 1276</name>
            </trkpt>
            <trkpt lon="9.523889" lat="47.682184">
                <ele>428.15554943999837</ele>
                <time>2012-05-17T17:44:11.000Z</time>
                <name>Position 1277</name>
            </trkpt>
            <trkpt lon="9.523891" lat="47.682184">
                <ele>428.1570393599985</ele>
                <time>2012-05-17T17:44:11.000Z</time>
                <name>Position 1278</name>
            </trkpt>
            <trkpt lon="9.523891" lat="47.68219">
                <ele>428.17625759999555</ele>
                <time>2012-05-17T17:44:12.000Z</time>
                <name>Position 1279</name>
            </trkpt>
            <trkpt lon="9.523891" lat="47.682184">
                <ele>428.1570393599985</ele>
                <time>2012-05-17T17:44:12.000Z</time>
                <name>Position 1280</name>
            </trkpt>
            <trkpt lon="9.523889" lat="47.682178">
                <ele>428.13634848000135</ele>
                <time>2012-05-17T17:44:12.000Z</time>
                <name>Position 1281</name>
            </trkpt>
            <trkpt lon="9.523889" lat="47.682184">
                <ele>428.15554943999837</ele>
                <time>2012-05-17T17:44:12.000Z</time>
                <name>Position 1282</name>
            </trkpt>
            <trkpt lon="9.523889" lat="47.682178">
                <ele>428.13634848000135</ele>
                <time>2012-05-17T17:44:12.000Z</time>
                <name>Position 1283</name>
            </trkpt>
            <trkpt lon="9.523886" lat="47.682171">
                <ele>428.1117686399887</ele>
                <time>2012-05-17T17:44:13.000Z</time>
                <name>Position 1284</name>
            </trkpt>
            <trkpt lon="9.523886" lat="47.682177">
                <ele>428.13094368000844</ele>
                <time>2012-05-17T17:44:13.000Z</time>
                <name>Position 1285</name>
            </trkpt>
            <trkpt lon="9.523886" lat="47.682183">
                <ele>428.1501187200054</ele>
                <time>2012-05-17T17:44:13.000Z</time>
                <name>Position 1286</name>
            </trkpt>
            <trkpt lon="9.523886" lat="47.682189">
                <ele>428.16929376000246</ele>
                <time>2012-05-17T17:44:13.000Z</time>
                <name>Position 1287</name>
            </trkpt>
            <trkpt lon="9.523873" lat="47.68219">
                <ele>428.16269279999506</ele>
                <time>2012-05-17T17:44:14.000Z</time>
                <name>Position 1288</name>
            </trkpt>
            <trkpt lon="9.523886" lat="47.682195">
                <ele>428.18846879999944</ele>
                <time>2012-05-17T17:44:14.000Z</time>
                <name>Position 1289</name>
            </trkpt>
            <trkpt lon="9.523884" lat="47.682189">
                <ele>428.16778944000356</ele>
                <time>2012-05-17T17:44:14.000Z</time>
                <name>Position 1290</name>
            </trkpt>
            <trkpt lon="9.523893" lat="47.682168">
                <ele>428.1072345599903</ele>
                <time>2012-05-17T17:44:15.000Z</time>
                <name>Position 1291</name>
            </trkpt>
            <trkpt lon="9.523958" lat="47.682086">
                <ele>427.883598719994</ele>
                <time>2012-05-17T17:44:19.000Z</time>
                <name>Position 1292</name>
            </trkpt>
            <trkpt lon="9.524046" lat="47.68197">
                <ele>427.5392927999989</ele>
                <time>2012-05-17T17:44:24.000Z</time>
                <name>Position 1293</name>
            </trkpt>
            <trkpt lon="9.52416" lat="47.68184">
                <ele>427.1223360000037</ele>
                <time>2012-05-17T17:44:30.000Z</time>
                <name>Position 1294</name>
            </trkpt>
            <trkpt lon="9.524221" lat="47.681745">
                <ele>426.9001423999991</ele>
                <time>2012-05-17T17:44:34.000Z</time>
                <name>Position 1295</name>
            </trkpt>
            <trkpt lon="9.524335" lat="47.681633">
                <ele>426.89583920000103</ele>
                <time>2012-05-17T17:44:40.000Z</time>
                <name>Position 1296</name>
            </trkpt>
            <trkpt lon="9.524446" lat="47.681502">
                <ele>427.1041644799992</ele>
                <time>2012-05-17T17:44:46.000Z</time>
                <name>Position 1297</name>
            </trkpt>
            <trkpt lon="9.524549" lat="47.681392">
                <ele>427.2663795200021</ele>
                <time>2012-05-17T17:44:51.000Z</time>
                <name>Position 1298</name>
            </trkpt>
            <trkpt lon="9.524678" lat="47.681268">
                <ele>427.4336537600016</ele>
                <time>2012-05-17T17:44:57.000Z</time>
                <name>Position 1299</name>
            </trkpt>
            <trkpt lon="9.524794" lat="47.681138">
                <ele>427.5280236799973</ele>
                <time>2012-05-17T17:45:03.000Z</time>
                <name>Position 1300</name>
            </trkpt>
            <trkpt lon="9.524923" lat="47.681013">
                <ele>427.6032785599991</ele>
                <time>2012-05-17T17:45:09.000Z</time>
                <name>Position 1301</name>
            </trkpt>
            <trkpt lon="9.525052" lat="47.680883">
                <ele>427.60712384000175</ele>
                <time>2012-05-17T17:45:16.000Z</time>
                <name>Position 1302</name>
            </trkpt>
            <trkpt lon="9.525176" lat="47.680745">
                <ele>427.62165120000174</ele>
                <time>2012-05-17T17:45:22.000Z</time>
                <name>Position 1303</name>
            </trkpt>
            <trkpt lon="9.525305" lat="47.68058">
                <ele>427.4209439999984</ele>
                <time>2012-05-17T17:45:30.000Z</time>
                <name>Position 1304</name>
            </trkpt>
            <trkpt lon="9.525413" lat="47.680442">
                <ele>427.0646649599979</ele>
                <time>2012-05-17T17:45:36.000Z</time>
                <name>Position 1305</name>
            </trkpt>
            <trkpt lon="9.525548" lat="47.680297">
                <ele>426.4646745600084</ele>
                <time>2012-05-17T17:45:43.000Z</time>
                <name>Position 1306</name>
            </trkpt>
            <trkpt lon="9.525677" lat="47.680178">
                <ele>425.756914559992</ele>
                <time>2012-05-17T17:45:49.000Z</time>
                <name>Position 1307</name>
            </trkpt>
            <trkpt lon="9.525819" lat="47.680059">
                <ele>424.8299289599989</ele>
                <time>2012-05-17T17:45:55.000Z</time>
                <name>Position 1308</name>
            </trkpt>
            <trkpt lon="9.525959" lat="47.679938">
                <ele>422.817678079997</ele>
                <time>2012-05-17T17:46:01.000Z</time>
                <name>Position 1309</name>
            </trkpt>
            <trkpt lon="9.526084" lat="47.679795">
                <ele>420.66758719998296</ele>
                <time>2012-05-17T17:46:07.000Z</time>
                <name>Position 1310</name>
            </trkpt>
            <trkpt lon="9.52623" lat="47.679623">
                <ele>418.3865695999968</ele>
                <time>2012-05-17T17:46:15.000Z</time>
                <name>Position 1311</name>
            </trkpt>
            <trkpt lon="9.52634" lat="47.679474">
                <ele>416.75267839999896</ele>
                <time>2012-05-17T17:46:22.000Z</time>
                <name>Position 1312</name>
            </trkpt>
            <trkpt lon="9.526464" lat="47.679343">
                <ele>415.3134444800099</ele>
                <time>2012-05-17T17:46:28.000Z</time>
                <name>Position 1313</name>
            </trkpt>
            <trkpt lon="9.526574" lat="47.679205">
                <ele>414.10326080001266</ele>
                <time>2012-05-17T17:46:35.000Z</time>
                <name>Position 1314</name>
            </trkpt>
            <trkpt lon="9.526694" lat="47.679061">
                <ele>413.4958409599998</ele>
                <time>2012-05-17T17:46:41.000Z</time>
                <name>Position 1315</name>
            </trkpt>
            <trkpt lon="9.526805" lat="47.67893">
                <ele>413.4528560000004</ele>
                <time>2012-05-17T17:46:47.000Z</time>
                <name>Position 1316</name>
            </trkpt>
            <trkpt lon="9.526945" lat="47.67881">
                <ele>413.3570479999997</ele>
                <time>2012-05-17T17:46:53.000Z</time>
                <name>Position 1317</name>
            </trkpt>
            <trkpt lon="9.527087" lat="47.678696">
                <ele>413.21511488000147</ele>
                <time>2012-05-17T17:46:59.000Z</time>
                <name>Position 1318</name>
            </trkpt>
            <trkpt lon="9.527214" lat="47.678571">
                <ele>413.03051935999787</ele>
                <time>2012-05-17T17:47:05.000Z</time>
                <name>Position 1319</name>
            </trkpt>
            <trkpt lon="9.527356" lat="47.678451">
                <ele>412.78960064000336</ele>
                <time>2012-05-17T17:47:11.000Z</time>
                <name>Position 1320</name>
            </trkpt>
            <trkpt lon="9.527529" lat="47.678361">
                <ele>412.5007107200038</ele>
                <time>2012-05-17T17:47:17.000Z</time>
                <name>Position 1321</name>
            </trkpt>
            <trkpt lon="9.527696" lat="47.678267">
                <ele>412.325678080001</ele>
                <time>2012-05-17T17:47:23.000Z</time>
                <name>Position 1322</name>
            </trkpt>
            <trkpt lon="9.527779" lat="47.678132">
                <ele>412.3259123200008</ele>
                <time>2012-05-17T17:47:29.000Z</time>
                <name>Position 1323</name>
            </trkpt>
            <trkpt lon="9.527822" lat="47.677994">
                <ele>412.36345792000066</ele>
                <time>2012-05-17T17:47:35.000Z</time>
                <name>Position 1324</name>
            </trkpt>
            <trkpt lon="9.52784" lat="47.677865">
                <ele>412.4247040000033</ele>
                <time>2012-05-17T17:47:40.000Z</time>
                <name>Position 1325</name>
            </trkpt>
            <trkpt lon="9.527883" lat="47.677751">
                <ele>412.41803152000136</ele>
                <time>2012-05-17T17:47:45.000Z</time>
                <name>Position 1326</name>
            </trkpt>
            <trkpt lon="9.52792" lat="47.677653">
                <ele>412.40093440000066</ele>
                <time>2012-05-17T17:47:49.000Z</time>
                <name>Position 1327</name>
            </trkpt>
            <trkpt lon="9.527986" lat="47.677552">
                <ele>412.3075916800002</ele>
                <time>2012-05-17T17:47:53.000Z</time>
                <name>Position 1328</name>
            </trkpt>
            <trkpt lon="9.52808" lat="47.677468">
                <ele>412.1264320000034</ele>
                <time>2012-05-17T17:47:57.000Z</time>
                <name>Position 1329</name>
            </trkpt>
            <trkpt lon="9.528174" lat="47.677372">
                <ele>412.04275840000247</ele>
                <time>2012-05-17T17:48:02.000Z</time>
                <name>Position 1330</name>
            </trkpt>
            <trkpt lon="9.528266" lat="47.677275">
                <ele>412.09251999999685</ele>
                <time>2012-05-17T17:48:06.000Z</time>
                <name>Position 1331</name>
            </trkpt>
            <trkpt lon="9.528358" lat="47.677179">
                <ele>412.29539423999546</ele>
                <time>2012-05-17T17:48:11.000Z</time>
                <name>Position 1332</name>
            </trkpt>
            <trkpt lon="9.528434" lat="47.677083">
                <ele>412.5610550399943</ele>
                <time>2012-05-17T17:48:15.000Z</time>
                <name>Position 1333</name>
            </trkpt>
            <trkpt lon="9.528526" lat="47.67698">
                <ele>412.7775935999995</ele>
                <time>2012-05-17T17:48:20.000Z</time>
                <name>Position 1334</name>
            </trkpt>
            <trkpt lon="9.528616" lat="47.676883">
                <ele>412.90576896000425</ele>
                <time>2012-05-17T17:48:25.000Z</time>
                <name>Position 1335</name>
            </trkpt>
            <trkpt lon="9.52869" lat="47.676787">
                <ele>412.9686096000029</ele>
                <time>2012-05-17T17:48:29.000Z</time>
                <name>Position 1336</name>
            </trkpt>
            <trkpt lon="9.528786" lat="47.676691">
                <ele>412.9459843200006</ele>
                <time>2012-05-17T17:48:34.000Z</time>
                <name>Position 1337</name>
            </trkpt>
            <trkpt lon="9.528889" lat="47.676599">
                <ele>413.0767999999898</ele>
                <time>2012-05-17T17:48:38.000Z</time>
                <name>Position 1338</name>
            </trkpt>
            <trkpt lon="9.528987" lat="47.676522">
                <ele>413.23640000000466</ele>
                <time>2012-05-17T17:48:42.000Z</time>
                <name>Position 1339</name>
            </trkpt>
            <trkpt lon="9.529081" lat="47.676432">
                <ele>413.44760000000645</ele>
                <time>2012-05-17T17:48:47.000Z</time>
                <name>Position 1340</name>
            </trkpt>
            <trkpt lon="9.529149" lat="47.676344">
                <ele>413.68279999999885</ele>
                <time>2012-05-17T17:48:51.000Z</time>
                <name>Position 1341</name>
            </trkpt>
            <trkpt lon="9.529221" lat="47.676275">
                <ele>413.7489560000122</ele>
                <time>2012-05-17T17:48:54.000Z</time>
                <name>Position 1342</name>
            </trkpt>
            <trkpt lon="9.529307" lat="47.676218">
                <ele>413.6877334400069</ele>
                <time>2012-05-17T17:48:57.000Z</time>
                <name>Position 1343</name>
            </trkpt>
            <trkpt lon="9.529442" lat="47.676165">
                <ele>413.44629920000983</ele>
                <time>2012-05-17T17:49:02.000Z</time>
                <name>Position 1344</name>
            </trkpt>
            <trkpt lon="9.529569" lat="47.676121">
                <ele>413.182662559993</ele>
                <time>2012-05-17T17:49:05.000Z</time>
                <name>Position 1345</name>
            </trkpt>
            <trkpt lon="9.529694" lat="47.67607">
                <ele>412.9293151999947</ele>
                <time>2012-05-17T17:49:09.000Z</time>
                <name>Position 1346</name>
            </trkpt>
            <trkpt lon="9.529589" lat="47.675942">
                <ele>413.654486720004</ele>
                <time>2012-05-17T17:49:15.000Z</time>
                <name>Position 1347</name>
            </trkpt>
            <trkpt lon="9.529731" lat="47.675899">
                <ele>413.28536335999723</ele>
                <time>2012-05-17T17:49:19.000Z</time>
                <name>Position 1348</name>
            </trkpt>
            <trkpt lon="9.529876" lat="47.675887">
                <ele>412.8080172799932</ele>
                <time>2012-05-17T17:49:23.000Z</time>
                <name>Position 1349</name>
            </trkpt>
            <trkpt lon="9.529983" lat="47.675878">
                <ele>412.45290656000793</ele>
                <time>2012-05-17T17:49:26.000Z</time>
                <name>Position 1350</name>
            </trkpt>
            <trkpt lon="9.530007" lat="47.67587">
                <ele>412.42039999999156</ele>
                <time>2012-05-17T17:49:27.000Z</time>
                <name>Position 1351</name>
            </trkpt>
            <trkpt lon="9.529974" lat="47.675876">
                <ele>412.48960255999697</ele>
                <time>2012-05-17T17:49:28.000Z</time>
                <name>Position 1352</name>
            </trkpt>
            <trkpt lon="9.529972" lat="47.675876">
                <ele>412.4966796799917</ele>
                <time>2012-05-17T17:49:28.000Z</time>
                <name>Position 1353</name>
            </trkpt>
            <trkpt lon="9.529956" lat="47.675876">
                <ele>412.5532966399933</ele>
                <time>2012-05-17T17:49:28.000Z</time>
                <name>Position 1354</name>
            </trkpt>
            <trkpt lon="9.529939" lat="47.675883">
                <ele>412.5960372800008</ele>
                <time>2012-05-17T17:49:29.000Z</time>
                <name>Position 1355</name>
            </trkpt>
            <trkpt lon="9.529974" lat="47.675878">
                <ele>412.4847276800093</ele>
                <time>2012-05-17T17:49:30.000Z</time>
                <name>Position 1356</name>
            </trkpt>
            <trkpt lon="9.530079" lat="47.675875">
                <ele>412.4948000000062</ele>
                <time>2012-05-17T17:49:33.000Z</time>
                <name>Position 1357</name>
            </trkpt>
            <trkpt lon="9.530195" lat="47.675871">
                <ele>412.6435999999993</ele>
                <time>2012-05-17T17:49:36.000Z</time>
                <name>Position 1358</name>
            </trkpt>
            <trkpt lon="9.530234" lat="47.675803">
                <ele>412.7705788800007</ele>
                <time>2012-05-17T17:49:39.000Z</time>
                <name>Position 1359</name>
            </trkpt>
            <trkpt lon="9.53019" lat="47.675717">
                <ele>412.6961711999989</ele>
                <time>2012-05-17T17:49:42.000Z</time>
                <name>Position 1360</name>
            </trkpt>
            <trkpt lon="9.530157" lat="47.675622">
                <ele>412.6406217600001</ele>
                <time>2012-05-17T17:49:46.000Z</time>
                <name>Position 1361</name>
            </trkpt>
            <trkpt lon="9.530124" lat="47.675516">
                <ele>412.5921369600008</ele>
                <time>2012-05-17T17:49:51.000Z</time>
                <name>Position 1362</name>
            </trkpt>
            <trkpt lon="9.530098" lat="47.675417">
                <ele>412.5588470400008</ele>
                <time>2012-05-17T17:49:55.000Z</time>
                <name>Position 1363</name>
            </trkpt>
            <trkpt lon="9.530085" lat="47.675329">
                <ele>412.5402695999996</ele>
                <time>2012-05-17T17:49:58.000Z</time>
                <name>Position 1364</name>
            </trkpt>
            <trkpt lon="9.530061" lat="47.675261">
                <ele>412.52292623999983</ele>
                <time>2012-05-17T17:50:01.000Z</time>
                <name>Position 1365</name>
            </trkpt>
            <trkpt lon="9.530065" lat="47.675234">
                <ele>412.52190240000044</ele>
                <time>2012-05-17T17:50:02.000Z</time>
                <name>Position 1366</name>
            </trkpt>
            <trkpt lon="9.530089" lat="47.675195">
                <ele>412.52499120000033</ele>
                <time>2012-05-17T17:50:04.000Z</time>
                <name>Position 1367</name>
            </trkpt>
            <trkpt lon="9.530071" lat="47.675201">
                <ele>412.52055024</ele>
                <time>2012-05-17T17:50:04.000Z</time>
                <name>Position 1368</name>
            </trkpt>
            <trkpt lon="9.530069" lat="47.675201">
                <ele>412.5199713599999</ele>
                <time>2012-05-17T17:50:04.000Z</time>
                <name>Position 1369</name>
            </trkpt>
            <trkpt lon="9.530067" lat="47.6752">
                <ele>412.5192959999999</ele>
                <time>2012-05-17T17:50:05.000Z</time>
                <name>Position 1370</name>
            </trkpt>
            <trkpt lon="9.530096" lat="47.675223">
                <ele>412.53082752000046</ele>
                <time>2012-05-17T17:50:06.000Z</time>
                <name>Position 1371</name>
            </trkpt>
            <trkpt lon="9.530196" lat="47.675278">
                <ele>412.57846271999966</ele>
                <time>2012-05-17T17:50:09.000Z</time>
                <name>Position 1372</name>
            </trkpt>
            <trkpt lon="9.530323" lat="47.675336">
                <ele>412.6562803200003</ele>
                <time>2012-05-17T17:50:13.000Z</time>
                <name>Position 1373</name>
            </trkpt>
            <trkpt lon="9.53047" lat="47.675413">
                <ele>412.77951839999884</ele>
                <time>2012-05-17T17:50:18.000Z</time>
                <name>Position 1374</name>
            </trkpt>
            <trkpt lon="9.530606" lat="47.675517">
                <ele>412.9511548799997</ele>
                <time>2012-05-17T17:50:24.000Z</time>
                <name>Position 1375</name>
            </trkpt>
            <trkpt lon="9.530731" lat="47.675627">
                <ele>413.16000527999796</ele>
                <time>2012-05-17T17:50:29.000Z</time>
                <name>Position 1376</name>
            </trkpt>
            <trkpt lon="9.53084" lat="47.675727">
                <ele>413.3664416000027</ele>
                <time>2012-05-17T17:50:34.000Z</time>
                <name>Position 1377</name>
            </trkpt>
            <trkpt lon="9.530963" lat="47.675813">
                <ele>413.32759327999855</ele>
                <time>2012-05-17T17:50:39.000Z</time>
                <name>Position 1378</name>
            </trkpt>
            <trkpt lon="9.531081" lat="47.675867">
                <ele>413.1220000000078</ele>
                <time>2012-05-17T17:50:43.000Z</time>
                <name>Position 1379</name>
            </trkpt>
            <trkpt lon="9.531193" lat="47.675909">
                <ele>412.8868000000069</ele>
                <time>2012-05-17T17:50:47.000Z</time>
                <name>Position 1380</name>
            </trkpt>
            <trkpt lon="9.531281" lat="47.67594">
                <ele>412.7068000000073</ele>
                <time>2012-05-17T17:50:49.000Z</time>
                <name>Position 1381</name>
            </trkpt>
            <trkpt lon="9.531335" lat="47.675936">
                <ele>412.6515999999996</ele>
                <time>2012-05-17T17:50:51.000Z</time>
                <name>Position 1382</name>
            </trkpt>
            <trkpt lon="9.531348" lat="47.675929">
                <ele>412.65280000000934</ele>
                <time>2012-05-17T17:50:51.000Z</time>
                <name>Position 1383</name>
            </trkpt>
            <trkpt lon="9.531362" lat="47.675934">
                <ele>412.6240000000053</ele>
                <time>2012-05-17T17:50:52.000Z</time>
                <name>Position 1384</name>
            </trkpt>
            <trkpt lon="9.53139" lat="47.675932">
                <ele>412.59519999999276</ele>
                <time>2012-05-17T17:50:52.000Z</time>
                <name>Position 1385</name>
            </trkpt>
            <trkpt lon="9.531502" lat="47.675879">
                <ele>412.58799999999604</ele>
                <time>2012-05-17T17:50:56.000Z</time>
                <name>Position 1386</name>
            </trkpt>
            <trkpt lon="9.531604" lat="47.675787">
                <ele>412.6224377600007</ele>
                <time>2012-05-17T17:51:01.000Z</time>
                <name>Position 1387</name>
            </trkpt>
            <trkpt lon="9.531722" lat="47.675694">
                <ele>412.5455020799996</ele>
                <time>2012-05-17T17:51:05.000Z</time>
                <name>Position 1388</name>
            </trkpt>
            <trkpt lon="9.531843" lat="47.675596">
                <ele>412.4218636800014</ele>
                <time>2012-05-17T17:51:11.000Z</time>
                <name>Position 1389</name>
            </trkpt>
            <trkpt lon="9.532038" lat="47.675542">
                <ele>412.11418176000006</ele>
                <time>2012-05-17T17:51:16.000Z</time>
                <name>Position 1390</name>
            </trkpt>
            <trkpt lon="9.532272" lat="47.675568">
                <ele>411.59688576000207</ele>
                <time>2012-05-17T17:51:23.000Z</time>
                <name>Position 1391</name>
            </trkpt>
            <trkpt lon="9.532515" lat="47.675685">
                <ele>410.86759199999676</ele>
                <time>2012-05-17T17:51:31.000Z</time>
                <name>Position 1392</name>
            </trkpt>
            <trkpt lon="9.532802" lat="47.67583">
                <ele>410.8675008000037</ele>
                <time>2012-05-17T17:51:40.000Z</time>
                <name>Position 1393</name>
            </trkpt>
            <trkpt lon="9.533091" lat="47.675982">
                <ele>410.97892128000456</ele>
                <time>2012-05-17T17:51:50.000Z</time>
                <name>Position 1394</name>
            </trkpt>
            <trkpt lon="9.533426" lat="47.676097">
                <ele>411.1132326400018</ele>
                <time>2012-05-17T17:52:00.000Z</time>
                <name>Position 1395</name>
            </trkpt>
            <trkpt lon="9.533763" lat="47.676066">
                <ele>410.93288896000297</ele>
                <time>2012-05-17T17:52:10.000Z</time>
                <name>Position 1396</name>
            </trkpt>
            <trkpt lon="9.533886" lat="47.675863">
                <ele>411.41718016000107</ele>
                <time>2012-05-17T17:52:18.000Z</time>
                <name>Position 1397</name>
            </trkpt>
            <trkpt lon="9.533958" lat="47.675659">
                <ele>411.5</ele>
                <time>2012-05-17T17:52:27.000Z</time>
                <name>Position 1398</name>
            </trkpt>
            <trkpt lon="9.534019" lat="47.675456">
                <ele>411.5</ele>
                <time>2012-05-17T17:52:35.000Z</time>
                <name>Position 1399</name>
            </trkpt>
            <trkpt lon="9.534062" lat="47.675266">
                <ele>411.5</ele>
                <time>2012-05-17T17:52:43.000Z</time>
                <name>Position 1400</name>
            </trkpt>
            <trkpt lon="9.534086" lat="47.675086">
                <ele>411.5</ele>
                <time>2012-05-17T17:52:50.000Z</time>
                <name>Position 1401</name>
            </trkpt>
            <trkpt lon="9.534092" lat="47.674893">
                <ele>411.13780927999096</ele>
                <time>2012-05-17T17:52:58.000Z</time>
                <name>Position 1402</name>
            </trkpt>
            <trkpt lon="9.534112" lat="47.674694">
                <ele>410.44657664000766</ele>
                <time>2012-05-17T17:53:06.000Z</time>
                <name>Position 1403</name>
            </trkpt>
            <trkpt lon="9.534142" lat="47.674498">
                <ele>409.7284620800004</ele>
                <time>2012-05-17T17:53:14.000Z</time>
                <name>Position 1404</name>
            </trkpt>
            <trkpt lon="9.534177" lat="47.674316">
                <ele>409.00613375999194</ele>
                <time>2012-05-17T17:53:21.000Z</time>
                <name>Position 1405</name>
            </trkpt>
            <trkpt lon="9.534212" lat="47.674122">
                <ele>408.5432524800099</ele>
                <time>2012-05-17T17:53:29.000Z</time>
                <name>Position 1406</name>
            </trkpt>
            <trkpt lon="9.534205" lat="47.673931">
                <ele>409.217373599989</ele>
                <time>2012-05-17T17:53:36.000Z</time>
                <name>Position 1407</name>
            </trkpt>
            <trkpt lon="9.534141" lat="47.673749">
                <ele>410.03432607999713</ele>
                <time>2012-05-17T17:53:44.000Z</time>
                <name>Position 1408</name>
            </trkpt>
            <trkpt lon="9.534084" lat="47.673593">
                <ele>410.6270214400108</ele>
                <time>2012-05-17T17:53:50.000Z</time>
                <name>Position 1409</name>
            </trkpt>
            <trkpt lon="9.534001" lat="47.673445">
                <ele>411.151278399997</ele>
                <time>2012-05-17T17:53:57.000Z</time>
                <name>Position 1410</name>
            </trkpt>
            <trkpt lon="9.533845" lat="47.673347">
                <ele>411.46346080000086</ele>
                <time>2012-05-17T17:54:02.000Z</time>
                <name>Position 1411</name>
            </trkpt>
            <trkpt lon="9.533657" lat="47.673291">
                <ele>411.4802692799995</ele>
                <time>2012-05-17T17:54:08.000Z</time>
                <name>Position 1412</name>
            </trkpt>
            <trkpt lon="9.533455" lat="47.673236">
                <ele>411.48294720000047</ele>
                <time>2012-05-17T17:54:14.000Z</time>
                <name>Position 1413</name>
            </trkpt>
            <trkpt lon="9.533241" lat="47.673188">
                <ele>411.38920000000024</ele>
                <time>2012-05-17T17:54:20.000Z</time>
                <name>Position 1414</name>
            </trkpt>
            <trkpt lon="9.533002" lat="47.673148">
                <ele>411.1023999999996</ele>
                <time>2012-05-17T17:54:26.000Z</time>
                <name>Position 1415</name>
            </trkpt>
            <trkpt lon="9.532787" lat="47.673094">
                <ele>410.84440000000086</ele>
                <time>2012-05-17T17:54:33.000Z</time>
                <name>Position 1416</name>
            </trkpt>
            <trkpt lon="9.532584" lat="47.673026">
                <ele>410.6007999999998</ele>
                <time>2012-05-17T17:54:39.000Z</time>
                <name>Position 1417</name>
            </trkpt>
            <trkpt lon="9.532356" lat="47.672967">
                <ele>410.40316288</ele>
                <time>2012-05-17T17:54:45.000Z</time>
                <name>Position 1418</name>
            </trkpt>
            <trkpt lon="9.532141" lat="47.672907">
                <ele>410.2895972799985</ele>
                <time>2012-05-17T17:54:52.000Z</time>
                <name>Position 1419</name>
            </trkpt>
            <trkpt lon="9.53194" lat="47.67284">
                <ele>410.2258239999997</ele>
                <time>2012-05-17T17:54:58.000Z</time>
                <name>Position 1420</name>
            </trkpt>
            <trkpt lon="9.531837" lat="47.67272">
                <ele>410.2899616000016</ele>
                <time>2012-05-17T17:55:03.000Z</time>
                <name>Position 1421</name>
            </trkpt>
            <trkpt lon="9.53185" lat="47.672565">
                <ele>410.43916000000127</ele>
                <time>2012-05-17T17:55:09.000Z</time>
                <name>Position 1422</name>
            </trkpt>
            <trkpt lon="9.531777" lat="47.672462">
                <ele>410.4148374400066</ele>
                <time>2012-05-17T17:55:14.000Z</time>
                <name>Position 1423</name>
            </trkpt>
            <trkpt lon="9.531605" lat="47.67247">
                <ele>410.42799999999266</ele>
                <time>2012-05-17T17:55:19.000Z</time>
                <name>Position 1424</name>
            </trkpt>
            <trkpt lon="9.531405" lat="47.672498">
                <ele>410.49519999999353</ele>
                <time>2012-05-17T17:55:24.000Z</time>
                <name>Position 1425</name>
            </trkpt>
            <trkpt lon="9.531202" lat="47.672495">
                <ele>410.48799999999466</ele>
                <time>2012-05-17T17:55:30.000Z</time>
                <name>Position 1426</name>
            </trkpt>
            <trkpt lon="9.531005" lat="47.672453">
                <ele>410.38719999999336</ele>
                <time>2012-05-17T17:55:35.000Z</time>
                <name>Position 1427</name>
            </trkpt>
            <trkpt lon="9.530819" lat="47.672403">
                <ele>410.3036020800083</ele>
                <time>2012-05-17T17:55:41.000Z</time>
                <name>Position 1428</name>
            </trkpt>
            <trkpt lon="9.530648" lat="47.672365">
                <ele>410.6568287999999</ele>
                <time>2012-05-17T17:55:45.000Z</time>
                <name>Position 1429</name>
            </trkpt>
            <trkpt lon="9.530462" lat="47.672321">
                <ele>411.05731487999367</ele>
                <time>2012-05-17T17:55:51.000Z</time>
                <name>Position 1430</name>
            </trkpt>
            <trkpt lon="9.530262" lat="47.672278">
                <ele>411.5210438399965</ele>
                <time>2012-05-17T17:55:56.000Z</time>
                <name>Position 1431</name>
            </trkpt>
            <trkpt lon="9.530065" lat="47.672236">
                <ele>412.0024895999962</ele>
                <time>2012-05-17T17:56:02.000Z</time>
                <name>Position 1432</name>
            </trkpt>
            <trkpt lon="9.529892" lat="47.672185">
                <ele>412.17098879999867</ele>
                <time>2012-05-17T17:56:07.000Z</time>
                <name>Position 1433</name>
            </trkpt>
            <trkpt lon="9.529708" lat="47.672142">
                <ele>412.22093184000096</ele>
                <time>2012-05-17T17:56:12.000Z</time>
                <name>Position 1434</name>
            </trkpt>
            <trkpt lon="9.529535" lat="47.672091">
                <ele>412.28306640000136</ele>
                <time>2012-05-17T17:56:17.000Z</time>
                <name>Position 1435</name>
            </trkpt>
            <trkpt lon="9.529351" lat="47.67206">
                <ele>412.3832064000004</ele>
                <time>2012-05-17T17:56:23.000Z</time>
                <name>Position 1436</name>
            </trkpt>
            <trkpt lon="9.529194" lat="47.672015">
                <ele>412.4809103999998</ele>
                <time>2012-05-17T17:56:27.000Z</time>
                <name>Position 1437</name>
            </trkpt>
            <trkpt lon="9.529021" lat="47.67197">
                <ele>413.183118399998</ele>
                <time>2012-05-17T17:56:32.000Z</time>
                <name>Position 1438</name>
            </trkpt>
            <trkpt lon="9.52885" lat="47.671932">
                <ele>414.0370240000012</ele>
                <time>2012-05-17T17:56:37.000Z</time>
                <name>Position 1439</name>
            </trkpt>
            <trkpt lon="9.528662" lat="47.671882">
                <ele>415.05853888000445</ele>
                <time>2012-05-17T17:56:42.000Z</time>
                <name>Position 1440</name>
            </trkpt>
            <trkpt lon="9.528489" lat="47.671843">
                <ele>416.0497806399902</ele>
                <time>2012-05-17T17:56:47.000Z</time>
                <name>Position 1441</name>
            </trkpt>
            <trkpt lon="9.528305" lat="47.67183">
                <ele>416.81666399999887</ele>
                <time>2012-05-17T17:56:52.000Z</time>
                <name>Position 1442</name>
            </trkpt>
            <trkpt lon="9.528105" lat="47.671781">
                <ele>416.3039927999908</ele>
                <time>2012-05-17T17:56:58.000Z</time>
                <name>Position 1443</name>
            </trkpt>
            <trkpt lon="9.527917" lat="47.671695">
                <ele>415.9161864000023</ele>
                <time>2012-05-17T17:57:04.000Z</time>
                <name>Position 1444</name>
            </trkpt>
            <trkpt lon="9.527759" lat="47.671566">
                <ele>416.38575360001335</ele>
                <time>2012-05-17T17:57:11.000Z</time>
                <name>Position 1445</name>
            </trkpt>
            <trkpt lon="9.527623" lat="47.671417">
                <ele>417.79619040002177</ele>
                <time>2012-05-17T17:57:18.000Z</time>
                <name>Position 1446</name>
            </trkpt>
            <trkpt lon="9.527516" lat="47.67129">
                <ele>419.4428160000126</ele>
                <time>2012-05-17T17:57:24.000Z</time>
                <name>Position 1447</name>
            </trkpt>
            <trkpt lon="9.527393" lat="47.67121">
                <ele>420.66872639997274</ele>
                <time>2012-05-17T17:57:28.000Z</time>
                <name>Position 1448</name>
            </trkpt>
            <trkpt lon="9.527214" lat="47.671103">
                <ele>422.4046809599685</ele>
                <time>2012-05-17T17:57:35.000Z</time>
                <name>Position 1449</name>
            </trkpt>
            <trkpt lon="9.527073" lat="47.670999">
                <ele>424.1342697599742</ele>
                <time>2012-05-17T17:57:40.000Z</time>
                <name>Position 1450</name>
            </trkpt>
            <trkpt lon="9.526889" lat="47.670879">
                <ele>426.2832412800096</ele>
                <time>2012-05-17T17:57:47.000Z</time>
                <name>Position 1451</name>
            </trkpt>
            <trkpt lon="9.52669" lat="47.670759">
                <ele>427.255609599991</ele>
                <time>2012-05-17T17:57:55.000Z</time>
                <name>Position 1452</name>
            </trkpt>
            <trkpt lon="9.526521" lat="47.670657">
                <ele>426.9491260799988</ele>
                <time>2012-05-17T17:58:01.000Z</time>
                <name>Position 1453</name>
            </trkpt>
            <trkpt lon="9.526357" lat="47.670574">
                <ele>426.8282515199996</ele>
                <time>2012-05-17T17:58:06.000Z</time>
                <name>Position 1454</name>
            </trkpt>
            <trkpt lon="9.526182" lat="47.670516">
                <ele>426.90403968000135</ele>
                <time>2012-05-17T17:58:11.000Z</time>
                <name>Position 1455</name>
            </trkpt>
            <trkpt lon="9.525976" lat="47.670513">
                <ele>426.9851443200012</ele>
                <time>2012-05-17T17:58:17.000Z</time>
                <name>Position 1456</name>
            </trkpt>
            <trkpt lon="9.525753" lat="47.670485">
                <ele>427.01949520000323</ele>
                <time>2012-05-17T17:58:23.000Z</time>
                <name>Position 1457</name>
            </trkpt>
            <trkpt lon="9.525545" lat="47.670475">
                <ele>426.67677999998176</ele>
                <time>2012-05-17T17:58:29.000Z</time>
                <name>Position 1458</name>
            </trkpt>
            <trkpt lon="9.525315" lat="47.670468">
                <ele>426.2822848000039</ele>
                <time>2012-05-17T17:58:35.000Z</time>
                <name>Position 1459</name>
            </trkpt>
            <trkpt lon="9.525111" lat="47.670428">
                <ele>426.13361151999493</ele>
                <time>2012-05-17T17:58:41.000Z</time>
                <name>Position 1460</name>
            </trkpt>
            <trkpt lon="9.524923" lat="47.670378">
                <ele>426.29867584000357</ele>
                <time>2012-05-17T17:58:46.000Z</time>
                <name>Position 1461</name>
            </trkpt>
            <trkpt lon="9.524743" lat="47.670313">
                <ele>426.7002102399993</ele>
                <time>2012-05-17T17:58:52.000Z</time>
                <name>Position 1462</name>
            </trkpt>
            <trkpt lon="9.52457" lat="47.670281">
                <ele>426.82597119999366</ele>
                <time>2012-05-17T17:58:56.000Z</time>
                <name>Position 1463</name>
            </trkpt>
            <trkpt lon="9.524435" lat="47.670232">
                <ele>426.8845312000018</ele>
                <time>2012-05-17T17:59:01.000Z</time>
                <name>Position 1464</name>
            </trkpt>
            <trkpt lon="9.524303" lat="47.670166">
                <ele>426.8308652799998</ele>
                <time>2012-05-17T17:59:05.000Z</time>
                <name>Position 1465</name>
            </trkpt>
            <trkpt lon="9.524163" lat="47.670151">
                <ele>426.67399455999583</ele>
                <time>2012-05-17T17:59:09.000Z</time>
                <name>Position 1466</name>
            </trkpt>
            <trkpt lon="9.524021" lat="47.670117">
                <ele>426.3398838399949</ele>
                <time>2012-05-17T17:59:13.000Z</time>
                <name>Position 1467</name>
            </trkpt>
            <trkpt lon="9.523859" lat="47.670016">
                <ele>425.794977279993</ele>
                <time>2012-05-17T17:59:19.000Z</time>
                <name>Position 1468</name>
            </trkpt>
            <trkpt lon="9.523646" lat="47.669963">
                <ele>425.2725644799971</ele>
                <time>2012-05-17T17:59:25.000Z</time>
                <name>Position 1469</name>
            </trkpt>
            <trkpt lon="9.523438" lat="47.669839">
                <ele>425.0405363199951</ele>
                <time>2012-05-17T17:59:33.000Z</time>
                <name>Position 1470</name>
            </trkpt>
            <trkpt lon="9.523237" lat="47.669772">
                <ele>425.22605631999545</ele>
                <time>2012-05-17T17:59:39.000Z</time>
                <name>Position 1471</name>
            </trkpt>
            <trkpt lon="9.523094" lat="47.669655">
                <ele>425.85300160000315</ele>
                <time>2012-05-17T17:59:45.000Z</time>
                <name>Position 1472</name>
            </trkpt>
            <trkpt lon="9.523053" lat="47.669492">
                <ele>426.4657388800037</ele>
                <time>2012-05-17T17:59:51.000Z</time>
                <name>Position 1473</name>
            </trkpt>
            <trkpt lon="9.523048" lat="47.669261">
                <ele>427.22328064000664</ele>
                <time>2012-05-17T18:00:00.000Z</time>
                <name>Position 1474</name>
            </trkpt>
            <trkpt lon="9.523039" lat="47.669063">
                <ele>427.72052383999596</ele>
                <time>2012-05-17T18:00:08.000Z</time>
                <name>Position 1475</name>
            </trkpt>
            <trkpt lon="9.523048" lat="47.668895">
                <ele>427.9559552000036</ele>
                <time>2012-05-17T18:00:15.000Z</time>
                <name>Position 1476</name>
            </trkpt>
            <trkpt lon="9.523021" lat="47.668762">
                <ele>428.23159423999886</ele>
                <time>2012-05-17T18:00:21.000Z</time>
                <name>Position 1477</name>
            </trkpt>
            <trkpt lon="9.522885" lat="47.668689">
                <ele>428.6436367999985</ele>
                <time>2012-05-17T18:00:25.000Z</time>
                <name>Position 1478</name>
            </trkpt>
            <trkpt lon="9.522706" lat="47.668613">
                <ele>429.0868793600009</ele>
                <time>2012-05-17T18:00:31.000Z</time>
                <name>Position 1479</name>
            </trkpt>
            <trkpt lon="9.522511" lat="47.668537">
                <ele>429.4803478400006</ele>
                <time>2012-05-17T18:00:37.000Z</time>
                <name>Position 1480</name>
            </trkpt>
            <trkpt lon="9.522309" lat="47.668469">
                <ele>429.5</ele>
                <time>2012-05-17T18:00:43.000Z</time>
                <name>Position 1481</name>
            </trkpt>
            <trkpt lon="9.52216" lat="47.668458">
                <ele>429.5</ele>
                <time>2012-05-17T18:00:47.000Z</time>
                <name>Position 1482</name>
            </trkpt>
            <trkpt lon="9.521992" lat="47.668362">
                <ele>429.5</ele>
                <time>2012-05-17T18:00:53.000Z</time>
                <name>Position 1483</name>
            </trkpt>
            <trkpt lon="9.521792" lat="47.66823">
                <ele>428.95459840000564</ele>
                <time>2012-05-17T18:01:01.000Z</time>
                <name>Position 1484</name>
            </trkpt>
            <trkpt lon="9.521584" lat="47.668077">
                <ele>427.8246278399816</ele>
                <time>2012-05-17T18:01:09.000Z</time>
                <name>Position 1485</name>
            </trkpt>
            <trkpt lon="9.521383" lat="47.667985">
                <ele>427.013774400008</ele>
                <time>2012-05-17T18:01:15.000Z</time>
                <name>Position 1486</name>
            </trkpt>
            <trkpt lon="9.52121" lat="47.667892">
                <ele>426.33644160000847</ele>
                <time>2012-05-17T18:01:21.000Z</time>
                <name>Position 1487</name>
            </trkpt>
            <trkpt lon="9.521028" lat="47.667766">
                <ele>425.6067302400004</ele>
                <time>2012-05-17T18:01:28.000Z</time>
                <name>Position 1488</name>
            </trkpt>
            <trkpt lon="9.520866" lat="47.667683">
                <ele>425.1760166399873</ele>
                <time>2012-05-17T18:01:34.000Z</time>
                <name>Position 1489</name>
            </trkpt>
            <trkpt lon="9.520676" lat="47.667602">
                <ele>425.03289088000736</ele>
                <time>2012-05-17T18:01:40.000Z</time>
                <name>Position 1490</name>
            </trkpt>
            <trkpt lon="9.520503" lat="47.667521">
                <ele>424.96201072000224</ele>
                <time>2012-05-17T18:01:46.000Z</time>
                <name>Position 1491</name>
            </trkpt>
            <trkpt lon="9.520316" lat="47.667423">
                <ele>425.1685523200009</ele>
                <time>2012-05-17T18:01:52.000Z</time>
                <name>Position 1492</name>
            </trkpt>
            <trkpt lon="9.520124" lat="47.667299">
                <ele>425.2535622399999</ele>
                <time>2012-05-17T18:01:59.000Z</time>
                <name>Position 1493</name>
            </trkpt>
            <trkpt lon="9.519927" lat="47.667156">
                <ele>425.0871999999981</ele>
                <time>2012-05-17T18:02:07.000Z</time>
                <name>Position 1494</name>
            </trkpt>
            <trkpt lon="9.519734" lat="47.667044">
                <ele>424.9527999999964</ele>
                <time>2012-05-17T18:02:14.000Z</time>
                <name>Position 1495</name>
            </trkpt>
            <trkpt lon="9.519585" lat="47.66696">
                <ele>424.8520000000036</ele>
                <time>2012-05-17T18:02:19.000Z</time>
                <name>Position 1496</name>
            </trkpt>
            <trkpt lon="9.519484" lat="47.666918">
                <ele>424.80160000000296</ele>
                <time>2012-05-17T18:02:22.000Z</time>
                <name>Position 1497</name>
            </trkpt>
            <trkpt lon="9.519476" lat="47.666908">
                <ele>424.78959999999915</ele>
                <time>2012-05-17T18:02:23.000Z</time>
                <name>Position 1498</name>
            </trkpt>
            <trkpt lon="9.519473" lat="47.666901">
                <ele>424.7812000000033</ele>
                <time>2012-05-17T18:02:23.000Z</time>
                <name>Position 1499</name>
            </trkpt>
            <trkpt lon="9.519471" lat="47.666925">
                <ele>424.8099999999988</ele>
                <time>2012-05-17T18:02:24.000Z</time>
                <name>Position 1500</name>
            </trkpt>
            <trkpt lon="9.519486" lat="47.666924">
                <ele>424.80880000000184</ele>
                <time>2012-05-17T18:02:24.000Z</time>
                <name>Position 1501</name>
            </trkpt>
            <trkpt lon="9.519502" lat="47.666942">
                <ele>424.83039999999846</ele>
                <time>2012-05-17T18:02:25.000Z</time>
                <name>Position 1502</name>
            </trkpt>
            <trkpt lon="9.519515" lat="47.666947">
                <ele>424.83640000000037</ele>
                <time>2012-05-17T18:02:26.000Z</time>
                <name>Position 1503</name>
            </trkpt>
            <trkpt lon="9.519517" lat="47.666953">
                <ele>424.84359999999924</ele>
                <time>2012-05-17T18:02:26.000Z</time>
                <name>Position 1504</name>
            </trkpt>
            <trkpt lon="9.519517" lat="47.666947">
                <ele>424.83640000000037</ele>
                <time>2012-05-17T18:02:26.000Z</time>
                <name>Position 1505</name>
            </trkpt>
            <trkpt lon="9.519517" lat="47.666935">
                <ele>424.8220000000026</ele>
                <time>2012-05-17T18:02:27.000Z</time>
                <name>Position 1506</name>
            </trkpt>
            <trkpt lon="9.519528" lat="47.666909">
                <ele>424.7907999999961</ele>
                <time>2012-05-17T18:02:28.000Z</time>
                <name>Position 1507</name>
            </trkpt>
            <trkpt lon="9.519567" lat="47.666829">
                <ele>424.69479999999976</ele>
                <time>2012-05-17T18:02:31.000Z</time>
                <name>Position 1508</name>
            </trkpt>
            <trkpt lon="9.519642" lat="47.66672">
                <ele>424.56399999999746</ele>
                <time>2012-05-17T18:02:36.000Z</time>
                <name>Position 1509</name>
            </trkpt>
            <trkpt lon="9.519722" lat="47.666549">
                <ele>424.8295043199907</ele>
                <time>2012-05-17T18:02:43.000Z</time>
                <name>Position 1510</name>
            </trkpt>
            <trkpt lon="9.51979" lat="47.666396">
                <ele>425.231449600003</ele>
                <time>2012-05-17T18:02:50.000Z</time>
                <name>Position 1511</name>
            </trkpt>
            <trkpt lon="9.519884" lat="47.666242">
                <ele>425.5901363200085</ele>
                <time>2012-05-17T18:02:56.000Z</time>
                <name>Position 1512</name>
            </trkpt>
            <trkpt lon="9.519952" lat="47.666089">
                <ele>425.9263283200014</ele>
                <time>2012-05-17T18:03:03.000Z</time>
                <name>Position 1513</name>
            </trkpt>
            <trkpt lon="9.520035" lat="47.665954">
                <ele>426.30048160000183</ele>
                <time>2012-05-17T18:03:08.000Z</time>
                <name>Position 1514</name>
            </trkpt>
            <trkpt lon="9.520116" lat="47.665819">
                <ele>426.70720575999457</ele>
                <time>2012-05-17T18:03:14.000Z</time>
                <name>Position 1515</name>
            </trkpt>
            <trkpt lon="9.520194" lat="47.665665">
                <ele>426.11057439998496</ele>
                <time>2012-05-17T18:03:21.000Z</time>
                <name>Position 1516</name>
            </trkpt>
            <trkpt lon="9.520284" lat="47.665509">
                <ele>425.4921606400008</ele>
                <time>2012-05-17T18:03:27.000Z</time>
                <name>Position 1517</name>
            </trkpt>
            <trkpt lon="9.520349" lat="47.66538">
                <ele>424.93377279999345</ele>
                <time>2012-05-17T18:03:33.000Z</time>
                <name>Position 1518</name>
            </trkpt>
            <trkpt lon="9.520435" lat="47.66527">
                <ele>424.4871279999989</ele>
                <time>2012-05-17T18:03:38.000Z</time>
                <name>Position 1519</name>
            </trkpt>
            <trkpt lon="9.520518" lat="47.665165">
                <ele>424.0366768000084</ele>
                <time>2012-05-17T18:03:43.000Z</time>
                <name>Position 1520</name>
            </trkpt>
            <trkpt lon="9.520585" lat="47.665031">
                <ele>423.376914399995</ele>
                <time>2012-05-17T18:03:48.000Z</time>
                <name>Position 1521</name>
            </trkpt>
            <trkpt lon="9.520675" lat="47.664833">
                <ele>423.28194400000194</ele>
                <time>2012-05-17T18:03:57.000Z</time>
                <name>Position 1522</name>
            </trkpt>
            <trkpt lon="9.52078" lat="47.664664">
                <ele>423.6843711999995</ele>
                <time>2012-05-17T18:04:04.000Z</time>
                <name>Position 1523</name>
            </trkpt>
            <trkpt lon="9.520847" lat="47.664524">
                <ele>424.11336767999927</ele>
                <time>2012-05-17T18:04:10.000Z</time>
                <name>Position 1524</name>
            </trkpt>
            <trkpt lon="9.520941" lat="47.664375">
                <ele>424.60530000000205</ele>
                <time>2012-05-17T18:04:16.000Z</time>
                <name>Position 1525</name>
            </trkpt>
            <trkpt lon="9.521033" lat="47.664208">
                <ele>425.1573158399938</ele>
                <time>2012-05-17T18:04:23.000Z</time>
                <name>Position 1526</name>
            </trkpt>
            <trkpt lon="9.521118" lat="47.664027">
                <ele>425.2468521599926</ele>
                <time>2012-05-17T18:04:31.000Z</time>
                <name>Position 1527</name>
            </trkpt>
            <trkpt lon="9.52121" lat="47.663872">
                <ele>425.30862719999556</ele>
                <time>2012-05-17T18:04:38.000Z</time>
                <name>Position 1528</name>
            </trkpt>
            <trkpt lon="9.521295" lat="47.663731">
                <ele>425.4060311999985</ele>
                <time>2012-05-17T18:04:44.000Z</time>
                <name>Position 1529</name>
            </trkpt>
            <trkpt lon="9.521367" lat="47.66361">
                <ele>425.512987199996</ele>
                <time>2012-05-17T18:04:49.000Z</time>
                <name>Position 1530</name>
            </trkpt>
            <trkpt lon="9.521457" lat="47.663489">
                <ele>425.72739887999677</ele>
                <time>2012-05-17T18:04:54.000Z</time>
                <name>Position 1531</name>
            </trkpt>
            <trkpt lon="9.521555" lat="47.663353">
                <ele>425.9907623999976</ele>
                <time>2012-05-17T18:05:00.000Z</time>
                <name>Position 1532</name>
            </trkpt>
            <trkpt lon="9.521662" lat="47.663216">
                <ele>426.33995391999457</ele>
                <time>2012-05-17T18:05:07.000Z</time>
                <name>Position 1533</name>
            </trkpt>
            <trkpt lon="9.521752" lat="47.663072">
                <ele>426.2887999999986</ele>
                <time>2012-05-17T18:05:13.000Z</time>
                <name>Position 1534</name>
            </trkpt>
            <trkpt lon="9.521857" lat="47.66291">
                <ele>426.2203999999965</ele>
                <time>2012-05-17T18:05:20.000Z</time>
                <name>Position 1535</name>
            </trkpt>
            <trkpt lon="9.521948" lat="47.662742">
                <ele>426.1280000000017</ele>
                <time>2012-05-17T18:05:27.000Z</time>
                <name>Position 1536</name>
            </trkpt>
            <trkpt lon="9.522042" lat="47.662612">
                <ele>426.0848000000042</ele>
                <time>2012-05-17T18:05:33.000Z</time>
                <name>Position 1537</name>
            </trkpt>
            <trkpt lon="9.522121" lat="47.662452">
                <ele>425.8671929600067</ele>
                <time>2012-05-17T18:05:40.000Z</time>
                <name>Position 1538</name>
            </trkpt>
            <trkpt lon="9.522213" lat="47.662278">
                <ele>425.27349632000244</ele>
                <time>2012-05-17T18:05:47.000Z</time>
                <name>Position 1539</name>
            </trkpt>
            <trkpt lon="9.522291" lat="47.662124">
                <ele>424.67072191999375</ele>
                <time>2012-05-17T18:05:54.000Z</time>
                <name>Position 1540</name>
            </trkpt>
            <trkpt lon="9.522385" lat="47.661976">
                <ele>424.0203488000122</ele>
                <time>2012-05-17T18:06:00.000Z</time>
                <name>Position 1541</name>
            </trkpt>
            <trkpt lon="9.522438" lat="47.661824">
                <ele>423.3015065600134</ele>
                <time>2012-05-17T18:06:06.000Z</time>
                <name>Position 1542</name>
            </trkpt>
            <trkpt lon="9.522492" lat="47.661672">
                <ele>422.535077120014</ele>
                <time>2012-05-17T18:06:13.000Z</time>
                <name>Position 1543</name>
            </trkpt>
            <trkpt lon="9.522514" lat="47.661574">
                <ele>422.741068159995</ele>
                <time>2012-05-17T18:06:17.000Z</time>
                <name>Position 1544</name>
            </trkpt>
            <trkpt lon="9.522542" lat="47.661443">
                <ele>423.10072736000325</ele>
                <time>2012-05-17T18:06:22.000Z</time>
                <name>Position 1545</name>
            </trkpt>
            <trkpt lon="9.52257" lat="47.661306">
                <ele>423.48595519999174</ele>
                <time>2012-05-17T18:06:27.000Z</time>
                <name>Position 1546</name>
            </trkpt>
            <trkpt lon="9.522599" lat="47.661175">
                <ele>423.86889199999905</ele>
                <time>2012-05-17T18:06:33.000Z</time>
                <name>Position 1547</name>
            </trkpt>
            <trkpt lon="9.52264" lat="47.661037">
                <ele>424.306140800001</ele>
                <time>2012-05-17T18:06:38.000Z</time>
                <name>Position 1548</name>
            </trkpt>
            <trkpt lon="9.522653" lat="47.660888">
                <ele>424.72395584000026</ele>
                <time>2012-05-17T18:06:44.000Z</time>
                <name>Position 1549</name>
            </trkpt>
            <trkpt lon="9.522716" lat="47.660729">
                <ele>425.3615481599905</ele>
                <time>2012-05-17T18:06:51.000Z</time>
                <name>Position 1550</name>
            </trkpt>
            <trkpt lon="9.522753" lat="47.660559">
                <ele>425.99485488000204</ele>
                <time>2012-05-17T18:06:58.000Z</time>
                <name>Position 1551</name>
            </trkpt>
            <trkpt lon="9.522788" lat="47.660341">
                <ele>426.7594195199924</ele>
                <time>2012-05-17T18:07:07.000Z</time>
                <name>Position 1552</name>
            </trkpt>
            <trkpt lon="9.522814" lat="47.660185">
                <ele>427.2944496000053</ele>
                <time>2012-05-17T18:07:13.000Z</time>
                <name>Position 1553</name>
            </trkpt>
            <trkpt lon="9.52284" lat="47.660029">
                <ele>427.81779839999575</ele>
                <time>2012-05-17T18:07:19.000Z</time>
                <name>Position 1554</name>
            </trkpt>
            <trkpt lon="9.52288" lat="47.659885">
                <ele>427.26600000001696</ele>
                <time>2012-05-17T18:07:25.000Z</time>
                <name>Position 1555</name>
            </trkpt>
            <trkpt lon="9.522914" lat="47.659715">
                <ele>426.28679999999093</ele>
                <time>2012-05-17T18:07:32.000Z</time>
                <name>Position 1556</name>
            </trkpt>
            <trkpt lon="9.522954" lat="47.659546">
                <ele>425.3207999999934</ele>
                <time>2012-05-17T18:07:39.000Z</time>
                <name>Position 1557</name>
            </trkpt>
            <trkpt lon="9.522986" lat="47.659351">
                <ele>424.1892000000047</ele>
                <time>2012-05-17T18:07:47.000Z</time>
                <name>Position 1558</name>
            </trkpt>
            <trkpt lon="9.523021" lat="47.659187">
                <ele>423.2472000000169</ele>
                <time>2012-05-17T18:07:53.000Z</time>
                <name>Position 1559</name>
            </trkpt>
            <trkpt lon="9.523054" lat="47.659011">
                <ele>422.6659692799987</ele>
                <time>2012-05-17T18:08:00.000Z</time>
                <name>Position 1560</name>
            </trkpt>
            <trkpt lon="9.523099" lat="47.658873">
                <ele>422.31581023999973</ele>
                <time>2012-05-17T18:08:06.000Z</time>
                <name>Position 1561</name>
            </trkpt>
            <trkpt lon="9.523128" lat="47.658748">
                <ele>422.00121728000767</ele>
                <time>2012-05-17T18:08:11.000Z</time>
                <name>Position 1562</name>
            </trkpt>
            <trkpt lon="9.523163" lat="47.658702">
                <ele>421.9524531199951</ele>
                <time>2012-05-17T18:08:13.000Z</time>
                <name>Position 1563</name>
            </trkpt>
            <trkpt lon="9.523156" lat="47.658682">
                <ele>421.876471039997</ele>
                <time>2012-05-17T18:08:14.000Z</time>
                <name>Position 1564</name>
            </trkpt>
            <trkpt lon="9.523152" lat="47.658663">
                <ele>421.8105651199904</ele>
                <time>2012-05-17T18:08:15.000Z</time>
                <name>Position 1565</name>
            </trkpt>
            <trkpt lon="9.523042" lat="47.658659">
                <ele>421.50604736000076</ele>
                <time>2012-05-17T18:08:18.000Z</time>
                <name>Position 1566</name>
            </trkpt>
            <trkpt lon="9.522893" lat="47.658645">
                <ele>421.0580431999991</ele>
                <time>2012-05-17T18:08:22.000Z</time>
                <name>Position 1567</name>
            </trkpt>
            <trkpt lon="9.522729" lat="47.65858">
                <ele>420.34571840000234</ele>
                <time>2012-05-17T18:08:27.000Z</time>
                <name>Position 1568</name>
            </trkpt>
            <trkpt lon="9.522545" lat="47.658519">
                <ele>419.52913759998927</ele>
                <time>2012-05-17T18:08:32.000Z</time>
                <name>Position 1569</name>
            </trkpt>
            <trkpt lon="9.522346" lat="47.658476">
                <ele>419.2164377600014</ele>
                <time>2012-05-17T18:08:38.000Z</time>
                <name>Position 1570</name>
            </trkpt>
            <trkpt lon="9.522189" lat="47.658431">
                <ele>419.0125390400013</ele>
                <time>2012-05-17T18:08:43.000Z</time>
                <name>Position 1571</name>
            </trkpt>
            <trkpt lon="9.521963" lat="47.658397">
                <ele>418.8548321600045</ele>
                <time>2012-05-17T18:08:49.000Z</time>
                <name>Position 1572</name>
            </trkpt>
            <trkpt lon="9.521751" lat="47.658337">
                <ele>418.52155472001806</ele>
                <time>2012-05-17T18:08:55.000Z</time>
                <name>Position 1573</name>
            </trkpt>
            <trkpt lon="9.521576" lat="47.658243">
                <ele>419.3212243200084</ele>
                <time>2012-05-17T18:09:01.000Z</time>
                <name>Position 1574</name>
            </trkpt>
            <trkpt lon="9.521389" lat="47.658169">
                <ele>420.22277183999864</ele>
                <time>2012-05-17T18:09:07.000Z</time>
                <name>Position 1575</name>
            </trkpt>
            <trkpt lon="9.521217" lat="47.658136">
                <ele>420.7916908800039</ele>
                <time>2012-05-17T18:09:12.000Z</time>
                <name>Position 1576</name>
            </trkpt>
            <trkpt lon="9.521116" lat="47.658094">
                <ele>421.15927296000655</ele>
                <time>2012-05-17T18:09:15.000Z</time>
                <name>Position 1577</name>
            </trkpt>
            <trkpt lon="9.521107" lat="47.658025">
                <ele>421.37083199999336</ele>
                <time>2012-05-17T18:09:18.000Z</time>
                <name>Position 1578</name>
            </trkpt>
            <trkpt lon="9.521214" lat="47.657766">
                <ele>422.05435775999234</ele>
                <time>2012-05-17T18:09:28.000Z</time>
                <name>Position 1579</name>
            </trkpt>
            <trkpt lon="9.521319" lat="47.657638">
                <ele>422.5311532800059</ele>
                <time>2012-05-17T18:09:34.000Z</time>
                <name>Position 1580</name>
            </trkpt>
            <trkpt lon="9.521446" lat="47.657519">
                <ele>423.1453497599965</ele>
                <time>2012-05-17T18:09:40.000Z</time>
                <name>Position 1581</name>
            </trkpt>
            <trkpt lon="9.521575" lat="47.657425">
                <ele>423.3998999999999</ele>
                <time>2012-05-17T18:09:45.000Z</time>
                <name>Position 1582</name>
            </trkpt>
            <trkpt lon="9.521713" lat="47.657304">
                <ele>423.56867711999985</ele>
                <time>2012-05-17T18:09:51.000Z</time>
                <name>Position 1583</name>
            </trkpt>
            <trkpt lon="9.521839" lat="47.657173">
                <ele>423.78794831999977</ele>
                <time>2012-05-17T18:09:58.000Z</time>
                <name>Position 1584</name>
            </trkpt>
            <trkpt lon="9.521962" lat="47.657023">
                <ele>424.0572585599994</ele>
                <time>2012-05-17T18:10:05.000Z</time>
                <name>Position 1585</name>
            </trkpt>
            <trkpt lon="9.522075" lat="47.656905">
                <ele>424.33985999999715</ele>
                <time>2012-05-17T18:10:10.000Z</time>
                <name>Position 1586</name>
            </trkpt>
            <trkpt lon="9.522204" lat="47.656804">
                <ele>424.68333695999985</ele>
                <time>2012-05-17T18:10:15.000Z</time>
                <name>Position 1587</name>
            </trkpt>
            <trkpt lon="9.522318" lat="47.656699">
                <ele>425.03287391999754</ele>
                <time>2012-05-17T18:10:21.000Z</time>
                <name>Position 1588</name>
            </trkpt>
            <trkpt lon="9.522392" lat="47.656608">
                <ele>425.29554304000123</ele>
                <time>2012-05-17T18:10:25.000Z</time>
                <name>Position 1589</name>
            </trkpt>
            <trkpt lon="9.522464" lat="47.656552">
                <ele>425.44926591999973</ele>
                <time>2012-05-17T18:10:28.000Z</time>
                <name>Position 1590</name>
            </trkpt>
            <trkpt lon="9.522567" lat="47.656441">
                <ele>425.5150830400003</ele>
                <time>2012-05-17T18:10:33.000Z</time>
                <name>Position 1591</name>
            </trkpt>
            <trkpt lon="9.522694" lat="47.65634">
                <ele>425.4590272000002</ele>
                <time>2012-05-17T18:10:38.000Z</time>
                <name>Position 1592</name>
            </trkpt>
            <trkpt lon="9.522825" lat="47.656246">
                <ele>425.2993840000047</ele>
                <time>2012-05-17T18:10:43.000Z</time>
                <name>Position 1593</name>
            </trkpt>
            <trkpt lon="9.522941" lat="47.656141">
                <ele>425.02774191999697</ele>
                <time>2012-05-17T18:10:49.000Z</time>
                <name>Position 1594</name>
            </trkpt>
            <trkpt lon="9.523046" lat="47.656021">
                <ele>424.632253120005</ele>
                <time>2012-05-17T18:10:54.000Z</time>
                <name>Position 1595</name>
            </trkpt>
            <trkpt lon="9.523166" lat="47.655864">
                <ele>423.9898316800037</ele>
                <time>2012-05-17T18:11:01.000Z</time>
                <name>Position 1596</name>
            </trkpt>
            <trkpt lon="9.523282" lat="47.655706">
                <ele>422.90626240001194</ele>
                <time>2012-05-17T18:11:08.000Z</time>
                <name>Position 1597</name>
            </trkpt>
            <trkpt lon="9.523426" lat="47.655565">
                <ele>421.70340640001524</ele>
                <time>2012-05-17T18:11:15.000Z</time>
                <name>Position 1598</name>
            </trkpt>
            <trkpt lon="9.523568" lat="47.655457">
                <ele>420.8059705599924</ele>
                <time>2012-05-17T18:11:21.000Z</time>
                <name>Position 1599</name>
            </trkpt>
            <trkpt lon="9.523706" lat="47.655325">
                <ele>419.82839199998625</ele>
                <time>2012-05-17T18:11:28.000Z</time>
                <name>Position 1600</name>
            </trkpt>
            <trkpt lon="9.523852" lat="47.655212">
                <ele>418.9912614399939</ele>
                <time>2012-05-17T18:11:34.000Z</time>
                <name>Position 1601</name>
            </trkpt>
            <trkpt lon="9.523973" lat="47.655085">
                <ele>418.16410479999854</ele>
                <time>2012-05-17T18:11:40.000Z</time>
                <name>Position 1602</name>
            </trkpt>
            <trkpt lon="9.524108" lat="47.654952">
                <ele>417.86245503999066</ele>
                <time>2012-05-17T18:11:46.000Z</time>
                <name>Position 1603</name>
            </trkpt>
            <trkpt lon="9.524248" lat="47.654826">
                <ele>418.27157888000045</ele>
                <time>2012-05-17T18:11:52.000Z</time>
                <name>Position 1604</name>
            </trkpt>
            <trkpt lon="9.524379" lat="47.654726">
                <ele>418.4633782400225</ele>
                <time>2012-05-17T18:11:58.000Z</time>
                <name>Position 1605</name>
            </trkpt>
            <trkpt lon="9.524519" lat="47.654606">
                <ele>418.7954998399935</ele>
                <time>2012-05-17T18:12:04.000Z</time>
                <name>Position 1606</name>
            </trkpt>
            <trkpt lon="9.524661" lat="47.65448">
                <ele>419.21055680000325</ele>
                <time>2012-05-17T18:12:10.000Z</time>
                <name>Position 1607</name>
            </trkpt>
            <trkpt lon="9.524786" lat="47.654348">
                <ele>419.7638796800065</ele>
                <time>2012-05-17T18:12:16.000Z</time>
                <name>Position 1608</name>
            </trkpt>
            <trkpt lon="9.524886" lat="47.654238">
                <ele>420.27171008000306</ele>
                <time>2012-05-17T18:12:22.000Z</time>
                <name>Position 1609</name>
            </trkpt>
            <trkpt lon="9.525013" lat="47.654131">
                <ele>420.5414646400005</ele>
                <time>2012-05-17T18:12:27.000Z</time>
                <name>Position 1610</name>
            </trkpt>
            <trkpt lon="9.525149" lat="47.653991">
                <ele>420.6354179200014</ele>
                <time>2012-05-17T18:12:34.000Z</time>
                <name>Position 1611</name>
            </trkpt>
            <trkpt lon="9.525291" lat="47.653872">
                <ele>420.6066457600007</ele>
                <time>2012-05-17T18:12:40.000Z</time>
                <name>Position 1612</name>
            </trkpt>
            <trkpt lon="9.525433" lat="47.653758">
                <ele>420.48077632000064</ele>
                <time>2012-05-17T18:12:46.000Z</time>
                <name>Position 1613</name>
            </trkpt>
            <trkpt lon="9.525562" lat="47.653646">
                <ele>420.28206975999973</ele>
                <time>2012-05-17T18:12:51.000Z</time>
                <name>Position 1614</name>
            </trkpt>
            <trkpt lon="9.525702" lat="47.653531">
                <ele>419.9776345599994</ele>
                <time>2012-05-17T18:12:57.000Z</time>
                <name>Position 1615</name>
            </trkpt>
            <trkpt lon="9.525785" lat="47.653384">
                <ele>419.669747200001</ele>
                <time>2012-05-17T18:13:04.000Z</time>
                <name>Position 1616</name>
            </trkpt>
            <trkpt lon="9.525811" lat="47.653318">
                <ele>419.38898623998773</ele>
                <time>2012-05-17T18:13:06.000Z</time>
                <name>Position 1617</name>
            </trkpt>
            <trkpt lon="9.525833" lat="47.653284">
                <ele>418.96804735999063</ele>
                <time>2012-05-17T18:13:08.000Z</time>
                <name>Position 1618</name>
            </trkpt>
            <trkpt lon="9.525852" lat="47.653256">
                <ele>418.5631935999858</ele>
                <time>2012-05-17T18:13:09.000Z</time>
                <name>Position 1619</name>
            </trkpt>
            <trkpt lon="9.525854" lat="47.653245">
                <ele>418.43514399997747</ele>
                <time>2012-05-17T18:13:10.000Z</time>
                <name>Position 1620</name>
            </trkpt>
            <trkpt lon="9.525857" lat="47.653239">
                <ele>418.35527439999</ele>
                <time>2012-05-17T18:13:10.000Z</time>
                <name>Position 1621</name>
            </trkpt>
            <trkpt lon="9.525857" lat="47.653221">
                <ele>418.16394160001994</ele>
                <time>2012-05-17T18:13:11.000Z</time>
                <name>Position 1622</name>
            </trkpt>
            <trkpt lon="9.525857" lat="47.653215">
                <ele>418.1001640000299</ele>
                <time>2012-05-17T18:13:11.000Z</time>
                <name>Position 1623</name>
            </trkpt>
            <trkpt lon="9.525859" lat="47.653215">
                <ele>418.0898680000284</ele>
                <time>2012-05-17T18:13:11.000Z</time>
                <name>Position 1624</name>
            </trkpt>
            <trkpt lon="9.525879" lat="47.653234">
                <ele>418.185860799976</ele>
                <time>2012-05-17T18:13:12.000Z</time>
                <name>Position 1625</name>
            </trkpt>
            <trkpt lon="9.525879" lat="47.653228">
                <ele>418.12303359998583</ele>
                <time>2012-05-17T18:13:12.000Z</time>
                <name>Position 1626</name>
            </trkpt>
            <trkpt lon="9.525881" lat="47.653228">
                <ele>418.1125503999844</ele>
                <time>2012-05-17T18:13:12.000Z</time>
                <name>Position 1627</name>
            </trkpt>
            <trkpt lon="9.525868" lat="47.653229">
                <ele>418.1912416000375</ele>
                <time>2012-05-17T18:13:12.000Z</time>
                <name>Position 1628</name>
            </trkpt>
            <trkpt lon="9.52587" lat="47.653236">
                <ele>418.2544959999995</ele>
                <time>2012-05-17T18:13:13.000Z</time>
                <name>Position 1629</name>
            </trkpt>
            <trkpt lon="9.525872" lat="47.653242">
                <ele>418.30702719998817</ele>
                <time>2012-05-17T18:13:13.000Z</time>
                <name>Position 1630</name>
            </trkpt>
            <trkpt lon="9.525874" lat="47.653243">
                <ele>418.3068496000348</ele>
                <time>2012-05-17T18:13:13.000Z</time>
                <name>Position 1631</name>
            </trkpt>
            <trkpt lon="9.525877" lat="47.65325">
                <ele>418.364200000001</ele>
                <time>2012-05-17T18:13:13.000Z</time>
                <name>Position 1632</name>
            </trkpt>
            <trkpt lon="9.525874" lat="47.653243">
                <ele>418.3068496000348</ele>
                <time>2012-05-17T18:13:14.000Z</time>
                <name>Position 1633</name>
            </trkpt>
            <trkpt lon="9.52589" lat="47.653242">
                <ele>418.2108639999844</ele>
                <time>2012-05-17T18:13:14.000Z</time>
                <name>Position 1634</name>
            </trkpt>
            <trkpt lon="9.525874" lat="47.653237">
                <ele>418.24380639997</ele>
                <time>2012-05-17T18:13:15.000Z</time>
                <name>Position 1635</name>
            </trkpt>
            <trkpt lon="9.525874" lat="47.653243">
                <ele>418.3068496000348</ele>
                <time>2012-05-17T18:13:15.000Z</time>
                <name>Position 1636</name>
            </trkpt>
            <trkpt lon="9.525877" lat="47.65325">
                <ele>418.364200000001</ele>
                <time>2012-05-17T18:13:15.000Z</time>
                <name>Position 1637</name>
            </trkpt>
            <trkpt lon="9.525874" lat="47.653249">
                <ele>418.36989280002496</ele>
                <time>2012-05-17T18:13:15.000Z</time>
                <name>Position 1638</name>
            </trkpt>
            <trkpt lon="9.525877" lat="47.65325">
                <ele>418.364200000001</ele>
                <time>2012-05-17T18:13:15.000Z</time>
                <name>Position 1639</name>
            </trkpt>
            <trkpt lon="9.525892" lat="47.653255">
                <ele>418.33508800001096</ele>
                <time>2012-05-17T18:13:16.000Z</time>
                <name>Position 1640</name>
            </trkpt>
            <trkpt lon="9.525894" lat="47.653255">
                <ele>418.324216000019</ele>
                <time>2012-05-17T18:13:16.000Z</time>
                <name>Position 1641</name>
            </trkpt>
            <trkpt lon="9.525896" lat="47.653256">
                <ele>418.32369279999136</ele>
                <time>2012-05-17T18:13:16.000Z</time>
                <name>Position 1642</name>
            </trkpt>
            <trkpt lon="9.525909" lat="47.653255">
                <ele>418.24267600001235</ele>
                <time>2012-05-17T18:13:16.000Z</time>
                <name>Position 1643</name>
            </trkpt>
            <trkpt lon="9.525909" lat="47.653249">
                <ele>418.18114480002197</ele>
                <time>2012-05-17T18:13:16.000Z</time>
                <name>Position 1644</name>
            </trkpt>
            <trkpt lon="9.525966" lat="47.65327">
                <ele>418.0804959999888</ele>
                <time>2012-05-17T18:13:18.000Z</time>
                <name>Position 1645</name>
            </trkpt>
            <trkpt lon="9.526087" lat="47.653331">
                <ele>417.95706160001</ele>
                <time>2012-05-17T18:13:22.000Z</time>
                <name>Position 1646</name>
            </trkpt>
            <trkpt lon="9.526249" lat="47.653396">
                <ele>417.08120000000133</ele>
                <time>2012-05-17T18:13:27.000Z</time>
                <name>Position 1647</name>
            </trkpt>
            <trkpt lon="9.526428" lat="47.653484">
                <ele>416.11280000000346</ele>
                <time>2012-05-17T18:13:33.000Z</time>
                <name>Position 1648</name>
            </trkpt>
            <trkpt lon="9.526582" lat="47.653575">
                <ele>415.2979999999994</ele>
                <time>2012-05-17T18:13:39.000Z</time>
                <name>Position 1649</name>
            </trkpt>
            <trkpt lon="9.526737" lat="47.653679">
                <ele>414.5771999999932</ele>
                <time>2012-05-17T18:13:45.000Z</time>
                <name>Position 1650</name>
            </trkpt>
            <trkpt lon="9.526934" lat="47.653773">
                <ele>413.7443999999983</ele>
                <time>2012-05-17T18:13:51.000Z</time>
                <name>Position 1651</name>
            </trkpt>
            <trkpt lon="9.527173" lat="47.653807">
                <ele>412.6380000000035</ele>
                <time>2012-05-17T18:13:58.000Z</time>
                <name>Position 1652</name>
            </trkpt>
            <trkpt lon="9.527435" lat="47.653831">
                <ele>411.40919999999375</ele>
                <time>2012-05-17T18:14:05.000Z</time>
                <name>Position 1653</name>
            </trkpt>
            <trkpt lon="9.527751" lat="47.653839">
                <ele>410.50439999999685</ele>
                <time>2012-05-17T18:14:13.000Z</time>
                <name>Position 1654</name>
            </trkpt>
            <trkpt lon="9.528066" lat="47.653853">
                <ele>409.76519999999584</ele>
                <time>2012-05-17T18:14:22.000Z</time>
                <name>Position 1655</name>
            </trkpt>
            <trkpt lon="9.528368" lat="47.653868">
                <ele>409.15338112000376</ele>
                <time>2012-05-17T18:14:30.000Z</time>
                <name>Position 1656</name>
            </trkpt>
            <trkpt lon="9.528641" lat="47.653873">
                <ele>409.25658783999444</ele>
                <time>2012-05-17T18:14:38.000Z</time>
                <name>Position 1657</name>
            </trkpt>
            <trkpt lon="9.528891" lat="47.653886">
                <ele>409.3816268799999</ele>
                <time>2012-05-17T18:14:44.000Z</time>
                <name>Position 1658</name>
            </trkpt>
            <trkpt lon="9.529094" lat="47.65393">
                <ele>409.6103296000091</ele>
                <time>2012-05-17T18:14:50.000Z</time>
                <name>Position 1659</name>
            </trkpt>
            <trkpt lon="9.529309" lat="47.653966">
                <ele>409.5182572799911</ele>
                <time>2012-05-17T18:14:56.000Z</time>
                <name>Position 1660</name>
            </trkpt>
            <trkpt lon="9.529552" lat="47.654012">
                <ele>409.19004288000264</ele>
                <time>2012-05-17T18:15:03.000Z</time>
                <name>Position 1661</name>
            </trkpt>
            <trkpt lon="9.52981" lat="47.654058">
                <ele>408.7661375999997</ele>
                <time>2012-05-17T18:15:10.000Z</time>
                <name>Position 1662</name>
            </trkpt>
            <trkpt lon="9.530079" lat="47.654102">
                <ele>408.0579129599989</ele>
                <time>2012-05-17T18:15:17.000Z</time>
                <name>Position 1663</name>
            </trkpt>
            <trkpt lon="9.530342" lat="47.654139">
                <ele>406.85245056000406</ele>
                <time>2012-05-17T18:15:25.000Z</time>
                <name>Position 1664</name>
            </trkpt>
            <trkpt lon="9.530611" lat="47.654195">
                <ele>405.49919999999486</ele>
                <time>2012-05-17T18:15:32.000Z</time>
                <name>Position 1665</name>
            </trkpt>
            <trkpt lon="9.530957" lat="47.654278">
                <ele>403.84707872000155</ele>
                <time>2012-05-17T18:15:42.000Z</time>
                <name>Position 1666</name>
            </trkpt>
            <trkpt lon="9.531262" lat="47.654371">
                <ele>402.8447926400017</ele>
                <time>2012-05-17T18:15:51.000Z</time>
                <name>Position 1667</name>
            </trkpt>
            <trkpt lon="9.531529" lat="47.654467">
                <ele>402.1773857599963</ele>
                <time>2012-05-17T18:15:59.000Z</time>
                <name>Position 1668</name>
            </trkpt>
            <trkpt lon="9.531695" lat="47.654533">
                <ele>402.1178143999949</ele>
                <time>2012-05-17T18:16:05.000Z</time>
                <name>Position 1669</name>
            </trkpt>
            <trkpt lon="9.531826" lat="47.654582">
                <ele>402.9556236800024</ele>
                <time>2012-05-17T18:16:09.000Z</time>
                <name>Position 1670</name>
            </trkpt>
            <trkpt lon="9.531938" lat="47.654571">
                <ele>403.6324755200021</ele>
                <time>2012-05-17T18:16:12.000Z</time>
                <name>Position 1671</name>
            </trkpt>
            <trkpt lon="9.53199" lat="47.654579">
                <ele>403.94287040000324</ele>
                <time>2012-05-17T18:16:13.000Z</time>
                <name>Position 1672</name>
            </trkpt>
            <trkpt lon="9.531914" lat="47.654569">
                <ele>403.4872198400018</ele>
                <time>2012-05-17T18:16:15.000Z</time>
                <name>Position 1673</name>
            </trkpt>
            <trkpt lon="9.531844" lat="47.654568">
                <ele>403.06126207999637</ele>
                <time>2012-05-17T18:16:17.000Z</time>
                <name>Position 1674</name>
            </trkpt>
            <trkpt lon="9.531824" lat="47.654525">
                <ele>402.92686400000133</ele>
                <time>2012-05-17T18:16:19.000Z</time>
                <name>Position 1675</name>
            </trkpt>
            <trkpt lon="9.531874" lat="47.654484">
                <ele>403.2434278400007</ele>
                <time>2012-05-17T18:16:21.000Z</time>
                <name>Position 1676</name>
            </trkpt>
            <trkpt lon="9.531918" lat="47.654475">
                <ele>403.53483199999494</ele>
                <time>2012-05-17T18:16:22.000Z</time>
                <name>Position 1677</name>
            </trkpt>
            <trkpt lon="9.531918" lat="47.654512">
                <ele>403.5256678399954</ele>
                <time>2012-05-17T18:16:24.000Z</time>
                <name>Position 1678</name>
            </trkpt>
            <trkpt lon="9.531914" lat="47.654517">
                <ele>403.49890112000276</ele>
                <time>2012-05-17T18:16:24.000Z</time>
                <name>Position 1679</name>
            </trkpt>
            <trkpt lon="9.531911" lat="47.654528">
                <ele>403.4774739199943</ele>
                <time>2012-05-17T18:16:24.000Z</time>
                <name>Position 1680</name>
            </trkpt>
            <trkpt lon="9.531933" lat="47.654513">
                <ele>403.6214969600019</ele>
                <time>2012-05-17T18:16:25.000Z</time>
                <name>Position 1681</name>
            </trkpt>
            <trkpt lon="9.531942" lat="47.654493">
                <ele>403.68686144000395</ele>
                <time>2012-05-17T18:16:26.000Z</time>
                <name>Position 1682</name>
            </trkpt>
            <trkpt lon="9.531953" lat="47.654491">
                <ele>403.7594835199974</ele>
                <time>2012-05-17T18:16:26.000Z</time>
                <name>Position 1683</name>
            </trkpt>
            <trkpt lon="9.531951" lat="47.654503">
                <ele>403.74116671999644</ele>
                <time>2012-05-17T18:16:27.000Z</time>
                <name>Position 1684</name>
            </trkpt>
            <trkpt lon="9.531935" lat="47.654516">
                <ele>403.6332704000038</ele>
                <time>2012-05-17T18:16:28.000Z</time>
                <name>Position 1685</name>
            </trkpt>
            <trkpt lon="9.531909" lat="47.654536">
                <ele>403.4632697600035</ele>
                <time>2012-05-17T18:16:29.000Z</time>
                <name>Position 1686</name>
            </trkpt>
            <trkpt lon="9.531909" lat="47.654548">
                <ele>403.4609196800038</ele>
                <time>2012-05-17T18:16:29.000Z</time>
                <name>Position 1687</name>
            </trkpt>
            <trkpt lon="9.531896" lat="47.654555">
                <ele>403.3794271999975</ele>
                <time>2012-05-17T18:16:30.000Z</time>
                <name>Position 1688</name>
            </trkpt>
            <trkpt lon="9.531896" lat="47.654567">
                <ele>403.37797567999775</ele>
                <time>2012-05-17T18:16:30.000Z</time>
                <name>Position 1689</name>
            </trkpt>
            <trkpt lon="9.531896" lat="47.654573">
                <ele>403.3772499199979</ele>
                <time>2012-05-17T18:16:30.000Z</time>
                <name>Position 1690</name>
            </trkpt>
            <trkpt lon="9.531896" lat="47.65458">
                <ele>403.37640319999747</ele>
                <time>2012-05-17T18:16:31.000Z</time>
                <name>Position 1691</name>
            </trkpt>
            <trkpt lon="9.531894" lat="47.654579">
                <ele>403.3644742399963</ele>
                <time>2012-05-17T18:16:31.000Z</time>
                <name>Position 1692</name>
            </trkpt>
            <trkpt lon="9.531892" lat="47.654572">
                <ele>403.35310975999425</ele>
                <time>2012-05-17T18:16:31.000Z</time>
                <name>Position 1693</name>
            </trkpt>
            <trkpt lon="9.531889" lat="47.654572">
                <ele>403.3349139199971</ele>
                <time>2012-05-17T18:16:31.000Z</time>
                <name>Position 1694</name>
            </trkpt>
            <trkpt lon="9.531892" lat="47.654579">
                <ele>403.3524243199946</ele>
                <time>2012-05-17T18:16:31.000Z</time>
                <name>Position 1695</name>
            </trkpt>
            <trkpt lon="9.531938" lat="47.654619">
                <ele>403.61505728000225</ele>
                <time>2012-05-17T18:16:33.000Z</time>
                <name>Position 1696</name>
            </trkpt>
            <trkpt lon="9.532043" lat="47.654687">
                <ele>404.1576838399961</ele>
                <time>2012-05-17T18:16:37.000Z</time>
                <name>Position 1697</name>
            </trkpt>
            <trkpt lon="9.532148" lat="47.654749">
                <ele>404.6274924799928</ele>
                <time>2012-05-17T18:16:41.000Z</time>
                <name>Position 1698</name>
            </trkpt>
            <trkpt lon="9.532251" lat="47.654804">
                <ele>405.02808896000494</ele>
                <time>2012-05-17T18:16:45.000Z</time>
                <name>Position 1699</name>
            </trkpt>
            <trkpt lon="9.532369" lat="47.654865">
                <ele>405.4125343999936</ele>
                <time>2012-05-17T18:16:49.000Z</time>
                <name>Position 1700</name>
            </trkpt>
            <trkpt lon="9.532487" lat="47.65492">
                <ele>405.73520960000894</ele>
                <time>2012-05-17T18:16:52.000Z</time>
                <name>Position 1701</name>
            </trkpt>
            <trkpt lon="9.532579" lat="47.654989">
                <ele>405.73420543999816</ele>
                <time>2012-05-17T18:16:56.000Z</time>
                <name>Position 1702</name>
            </trkpt>
            <trkpt lon="9.532643" lat="47.655036">
                <ele>405.8357868799997</ele>
                <time>2012-05-17T18:16:59.000Z</time>
                <name>Position 1703</name>
            </trkpt>
            <trkpt lon="9.532678" lat="47.655078">
                <ele>405.9072070400005</ele>
                <time>2012-05-17T18:17:01.000Z</time>
                <name>Position 1704</name>
            </trkpt>
            <trkpt lon="9.532744" lat="47.655131">
                <ele>406.03957183999904</ele>
                <time>2012-05-17T18:17:03.000Z</time>
                <name>Position 1705</name>
            </trkpt>
            <trkpt lon="9.532809" lat="47.655184">
                <ele>406.1597273600012</ele>
                <time>2012-05-17T18:17:06.000Z</time>
                <name>Position 1706</name>
            </trkpt>
            <trkpt lon="9.532877" lat="47.65525">
                <ele>406.26907999999685</ele>
                <time>2012-05-17T18:17:09.000Z</time>
                <name>Position 1707</name>
            </trkpt>
            <trkpt lon="9.53293" lat="47.65531">
                <ele>406.3400480000005</ele>
                <time>2012-05-17T18:17:12.000Z</time>
                <name>Position 1708</name>
            </trkpt>
            <trkpt lon="9.533024" lat="47.655386">
                <ele>406.4663398399985</ele>
                <time>2012-05-17T18:17:16.000Z</time>
                <name>Position 1709</name>
            </trkpt>
            <trkpt lon="9.53309" lat="47.655445">
                <ele>406.537927999999</ele>
                <time>2012-05-17T18:17:19.000Z</time>
                <name>Position 1710</name>
            </trkpt>
            <trkpt lon="9.53312" lat="47.655462">
                <ele>406.57552640000034</ele>
                <time>2012-05-17T18:17:20.000Z</time>
                <name>Position 1711</name>
            </trkpt>
            <trkpt lon="9.533153" lat="47.655497">
                <ele>406.5998609600036</ele>
                <time>2012-05-17T18:17:22.000Z</time>
                <name>Position 1712</name>
            </trkpt>
            <trkpt lon="9.533261" lat="47.655578">
                <ele>406.6930044800009</ele>
                <time>2012-05-17T18:17:26.000Z</time>
                <name>Position 1713</name>
            </trkpt>
            <trkpt lon="9.533381" lat="47.655657">
                <ele>406.85899296000326</ele>
                <time>2012-05-17T18:17:31.000Z</time>
                <name>Position 1714</name>
            </trkpt>
            <trkpt lon="9.533493" lat="47.655745">
                <ele>407.1401807999977</ele>
                <time>2012-05-17T18:17:35.000Z</time>
                <name>Position 1715</name>
            </trkpt>
            <trkpt lon="9.533591" lat="47.655834">
                <ele>407.4288947199955</ele>
                <time>2012-05-17T18:17:40.000Z</time>
                <name>Position 1716</name>
            </trkpt>
            <trkpt lon="9.533673" lat="47.655911">
                <ele>407.89197664000807</ele>
                <time>2012-05-17T18:17:44.000Z</time>
                <name>Position 1717</name>
            </trkpt>
            <trkpt lon="9.53374" lat="47.655976">
                <ele>408.3022912000055</ele>
                <time>2012-05-17T18:17:47.000Z</time>
                <name>Position 1718</name>
            </trkpt>
            <trkpt lon="9.533822" lat="47.656047">
                <ele>408.8163059200052</ele>
                <time>2012-05-17T18:17:50.000Z</time>
                <name>Position 1719</name>
            </trkpt>
            <trkpt lon="9.533854" lat="47.65607">
                <ele>409.0132863999984</ele>
                <time>2012-05-17T18:17:52.000Z</time>
                <name>Position 1720</name>
            </trkpt>
            <trkpt lon="9.533935" lat="47.656153">
                <ele>409.60351840000783</ele>
                <time>2012-05-17T18:17:56.000Z</time>
                <name>Position 1721</name>
            </trkpt>
            <trkpt lon="9.534047" lat="47.656247">
                <ele>410.4158339199979</ele>
                <time>2012-05-17T18:18:00.000Z</time>
                <name>Position 1722</name>
            </trkpt>
            <trkpt lon="9.534157" lat="47.656334">
                <ele>411.25366144000594</ele>
                <time>2012-05-17T18:18:05.000Z</time>
                <name>Position 1723</name>
            </trkpt>
            <trkpt lon="9.534253" lat="47.65641">
                <ele>412.3567296000013</ele>
                <time>2012-05-17T18:18:09.000Z</time>
                <name>Position 1724</name>
            </trkpt>
            <trkpt lon="9.534332236770751" lat="47.65652877334098">
                <ele>416.35692288003025</ele>
                <time>2012-05-17T18:18:19.000Z</time>
                <name>Position 1725</name>
            </trkpt>
            <trkpt lon="9.534474525131259" lat="47.65715974230421">
                <ele>417.0918758400219</ele>
                <time>2012-05-17T18:18:21.000Z</time>
                <name>Position 1726</name>
            </trkpt>
            <trkpt lon="9.535563776443496" lat="47.657647393542646">
                <ele>415.16793791999925</ele>
                <time>2012-05-17T18:20:02.000Z</time>
                <name>Position 1727</name>
            </trkpt>
            <trkpt lon="9.535904268508943" lat="47.657878641181696">
                <ele>414.7216502399986</ele>
                <time>2012-05-17T18:20:04.000Z</time>
                <name>Position 1728</name>
            </trkpt>
            <trkpt lon="9.536103285705622" lat="47.658053302702854">
                <ele>414.2850854399997</ele>
                <time>2012-05-17T18:20:06.000Z</time>
                <name>Position 1729</name>
            </trkpt>
            <trkpt lon="9.536628167983963" lat="47.65871422593173">
                <ele>413.8393166399984</ele>
                <time>2012-05-17T18:20:09.000Z</time>
                <name>Position 1730</name>
            </trkpt>
            <trkpt lon="9.536926287033111" lat="47.65857388686388">
                <ele>413.34489792000085</ele>
                <time>2012-05-17T18:20:13.000Z</time>
                <name>Position 1731</name>
            </trkpt>
            <trkpt lon="9.537589965606685" lat="47.65887503705378">
                <ele>410.70969919999015</ele>
                <time>2012-05-17T18:20:46.000Z</time>
                <name>Position 1732</name>
            </trkpt>
            <trkpt lon="9.537878" lat="47.658941">
                <ele>410.21469536000507</ele>
                <time>2012-05-17T18:20:52.000Z</time>
                <name>Position 1733</name>
            </trkpt>
            <trkpt lon="9.537907" lat="47.659068">
                <ele>409.80012032000656</ele>
                <time>2012-05-17T18:20:57.000Z</time>
                <name>Position 1734</name>
            </trkpt>
            <trkpt lon="9.53789" lat="47.659186">
                <ele>409.5325727999971</ele>
                <time>2012-05-17T18:21:02.000Z</time>
                <name>Position 1735</name>
            </trkpt>
            <trkpt lon="9.537859" lat="47.65931">
                <ele>409.72229279999607</ele>
                <time>2012-05-17T18:21:07.000Z</time>
                <name>Position 1736</name>
            </trkpt>
            <trkpt lon="9.537827" lat="47.65941">
                <ele>409.8437424000016</ele>
                <time>2012-05-17T18:21:11.000Z</time>
                <name>Position 1737</name>
            </trkpt>
            <trkpt lon="9.537792" lat="47.659509">
                <ele>409.93183295999916</ele>
                <time>2012-05-17T18:21:15.000Z</time>
                <name>Position 1738</name>
            </trkpt>
            <trkpt lon="9.537713" lat="47.659675">
                <ele>409.96774800000003</ele>
                <time>2012-05-17T18:21:22.000Z</time>
                <name>Position 1739</name>
            </trkpt>
            <trkpt lon="9.537654" lat="47.659795">
                <ele>409.91801760000106</ele>
                <time>2012-05-17T18:21:27.000Z</time>
                <name>Position 1740</name>
            </trkpt>
            <trkpt lon="9.537622" lat="47.659889">
                <ele>409.8806985600018</ele>
                <time>2012-05-17T18:21:31.000Z</time>
                <name>Position 1741</name>
            </trkpt>
            <trkpt lon="9.5376" lat="47.659999">
                <ele>409.8595679999972</ele>
                <time>2012-05-17T18:21:35.000Z</time>
                <name>Position 1742</name>
            </trkpt>
            <trkpt lon="9.537602" lat="47.660147">
                <ele>410.1984086400032</ele>
                <time>2012-05-17T18:21:41.000Z</time>
                <name>Position 1743</name>
            </trkpt>
            <trkpt lon="9.537631" lat="47.660305">
                <ele>410.64606479999975</ele>
                <time>2012-05-17T18:21:48.000Z</time>
                <name>Position 1744</name>
            </trkpt>
            <trkpt lon="9.537688" lat="47.660474">
                <ele>411.186078719999</ele>
                <time>2012-05-17T18:21:54.000Z</time>
                <name>Position 1745</name>
            </trkpt>
            <trkpt lon="9.537741" lat="47.660623">
                <ele>411.6465940800032</ele>
                <time>2012-05-17T18:22:01.000Z</time>
                <name>Position 1746</name>
            </trkpt>
            <trkpt lon="9.537793" lat="47.660766">
                <ele>412.07000928000605</ele>
                <time>2012-05-17T18:22:07.000Z</time>
                <name>Position 1747</name>
            </trkpt>
            <trkpt lon="9.537844" lat="47.660902">
                <ele>412.1607999999991</ele>
                <time>2012-05-17T18:22:12.000Z</time>
                <name>Position 1748</name>
            </trkpt>
            <trkpt lon="9.53791" lat="47.661051">
                <ele>411.96159999999895</ele>
                <time>2012-05-17T18:22:18.000Z</time>
                <name>Position 1749</name>
            </trkpt>
            <trkpt lon="9.537965" lat="47.661206">
                <ele>411.7215999999995</ele>
                <time>2012-05-17T18:22:25.000Z</time>
                <name>Position 1750</name>
            </trkpt>
            <trkpt lon="9.53802" lat="47.661356">
                <ele>411.4936000000039</ele>
                <time>2012-05-17T18:22:31.000Z</time>
                <name>Position 1751</name>
            </trkpt>
            <trkpt lon="9.538051" lat="47.661526">
                <ele>411.1599999999935</ele>
                <time>2012-05-17T18:22:38.000Z</time>
                <name>Position 1752</name>
            </trkpt>
            <trkpt lon="9.538092" lat="47.661683">
                <ele>410.88984768000824</ele>
                <time>2012-05-17T18:22:44.000Z</time>
                <name>Position 1753</name>
            </trkpt>
            <trkpt lon="9.538125" lat="47.661842">
                <ele>410.68440000000226</ele>
                <time>2012-05-17T18:22:51.000Z</time>
                <name>Position 1754</name>
            </trkpt>
            <trkpt lon="9.538139" lat="47.661995">
                <ele>410.4558384000018</ele>
                <time>2012-05-17T18:22:57.000Z</time>
                <name>Position 1755</name>
            </trkpt>
            <trkpt lon="9.538154" lat="47.662141">
                <ele>410.25541632000443</ele>
                <time>2012-05-17T18:23:03.000Z</time>
                <name>Position 1756</name>
            </trkpt>
            <trkpt lon="9.538194" lat="47.66228">
                <ele>410.1834815999985</ele>
                <time>2012-05-17T18:23:08.000Z</time>
                <name>Position 1757</name>
            </trkpt>
            <trkpt lon="9.538231" lat="47.662411">
                <ele>410.1418300800001</ele>
                <time>2012-05-17T18:23:14.000Z</time>
                <name>Position 1758</name>
            </trkpt>
            <trkpt lon="9.538308" lat="47.662539">
                <ele>410.4294681600058</ele>
                <time>2012-05-17T18:23:19.000Z</time>
                <name>Position 1759</name>
            </trkpt>
            <trkpt lon="9.53837" lat="47.662656">
                <ele>410.766963199999</ele>
                <time>2012-05-17T18:23:24.000Z</time>
                <name>Position 1760</name>
            </trkpt>
            <trkpt lon="9.538446" lat="47.662778">
                <ele>411.05889728000386</ele>
                <time>2012-05-17T18:23:29.000Z</time>
                <name>Position 1761</name>
            </trkpt>
            <trkpt lon="9.538506" lat="47.662889">
                <ele>411.2844790399996</ele>
                <time>2012-05-17T18:23:34.000Z</time>
                <name>Position 1762</name>
            </trkpt>
            <trkpt lon="9.538552" lat="47.663">
                <ele>411.4673599999957</ele>
                <time>2012-05-17T18:23:39.000Z</time>
                <name>Position 1763</name>
            </trkpt>
            <trkpt lon="9.5386" lat="47.663118">
                <ele>411.6442879999986</ele>
                <time>2012-05-17T18:23:44.000Z</time>
                <name>Position 1764</name>
            </trkpt>
            <trkpt lon="9.538611" lat="47.663252">
                <ele>411.76812031999924</ele>
                <time>2012-05-17T18:23:49.000Z</time>
                <name>Position 1765</name>
            </trkpt>
            <trkpt lon="9.538605" lat="47.663361">
                <ele>411.87148400000353</ele>
                <time>2012-05-17T18:23:53.000Z</time>
                <name>Position 1766</name>
            </trkpt>
            <trkpt lon="9.538587" lat="47.663485">
                <ele>412.0733960000025</ele>
                <time>2012-05-17T18:23:58.000Z</time>
                <name>Position 1767</name>
            </trkpt>
            <trkpt lon="9.538561" lat="47.663647">
                <ele>412.38823759999536</ele>
                <time>2012-05-17T18:24:05.000Z</time>
                <name>Position 1768</name>
            </trkpt>
            <trkpt lon="9.538538" lat="47.663803">
                <ele>412.74429920000125</ele>
                <time>2012-05-17T18:24:11.000Z</time>
                <name>Position 1769</name>
            </trkpt>
            <trkpt lon="9.538529" lat="47.663977">
                <ele>413.1452024000043</ele>
                <time>2012-05-17T18:24:18.000Z</time>
                <name>Position 1770</name>
            </trkpt>
            <trkpt lon="9.538542" lat="47.664129">
                <ele>413.41939040000716</ele>
                <time>2012-05-17T18:24:24.000Z</time>
                <name>Position 1771</name>
            </trkpt>
            <trkpt lon="9.538571" lat="47.664287">
                <ele>413.27631440000187</ele>
                <time>2012-05-17T18:24:31.000Z</time>
                <name>Position 1772</name>
            </trkpt>
            <trkpt lon="9.538589" lat="47.66444">
                <ele>413.1199520000006</ele>
                <time>2012-05-17T18:24:37.000Z</time>
                <name>Position 1773</name>
            </trkpt>
            <trkpt lon="9.538615" lat="47.664592">
                <ele>412.9897760000003</ele>
                <time>2012-05-17T18:24:43.000Z</time>
                <name>Position 1774</name>
            </trkpt>
            <trkpt lon="9.538697" lat="47.664745">
                <ele>412.8807080000002</ele>
                <time>2012-05-17T18:24:49.000Z</time>
                <name>Position 1775</name>
            </trkpt>
            <trkpt lon="9.538804" lat="47.664891">
                <ele>412.95702079999757</ele>
                <time>2012-05-17T18:24:56.000Z</time>
                <name>Position 1776</name>
            </trkpt>
            <trkpt lon="9.538964" lat="47.665025">
                <ele>413.2122080000001</ele>
                <time>2012-05-17T18:25:03.000Z</time>
                <name>Position 1777</name>
            </trkpt>
            <trkpt lon="9.539117" lat="47.665134">
                <ele>413.2604326399962</ele>
                <time>2012-05-17T18:25:09.000Z</time>
                <name>Position 1778</name>
            </trkpt>
            <trkpt lon="9.539273" lat="47.66525">
                <ele>412.9448000000005</ele>
                <time>2012-05-17T18:25:15.000Z</time>
                <name>Position 1779</name>
            </trkpt>
            <trkpt lon="9.539433" lat="47.665379">
                <ele>412.4059999999966</ele>
                <time>2012-05-17T18:25:22.000Z</time>
                <name>Position 1780</name>
            </trkpt>
            <trkpt lon="9.539621" lat="47.665512">
                <ele>411.7951999999997</ele>
                <time>2012-05-17T18:25:29.000Z</time>
                <name>Position 1781</name>
            </trkpt>
            <trkpt lon="9.539823" lat="47.665644">
                <ele>411.1519999999993</ele>
                <time>2012-05-17T18:25:37.000Z</time>
                <name>Position 1782</name>
            </trkpt>
            <trkpt lon="9.540035" lat="47.665774">
                <ele>410.4961712000024</ele>
                <time>2012-05-17T18:25:44.000Z</time>
                <name>Position 1783</name>
            </trkpt>
            <trkpt lon="9.540235" lat="47.665906">
                <ele>409.81078080000265</ele>
                <time>2012-05-17T18:25:52.000Z</time>
                <name>Position 1784</name>
            </trkpt>
            <trkpt lon="9.54046" lat="47.666035">
                <ele>409.1791680000002</ele>
                <time>2012-05-17T18:26:00.000Z</time>
                <name>Position 1785</name>
            </trkpt>
            <trkpt lon="9.540693" lat="47.666184">
                <ele>408.6950745600007</ele>
                <time>2012-05-17T18:26:09.000Z</time>
                <name>Position 1786</name>
            </trkpt>
            <trkpt lon="9.540914" lat="47.666359">
                <ele>408.5968000000009</ele>
                <time>2012-05-17T18:26:18.000Z</time>
                <name>Position 1787</name>
            </trkpt>
            <trkpt lon="9.541085" lat="47.666544">
                <ele>408.80200000000076</ele>
                <time>2012-05-17T18:26:27.000Z</time>
                <name>Position 1788</name>
            </trkpt>
            <trkpt lon="9.541203" lat="47.666741">
                <ele>408.8939691199981</ele>
                <time>2012-05-17T18:26:35.000Z</time>
                <name>Position 1789</name>
            </trkpt>
            <trkpt lon="9.541278" lat="47.666927">
                <ele>408.88789663999955</ele>
                <time>2012-05-17T18:26:43.000Z</time>
                <name>Position 1790</name>
            </trkpt>
            <trkpt lon="9.541324" lat="47.667103">
                <ele>408.8734956800003</ele>
                <time>2012-05-17T18:26:50.000Z</time>
                <name>Position 1791</name>
            </trkpt>
            <trkpt lon="9.541347" lat="47.667282">
                <ele>408.8331497599999</ele>
                <time>2012-05-17T18:26:57.000Z</time>
                <name>Position 1792</name>
            </trkpt>
            <trkpt lon="9.541367" lat="47.66746">
                <ele>408.7980607999989</ele>
                <time>2012-05-17T18:27:04.000Z</time>
                <name>Position 1793</name>
            </trkpt>
            <trkpt lon="9.541373" lat="47.667639">
                <ele>408.63794095999884</ele>
                <time>2012-05-17T18:27:11.000Z</time>
                <name>Position 1794</name>
            </trkpt>
            <trkpt lon="9.541393" lat="47.667823">
                <ele>408.4498635200012</ele>
                <time>2012-05-17T18:27:19.000Z</time>
                <name>Position 1795</name>
            </trkpt>
            <trkpt lon="9.541387" lat="47.667998">
                <ele>408.2352636800035</ele>
                <time>2012-05-17T18:27:26.000Z</time>
                <name>Position 1796</name>
            </trkpt>
            <trkpt lon="9.5414" lat="47.668162">
                <ele>408.0338239999974</ele>
                <time>2012-05-17T18:27:32.000Z</time>
                <name>Position 1797</name>
            </trkpt>
            <trkpt lon="9.541403" lat="47.668322">
                <ele>407.830690879995</ele>
                <time>2012-05-17T18:27:39.000Z</time>
                <name>Position 1798</name>
            </trkpt>
            <trkpt lon="9.54144" lat="47.668525">
                <ele>407.9394400000025</ele>
                <time>2012-05-17T18:27:47.000Z</time>
                <name>Position 1799</name>
            </trkpt>
            <trkpt lon="9.541482" lat="47.668746">
                <ele>408.1070636799987</ele>
                <time>2012-05-17T18:27:56.000Z</time>
                <name>Position 1800</name>
            </trkpt>
            <trkpt lon="9.541509" lat="47.668962">
                <ele>408.3008675200006</ele>
                <time>2012-05-17T18:28:05.000Z</time>
                <name>Position 1801</name>
            </trkpt>
            <trkpt lon="9.541544" lat="47.669152">
                <ele>408.4849907199968</ele>
                <time>2012-05-17T18:28:12.000Z</time>
                <name>Position 1802</name>
            </trkpt>
            <trkpt lon="9.541555" lat="47.669298">
                <ele>408.54223679999905</ele>
                <time>2012-05-17T18:28:18.000Z</time>
                <name>Position 1803</name>
            </trkpt>
            <trkpt lon="9.541593" lat="47.669429">
                <ele>408.5556566399997</ele>
                <time>2012-05-17T18:28:23.000Z</time>
                <name>Position 1804</name>
            </trkpt>
            <trkpt lon="9.541617" lat="47.669556">
                <ele>408.55569023999954</ele>
                <time>2012-05-17T18:28:29.000Z</time>
                <name>Position 1805</name>
            </trkpt>
            <trkpt lon="9.54165" lat="47.669668">
                <ele>408.5240639999992</ele>
                <time>2012-05-17T18:28:33.000Z</time>
                <name>Position 1806</name>
            </trkpt>
            <trkpt lon="9.541672" lat="47.669788">
                <ele>408.5</ele>
                <time>2012-05-17T18:28:38.000Z</time>
                <name>Position 1807</name>
            </trkpt>
            <trkpt lon="9.541716" lat="47.669893">
                <ele>408.5</ele>
                <time>2012-05-17T18:28:42.000Z</time>
                <name>Position 1808</name>
            </trkpt>
            <trkpt lon="9.541762" lat="47.669998">
                <ele>408.5</ele>
                <time>2012-05-17T18:28:47.000Z</time>
                <name>Position 1809</name>
            </trkpt>
            <trkpt lon="9.541775" lat="47.670074">
                <ele>408.48845600000016</ele>
                <time>2012-05-17T18:28:50.000Z</time>
                <name>Position 1810</name>
            </trkpt>
            <trkpt lon="9.541673" lat="47.670172">
                <ele>408.49843136000015</ele>
                <time>2012-05-17T18:28:55.000Z</time>
                <name>Position 1811</name>
            </trkpt>
            <trkpt lon="9.541495" lat="47.670238">
                <ele>408.79433280000234</ele>
                <time>2012-05-17T18:29:00.000Z</time>
                <name>Position 1812</name>
            </trkpt>
            <trkpt lon="9.541342" lat="47.670282">
                <ele>409.01551871999953</ele>
                <time>2012-05-17T18:29:05.000Z</time>
                <name>Position 1813</name>
            </trkpt>
            <trkpt lon="9.541239" lat="47.67031">
                <ele>409.1445792000007</ele>
                <time>2012-05-17T18:29:08.000Z</time>
                <name>Position 1814</name>
            </trkpt>
            <trkpt lon="9.541163" lat="47.670329">
                <ele>409.23156575999786</ele>
                <time>2012-05-17T18:29:10.000Z</time>
                <name>Position 1815</name>
            </trkpt>
            <trkpt lon="9.541034" lat="47.670353">
                <ele>409.3752057600029</ele>
                <time>2012-05-17T18:29:13.000Z</time>
                <name>Position 1816</name>
            </trkpt>
            <trkpt lon="9.540966" lat="47.670416">
                <ele>409.34214527999507</ele>
                <time>2012-05-17T18:29:16.000Z</time>
                <name>Position 1817</name>
            </trkpt>
            <trkpt lon="9.540988" lat="47.67053">
                <ele>409.09288320000087</ele>
                <time>2012-05-17T18:29:21.000Z</time>
                <name>Position 1818</name>
            </trkpt>
            <trkpt lon="9.541001" lat="47.670677">
                <ele>408.7997097600046</ele>
                <time>2012-05-17T18:29:27.000Z</time>
                <name>Position 1819</name>
            </trkpt>
            <trkpt lon="9.541002" lat="47.670824">
                <ele>408.51786623999396</ele>
                <time>2012-05-17T18:29:33.000Z</time>
                <name>Position 1820</name>
            </trkpt>
            <trkpt lon="9.541017" lat="47.670983">
                <ele>408.6400161599996</ele>
                <time>2012-05-17T18:29:39.000Z</time>
                <name>Position 1821</name>
            </trkpt>
            <trkpt lon="9.541017" lat="47.671137">
                <ele>408.7840862400015</ele>
                <time>2012-05-17T18:29:45.000Z</time>
                <name>Position 1822</name>
            </trkpt>
            <trkpt lon="9.541018" lat="47.671284">
                <ele>408.92095872000044</ele>
                <time>2012-05-17T18:29:51.000Z</time>
                <name>Position 1823</name>
            </trkpt>
            <trkpt lon="9.541033" lat="47.671443">
                <ele>409.0563086399963</ele>
                <time>2012-05-17T18:29:58.000Z</time>
                <name>Position 1824</name>
            </trkpt>
            <trkpt lon="9.541031" lat="47.671596">
                <ele>409.1981145600006</ele>
                <time>2012-05-17T18:30:04.000Z</time>
                <name>Position 1825</name>
            </trkpt>
            <trkpt lon="9.541029" lat="47.671743">
                <ele>409.28670767999984</ele>
                <time>2012-05-17T18:30:10.000Z</time>
                <name>Position 1826</name>
            </trkpt>
            <trkpt lon="9.541027" lat="47.67189">
                <ele>409.32988319999964</ele>
                <time>2012-05-17T18:30:15.000Z</time>
                <name>Position 1827</name>
            </trkpt>
            <trkpt lon="9.541049" lat="47.672028">
                <ele>409.3534156799997</ele>
                <time>2012-05-17T18:30:21.000Z</time>
                <name>Position 1828</name>
            </trkpt>
            <trkpt lon="9.541063" lat="47.672175">
                <ele>409.3925160000012</ele>
                <time>2012-05-17T18:30:27.000Z</time>
                <name>Position 1829</name>
            </trkpt>
            <trkpt lon="9.541067" lat="47.672335">
                <ele>409.4444807999989</ele>
                <time>2012-05-17T18:30:33.000Z</time>
                <name>Position 1830</name>
            </trkpt>
            <trkpt lon="9.54107" lat="47.672496">
                <ele>409.4986368000008</ele>
                <time>2012-05-17T18:30:40.000Z</time>
                <name>Position 1831</name>
            </trkpt>
            <trkpt lon="9.541072" lat="47.67265">
                <ele>409.1400000000067</ele>
                <time>2012-05-17T18:30:46.000Z</time>
                <name>Position 1832</name>
            </trkpt>
            <trkpt lon="9.541086" lat="47.672802">
                <ele>408.77520000000686</ele>
                <time>2012-05-17T18:30:52.000Z</time>
                <name>Position 1833</name>
            </trkpt>
            <trkpt lon="9.541088" lat="47.67295">
                <ele>408.41999999999985</ele>
                <time>2012-05-17T18:30:58.000Z</time>
                <name>Position 1834</name>
            </trkpt>
            <trkpt lon="9.541071" lat="47.673073">
                <ele>408.1247999999948</ele>
                <time>2012-05-17T18:31:03.000Z</time>
                <name>Position 1835</name>
            </trkpt>
            <trkpt lon="9.54106" lat="47.673152">
                <ele>407.93519999999603</ele>
                <time>2012-05-17T18:31:06.000Z</time>
                <name>Position 1836</name>
            </trkpt>
            <trkpt lon="9.541043" lat="47.673275">
                <ele>407.64000000000806</ele>
                <time>2012-05-17T18:31:11.000Z</time>
                <name>Position 1837</name>
            </trkpt>
            <trkpt lon="9.541025" lat="47.673387">
                <ele>407.5495879999984</ele>
                <time>2012-05-17T18:31:16.000Z</time>
                <name>Position 1838</name>
            </trkpt>
            <trkpt lon="9.540938" lat="47.67349">
                <ele>407.664387200001</ele>
                <time>2012-05-17T18:31:20.000Z</time>
                <name>Position 1839</name>
            </trkpt>
            <trkpt lon="9.540811" lat="47.673603">
                <ele>407.8062550399997</ele>
                <time>2012-05-17T18:31:26.000Z</time>
                <name>Position 1840</name>
            </trkpt>
            <trkpt lon="9.540695" lat="47.673709">
                <ele>407.8011344000013</ele>
                <time>2012-05-17T18:31:31.000Z</time>
                <name>Position 1841</name>
            </trkpt>
            <trkpt lon="9.540566" lat="47.673821">
                <ele>407.7097356799987</ele>
                <time>2012-05-17T18:31:37.000Z</time>
                <name>Position 1842</name>
            </trkpt>
            <trkpt lon="9.540463" lat="47.673919">
                <ele>407.578151360001</ele>
                <time>2012-05-17T18:31:42.000Z</time>
                <name>Position 1843</name>
            </trkpt>
            <trkpt lon="9.540345" lat="47.674024">
                <ele>407.35744639999996</ele>
                <time>2012-05-17T18:31:47.000Z</time>
                <name>Position 1844</name>
            </trkpt>
            <trkpt lon="9.540265" lat="47.674107">
                <ele>407.1620623999997</ele>
                <time>2012-05-17T18:31:51.000Z</time>
                <name>Position 1845</name>
            </trkpt>
            <trkpt lon="9.54028" lat="47.674189">
                <ele>407.21659519999474</ele>
                <time>2012-05-17T18:31:54.000Z</time>
                <name>Position 1846</name>
            </trkpt>
            <trkpt lon="9.540385" lat="47.674251">
                <ele>407.5796455999977</ele>
                <time>2012-05-17T18:31:58.000Z</time>
                <name>Position 1847</name>
            </trkpt>
            <trkpt lon="9.540508" lat="47.674325">
                <ele>407.98337600000707</ele>
                <time>2012-05-17T18:32:02.000Z</time>
                <name>Position 1848</name>
            </trkpt>
            <trkpt lon="9.540631" lat="47.674399">
                <ele>408.36089264000026</ele>
                <time>2012-05-17T18:32:07.000Z</time>
                <name>Position 1849</name>
            </trkpt>
            <trkpt lon="9.540782" lat="47.674483">
                <ele>408.7797833600028</ele>
                <time>2012-05-17T18:32:12.000Z</time>
                <name>Position 1850</name>
            </trkpt>
            <trkpt lon="9.54092" lat="47.674575">
                <ele>408.78407999999786</ele>
                <time>2012-05-17T18:32:17.000Z</time>
                <name>Position 1851</name>
            </trkpt>
            <trkpt lon="9.541062" lat="47.674679">
                <ele>408.5029977599984</ele>
                <time>2012-05-17T18:32:23.000Z</time>
                <name>Position 1852</name>
            </trkpt>
            <trkpt lon="9.541202" lat="47.674784">
                <ele>408.14294015999997</ele>
                <time>2012-05-17T18:32:29.000Z</time>
                <name>Position 1853</name>
            </trkpt>
            <trkpt lon="9.541345" lat="47.674894">
                <ele>407.68700160000054</ele>
                <time>2012-05-17T18:32:35.000Z</time>
                <name>Position 1854</name>
            </trkpt>
            <trkpt lon="9.541503" lat="47.675004">
                <ele>407.1007718400019</ele>
                <time>2012-05-17T18:32:41.000Z</time>
                <name>Position 1855</name>
            </trkpt>
            <trkpt lon="9.541661" lat="47.67512">
                <ele>406.9494624000005</ele>
                <time>2012-05-17T18:32:47.000Z</time>
                <name>Position 1856</name>
            </trkpt>
            <trkpt lon="9.541805" lat="47.675238">
                <ele>407.42798080000057</ele>
                <time>2012-05-17T18:32:53.000Z</time>
                <name>Position 1857</name>
            </trkpt>
            <trkpt lon="9.541963" lat="47.675354">
                <ele>407.82788223999637</ele>
                <time>2012-05-17T18:32:59.000Z</time>
                <name>Position 1858</name>
            </trkpt>
            <trkpt lon="9.54211" lat="47.675477">
                <ele>408.1401664000018</ele>
                <time>2012-05-17T18:33:06.000Z</time>
                <name>Position 1859</name>
            </trkpt>
            <trkpt lon="9.542281" lat="47.675599">
                <ele>408.33380127999726</ele>
                <time>2012-05-17T18:33:12.000Z</time>
                <name>Position 1860</name>
            </trkpt>
            <trkpt lon="9.542436" lat="47.675714">
                <ele>408.4116044799987</ele>
                <time>2012-05-17T18:33:19.000Z</time>
                <name>Position 1861</name>
            </trkpt>
            <trkpt lon="9.542605" lat="47.675829">
                <ele>408.4954552000002</ele>
                <time>2012-05-17T18:33:25.000Z</time>
                <name>Position 1862</name>
            </trkpt>
            <trkpt lon="9.542776" lat="47.675944">
                <ele>408.58881664000097</ele>
                <time>2012-05-17T18:33:32.000Z</time>
                <name>Position 1863</name>
            </trkpt>
            <trkpt lon="9.542958" lat="47.676045">
                <ele>408.6144016000009</ele>
                <time>2012-05-17T18:33:38.000Z</time>
                <name>Position 1864</name>
            </trkpt>
            <trkpt lon="9.543127" lat="47.676153">
                <ele>408.59497935999974</ele>
                <time>2012-05-17T18:33:44.000Z</time>
                <name>Position 1865</name>
            </trkpt>
            <trkpt lon="9.543309" lat="47.676261">
                <ele>408.5149854399994</ele>
                <time>2012-05-17T18:33:51.000Z</time>
                <name>Position 1866</name>
            </trkpt>
            <trkpt lon="9.543477" lat="47.676369">
                <ele>408.73398127999866</ele>
                <time>2012-05-17T18:33:57.000Z</time>
                <name>Position 1867</name>
            </trkpt>
            <trkpt lon="9.543659" lat="47.676477">
                <ele>408.9797460800006</ele>
                <time>2012-05-17T18:34:04.000Z</time>
                <name>Position 1868</name>
            </trkpt>
            <trkpt lon="9.543839" lat="47.676571">
                <ele>409.1764606399983</ele>
                <time>2012-05-17T18:34:10.000Z</time>
                <name>Position 1869</name>
            </trkpt>
            <trkpt lon="9.544008" lat="47.67668">
                <ele>409.3126463999992</ele>
                <time>2012-05-17T18:34:16.000Z</time>
                <name>Position 1870</name>
            </trkpt>
            <trkpt lon="9.544187" lat="47.676768">
                <ele>409.52440000000104</ele>
                <time>2012-05-17T18:34:22.000Z</time>
                <name>Position 1871</name>
            </trkpt>
            <trkpt lon="9.544367" lat="47.676863">
                <ele>409.7403999999992</ele>
                <time>2012-05-17T18:34:28.000Z</time>
                <name>Position 1872</name>
            </trkpt>
            <trkpt lon="9.544533" lat="47.676953">
                <ele>409.93959999999936</ele>
                <time>2012-05-17T18:34:34.000Z</time>
                <name>Position 1873</name>
            </trkpt>
            <trkpt lon="9.544711" lat="47.677047">
                <ele>410.1531999999994</ele>
                <time>2012-05-17T18:34:40.000Z</time>
                <name>Position 1874</name>
            </trkpt>
            <trkpt lon="9.544891" lat="47.677142">
                <ele>410.36919999999975</ele>
                <time>2012-05-17T18:34:46.000Z</time>
                <name>Position 1875</name>
            </trkpt>
            <trkpt lon="9.545068" lat="47.67723">
                <ele>410.6103232000011</ele>
                <time>2012-05-17T18:34:52.000Z</time>
                <name>Position 1876</name>
            </trkpt>
            <trkpt lon="9.545248" lat="47.677325">
                <ele>410.9702080000038</ele>
                <time>2012-05-17T18:34:58.000Z</time>
                <name>Position 1877</name>
            </trkpt>
            <trkpt lon="9.54543" lat="47.67742">
                <ele>411.4329279999964</ele>
                <time>2012-05-17T18:35:05.000Z</time>
                <name>Position 1878</name>
            </trkpt>
            <trkpt lon="9.54562" lat="47.677507">
                <ele>412.0007007999962</ele>
                <time>2012-05-17T18:35:11.000Z</time>
                <name>Position 1879</name>
            </trkpt>
            <trkpt lon="9.545802" lat="47.677614">
                <ele>412.5718873599981</ele>
                <time>2012-05-17T18:35:17.000Z</time>
                <name>Position 1880</name>
            </trkpt>
            <trkpt lon="9.545966" lat="47.677704">
                <ele>412.6668556799989</ele>
                <time>2012-05-17T18:35:23.000Z</time>
                <name>Position 1881</name>
            </trkpt>
            <trkpt lon="9.546144" lat="47.677798">
                <ele>412.59097344000094</ele>
                <time>2012-05-17T18:35:29.000Z</time>
                <name>Position 1882</name>
            </trkpt>
            <trkpt lon="9.546324" lat="47.677899">
                <ele>412.41496512000055</ele>
                <time>2012-05-17T18:35:35.000Z</time>
                <name>Position 1883</name>
            </trkpt>
            <trkpt lon="9.546516" lat="47.677998">
                <ele>412.1184921599977</ele>
                <time>2012-05-17T18:35:42.000Z</time>
                <name>Position 1884</name>
            </trkpt>
            <trkpt lon="9.546698" lat="47.6781">
                <ele>411.7318720000006</ele>
                <time>2012-05-17T18:35:48.000Z</time>
                <name>Position 1885</name>
            </trkpt>
            <trkpt lon="9.546873" lat="47.678193">
                <ele>411.3791041600003</ele>
                <time>2012-05-17T18:35:54.000Z</time>
                <name>Position 1886</name>
            </trkpt>
            <trkpt lon="9.547049" lat="47.678275">
                <ele>411.0790840000013</ele>
                <time>2012-05-17T18:36:00.000Z</time>
                <name>Position 1887</name>
            </trkpt>
            <trkpt lon="9.547255" lat="47.678361">
                <ele>410.67487839998984</ele>
                <time>2012-05-17T18:36:07.000Z</time>
                <name>Position 1888</name>
            </trkpt>
            <trkpt lon="9.547434" lat="47.678468">
                <ele>410.06880255999073</ele>
                <time>2012-05-17T18:36:13.000Z</time>
                <name>Position 1889</name>
            </trkpt>
            <trkpt lon="9.547632" lat="47.678581">
                <ele>409.70255295999624</ele>
                <time>2012-05-17T18:36:20.000Z</time>
                <name>Position 1890</name>
            </trkpt>
            <trkpt lon="9.547811" lat="47.678676">
                <ele>409.57331967999147</ele>
                <time>2012-05-17T18:36:26.000Z</time>
                <name>Position 1891</name>
            </trkpt>
            <trkpt lon="9.547993" lat="47.678789">
                <ele>409.5065737599959</ele>
                <time>2012-05-17T18:36:33.000Z</time>
                <name>Position 1892</name>
            </trkpt>
            <trkpt lon="9.54819" lat="47.678902">
                <ele>409.5828543999987</ele>
                <time>2012-05-17T18:36:40.000Z</time>
                <name>Position 1893</name>
            </trkpt>
            <trkpt lon="9.548379" lat="47.679041">
                <ele>409.68907232000265</ele>
                <time>2012-05-17T18:36:47.000Z</time>
                <name>Position 1894</name>
            </trkpt>
            <trkpt lon="9.548552" lat="47.679181">
                <ele>409.75422656000114</ele>
                <time>2012-05-17T18:36:55.000Z</time>
                <name>Position 1895</name>
            </trkpt>
            <trkpt lon="9.548708" lat="47.679296">
                <ele>409.93395583999916</ele>
                <time>2012-05-17T18:37:01.000Z</time>
                <name>Position 1896</name>
            </trkpt>
            <trkpt lon="9.548874" lat="47.679404">
                <ele>410.23355647999864</ele>
                <time>2012-05-17T18:37:07.000Z</time>
                <name>Position 1897</name>
            </trkpt>
            <trkpt lon="9.548958" lat="47.679506">
                <ele>410.4528742400036</ele>
                <time>2012-05-17T18:37:12.000Z</time>
                <name>Position 1898</name>
            </trkpt>
            <trkpt lon="9.549032" lat="47.679621">
                <ele>410.70739135999884</ele>
                <time>2012-05-17T18:37:17.000Z</time>
                <name>Position 1899</name>
            </trkpt>
            <trkpt lon="9.549146" lat="47.679746">
                <ele>411.1359180800027</ele>
                <time>2012-05-17T18:37:23.000Z</time>
                <name>Position 1900</name>
            </trkpt>
            <trkpt lon="9.549313" lat="47.679854">
                <ele>411.469634879998</ele>
                <time>2012-05-17T18:37:29.000Z</time>
                <name>Position 1901</name>
            </trkpt>
            <trkpt lon="9.549479" lat="47.679962">
                <ele>411.8121091200051</ele>
                <time>2012-05-17T18:37:35.000Z</time>
                <name>Position 1902</name>
            </trkpt>
            <trkpt lon="9.549646" lat="47.680064">
                <ele>411.8332492799934</ele>
                <time>2012-05-17T18:37:41.000Z</time>
                <name>Position 1903</name>
            </trkpt>
            <trkpt lon="9.549777" lat="47.680142">
                <ele>411.64199808001536</ele>
                <time>2012-05-17T18:37:46.000Z</time>
                <name>Position 1904</name>
            </trkpt>
            <trkpt lon="9.549968" lat="47.680164">
                <ele>411.68951424001057</ele>
                <time>2012-05-17T18:37:51.000Z</time>
                <name>Position 1905</name>
            </trkpt>
            <trkpt lon="9.550211" lat="47.680222">
                <ele>411.0629049599995</ele>
                <time>2012-05-17T18:37:58.000Z</time>
                <name>Position 1906</name>
            </trkpt>
            <trkpt lon="9.550417" lat="47.680297">
                <ele>410.4302851199901</ele>
                <time>2012-05-17T18:38:04.000Z</time>
                <name>Position 1907</name>
            </trkpt>
            <trkpt lon="9.550627" lat="47.680396">
                <ele>409.80948095999435</ele>
                <time>2012-05-17T18:38:11.000Z</time>
                <name>Position 1908</name>
            </trkpt>
            <trkpt lon="9.550833" lat="47.680483">
                <ele>409.3411363199936</ele>
                <time>2012-05-17T18:38:18.000Z</time>
                <name>Position 1909</name>
            </trkpt>
            <trkpt lon="9.551037" lat="47.680563">
                <ele>409.5583166400031</ele>
                <time>2012-05-17T18:38:24.000Z</time>
                <name>Position 1910</name>
            </trkpt>
            <trkpt lon="9.551236" lat="47.680629">
                <ele>409.83831935999274</ele>
                <time>2012-05-17T18:38:30.000Z</time>
                <name>Position 1911</name>
            </trkpt>
            <trkpt lon="9.55144" lat="47.680703">
                <ele>410.154940799997</ele>
                <time>2012-05-17T18:38:36.000Z</time>
                <name>Position 1912</name>
            </trkpt>
            <trkpt lon="9.551635" lat="47.680797">
                <ele>410.46925680000015</ele>
                <time>2012-05-17T18:38:43.000Z</time>
                <name>Position 1913</name>
            </trkpt>
            <trkpt lon="9.55183" lat="47.680891">
                <ele>410.6843999999925</ele>
                <time>2012-05-17T18:38:49.000Z</time>
                <name>Position 1914</name>
            </trkpt>
            <trkpt lon="9.552014" lat="47.681005">
                <ele>410.7156000000032</ele>
                <time>2012-05-17T18:38:56.000Z</time>
                <name>Position 1915</name>
            </trkpt>
            <trkpt lon="9.552198" lat="47.681125">
                <ele>410.725199999996</ele>
                <time>2012-05-17T18:39:03.000Z</time>
                <name>Position 1916</name>
            </trkpt>
            <trkpt lon="9.552371" lat="47.681206">
                <ele>410.8487999999909</ele>
                <time>2012-05-17T18:39:09.000Z</time>
                <name>Position 1917</name>
            </trkpt>
            <trkpt lon="9.55256" lat="47.681287">
                <ele>410.8731936000086</ele>
                <time>2012-05-17T18:39:15.000Z</time>
                <name>Position 1918</name>
            </trkpt>
            <trkpt lon="9.552764" lat="47.681379">
                <ele>410.63368128000087</ele>
                <time>2012-05-17T18:39:21.000Z</time>
                <name>Position 1919</name>
            </trkpt>
            <trkpt lon="9.552952" lat="47.681459">
                <ele>410.5196678400074</ele>
                <time>2012-05-17T18:39:27.000Z</time>
                <name>Position 1920</name>
            </trkpt>
            <trkpt lon="9.553059" lat="47.68154">
                <ele>410.422876800003</ele>
                <time>2012-05-17T18:39:32.000Z</time>
                <name>Position 1921</name>
            </trkpt>
            <trkpt lon="9.553143" lat="47.681629">
                <ele>410.3374473599989</ele>
                <time>2012-05-17T18:39:36.000Z</time>
                <name>Position 1922</name>
            </trkpt>
            <trkpt lon="9.553208" lat="47.681707">
                <ele>410.39072064000254</ele>
                <time>2012-05-17T18:39:39.000Z</time>
                <name>Position 1923</name>
            </trkpt>
            <trkpt lon="9.553246" lat="47.68178">
                <ele>410.51694720000313</ele>
                <time>2012-05-17T18:39:43.000Z</time>
                <name>Position 1924</name>
            </trkpt>
            <trkpt lon="9.55327" lat="47.681842">
                <ele>410.6184096000027</ele>
                <time>2012-05-17T18:39:45.000Z</time>
                <name>Position 1925</name>
            </trkpt>
            <trkpt lon="9.553318" lat="47.681895">
                <ele>410.750558399998</ele>
                <time>2012-05-17T18:39:48.000Z</time>
                <name>Position 1926</name>
            </trkpt>
            <trkpt lon="9.553395" lat="47.681946">
                <ele>410.9583952000039</ele>
                <time>2012-05-17T18:39:51.000Z</time>
                <name>Position 1927</name>
            </trkpt>
            <trkpt lon="9.553491" lat="47.682004">
                <ele>411.2066118399977</ele>
                <time>2012-05-17T18:39:54.000Z</time>
                <name>Position 1928</name>
            </trkpt>
            <trkpt lon="9.553583" lat="47.682049">
                <ele>411.4205435199987</ele>
                <time>2012-05-17T18:39:57.000Z</time>
                <name>Position 1929</name>
            </trkpt>
            <trkpt lon="9.553676" lat="47.682112">
                <ele>411.63705471999634</ele>
                <time>2012-05-17T18:40:01.000Z</time>
                <name>Position 1930</name>
            </trkpt>
            <trkpt lon="9.553781" lat="47.682174">
                <ele>411.8561526400031</ele>
                <time>2012-05-17T18:40:04.000Z</time>
                <name>Position 1931</name>
            </trkpt>
            <trkpt lon="9.553873" lat="47.682243">
                <ele>412.03891983999887</ele>
                <time>2012-05-17T18:40:08.000Z</time>
                <name>Position 1932</name>
            </trkpt>
            <trkpt lon="9.553996" lat="47.682317">
                <ele>412.25022591999897</ele>
                <time>2012-05-17T18:40:13.000Z</time>
                <name>Position 1933</name>
            </trkpt>
            <trkpt lon="9.554121" lat="47.682397">
                <ele>412.4384267200005</ele>
                <time>2012-05-17T18:40:17.000Z</time>
                <name>Position 1934</name>
            </trkpt>
            <trkpt lon="9.554256" lat="47.682464">
                <ele>412.18303103999784</ele>
                <time>2012-05-17T18:40:22.000Z</time>
                <name>Position 1935</name>
            </trkpt>
            <trkpt lon="9.554397" lat="47.682491">
                <ele>411.67378512000124</ele>
                <time>2012-05-17T18:40:26.000Z</time>
                <name>Position 1936</name>
            </trkpt>
            <trkpt lon="9.554556" lat="47.682467">
                <ele>411.11690111999934</ele>
                <time>2012-05-17T18:40:30.000Z</time>
                <name>Position 1937</name>
            </trkpt>
            <trkpt lon="9.554729" lat="47.682441">
                <ele>410.52337584000236</ele>
                <time>2012-05-17T18:40:35.000Z</time>
                <name>Position 1938</name>
            </trkpt>
            <trkpt lon="9.554834" lat="47.682484">
                <ele>410.1129753599994</ele>
                <time>2012-05-17T18:40:38.000Z</time>
                <name>Position 1939</name>
            </trkpt>
            <trkpt lon="9.554839" lat="47.682574">
                <ele>410.1340876800039</ele>
                <time>2012-05-17T18:40:42.000Z</time>
                <name>Position 1940</name>
            </trkpt>
            <trkpt lon="9.554745" lat="47.682646">
                <ele>410.48597759999774</ele>
                <time>2012-05-17T18:40:46.000Z</time>
                <name>Position 1941</name>
            </trkpt>
            <trkpt lon="9.55462" lat="47.682695">
                <ele>410.8885920000007</ele>
                <time>2012-05-17T18:40:49.000Z</time>
                <name>Position 1942</name>
            </trkpt>
            <trkpt lon="9.554524" lat="47.682754">
                <ele>411.1701964799976</ele>
                <time>2012-05-17T18:40:53.000Z</time>
                <name>Position 1943</name>
            </trkpt>
            <trkpt lon="9.554452" lat="47.682805">
                <ele>411.35743680000076</ele>
                <time>2012-05-17T18:40:56.000Z</time>
                <name>Position 1944</name>
            </trkpt>
            <trkpt lon="9.55443" lat="47.682826">
                <ele>411.40803840000075</ele>
                <time>2012-05-17T18:40:57.000Z</time>
                <name>Position 1945</name>
            </trkpt>
            <trkpt lon="9.554419" lat="47.682834">
                <ele>411.433524480002</ele>
                <time>2012-05-17T18:40:57.000Z</time>
                <name>Position 1946</name>
            </trkpt>
            <trkpt lon="9.554419" lat="47.682828">
                <ele>411.4363641600016</ele>
                <time>2012-05-17T18:40:58.000Z</time>
                <name>Position 1947</name>
            </trkpt>
            <trkpt lon="9.554421" lat="47.682828">
                <ele>411.4310534400008</ele>
                <time>2012-05-17T18:40:58.000Z</time>
                <name>Position 1948</name>
            </trkpt>
            <trkpt lon="9.554437" lat="47.682828">
                <ele>411.3885676799996</ele>
                <time>2012-05-17T18:40:58.000Z</time>
                <name>Position 1949</name>
            </trkpt>
            <trkpt lon="9.554421" lat="47.682822">
                <ele>411.4338585600004</ele>
                <time>2012-05-17T18:40:59.000Z</time>
                <name>Position 1950</name>
            </trkpt>
            <trkpt lon="9.554308" lat="47.682876">
                <ele>411.69304703999813</ele>
                <time>2012-05-17T18:41:02.000Z</time>
                <name>Position 1951</name>
            </trkpt>
            <trkpt lon="9.55413" lat="47.682947">
                <ele>411.96680320000144</ele>
                <time>2012-05-17T18:41:08.000Z</time>
                <name>Position 1952</name>
            </trkpt>
            <trkpt lon="9.553936" lat="47.683">
                <ele>411.95536000000004</ele>
                <time>2012-05-17T18:41:13.000Z</time>
                <name>Position 1953</name>
            </trkpt>
            <trkpt lon="9.553769" lat="47.683064">
                <ele>411.99193791999954</ele>
                <time>2012-05-17T18:41:19.000Z</time>
                <name>Position 1954</name>
            </trkpt>
            <trkpt lon="9.553601" lat="47.683115">
                <ele>412.0851088000001</ele>
                <time>2012-05-17T18:41:24.000Z</time>
                <name>Position 1955</name>
            </trkpt>
            <trkpt lon="9.553487" lat="47.683157">
                <ele>412.18203808000067</ele>
                <time>2012-05-17T18:41:27.000Z</time>
                <name>Position 1956</name>
            </trkpt>
            <trkpt lon="9.553428" lat="47.683218">
                <ele>412.2794444799966</ele>
                <time>2012-05-17T18:41:30.000Z</time>
                <name>Position 1957</name>
            </trkpt>
            <trkpt lon="9.553362" lat="47.683236">
                <ele>412.35683584000105</ele>
                <time>2012-05-17T18:41:32.000Z</time>
                <name>Position 1958</name>
            </trkpt>
            <trkpt lon="9.553314" lat="47.683195">
                <ele>412.28759999999806</ele>
                <time>2012-05-17T18:41:34.000Z</time>
                <name>Position 1959</name>
            </trkpt>
            <trkpt lon="9.55324" lat="47.683226">
                <ele>412.1471999999987</ele>
                <time>2012-05-17T18:41:36.000Z</time>
                <name>Position 1960</name>
            </trkpt>
            <trkpt lon="9.553146" lat="47.683304">
                <ele>412.0151999999994</ele>
                <time>2012-05-17T18:41:40.000Z</time>
                <name>Position 1961</name>
            </trkpt>
            <trkpt lon="9.553034" lat="47.683423">
                <ele>411.7816000000006</ele>
                <time>2012-05-17T18:41:46.000Z</time>
                <name>Position 1962</name>
            </trkpt>
            <trkpt lon="9.552964" lat="47.683551">
                <ele>411.6135999999984</ele>
                <time>2012-05-17T18:41:51.000Z</time>
                <name>Position 1963</name>
            </trkpt>
            <trkpt lon="9.552895" lat="47.683685">
                <ele>411.44799999999873</ele>
                <time>2012-05-17T18:41:57.000Z</time>
                <name>Position 1964</name>
            </trkpt>
            <trkpt lon="9.552809" lat="47.683813">
                <ele>411.2415999999997</ele>
                <time>2012-05-17T18:42:03.000Z</time>
                <name>Position 1965</name>
            </trkpt>
            <trkpt lon="9.552724" lat="47.683941">
                <ele>411.0375999999989</ele>
                <time>2012-05-17T18:42:08.000Z</time>
                <name>Position 1966</name>
            </trkpt>
            <trkpt lon="9.552635" lat="47.684057">
                <ele>410.82400000000104</ele>
                <time>2012-05-17T18:42:14.000Z</time>
                <name>Position 1967</name>
            </trkpt>
            <trkpt lon="9.552506" lat="47.684169">
                <ele>410.51153952000186</ele>
                <time>2012-05-17T18:42:19.000Z</time>
                <name>Position 1968</name>
            </trkpt>
            <trkpt lon="9.55226" lat="47.684234">
                <ele>409.07228160000125</ele>
                <time>2012-05-17T18:42:26.000Z</time>
                <name>Position 1969</name>
            </trkpt>
            <trkpt lon="9.551982" lat="47.684262">
                <ele>407.5620441599973</ele>
                <time>2012-05-17T18:42:34.000Z</time>
                <name>Position 1970</name>
            </trkpt>
            <trkpt lon="9.551821" lat="47.684398">
                <ele>407.0531539200055</ele>
                <time>2012-05-17T18:42:41.000Z</time>
                <name>Position 1971</name>
            </trkpt>
            <trkpt lon="9.551834" lat="47.684556">
                <ele>407.5303449599993</ele>
                <time>2012-05-17T18:42:47.000Z</time>
                <name>Position 1972</name>
            </trkpt>
            <trkpt lon="9.55185" lat="47.684657">
                <ele>407.8474080000031</ele>
                <time>2012-05-17T18:42:51.000Z</time>
                <name>Position 1973</name>
            </trkpt>
            <trkpt lon="9.551867" lat="47.684693">
                <ele>407.9894534400057</ele>
                <time>2012-05-17T18:42:53.000Z</time>
                <name>Position 1974</name>
            </trkpt>
            <trkpt lon="9.551898" lat="47.684704">
                <ele>408.1064140800064</ele>
                <time>2012-05-17T18:42:54.000Z</time>
                <name>Position 1975</name>
            </trkpt>
            <trkpt lon="9.551913" lat="47.684715">
                <ele>408.1739807999955</ele>
                <time>2012-05-17T18:42:54.000Z</time>
                <name>Position 1976</name>
            </trkpt>
            <trkpt lon="9.551996" lat="47.684805">
                <ele>408.5631071999969</ele>
                <time>2012-05-17T18:42:59.000Z</time>
                <name>Position 1977</name>
            </trkpt>
            <trkpt lon="9.552135" lat="47.684878">
                <ele>408.9519071999974</ele>
                <time>2012-05-17T18:43:03.000Z</time>
                <name>Position 1978</name>
            </trkpt>
            <trkpt lon="9.55226" lat="47.684964">
                <ele>409.2054336000006</ele>
                <time>2012-05-17T18:43:08.000Z</time>
                <name>Position 1979</name>
            </trkpt>
            <trkpt lon="9.552378" lat="47.685084">
                <ele>409.45440000000286</ele>
                <time>2012-05-17T18:43:14.000Z</time>
                <name>Position 1980</name>
            </trkpt>
            <trkpt lon="9.552521" lat="47.685195">
                <ele>409.7146967999998</ele>
                <time>2012-05-17T18:43:20.000Z</time>
                <name>Position 1981</name>
            </trkpt>
            <trkpt lon="9.552626" lat="47.685315">
                <ele>409.7839536000037</ele>
                <time>2012-05-17T18:43:25.000Z</time>
                <name>Position 1982</name>
            </trkpt>
            <trkpt lon="9.55274" lat="47.685421">
                <ele>409.8626975999969</ele>
                <time>2012-05-17T18:43:31.000Z</time>
                <name>Position 1983</name>
            </trkpt>
            <trkpt lon="9.552852" lat="47.685515">
                <ele>409.956643200004</ele>
                <time>2012-05-17T18:43:36.000Z</time>
                <name>Position 1984</name>
            </trkpt>
            <trkpt lon="9.552959" lat="47.685589">
                <ele>410.0453054400005</ele>
                <time>2012-05-17T18:43:40.000Z</time>
                <name>Position 1985</name>
            </trkpt>
            <trkpt lon="9.553126" lat="47.685615">
                <ele>410.0411855999966</ele>
                <time>2012-05-17T18:43:44.000Z</time>
                <name>Position 1986</name>
            </trkpt>
            <trkpt lon="9.553303" lat="47.68562">
                <ele>409.99731840000027</ele>
                <time>2012-05-17T18:43:49.000Z</time>
                <name>Position 1987</name>
            </trkpt>
            <trkpt lon="9.55343" lat="47.685642">
                <ele>410.27280000000457</ele>
                <time>2012-05-17T18:43:53.000Z</time>
                <name>Position 1988</name>
            </trkpt>
            <trkpt lon="9.553454" lat="47.685686">
                <ele>410.43599999999327</ele>
                <time>2012-05-17T18:43:54.000Z</time>
                <name>Position 1989</name>
            </trkpt>
            <trkpt lon="9.553406" lat="47.685774">
                <ele>410.5320000000067</ele>
                <time>2012-05-17T18:43:58.000Z</time>
                <name>Position 1990</name>
            </trkpt>
            <trkpt lon="9.553306" lat="47.685891">
                <ele>410.70533023999263</ele>
                <time>2012-05-17T18:44:04.000Z</time>
                <name>Position 1991</name>
            </trkpt>
            <trkpt lon="9.553207" lat="47.686009">
                <ele>411.1004427199949</ele>
                <time>2012-05-17T18:44:09.000Z</time>
                <name>Position 1992</name>
            </trkpt>
            <trkpt lon="9.55319" lat="47.686144">
                <ele>411.55427839999584</ele>
                <time>2012-05-17T18:44:14.000Z</time>
                <name>Position 1993</name>
            </trkpt>
            <trkpt lon="9.553181" lat="47.686241">
                <ele>411.87817424000855</ele>
                <time>2012-05-17T18:44:18.000Z</time>
                <name>Position 1994</name>
            </trkpt>
            <trkpt lon="9.553153" lat="47.686225">
                <ele>411.8082920000008</ele>
                <time>2012-05-17T18:44:19.000Z</time>
                <name>Position 1995</name>
            </trkpt>
            <trkpt lon="9.553151" lat="47.686141">
                <ele>411.526819039997</ele>
                <time>2012-05-17T18:44:23.000Z</time>
                <name>Position 1996</name>
            </trkpt>
            <trkpt lon="9.55312" lat="47.686048">
                <ele>411.2068543999982</ele>
                <time>2012-05-17T18:44:27.000Z</time>
                <name>Position 1997</name>
            </trkpt>
            <trkpt lon="9.553034" lat="47.686028">
                <ele>411.11689088000077</ele>
                <time>2012-05-17T18:44:29.000Z</time>
                <name>Position 1998</name>
            </trkpt>
            <trkpt lon="9.553008" lat="47.686025">
                <ele>411.1002080000022</ele>
                <time>2012-05-17T18:44:30.000Z</time>
                <name>Position 1999</name>
            </trkpt>
            <trkpt lon="9.553098" lat="47.686004">
                <ele>411.0565644799899</ele>
                <time>2012-05-17T18:44:32.000Z</time>
                <name>Position 2000</name>
            </trkpt>
            <trkpt lon="9.553233" lat="47.685948">
                <ele>410.89623296001133</ele>
                <time>2012-05-17T18:44:37.000Z</time>
                <name>Position 2001</name>
            </trkpt>
            <trkpt lon="9.553334" lat="47.685849">
                <ele>410.5579548799896</ele>
                <time>2012-05-17T18:44:41.000Z</time>
                <name>Position 2002</name>
            </trkpt>
            <trkpt lon="9.553384" lat="47.685749">
                <ele>410.4192000000016</ele>
                <time>2012-05-17T18:44:46.000Z</time>
                <name>Position 2003</name>
            </trkpt>
            <trkpt lon="9.553386" lat="47.685685">
                <ele>410.27039999999784</ele>
                <time>2012-05-17T18:44:48.000Z</time>
                <name>Position 2004</name>
            </trkpt>
            <trkpt lon="9.553408" lat="47.685658">
                <ele>410.25839999998976</ele>
                <time>2012-05-17T18:44:49.000Z</time>
                <name>Position 2005</name>
            </trkpt>
            <trkpt lon="9.553487" lat="47.685639">
                <ele>410.4024000000056</ele>
                <time>2012-05-17T18:44:52.000Z</time>
                <name>Position 2006</name>
            </trkpt>
            <trkpt lon="9.553605" lat="47.685623">
                <ele>410.6471999999972</ele>
                <time>2012-05-17T18:44:55.000Z</time>
                <name>Position 2007</name>
            </trkpt>
            <trkpt lon="9.553739" lat="47.685618">
                <ele>410.9567999999957</ele>
                <time>2012-05-17T18:44:58.000Z</time>
                <name>Position 2008</name>
            </trkpt>
            <trkpt lon="9.553872" lat="47.68562">
                <ele>411.2808000000005</ele>
                <time>2012-05-17T18:45:02.000Z</time>
                <name>Position 2009</name>
            </trkpt>
            <trkpt lon="9.554006" lat="47.685615">
                <ele>411.59039999999476</ele>
                <time>2012-05-17T18:45:06.000Z</time>
                <name>Position 2010</name>
            </trkpt>
            <trkpt lon="9.554144" lat="47.685636">
                <ele>411.9720000000076</ele>
                <time>2012-05-17T18:45:09.000Z</time>
                <name>Position 2011</name>
            </trkpt>
            <trkpt lon="9.554262" lat="47.685691">
                <ele>412.27279999999575</ele>
                <time>2012-05-17T18:45:13.000Z</time>
                <name>Position 2012</name>
            </trkpt>
            <trkpt lon="9.554337" lat="47.685801">
                <ele>412.6267999999951</ele>
                <time>2012-05-17T18:45:18.000Z</time>
                <name>Position 2013</name>
            </trkpt>
            <trkpt lon="9.55439" lat="47.685932">
                <ele>412.76799999999963</ele>
                <time>2012-05-17T18:45:24.000Z</time>
                <name>Position 2014</name>
            </trkpt>
            <trkpt lon="9.554445" lat="47.686075">
                <ele>412.83399999999926</ele>
                <time>2012-05-17T18:45:30.000Z</time>
                <name>Position 2015</name>
            </trkpt>
            <trkpt lon="9.554526" lat="47.68621">
                <ele>412.93119999999897</ele>
                <time>2012-05-17T18:45:35.000Z</time>
                <name>Position 2016</name>
            </trkpt>
            <trkpt lon="9.554607" lat="47.686352">
                <ele>413.02840000000083</ele>
                <time>2012-05-17T18:45:41.000Z</time>
                <name>Position 2017</name>
            </trkpt>
            <trkpt lon="9.554688" lat="47.686493">
                <ele>413.1256000000006</ele>
                <time>2012-05-17T18:45:48.000Z</time>
                <name>Position 2018</name>
            </trkpt>
            <trkpt lon="9.554754" lat="47.686635">
                <ele>413.204800000001</ele>
                <time>2012-05-17T18:45:53.000Z</time>
                <name>Position 2019</name>
            </trkpt>
            <trkpt lon="9.554833" lat="47.686776">
                <ele>413.4308000000025</ele>
                <time>2012-05-17T18:45:59.000Z</time>
                <name>Position 2020</name>
            </trkpt>
            <trkpt lon="9.554912" lat="47.686911">
                <ele>413.68760000000213</ele>
                <time>2012-05-17T18:46:05.000Z</time>
                <name>Position 2021</name>
            </trkpt>
            <trkpt lon="9.555005" lat="47.687051">
                <ele>413.96166559999597</ele>
                <time>2012-05-17T18:46:11.000Z</time>
                <name>Position 2022</name>
            </trkpt>
            <trkpt lon="9.555097" lat="47.687184">
                <ele>414.0926777600018</ele>
                <time>2012-05-17T18:46:17.000Z</time>
                <name>Position 2023</name>
            </trkpt>
            <trkpt lon="9.555161" lat="47.687314">
                <ele>414.16984448000045</ele>
                <time>2012-05-17T18:46:23.000Z</time>
                <name>Position 2024</name>
            </trkpt>
            <trkpt lon="9.55524" lat="47.687455">
                <ele>414.1891040000005</ele>
                <time>2012-05-17T18:46:29.000Z</time>
                <name>Position 2025</name>
            </trkpt>
            <trkpt lon="9.555279" lat="47.687599">
                <ele>414.40279999999643</ele>
                <time>2012-05-17T18:46:35.000Z</time>
                <name>Position 2026</name>
            </trkpt>
            <trkpt lon="9.55529" lat="47.687739">
                <ele>414.7256000000021</ele>
                <time>2012-05-17T18:46:40.000Z</time>
                <name>Position 2027</name>
            </trkpt>
            <trkpt lon="9.555273" lat="47.68788">
                <ele>415.0844</ele>
                <time>2012-05-17T18:46:46.000Z</time>
                <name>Position 2028</name>
            </trkpt>
            <trkpt lon="9.555271" lat="47.688021">
                <ele>415.42519999999865</ele>
                <time>2012-05-17T18:46:52.000Z</time>
                <name>Position 2029</name>
            </trkpt>
            <trkpt lon="9.555311" lat="47.688159">
                <ele>415.7083999999977</ele>
                <time>2012-05-17T18:46:57.000Z</time>
                <name>Position 2030</name>
            </trkpt>
            <trkpt lon="9.555377" lat="47.688301">
                <ele>415.97000000000656</ele>
                <time>2012-05-17T18:47:03.000Z</time>
                <name>Position 2031</name>
            </trkpt>
            <trkpt lon="9.555427" lat="47.688432">
                <ele>415.8692000000016</ele>
                <time>2012-05-17T18:47:09.000Z</time>
                <name>Position 2032</name>
            </trkpt>
            <trkpt lon="9.555478" lat="47.688556">
                <ele>415.659200000001</ele>
                <time>2012-05-17T18:47:14.000Z</time>
                <name>Position 2033</name>
            </trkpt>
            <trkpt lon="9.555529" lat="47.688681">
                <ele>415.4479999999971</ele>
                <time>2012-05-17T18:47:19.000Z</time>
                <name>Position 2034</name>
            </trkpt>
            <trkpt lon="9.55561" lat="47.688788">
                <ele>415.22239999999755</ele>
                <time>2012-05-17T18:47:24.000Z</time>
                <name>Position 2035</name>
            </trkpt>
            <trkpt lon="9.555669" lat="47.688892">
                <ele>415.02679999999685</ele>
                <time>2012-05-17T18:47:28.000Z</time>
                <name>Position 2036</name>
            </trkpt>
            <trkpt lon="9.55568" lat="47.689019">
                <ele>414.86119999999715</ele>
                <time>2012-05-17T18:47:33.000Z</time>
                <name>Position 2037</name>
            </trkpt>
            <trkpt lon="9.555726" lat="47.689143">
                <ele>414.65719999999845</ele>
                <time>2012-05-17T18:47:38.000Z</time>
                <name>Position 2038</name>
            </trkpt>
            <trkpt lon="9.555821" lat="47.689225">
                <ele>414.58687200000065</ele>
                <time>2012-05-17T18:47:43.000Z</time>
                <name>Position 2039</name>
            </trkpt>
            <trkpt lon="9.555948" lat="47.689259">
                <ele>414.7331539200005</ele>
                <time>2012-05-17T18:47:46.000Z</time>
                <name>Position 2040</name>
            </trkpt>
            <trkpt lon="9.556007" lat="47.689345">
                <ele>414.877802400002</ele>
                <time>2012-05-17T18:47:50.000Z</time>
                <name>Position 2041</name>
            </trkpt>
            <trkpt lon="9.55608" lat="47.689454">
                <ele>415.0387391999978</ele>
                <time>2012-05-17T18:47:55.000Z</time>
                <name>Position 2042</name>
            </trkpt>
            <trkpt lon="9.556191" lat="47.689542">
                <ele>415.18628832000206</ele>
                <time>2012-05-17T18:47:59.000Z</time>
                <name>Position 2043</name>
            </trkpt>
            <trkpt lon="9.556373" lat="47.689572">
                <ele>415.31900735999966</ele>
                <time>2012-05-17T18:48:05.000Z</time>
                <name>Position 2044</name>
            </trkpt>
            <trkpt lon="9.556476" lat="47.68968">
                <ele>415.4121408000007</ele>
                <time>2012-05-17T18:48:10.000Z</time>
                <name>Position 2045</name>
            </trkpt>
            <trkpt lon="9.556542" lat="47.689816">
                <ele>415.46696832000015</ele>
                <time>2012-05-17T18:48:15.000Z</time>
                <name>Position 2046</name>
            </trkpt>
            <trkpt lon="9.556604" lat="47.689921">
                <ele>415.49287103999984</ele>
                <time>2012-05-17T18:48:20.000Z</time>
                <name>Position 2047</name>
            </trkpt>
            <trkpt lon="9.5567" lat="47.690009">
                <ele>415.50993600000373</ele>
                <time>2012-05-17T18:48:24.000Z</time>
                <name>Position 2048</name>
            </trkpt>
            <trkpt lon="9.556838" lat="47.690106">
                <ele>415.5748953599998</ele>
                <time>2012-05-17T18:48:30.000Z</time>
                <name>Position 2049</name>
            </trkpt>
            <trkpt lon="9.556944" lat="47.690239">
                <ele>415.59590591999955</ele>
                <time>2012-05-17T18:48:36.000Z</time>
                <name>Position 2050</name>
            </trkpt>
            <trkpt lon="9.55701" lat="47.690387">
                <ele>415.58173440000036</ele>
                <time>2012-05-17T18:48:42.000Z</time>
                <name>Position 2051</name>
            </trkpt>
            <trkpt lon="9.557062" lat="47.69053">
                <ele>415.5325632</ele>
                <time>2012-05-17T18:48:48.000Z</time>
                <name>Position 2052</name>
            </trkpt>
            <trkpt lon="9.557113" lat="47.690661">
                <ele>415.44352416000163</ele>
                <time>2012-05-17T18:48:53.000Z</time>
                <name>Position 2053</name>
            </trkpt>
            <trkpt lon="9.557153" lat="47.690787">
                <ele>415.34209632000113</ele>
                <time>2012-05-17T18:48:58.000Z</time>
                <name>Position 2054</name>
            </trkpt>
            <trkpt lon="9.557127" lat="47.690936">
                <ele>415.2720000000008</ele>
                <time>2012-05-17T18:49:04.000Z</time>
                <name>Position 2055</name>
            </trkpt>
            <trkpt lon="9.557145" lat="47.691096">
                <ele>415.03679999999775</ele>
                <time>2012-05-17T18:49:11.000Z</time>
                <name>Position 2056</name>
            </trkpt>
            <trkpt lon="9.557138" lat="47.691276">
                <ele>414.8375999999976</ele>
                <time>2012-05-17T18:49:18.000Z</time>
                <name>Position 2057</name>
            </trkpt>
            <trkpt lon="9.557066" lat="47.691474">
                <ele>414.7727999999992</ele>
                <time>2012-05-17T18:49:26.000Z</time>
                <name>Position 2058</name>
            </trkpt>
            <trkpt lon="9.556953" lat="47.691669">
                <ele>414.80816208000545</ele>
                <time>2012-05-17T18:49:35.000Z</time>
                <name>Position 2059</name>
            </trkpt>
            <trkpt lon="9.556824" lat="47.691846">
                <ele>414.73262976000296</ele>
                <time>2012-05-17T18:49:42.000Z</time>
                <name>Position 2060</name>
            </trkpt>
            <trkpt lon="9.556702" lat="47.691997">
                <ele>414.63920735999966</ele>
                <time>2012-05-17T18:49:49.000Z</time>
                <name>Position 2061</name>
            </trkpt>
            <trkpt lon="9.556647" lat="47.692148">
                <ele>414.358431359993</ele>
                <time>2012-05-17T18:49:56.000Z</time>
                <name>Position 2062</name>
            </trkpt>
            <trkpt lon="9.556621" lat="47.692304">
                <ele>414.0123110400004</ele>
                <time>2012-05-17T18:50:02.000Z</time>
                <name>Position 2063</name>
            </trkpt>
            <trkpt lon="9.556617" lat="47.692438">
                <ele>413.7039657599947</ele>
                <time>2012-05-17T18:50:07.000Z</time>
                <name>Position 2064</name>
            </trkpt>
            <trkpt lon="9.556602" lat="47.692574">
                <ele>413.66640000000086</ele>
                <time>2012-05-17T18:50:13.000Z</time>
                <name>Position 2065</name>
            </trkpt>
            <trkpt lon="9.556613" lat="47.692708">
                <ele>413.8140000000034</ele>
                <time>2012-05-17T18:50:18.000Z</time>
                <name>Position 2066</name>
            </trkpt>
            <trkpt lon="9.556762" lat="47.692786">
                <ele>413.80732415999694</ele>
                <time>2012-05-17T18:50:23.000Z</time>
                <name>Position 2067</name>
            </trkpt>
            <trkpt lon="9.556911" lat="47.692851">
                <ele>413.8749916799952</ele>
                <time>2012-05-17T18:50:28.000Z</time>
                <name>Position 2068</name>
            </trkpt>
            <trkpt lon="9.556938" lat="47.692997">
                <ele>414.1591756799968</ele>
                <time>2012-05-17T18:50:34.000Z</time>
                <name>Position 2069</name>
            </trkpt>
            <trkpt lon="9.556962" lat="47.693135">
                <ele>414.4477055999962</ele>
                <time>2012-05-17T18:50:39.000Z</time>
                <name>Position 2070</name>
            </trkpt>
            <trkpt lon="9.556995" lat="47.693254">
                <ele>414.7237824000072</ele>
                <time>2012-05-17T18:50:44.000Z</time>
                <name>Position 2071</name>
            </trkpt>
            <trkpt lon="9.557009" lat="47.693388">
                <ele>415.0150515199984</ele>
                <time>2012-05-17T18:50:50.000Z</time>
                <name>Position 2072</name>
            </trkpt>
            <trkpt lon="9.557031" lat="47.693514">
                <ele>415.27601504000086</ele>
                <time>2012-05-17T18:50:55.000Z</time>
                <name>Position 2073</name>
            </trkpt>
            <trkpt lon="9.557033" lat="47.693622">
                <ele>415.4801225599961</ele>
                <time>2012-05-17T18:50:59.000Z</time>
                <name>Position 2074</name>
            </trkpt>
            <trkpt lon="9.557038" lat="47.693736">
                <ele>415.69668608000245</ele>
                <time>2012-05-17T18:51:04.000Z</time>
                <name>Position 2075</name>
            </trkpt>
            <trkpt lon="9.556985" lat="47.693823">
                <ele>415.8327368000031</ele>
                <time>2012-05-17T18:51:07.000Z</time>
                <name>Position 2076</name>
            </trkpt>
            <trkpt lon="9.556801" lat="47.693851">
                <ele>415.80346256000485</ele>
                <time>2012-05-17T18:51:12.000Z</time>
                <name>Position 2077</name>
            </trkpt>
            <trkpt lon="9.556591" lat="47.693881">
                <ele>415.72617871999375</ele>
                <time>2012-05-17T18:51:18.000Z</time>
                <name>Position 2078</name>
            </trkpt>
            <trkpt lon="9.556412" lat="47.693998">
                <ele>415.6695603200004</ele>
                <time>2012-05-17T18:51:25.000Z</time>
                <name>Position 2079</name>
            </trkpt>
            <trkpt lon="9.5563" lat="47.694169">
                <ele>415.61159999999245</ele>
                <time>2012-05-17T18:51:32.000Z</time>
                <name>Position 2080</name>
            </trkpt>
            <trkpt lon="9.556305" lat="47.694324">
                <ele>415.06559999999394</ele>
                <time>2012-05-17T18:51:39.000Z</time>
                <name>Position 2081</name>
            </trkpt>
            <trkpt lon="9.556426" lat="47.694456">
                <ele>414.88079999999155</ele>
                <time>2012-05-17T18:51:45.000Z</time>
                <name>Position 2082</name>
            </trkpt>
            <trkpt lon="9.556531" lat="47.694635">
                <ele>414.488400000006</ele>
                <time>2012-05-17T18:51:52.000Z</time>
                <name>Position 2083</name>
            </trkpt>
            <trkpt lon="9.556621" lat="47.694815">
                <ele>414.0564000000053</ele>
                <time>2012-05-17T18:52:00.000Z</time>
                <name>Position 2084</name>
            </trkpt>
            <trkpt lon="9.556694" lat="47.694976">
                <ele>413.65011072001136</ele>
                <time>2012-05-17T18:52:07.000Z</time>
                <name>Position 2085</name>
            </trkpt>
            <trkpt lon="9.556751" lat="47.695132">
                <ele>413.1008601599962</ele>
                <time>2012-05-17T18:52:13.000Z</time>
                <name>Position 2086</name>
            </trkpt>
            <trkpt lon="9.556833" lat="47.69528">
                <ele>412.68933120001145</ele>
                <time>2012-05-17T18:52:20.000Z</time>
                <name>Position 2087</name>
            </trkpt>
            <trkpt lon="9.556982" lat="47.695358">
                <ele>412.86352128000334</ele>
                <time>2012-05-17T18:52:25.000Z</time>
                <name>Position 2088</name>
            </trkpt>
            <trkpt lon="9.557183" lat="47.695366">
                <ele>413.52665664000085</ele>
                <time>2012-05-17T18:52:30.000Z</time>
                <name>Position 2089</name>
            </trkpt>
            <trkpt lon="9.557354" lat="47.695352">
                <ele>414.15679104000105</ele>
                <time>2012-05-17T18:52:35.000Z</time>
                <name>Position 2090</name>
            </trkpt>
            <trkpt lon="9.557422" lat="47.695377">
                <ele>414.32331072000096</ele>
                <time>2012-05-17T18:52:37.000Z</time>
                <name>Position 2091</name>
            </trkpt>
            <trkpt lon="9.557457" lat="47.695502">
                <ele>414.12983232000363</ele>
                <time>2012-05-17T18:52:42.000Z</time>
                <name>Position 2092</name>
            </trkpt>
            <trkpt lon="9.557483" lat="47.695647">
                <ele>413.8747228799952</ele>
                <time>2012-05-17T18:52:48.000Z</time>
                <name>Position 2093</name>
            </trkpt>
            <trkpt lon="9.557517" lat="47.695825">
                <ele>413.4184079999978</ele>
                <time>2012-05-17T18:52:55.000Z</time>
                <name>Position 2094</name>
            </trkpt>
            <trkpt lon="9.557565" lat="47.696001">
                <ele>413.12569359999844</ele>
                <time>2012-05-17T18:53:02.000Z</time>
                <name>Position 2095</name>
            </trkpt>
            <trkpt lon="9.557568" lat="47.696143">
                <ele>413.1223225600008</ele>
                <time>2012-05-17T18:53:08.000Z</time>
                <name>Position 2096</name>
            </trkpt>
            <trkpt lon="9.557568" lat="47.696272">
                <ele>413.13495424000087</ele>
                <time>2012-05-17T18:53:13.000Z</time>
                <name>Position 2097</name>
            </trkpt>
            <trkpt lon="9.557594" lat="47.696405">
                <ele>413.01338080000016</ele>
                <time>2012-05-17T18:53:18.000Z</time>
                <name>Position 2098</name>
            </trkpt>
            <trkpt lon="9.557641" lat="47.696529">
                <ele>412.7952481599982</ele>
                <time>2012-05-17T18:53:23.000Z</time>
                <name>Position 2099</name>
            </trkpt>
            <trkpt lon="9.557672" lat="47.696635">
                <ele>412.6665567999993</ele>
                <time>2012-05-17T18:53:28.000Z</time>
                <name>Position 2100</name>
            </trkpt>
            <trkpt lon="9.557693" lat="47.696708">
                <ele>412.4707494399955</ele>
                <time>2012-05-17T18:53:31.000Z</time>
                <name>Position 2101</name>
            </trkpt>
            <trkpt lon="9.557805" lat="47.696897">
                <ele>411.6114495999998</ele>
                <time>2012-05-17T18:53:39.000Z</time>
                <name>Position 2102</name>
            </trkpt>
            <trkpt lon="9.55788" lat="47.697025">
                <ele>411.17032000000273</ele>
                <time>2012-05-17T18:53:44.000Z</time>
                <name>Position 2103</name>
            </trkpt>
            <trkpt lon="9.557961" lat="47.697184">
                <ele>410.79850623999886</ele>
                <time>2012-05-17T18:53:51.000Z</time>
                <name>Position 2104</name>
            </trkpt>
            <trkpt lon="9.558019" lat="47.6973">
                <ele>410.6221120000011</ele>
                <time>2012-05-17T18:53:56.000Z</time>
                <name>Position 2105</name>
            </trkpt>
            <trkpt lon="9.558124" lat="47.697457">
                <ele>410.50024768000014</ele>
                <time>2012-05-17T18:54:03.000Z</time>
                <name>Position 2106</name>
            </trkpt>
            <trkpt lon="9.558218" lat="47.697603">
                <ele>410.8365875200028</ele>
                <time>2012-05-17T18:54:09.000Z</time>
                <name>Position 2107</name>
            </trkpt>
            <trkpt lon="9.558278" lat="47.697737">
                <ele>411.3154316799876</ele>
                <time>2012-05-17T18:54:15.000Z</time>
                <name>Position 2108</name>
            </trkpt>
            <trkpt lon="9.558346" lat="47.697898">
                <ele>411.95525952000804</ele>
                <time>2012-05-17T18:54:22.000Z</time>
                <name>Position 2109</name>
            </trkpt>
            <trkpt lon="9.558423" lat="47.698039">
                <ele>412.61759568000406</ele>
                <time>2012-05-17T18:54:28.000Z</time>
                <name>Position 2110</name>
            </trkpt>
            <trkpt lon="9.558504" lat="47.698198">
                <ele>413.38914047999003</ele>
                <time>2012-05-17T18:54:34.000Z</time>
                <name>Position 2111</name>
            </trkpt>
            <trkpt lon="9.558559" lat="47.698319">
                <ele>413.9853422399934</ele>
                <time>2012-05-17T18:54:39.000Z</time>
                <name>Position 2112</name>
            </trkpt>
            <trkpt lon="9.55864" lat="47.698443">
                <ele>414.367599999998</ele>
                <time>2012-05-17T18:54:45.000Z</time>
                <name>Position 2113</name>
            </trkpt>
            <trkpt lon="9.55873" lat="47.698576">
                <ele>414.74320000000466</ele>
                <time>2012-05-17T18:54:51.000Z</time>
                <name>Position 2114</name>
            </trkpt>
            <trkpt lon="9.55884" lat="47.698669">
                <ele>415.1188000000028</ele>
                <time>2012-05-17T18:54:55.000Z</time>
                <name>Position 2115</name>
            </trkpt>
            <trkpt lon="9.558921" lat="47.698685">
                <ele>415.3323999999964</ele>
                <time>2012-05-17T18:54:58.000Z</time>
                <name>Position 2116</name>
            </trkpt>
            <trkpt lon="9.558954" lat="47.698791">
                <ele>415.5387999999997</ele>
                <time>2012-05-17T18:55:02.000Z</time>
                <name>Position 2117</name>
            </trkpt>
            <trkpt lon="9.558917" lat="47.698878">
                <ele>415.5543999999987</ele>
                <time>2012-05-17T18:55:06.000Z</time>
                <name>Position 2118</name>
            </trkpt>
            <trkpt lon="9.558775" lat="47.698933">
                <ele>415.2795999999976</ele>
                <time>2012-05-17T18:55:10.000Z</time>
                <name>Position 2119</name>
            </trkpt>
            <trkpt lon="9.558681" lat="47.698999">
                <ele>415.13320000000056</ele>
                <time>2012-05-17T18:55:14.000Z</time>
                <name>Position 2120</name>
            </trkpt>
            <trkpt lon="9.558694" lat="47.699069">
                <ele>415.2483999999996</ele>
                <time>2012-05-17T18:55:17.000Z</time>
                <name>Position 2121</name>
            </trkpt>
            <trkpt lon="9.558736" lat="47.699161">
                <ele>415.459599999995</ele>
                <time>2012-05-17T18:55:20.000Z</time>
                <name>Position 2122</name>
            </trkpt>
            <trkpt lon="9.558788" lat="47.699251">
                <ele>415.54521472000135</ele>
                <time>2012-05-17T18:55:24.000Z</time>
                <name>Position 2123</name>
            </trkpt>
            <trkpt lon="9.558835" lat="47.699356">
                <ele>415.6135743999997</ele>
                <time>2012-05-17T18:55:29.000Z</time>
                <name>Position 2124</name>
            </trkpt>
            <trkpt lon="9.558863" lat="47.699468">
                <ele>415.6394329600002</ele>
                <time>2012-05-17T18:55:33.000Z</time>
                <name>Position 2125</name>
            </trkpt>
            <trkpt lon="9.558899" lat="47.699599">
                <ele>415.69096144000105</ele>
                <time>2012-05-17T18:55:39.000Z</time>
                <name>Position 2126</name>
            </trkpt>
            <trkpt lon="9.558929" lat="47.699733">
                <ele>415.73577807999646</ele>
                <time>2012-05-17T18:55:44.000Z</time>
                <name>Position 2127</name>
            </trkpt>
            <trkpt lon="9.558982" lat="47.69987">
                <ele>415.8697696000018</ele>
                <time>2012-05-17T18:55:50.000Z</time>
                <name>Position 2128</name>
            </trkpt>
            <trkpt lon="9.559044" lat="47.699981">
                <ele>416.06175616000013</ele>
                <time>2012-05-17T18:55:54.000Z</time>
                <name>Position 2129</name>
            </trkpt>
            <trkpt lon="9.559108" lat="47.700098">
                <ele>416.0618790400076</ele>
                <time>2012-05-17T18:55:59.000Z</time>
                <name>Position 2130</name>
            </trkpt>
            <trkpt lon="9.559174" lat="47.70021">
                <ele>416.0025824000043</ele>
                <time>2012-05-17T18:56:04.000Z</time>
                <name>Position 2131</name>
            </trkpt>
            <trkpt lon="9.559268" lat="47.700338">
                <ele>415.76107903999434</ele>
                <time>2012-05-17T18:56:10.000Z</time>
                <name>Position 2132</name>
            </trkpt>
            <trkpt lon="9.559382" lat="47.700432">
                <ele>415.5876454400018</ele>
                <time>2012-05-17T18:56:15.000Z</time>
                <name>Position 2133</name>
            </trkpt>
            <trkpt lon="9.559505" lat="47.700494">
                <ele>415.47972320000275</ele>
                <time>2012-05-17T18:56:19.000Z</time>
                <name>Position 2134</name>
            </trkpt>
            <trkpt lon="9.559584" lat="47.70054">
                <ele>415.38028160001</ele>
                <time>2012-05-17T18:56:22.000Z</time>
                <name>Position 2135</name>
            </trkpt>
            <trkpt lon="9.559659" lat="47.700589">
                <ele>415.2596225599977</ele>
                <time>2012-05-17T18:56:25.000Z</time>
                <name>Position 2136</name>
            </trkpt>
            <trkpt lon="9.559687" lat="47.700699">
                <ele>414.9230532799997</ele>
                <time>2012-05-17T18:56:29.000Z</time>
                <name>Position 2137</name>
            </trkpt>
            <trkpt lon="9.559742" lat="47.700854">
                <ele>414.49232192000017</ele>
                <time>2012-05-17T18:56:35.000Z</time>
                <name>Position 2138</name>
            </trkpt>
            <trkpt lon="9.559839" lat="47.701001">
                <ele>414.46112816000056</ele>
                <time>2012-05-17T18:56:42.000Z</time>
                <name>Position 2139</name>
            </trkpt>
            <trkpt lon="9.559907" lat="47.70115">
                <ele>414.4575920000006</ele>
                <time>2012-05-17T18:56:48.000Z</time>
                <name>Position 2140</name>
            </trkpt>
            <trkpt lon="9.559986" lat="47.70129">
                <ele>414.4907936000002</ele>
                <time>2012-05-17T18:56:54.000Z</time>
                <name>Position 2141</name>
            </trkpt>
            <trkpt lon="9.560024" lat="47.701422">
                <ele>414.50845568000005</ele>
                <time>2012-05-17T18:56:59.000Z</time>
                <name>Position 2142</name>
            </trkpt>
            <trkpt lon="9.560087" lat="47.701545">
                <ele>414.5152423999995</ele>
                <time>2012-05-17T18:57:05.000Z</time>
                <name>Position 2143</name>
            </trkpt>
            <trkpt lon="9.560149" lat="47.701662">
                <ele>414.50100128000025</ele>
                <time>2012-05-17T18:57:10.000Z</time>
                <name>Position 2144</name>
            </trkpt>
            <trkpt lon="9.560193" lat="47.701755">
                <ele>414.687450399997</ele>
                <time>2012-05-17T18:57:14.000Z</time>
                <name>Position 2145</name>
            </trkpt>
            <trkpt lon="9.560208" lat="47.701843">
                <ele>414.8703846399932</ele>
                <time>2012-05-17T18:57:17.000Z</time>
                <name>Position 2146</name>
            </trkpt>
            <trkpt lon="9.560178" lat="47.701891">
                <ele>414.9808988800071</ele>
                <time>2012-05-17T18:57:19.000Z</time>
                <name>Position 2147</name>
            </trkpt>
            <trkpt lon="9.560097" lat="47.70198">
                <ele>415.2082335999973</ele>
                <time>2012-05-17T18:57:23.000Z</time>
                <name>Position 2148</name>
            </trkpt>
            <trkpt lon="9.559985" lat="47.702046">
                <ele>415.4005936000064</ele>
                <time>2012-05-17T18:57:27.000Z</time>
                <name>Position 2149</name>
            </trkpt>
            <trkpt lon="9.55983" lat="47.702084">
                <ele>415.39976319999795</ele>
                <time>2012-05-17T18:57:32.000Z</time>
                <name>Position 2150</name>
            </trkpt>
            <trkpt lon="9.559672" lat="47.702121">
                <ele>415.4113907199953</ele>
                <time>2012-05-17T18:57:36.000Z</time>
                <name>Position 2151</name>
            </trkpt>
            <trkpt lon="9.559515" lat="47.702152">
                <ele>415.4217567999938</ele>
                <time>2012-05-17T18:57:41.000Z</time>
                <name>Position 2152</name>
            </trkpt>
            <trkpt lon="9.559348" lat="47.702198">
                <ele>415.4916582400092</ele>
                <time>2012-05-17T18:57:46.000Z</time>
                <name>Position 2153</name>
            </trkpt>
            <trkpt lon="9.55918" lat="47.702231">
                <ele>415.53676479999126</ele>
                <time>2012-05-17T18:57:50.000Z</time>
                <name>Position 2154</name>
            </trkpt>
            <trkpt lon="9.558976" lat="47.702216">
                <ele>415.33190015999946</ele>
                <time>2012-05-17T18:57:56.000Z</time>
                <name>Position 2155</name>
            </trkpt>
            <trkpt lon="9.558814" lat="47.702127">
                <ele>415.0684972799957</ele>
                <time>2012-05-17T18:58:01.000Z</time>
                <name>Position 2156</name>
            </trkpt>
            <trkpt lon="9.558737" lat="47.701981">
                <ele>414.8848627200035</ele>
                <time>2012-05-17T18:58:08.000Z</time>
                <name>Position 2157</name>
            </trkpt>
            <trkpt lon="9.558632" lat="47.701842">
                <ele>414.8744294400005</ele>
                <time>2012-05-17T18:58:14.000Z</time>
                <name>Position 2158</name>
            </trkpt>
            <trkpt lon="9.558537" lat="47.701773">
                <ele>415.00834176000103</ele>
                <time>2012-05-17T18:58:18.000Z</time>
                <name>Position 2159</name>
            </trkpt>
            <trkpt lon="9.558391" lat="47.70179">
                <ele>415.25456639999726</ele>
                <time>2012-05-17T18:58:22.000Z</time>
                <name>Position 2160</name>
            </trkpt>
            <trkpt lon="9.558294" lat="47.701926">
                <ele>415.1887999999997</ele>
                <time>2012-05-17T18:58:28.000Z</time>
                <name>Position 2161</name>
            </trkpt>
            <trkpt lon="9.558218" lat="47.70204">
                <ele>415.052000000004</ele>
                <time>2012-05-17T18:58:33.000Z</time>
                <name>Position 2162</name>
            </trkpt>
            <trkpt lon="9.558161" lat="47.702173">
                <ele>414.8923999999977</ele>
                <time>2012-05-17T18:58:38.000Z</time>
                <name>Position 2163</name>
            </trkpt>
            <trkpt lon="9.558072" lat="47.702335">
                <ele>414.6980000000025</ele>
                <time>2012-05-17T18:58:45.000Z</time>
                <name>Position 2164</name>
            </trkpt>
            <trkpt lon="9.557932" lat="47.702514">
                <ele>414.39110911999427</ele>
                <time>2012-05-17T18:58:53.000Z</time>
                <name>Position 2165</name>
            </trkpt>
            <trkpt lon="9.55768" lat="47.702694">
                <ele>412.92068479999153</ele>
                <time>2012-05-17T18:59:03.000Z</time>
                <name>Position 2166</name>
            </trkpt>
            <trkpt lon="9.557385" lat="47.702858">
                <ele>411.6706544000074</ele>
                <time>2012-05-17T18:59:13.000Z</time>
                <name>Position 2167</name>
            </trkpt>
            <trkpt lon="9.557144" lat="47.703025">
                <ele>410.8974080000249</ele>
                <time>2012-05-17T18:59:23.000Z</time>
                <name>Position 2168</name>
            </trkpt>
            <trkpt lon="9.556948" lat="47.703207">
                <ele>410.2471404800055</ele>
                <time>2012-05-17T18:59:32.000Z</time>
                <name>Position 2169</name>
            </trkpt>
            <trkpt lon="9.55674" lat="47.703391">
                <ele>410.17288959999814</ele>
                <time>2012-05-17T18:59:41.000Z</time>
                <name>Position 2170</name>
            </trkpt>
            <trkpt lon="9.556543" lat="47.703567">
                <ele>410.0711999999999</ele>
                <time>2012-05-17T18:59:50.000Z</time>
                <name>Position 2171</name>
            </trkpt>
            <trkpt lon="9.556333" lat="47.703732">
                <ele>409.62119999999777</ele>
                <time>2012-05-17T18:59:59.000Z</time>
                <name>Position 2172</name>
            </trkpt>
            <trkpt lon="9.556191" lat="47.703922">
                <ele>409.22280000000177</ele>
                <time>2012-05-17T19:00:07.000Z</time>
                <name>Position 2173</name>
            </trkpt>
            <trkpt lon="9.556161" lat="47.70413">
                <ele>408.93720000000025</ele>
                <time>2012-05-17T19:00:15.000Z</time>
                <name>Position 2174</name>
            </trkpt>
            <trkpt lon="9.556196" lat="47.704325">
                <ele>408.66251200000477</ele>
                <time>2012-05-17T19:00:23.000Z</time>
                <name>Position 2175</name>
            </trkpt>
            <trkpt lon="9.556295" lat="47.704515">
                <ele>408.4044279999991</ele>
                <time>2012-05-17T19:00:31.000Z</time>
                <name>Position 2176</name>
            </trkpt>
            <trkpt lon="9.556433" lat="47.704695">
                <ele>408.1293735999982</ele>
                <time>2012-05-17T19:00:39.000Z</time>
                <name>Position 2177</name>
            </trkpt>
            <trkpt lon="9.556572" lat="47.704876">
                <ele>407.78069632000285</ele>
                <time>2012-05-17T19:00:48.000Z</time>
                <name>Position 2178</name>
            </trkpt>
            <trkpt lon="9.556708" lat="47.705037">
                <ele>407.5</ele>
                <time>2012-05-17T19:00:55.000Z</time>
                <name>Position 2179</name>
            </trkpt>
            <trkpt lon="9.55685" lat="47.705219">
                <ele>407.5</ele>
                <time>2012-05-17T19:01:03.000Z</time>
                <name>Position 2180</name>
            </trkpt>
            <trkpt lon="9.556978" lat="47.705395">
                <ele>407.5</ele>
                <time>2012-05-17T19:01:11.000Z</time>
                <name>Position 2181</name>
            </trkpt>
            <trkpt lon="9.557116" lat="47.705557">
                <ele>407.5</ele>
                <time>2012-05-17T19:01:19.000Z</time>
                <name>Position 2182</name>
            </trkpt>
            <trkpt lon="9.557246" lat="47.705745">
                <ele>407.5</ele>
                <time>2012-05-17T19:01:27.000Z</time>
                <name>Position 2183</name>
            </trkpt>
            <trkpt lon="9.557373" lat="47.705921">
                <ele>407.7103999999913</ele>
                <time>2012-05-17T19:01:35.000Z</time>
                <name>Position 2184</name>
            </trkpt>
            <trkpt lon="9.5575" lat="47.706091">
                <ele>408.11840000000143</ele>
                <time>2012-05-17T19:01:42.000Z</time>
                <name>Position 2185</name>
            </trkpt>
            <trkpt lon="9.55763" lat="47.706268">
                <ele>408.3058304000037</ele>
                <time>2012-05-17T19:01:50.000Z</time>
                <name>Position 2186</name>
            </trkpt>
            <trkpt lon="9.557755" lat="47.706437">
                <ele>408.42113360000155</ele>
                <time>2012-05-17T19:01:58.000Z</time>
                <name>Position 2187</name>
            </trkpt>
            <trkpt lon="9.557882" lat="47.706613">
                <ele>408.48392095999634</ele>
                <time>2012-05-17T19:02:06.000Z</time>
                <name>Position 2188</name>
            </trkpt>
            <trkpt lon="9.55801" lat="47.706789">
                <ele>408.5784080000022</ele>
                <time>2012-05-17T19:02:13.000Z</time>
                <name>Position 2189</name>
            </trkpt>
            <trkpt lon="9.558098" lat="47.706968">
                <ele>409.0006208000106</ele>
                <time>2012-05-17T19:02:21.000Z</time>
                <name>Position 2190</name>
            </trkpt>
            <trkpt lon="9.558135" lat="47.707164">
                <ele>409.653007999996</ele>
                <time>2012-05-17T19:02:29.000Z</time>
                <name>Position 2191</name>
            </trkpt>
            <trkpt lon="9.55816" lat="47.707362">
                <ele>410.3858240000143</ele>
                <time>2012-05-17T19:02:37.000Z</time>
                <name>Position 2192</name>
            </trkpt>
            <trkpt lon="9.558171" lat="47.70756">
                <ele>410.8136767999978</ele>
                <time>2012-05-17T19:02:45.000Z</time>
                <name>Position 2193</name>
            </trkpt>
            <trkpt lon="9.558154" lat="47.707754">
                <ele>410.441578879998</ele>
                <time>2012-05-17T19:02:53.000Z</time>
                <name>Position 2194</name>
            </trkpt>
            <trkpt lon="9.558095" lat="47.707939">
                <ele>410.0403943999953</ele>
                <time>2012-05-17T19:03:00.000Z</time>
                <name>Position 2195</name>
            </trkpt>
            <trkpt lon="9.558023" lat="47.708125">
                <ele>409.7206999999977</ele>
                <time>2012-05-17T19:03:08.000Z</time>
                <name>Position 2196</name>
            </trkpt>
            <trkpt lon="9.55791" lat="47.708308">
                <ele>409.51447039999863</ele>
                <time>2012-05-17T19:03:16.000Z</time>
                <name>Position 2197</name>
            </trkpt>
            <trkpt lon="9.557781" lat="47.708479">
                <ele>410.0264276799891</ele>
                <time>2012-05-17T19:03:23.000Z</time>
                <name>Position 2198</name>
            </trkpt>
            <trkpt lon="9.55765" lat="47.708649">
                <ele>410.4621520000044</ele>
                <time>2012-05-17T19:03:31.000Z</time>
                <name>Position 2199</name>
            </trkpt>
            <trkpt lon="9.557532" lat="47.708807">
                <ele>410.70227968000063</ele>
                <time>2012-05-17T19:03:38.000Z</time>
                <name>Position 2200</name>
            </trkpt>
            <trkpt lon="9.557409" lat="47.708957">
                <ele>410.7783999999946</ele>
                <time>2012-05-17T19:03:45.000Z</time>
                <name>Position 2201</name>
            </trkpt>
            <trkpt lon="9.55728" lat="47.709128">
                <ele>410.87920000000014</ele>
                <time>2012-05-17T19:03:53.000Z</time>
                <name>Position 2202</name>
            </trkpt>
            <trkpt lon="9.557149" lat="47.709305">
                <ele>410.7275192000018</ele>
                <time>2012-05-17T19:04:01.000Z</time>
                <name>Position 2203</name>
            </trkpt>
            <trkpt lon="9.557018" lat="47.709482">
                <ele>410.56206655999944</ele>
                <time>2012-05-17T19:04:09.000Z</time>
                <name>Position 2204</name>
            </trkpt>
            <trkpt lon="9.556887" lat="47.709646">
                <ele>410.4519171199987</ele>
                <time>2012-05-17T19:04:16.000Z</time>
                <name>Position 2205</name>
            </trkpt>
            <trkpt lon="9.556754" lat="47.709804">
                <ele>410.39424895999764</ele>
                <time>2012-05-17T19:04:23.000Z</time>
                <name>Position 2206</name>
            </trkpt>
            <trkpt lon="9.556633" lat="47.709955">
                <ele>410.4438184000009</ele>
                <time>2012-05-17T19:04:30.000Z</time>
                <name>Position 2207</name>
            </trkpt>
            <trkpt lon="9.556509" lat="47.710099">
                <ele>410.9302460799979</ele>
                <time>2012-05-17T19:04:37.000Z</time>
                <name>Position 2208</name>
            </trkpt>
            <trkpt lon="9.556397" lat="47.71023">
                <ele>411.42537280001125</ele>
                <time>2012-05-17T19:04:43.000Z</time>
                <name>Position 2209</name>
            </trkpt>
            <trkpt lon="9.55627" lat="47.710355">
                <ele>411.7984479999987</ele>
                <time>2012-05-17T19:04:49.000Z</time>
                <name>Position 2210</name>
            </trkpt>
            <trkpt lon="9.556238" lat="47.710491">
                <ele>412.2506310399915</ele>
                <time>2012-05-17T19:04:54.000Z</time>
                <name>Position 2211</name>
            </trkpt>
            <trkpt lon="9.5564" lat="47.71058">
                <ele>412.8385600000005</ele>
                <time>2012-05-17T19:05:00.000Z</time>
                <name>Position 2212</name>
            </trkpt>
            <trkpt lon="9.556626" lat="47.710632">
                <ele>413.45958015998394</ele>
                <time>2012-05-17T19:05:06.000Z</time>
                <name>Position 2213</name>
            </trkpt>
            <trkpt lon="9.556865" lat="47.71069">
                <ele>415.23238399999747</ele>
                <time>2012-05-17T19:05:13.000Z</time>
                <name>Position 2214</name>
            </trkpt>
            <trkpt lon="9.557106" lat="47.710747">
                <ele>417.44829247997376</ele>
                <time>2012-05-17T19:05:20.000Z</time>
                <name>Position 2215</name>
            </trkpt>
            <trkpt lon="9.557329" lat="47.710793">
                <ele>419.63919008001864</ele>
                <time>2012-05-17T19:05:26.000Z</time>
                <name>Position 2216</name>
            </trkpt>
            <trkpt lon="9.557531" lat="47.710802">
                <ele>421.31000000001694</ele>
                <time>2012-05-17T19:05:32.000Z</time>
                <name>Position 2217</name>
            </trkpt>
            <trkpt lon="9.557697" lat="47.710775">
                <ele>421.98199999997234</ele>
                <time>2012-05-17T19:05:37.000Z</time>
                <name>Position 2218</name>
            </trkpt>
            <trkpt lon="9.557824" lat="47.71075">
                <ele>422.4439999999676</ele>
                <time>2012-05-17T19:05:40.000Z</time>
                <name>Position 2219</name>
            </trkpt>
            <trkpt lon="9.557966" lat="47.71072">
                <ele>422.93600000002573</ele>
                <time>2012-05-17T19:05:44.000Z</time>
                <name>Position 2220</name>
            </trkpt>
            <trkpt lon="9.558122" lat="47.710682">
                <ele>423.4159999999756</ele>
                <time>2012-05-17T19:05:49.000Z</time>
                <name>Position 2221</name>
            </trkpt>
            <trkpt lon="9.558293" lat="47.710667">
                <ele>424.2620000000139</ele>
                <time>2012-05-17T19:05:53.000Z</time>
                <name>Position 2222</name>
            </trkpt>
            <trkpt lon="9.558444" lat="47.710663">
                <ele>424.66731135995803</ele>
                <time>2012-05-17T19:05:57.000Z</time>
                <name>Position 2223</name>
            </trkpt>
            <trkpt lon="9.558547" lat="47.710682">
                <ele>425.10367551998144</ele>
                <time>2012-05-17T19:06:00.000Z</time>
                <name>Position 2224</name>
            </trkpt>
            <trkpt lon="9.558571" lat="47.710713">
                <ele>425.5440342399796</ele>
                <time>2012-05-17T19:06:02.000Z</time>
                <name>Position 2225</name>
            </trkpt>
            <trkpt lon="9.558543" lat="47.710762">
                <ele>426.1041260800318</ele>
                <time>2012-05-17T19:06:04.000Z</time>
                <name>Position 2226</name>
            </trkpt>
            <trkpt lon="9.558493" lat="47.710831">
                <ele>426.8541270399859</ele>
                <time>2012-05-17T19:06:07.000Z</time>
                <name>Position 2227</name>
            </trkpt>
            <trkpt lon="9.558464" lat="47.710898">
                <ele>427.35680000000303</ele>
                <time>2012-05-17T19:06:10.000Z</time>
                <name>Position 2228</name>
            </trkpt>
            <trkpt lon="9.558456" lat="47.710976">
                <ele>427.9928000000173</ele>
                <time>2012-05-17T19:06:13.000Z</time>
                <name>Position 2229</name>
            </trkpt>
            <trkpt lon="9.558427" lat="47.711043">
                <ele>428.4859999999701</ele>
                <time>2012-05-17T19:06:15.000Z</time>
                <name>Position 2230</name>
            </trkpt>
            <trkpt lon="9.558408" lat="47.711071">
                <ele>428.67559999997314</ele>
                <time>2012-05-17T19:06:17.000Z</time>
                <name>Position 2231</name>
            </trkpt>
            <trkpt lon="9.558397" lat="47.711137">
                <ele>429.2036000000043</ele>
                <time>2012-05-17T19:06:19.000Z</time>
                <name>Position 2232</name>
            </trkpt>
            <trkpt lon="9.558388" lat="47.711175">
                <ele>429.5011999999777</ele>
                <time>2012-05-17T19:06:21.000Z</time>
                <name>Position 2233</name>
            </trkpt>
            <trkpt lon="9.558323" lat="47.71127">
                <ele>430.1254927999891</ele>
                <time>2012-05-17T19:06:25.000Z</time>
                <name>Position 2234</name>
            </trkpt>
            <trkpt lon="9.558277" lat="47.711377">
                <ele>430.8611067199903</ele>
                <time>2012-05-17T19:06:30.000Z</time>
                <name>Position 2235</name>
            </trkpt>
            <trkpt lon="9.558284" lat="47.711504">
                <ele>431.9805324799826</ele>
                <time>2012-05-17T19:06:35.000Z</time>
                <name>Position 2236</name>
            </trkpt>
            <trkpt lon="9.558301" lat="47.711675">
                <ele>433.4027880000013</ele>
                <time>2012-05-17T19:06:41.000Z</time>
                <name>Position 2237</name>
            </trkpt>
            <trkpt lon="9.55831" lat="47.711784">
                <ele>433.1663423999976</ele>
                <time>2012-05-17T19:06:46.000Z</time>
                <name>Position 2238</name>
            </trkpt>
            <trkpt lon="9.558295" lat="47.711908">
                <ele>432.84212159999606</ele>
                <time>2012-05-17T19:06:51.000Z</time>
                <name>Position 2239</name>
            </trkpt>
            <trkpt lon="9.558274" lat="47.712024">
                <ele>432.5305305600026</ele>
                <time>2012-05-17T19:06:56.000Z</time>
                <name>Position 2240</name>
            </trkpt>
            <trkpt lon="9.558265" lat="47.712115">
                <ele>432.30411600000735</ele>
                <time>2012-05-17T19:06:59.000Z</time>
                <name>Position 2241</name>
            </trkpt>
            <trkpt lon="9.558217" lat="47.712204">
                <ele>432.02121408000176</ele>
                <time>2012-05-17T19:07:03.000Z</time>
                <name>Position 2242</name>
            </trkpt>
            <trkpt lon="9.558171" lat="47.712329">
                <ele>431.6756270400064</ele>
                <time>2012-05-17T19:07:08.000Z</time>
                <name>Position 2243</name>
            </trkpt>
            <trkpt lon="9.558134" lat="47.712504">
                <ele>431.2448371199903</ele>
                <time>2012-05-17T19:07:15.000Z</time>
                <name>Position 2244</name>
            </trkpt>
            <trkpt lon="9.558091" lat="47.71266">
                <ele>430.6400352000017</ele>
                <time>2012-05-17T19:07:22.000Z</time>
                <name>Position 2245</name>
            </trkpt>
            <trkpt lon="9.558038" lat="47.712759">
                <ele>430.36263264000524</ele>
                <time>2012-05-17T19:07:26.000Z</time>
                <name>Position 2246</name>
            </trkpt>
            <trkpt lon="9.55799" lat="47.71286">
                <ele>430.1738880000017</ele>
                <time>2012-05-17T19:07:30.000Z</time>
                <name>Position 2247</name>
            </trkpt>
            <trkpt lon="9.557953" lat="47.712934">
                <ele>430.103451840008</ele>
                <time>2012-05-17T19:07:33.000Z</time>
                <name>Position 2248</name>
            </trkpt>
            <trkpt lon="9.557936" lat="47.712993">
                <ele>430.03972416000624</ele>
                <time>2012-05-17T19:07:36.000Z</time>
                <name>Position 2249</name>
            </trkpt>
            <trkpt lon="9.557912" lat="47.713186">
                <ele>429.79186943999963</ele>
                <time>2012-05-17T19:07:43.000Z</time>
                <name>Position 2250</name>
            </trkpt>
            <trkpt lon="9.557928" lat="47.713363">
                <ele>429.3625791999949</ele>
                <time>2012-05-17T19:07:50.000Z</time>
                <name>Position 2251</name>
            </trkpt>
            <trkpt lon="9.557899" lat="47.713548">
                <ele>429.268105599988</ele>
                <time>2012-05-17T19:07:58.000Z</time>
                <name>Position 2252</name>
            </trkpt>
            <trkpt lon="9.557906" lat="47.713681">
                <ele>428.9777008000066</ele>
                <time>2012-05-17T19:08:03.000Z</time>
                <name>Position 2253</name>
            </trkpt>
            <trkpt lon="9.557911" lat="47.713801">
                <ele>428.7180807999985</ele>
                <time>2012-05-17T19:08:08.000Z</time>
                <name>Position 2254</name>
            </trkpt>
            <trkpt lon="9.557942" lat="47.713925">
                <ele>428.1446799999867</ele>
                <time>2012-05-17T19:08:13.000Z</time>
                <name>Position 2255</name>
            </trkpt>
            <trkpt lon="9.557966" lat="47.714024">
                <ele>427.65627519999083</ele>
                <time>2012-05-17T19:08:17.000Z</time>
                <name>Position 2256</name>
            </trkpt>
            <trkpt lon="9.55797" lat="47.714113">
                <ele>427.4132080000158</ele>
                <time>2012-05-17T19:08:21.000Z</time>
                <name>Position 2257</name>
            </trkpt>
            <trkpt lon="9.557973" lat="47.714215">
                <ele>427.214083199991</ele>
                <time>2012-05-17T19:08:25.000Z</time>
                <name>Position 2258</name>
            </trkpt>
            <trkpt lon="9.557966" lat="47.714248">
                <ele>427.27431167999686</ele>
                <time>2012-05-17T19:08:26.000Z</time>
                <name>Position 2259</name>
            </trkpt>
            <trkpt lon="9.55803" lat="47.714319">
                <ele>426.4206431999924</ele>
                <time>2012-05-17T19:08:29.000Z</time>
                <name>Position 2260</name>
            </trkpt>
            <trkpt lon="9.558072" lat="47.714445">
                <ele>425.8646304000095</ele>
                <time>2012-05-17T19:08:34.000Z</time>
                <name>Position 2261</name>
            </trkpt>
            <trkpt lon="9.558096" lat="47.71456">
                <ele>425.5670975999913</ele>
                <time>2012-05-17T19:08:39.000Z</time>
                <name>Position 2262</name>
            </trkpt>
            <trkpt lon="9.55809" lat="47.714669">
                <ele>425.6107296000001</ele>
                <time>2012-05-17T19:08:43.000Z</time>
                <name>Position 2263</name>
            </trkpt>
            <trkpt lon="9.55807" lat="47.714734">
                <ele>425.79626879999273</ele>
                <time>2012-05-17T19:08:46.000Z</time>
                <name>Position 2264</name>
            </trkpt>
            <trkpt lon="9.558035" lat="47.71481">
                <ele>426.10449599999737</ele>
                <time>2012-05-17T19:08:49.000Z</time>
                <name>Position 2265</name>
            </trkpt>
            <trkpt lon="9.557998" lat="47.714909">
                <ele>426.383368320005</ele>
                <time>2012-05-17T19:08:53.000Z</time>
                <name>Position 2266</name>
            </trkpt>
            <trkpt lon="9.558016" lat="47.714952">
                <ele>426.1957363199996</ele>
                <time>2012-05-17T19:08:55.000Z</time>
                <name>Position 2267</name>
            </trkpt>
            <trkpt lon="9.558013" lat="47.714939">
                <ele>426.23015231999267</ele>
                <time>2012-05-17T19:08:56.000Z</time>
                <name>Position 2268</name>
            </trkpt>
            <trkpt lon="9.558" lat="47.714946">
                <ele>426.3388800000032</ele>
                <time>2012-05-17T19:08:56.000Z</time>
                <name>Position 2269</name>
            </trkpt>
            <trkpt lon="9.557983" lat="47.714968">
                <ele>426.4689734399999</ele>
                <time>2012-05-17T19:08:57.000Z</time>
                <name>Position 2270</name>
            </trkpt>
            <trkpt lon="9.557961" lat="47.714996">
                <ele>426.63137855999565</ele>
                <time>2012-05-17T19:08:58.000Z</time>
                <name>Position 2271</name>
            </trkpt>
            <trkpt lon="9.557959" lat="47.715036">
                <ele>426.0828000000331</ele>
                <time>2012-05-17T19:09:00.000Z</time>
                <name>Position 2272</name>
            </trkpt>
            <trkpt lon="9.557963" lat="47.715055">
                <ele>425.75280000000083</ele>
                <time>2012-05-17T19:09:01.000Z</time>
                <name>Position 2273</name>
            </trkpt>
            <trkpt lon="9.557981" lat="47.715067">
                <ele>425.4144000000388</ele>
                <time>2012-05-17T19:09:01.000Z</time>
                <name>Position 2274</name>
            </trkpt>
            <trkpt lon="9.557968" lat="47.715068">
                <ele>425.50799999996025</ele>
                <time>2012-05-17T19:09:02.000Z</time>
                <name>Position 2275</name>
            </trkpt>
            <trkpt lon="9.557985" lat="47.71508">
                <ele>425.1779999999919</ele>
                <time>2012-05-17T19:09:03.000Z</time>
                <name>Position 2276</name>
            </trkpt>
            <trkpt lon="9.557974" lat="47.715094">
                <ele>425.05199999999456</ele>
                <time>2012-05-17T19:09:03.000Z</time>
                <name>Position 2277</name>
            </trkpt>
            <trkpt lon="9.557976" lat="47.7151">
                <ele>424.9416000000068</ele>
                <time>2012-05-17T19:09:03.000Z</time>
                <name>Position 2278</name>
            </trkpt>
            <trkpt lon="9.557952" lat="47.715103">
                <ele>425.09640000001247</ele>
                <time>2012-05-17T19:09:04.000Z</time>
                <name>Position 2279</name>
            </trkpt>
            <trkpt lon="9.557939" lat="47.715104">
                <ele>425.1900000000597</ele>
                <time>2012-05-17T19:09:04.000Z</time>
                <name>Position 2280</name>
            </trkpt>
            <trkpt lon="9.557928" lat="47.715106">
                <ele>425.2512000000181</ele>
                <time>2012-05-17T19:09:05.000Z</time>
                <name>Position 2281</name>
            </trkpt>
            <trkpt lon="9.55795" lat="47.715084">
                <ele>425.4096000000424</ele>
                <time>2012-05-17T19:09:06.000Z</time>
                <name>Position 2282</name>
            </trkpt>
            <trkpt lon="9.557972" lat="47.715057">
                <ele>425.6459999999806</ele>
                <time>2012-05-17T19:09:07.000Z</time>
                <name>Position 2283</name>
            </trkpt>
            <trkpt lon="9.558" lat="47.715015">
                <ele>426.065999999986</ele>
                <time>2012-05-17T19:09:09.000Z</time>
                <name>Position 2284</name>
            </trkpt>
            <trkpt lon="9.558062" lat="47.714938">
                <ele>425.80169856000464</ele>
                <time>2012-05-17T19:09:12.000Z</time>
                <name>Position 2285</name>
            </trkpt>
            <trkpt lon="9.55816" lat="47.714891">
                <ele>424.93402559999237</ele>
                <time>2012-05-17T19:09:16.000Z</time>
                <name>Position 2286</name>
            </trkpt>
            <trkpt lon="9.558313" lat="47.714838">
                <ele>423.4953734399997</ele>
                <time>2012-05-17T19:09:20.000Z</time>
                <name>Position 2287</name>
            </trkpt>
            <trkpt lon="9.558458" lat="47.71482">
                <ele>422.9201728000051</ele>
                <time>2012-05-17T19:09:24.000Z</time>
                <name>Position 2288</name>
            </trkpt>
            <trkpt lon="9.558611" lat="47.714776">
                <ele>422.3856716799984</ele>
                <time>2012-05-17T19:09:29.000Z</time>
                <name>Position 2289</name>
            </trkpt>
            <trkpt lon="9.558721" lat="47.714727">
                <ele>421.9372009600071</ele>
                <time>2012-05-17T19:09:32.000Z</time>
                <name>Position 2290</name>
            </trkpt>
            <trkpt lon="9.558861" lat="47.714684">
                <ele>421.37418111999443</ele>
                <time>2012-05-17T19:09:36.000Z</time>
                <name>Position 2291</name>
            </trkpt>
            <trkpt lon="9.558994" lat="47.714627">
                <ele>420.7570854399995</ele>
                <time>2012-05-17T19:09:41.000Z</time>
                <name>Position 2292</name>
            </trkpt>
            <trkpt lon="9.55913" lat="47.714583">
                <ele>420.1308351999923</ele>
                <time>2012-05-17T19:09:45.000Z</time>
                <name>Position 2293</name>
            </trkpt>
            <trkpt lon="9.559266" lat="47.714572">
                <ele>420.3812633599862</ele>
                <time>2012-05-17T19:09:48.000Z</time>
                <name>Position 2294</name>
            </trkpt>
            <trkpt lon="9.559397" lat="47.714567">
                <ele>420.9248523200084</ele>
                <time>2012-05-17T19:09:52.000Z</time>
                <name>Position 2295</name>
            </trkpt>
            <trkpt lon="9.559557" lat="47.714583">
                <ele>421.6387620799944</ele>
                <time>2012-05-17T19:09:56.000Z</time>
                <name>Position 2296</name>
            </trkpt>
            <trkpt lon="9.559708" lat="47.714597">
                <ele>422.2908396799991</ele>
                <time>2012-05-17T19:10:00.000Z</time>
                <name>Position 2297</name>
            </trkpt>
            <trkpt lon="9.559798" lat="47.714582">
                <ele>422.6504364800027</ele>
                <time>2012-05-17T19:10:03.000Z</time>
                <name>Position 2298</name>
            </trkpt>
            <trkpt lon="9.559903" lat="47.714586">
                <ele>423.0937174399997</ele>
                <time>2012-05-17T19:10:06.000Z</time>
                <name>Position 2299</name>
            </trkpt>
            <trkpt lon="9.560033" lat="47.714568">
                <ele>423.83878592000633</ele>
                <time>2012-05-17T19:10:09.000Z</time>
                <name>Position 2300</name>
            </trkpt>
            <trkpt lon="9.560147" lat="47.714585">
                <ele>424.99834160000603</ele>
                <time>2012-05-17T19:10:12.000Z</time>
                <name>Position 2301</name>
            </trkpt>
            <trkpt lon="9.56028" lat="47.714615">
                <ele>426.3176960000027</ele>
                <time>2012-05-17T19:10:16.000Z</time>
                <name>Position 2302</name>
            </trkpt>
            <trkpt lon="9.560355" lat="47.714642">
                <ele>427.0310287999979</ele>
                <time>2012-05-17T19:10:18.000Z</time>
                <name>Position 2303</name>
            </trkpt>
            <trkpt lon="9.560451" lat="47.714654">
                <ele>427.96251871999846</ele>
                <time>2012-05-17T19:10:21.000Z</time>
                <name>Position 2304</name>
            </trkpt>
            <trkpt lon="9.560565" lat="47.714659">
                <ele>429.07831280000994</ele>
                <time>2012-05-17T19:10:24.000Z</time>
                <name>Position 2305</name>
            </trkpt>
            <trkpt lon="9.560664" lat="47.714665">
                <ele>430.03854080000133</ele>
                <time>2012-05-17T19:10:27.000Z</time>
                <name>Position 2306</name>
            </trkpt>
            <trkpt lon="9.560789" lat="47.714656">
                <ele>431.30011712000424</ele>
                <time>2012-05-17T19:10:30.000Z</time>
                <name>Position 2307</name>
            </trkpt>
            <trkpt lon="9.560923" lat="47.714674">
                <ele>431.7391068799929</ele>
                <time>2012-05-17T19:10:34.000Z</time>
                <name>Position 2308</name>
            </trkpt>
            <trkpt lon="9.561085" lat="47.714696">
                <ele>431.7862303999889</ele>
                <time>2012-05-17T19:10:38.000Z</time>
                <name>Position 2309</name>
            </trkpt>
            <trkpt lon="9.561162" lat="47.714699">
                <ele>431.83554271999014</ele>
                <time>2012-05-17T19:10:40.000Z</time>
                <name>Position 2310</name>
            </trkpt>
            <trkpt lon="9.561252" lat="47.714738">
                <ele>431.7876454400089</ele>
                <time>2012-05-17T19:10:43.000Z</time>
                <name>Position 2311</name>
            </trkpt>
            <trkpt lon="9.561368" lat="47.714826">
                <ele>431.63403391999384</ele>
                <time>2012-05-17T19:10:48.000Z</time>
                <name>Position 2312</name>
            </trkpt>
            <trkpt lon="9.561478" lat="47.714907">
                <ele>431.5220662400083</ele>
                <time>2012-05-17T19:10:52.000Z</time>
                <name>Position 2313</name>
            </trkpt>
            <trkpt lon="9.561535" lat="47.714916">
                <ele>431.5595263999932</ele>
                <time>2012-05-17T19:10:54.000Z</time>
                <name>Position 2314</name>
            </trkpt>
            <trkpt lon="9.561552" lat="47.7149">
                <ele>431.61891200000065</ele>
                <time>2012-05-17T19:10:55.000Z</time>
                <name>Position 2315</name>
            </trkpt>
            <trkpt lon="9.561563" lat="47.714898">
                <ele>431.63562656000465</ele>
                <time>2012-05-17T19:10:55.000Z</time>
                <name>Position 2316</name>
            </trkpt>
            <trkpt lon="9.561565" lat="47.714882">
                <ele>431.6784751999926</ele>
                <time>2012-05-17T19:10:56.000Z</time>
                <name>Position 2317</name>
            </trkpt>
            <trkpt lon="9.561563" lat="47.714882">
                <ele>431.67641503999226</ele>
                <time>2012-05-17T19:10:56.000Z</time>
                <name>Position 2318</name>
            </trkpt>
            <trkpt lon="9.561604" lat="47.714863">
                <ele>431.76596287999814</ele>
                <time>2012-05-17T19:10:57.000Z</time>
                <name>Position 2319</name>
            </trkpt>
            <trkpt lon="9.561694" lat="47.714814">
                <ele>431.8371628800108</ele>
                <time>2012-05-17T19:11:00.000Z</time>
                <name>Position 2320</name>
            </trkpt>
            <trkpt lon="9.561783" lat="47.714765">
                <ele>431.62370159999995</ele>
                <time>2012-05-17T19:11:03.000Z</time>
                <name>Position 2321</name>
            </trkpt>
            <trkpt lon="9.561974" lat="47.714812">
                <ele>430.7256038399955</ele>
                <time>2012-05-17T19:11:09.000Z</time>
                <name>Position 2322</name>
            </trkpt>
            <trkpt lon="9.562075" lat="47.71482">
                <ele>430.2895199999868</ele>
                <time>2012-05-17T19:11:12.000Z</time>
                <name>Position 2323</name>
            </trkpt>
            <trkpt lon="9.562103" lat="47.714837">
                <ele>430.10404847998615</ele>
                <time>2012-05-17T19:11:13.000Z</time>
                <name>Position 2324</name>
            </trkpt>
            <trkpt lon="9.56211" lat="47.714798">
                <ele>430.24367039999015</ele>
                <time>2012-05-17T19:11:14.000Z</time>
                <name>Position 2325</name>
            </trkpt>
            <trkpt lon="9.562123" lat="47.714797">
                <ele>430.1969860800134</ele>
                <time>2012-05-17T19:11:15.000Z</time>
                <name>Position 2326</name>
            </trkpt>
            <trkpt lon="9.562136" lat="47.714796">
                <ele>430.15041407999877</ele>
                <time>2012-05-17T19:11:15.000Z</time>
                <name>Position 2327</name>
            </trkpt>
            <trkpt lon="9.562149" lat="47.714782">
                <ele>430.16224224000285</ele>
                <time>2012-05-17T19:11:16.000Z</time>
                <name>Position 2328</name>
            </trkpt>
            <trkpt lon="9.562149" lat="47.714776">
                <ele>430.18914431999866</ele>
                <time>2012-05-17T19:11:16.000Z</time>
                <name>Position 2329</name>
            </trkpt>
            <trkpt lon="9.562141" lat="47.714791">
                <ele>430.15306608000657</ele>
                <time>2012-05-17T19:11:16.000Z</time>
                <name>Position 2330</name>
            </trkpt>
            <trkpt lon="9.56213" lat="47.714792">
                <ele>430.19153279998886</ele>
                <time>2012-05-17T19:11:17.000Z</time>
                <name>Position 2331</name>
            </trkpt>
            <trkpt lon="9.562143" lat="47.714797">
                <ele>430.11852528000964</ele>
                <time>2012-05-17T19:11:17.000Z</time>
                <name>Position 2332</name>
            </trkpt>
            <trkpt lon="9.562143" lat="47.714791">
                <ele>430.1452718400055</ele>
                <time>2012-05-17T19:11:17.000Z</time>
                <name>Position 2333</name>
            </trkpt>
            <trkpt lon="9.562145" lat="47.714798">
                <ele>430.1062127999951</ele>
                <time>2012-05-17T19:11:18.000Z</time>
                <name>Position 2334</name>
            </trkpt>
            <trkpt lon="9.562158" lat="47.714803">
                <ele>430.03254431998414</ele>
                <time>2012-05-17T19:11:18.000Z</time>
                <name>Position 2335</name>
            </trkpt>
            <trkpt lon="9.562147" lat="47.714804">
                <ele>430.07150783999816</ele>
                <time>2012-05-17T19:11:18.000Z</time>
                <name>Position 2336</name>
            </trkpt>
            <trkpt lon="9.562158" lat="47.714796">
                <ele>430.06420224000067</ele>
                <time>2012-05-17T19:11:19.000Z</time>
                <name>Position 2337</name>
            </trkpt>
            <trkpt lon="9.56216" lat="47.714809">
                <ele>429.99745919998725</ele>
                <time>2012-05-17T19:11:19.000Z</time>
                <name>Position 2338</name>
            </trkpt>
            <trkpt lon="9.562173" lat="47.714808">
                <ele>429.95037312001153</ele>
                <time>2012-05-17T19:11:20.000Z</time>
                <name>Position 2339</name>
            </trkpt>
            <trkpt lon="9.562187" lat="47.714813">
                <ele>429.87154608000355</ele>
                <time>2012-05-17T19:11:20.000Z</time>
                <name>Position 2340</name>
            </trkpt>
            <trkpt lon="9.562333" lat="47.714819">
                <ele>429.25701936000536</ele>
                <time>2012-05-17T19:11:24.000Z</time>
                <name>Position 2341</name>
            </trkpt>
            <trkpt lon="9.562428" lat="47.714842">
                <ele>428.74445568001306</ele>
                <time>2012-05-17T19:11:27.000Z</time>
                <name>Position 2342</name>
            </trkpt>
            <trkpt lon="9.562456" lat="47.714853">
                <ele>428.5652582400155</ele>
                <time>2012-05-17T19:11:28.000Z</time>
                <name>Position 2343</name>
            </trkpt>
            <trkpt lon="9.562533" lat="47.714846">
                <ele>428.41668191999185</ele>
                <time>2012-05-17T19:11:30.000Z</time>
                <name>Position 2344</name>
            </trkpt>
            <trkpt lon="9.562544" lat="47.714844">
                <ele>428.4261158400039</ele>
                <time>2012-05-17T19:11:30.000Z</time>
                <name>Position 2345</name>
            </trkpt>
            <trkpt lon="9.562625" lat="47.714838">
                <ele>428.4428399999984</ele>
                <time>2012-05-17T19:11:32.000Z</time>
                <name>Position 2346</name>
            </trkpt>
            <trkpt lon="9.562828" lat="47.714807">
                <ele>428.5668422399981</ele>
                <time>2012-05-17T19:11:38.000Z</time>
                <name>Position 2347</name>
            </trkpt>
            <trkpt lon="9.563008" lat="47.7148">
                <ele>428.55369600001734</ele>
                <time>2012-05-17T19:11:43.000Z</time>
                <name>Position 2348</name>
            </trkpt>
            <trkpt lon="9.563155" lat="47.71473">
                <ele>428.86533599998523</ele>
                <time>2012-05-17T19:11:48.000Z</time>
                <name>Position 2349</name>
            </trkpt>
            <trkpt lon="9.563266" lat="47.714654">
                <ele>429.19434815998534</ele>
                <time>2012-05-17T19:11:52.000Z</time>
                <name>Position 2350</name>
            </trkpt>
            <trkpt lon="9.563424" lat="47.714576">
                <ele>429.7508851199945</ele>
                <time>2012-05-17T19:11:57.000Z</time>
                <name>Position 2351</name>
            </trkpt>
            <trkpt lon="9.563608" lat="47.714536">
                <ele>430.3489574399909</ele>
                <time>2012-05-17T19:12:02.000Z</time>
                <name>Position 2352</name>
            </trkpt>
            <trkpt lon="9.563752" lat="47.714512">
                <ele>430.76118912000135</ele>
                <time>2012-05-17T19:12:06.000Z</time>
                <name>Position 2353</name>
            </trkpt>
            <trkpt lon="9.563772" lat="47.714484">
                <ele>430.9041062400048</ele>
                <time>2012-05-17T19:12:08.000Z</time>
                <name>Position 2354</name>
            </trkpt>
            <trkpt lon="9.563807" lat="47.714468">
                <ele>431.0330668800133</ele>
                <time>2012-05-17T19:12:09.000Z</time>
                <name>Position 2355</name>
            </trkpt>
            <trkpt lon="9.563855" lat="47.714491">
                <ele>431.0564783999926</ele>
                <time>2012-05-17T19:12:10.000Z</time>
                <name>Position 2356</name>
            </trkpt>
            <trkpt lon="9.563965" lat="47.714523">
                <ele>431.1958415999999</ele>
                <time>2012-05-17T19:12:13.000Z</time>
                <name>Position 2357</name>
            </trkpt>
            <trkpt lon="9.563982" lat="47.714541">
                <ele>431.18091456000747</ele>
                <time>2012-05-17T19:12:14.000Z</time>
                <name>Position 2358</name>
            </trkpt>
            <trkpt lon="9.564059" lat="47.714593">
                <ele>431.215402559999</ele>
                <time>2012-05-17T19:12:17.000Z</time>
                <name>Position 2359</name>
            </trkpt>
            <trkpt lon="9.564132" lat="47.71466">
                <ele>431.2251455999969</ele>
                <time>2012-05-17T19:12:21.000Z</time>
                <name>Position 2360</name>
            </trkpt>
            <trkpt lon="9.564246" lat="47.714754">
                <ele>431.0731878400015</ele>
                <time>2012-05-17T19:12:25.000Z</time>
                <name>Position 2361</name>
            </trkpt>
            <trkpt lon="9.564465" lat="47.714916">
                <ele>430.9152543999986</ele>
                <time>2012-05-17T19:12:34.000Z</time>
                <name>Position 2362</name>
            </trkpt>
            <trkpt lon="9.564652" lat="47.715018">
                <ele>430.8196403199931</ele>
                <time>2012-05-17T19:12:41.000Z</time>
                <name>Position 2363</name>
            </trkpt>
            <trkpt lon="9.564853" lat="47.715156">
                <ele>428.9560441599955</ele>
                <time>2012-05-17T19:12:48.000Z</time>
                <name>Position 2364</name>
            </trkpt>
            <trkpt lon="9.565038" lat="47.715264">
                <ele>427.5138764800347</ele>
                <time>2012-05-17T19:12:55.000Z</time>
                <name>Position 2365</name>
            </trkpt>
            <trkpt lon="9.565202" lat="47.715353">
                <ele>426.85168383999314</ele>
                <time>2012-05-17T19:13:01.000Z</time>
                <name>Position 2366</name>
            </trkpt>
            <trkpt lon="9.565323" lat="47.71542">
                <ele>426.5077023999756</ele>
                <time>2012-05-17T19:13:05.000Z</time>
                <name>Position 2367</name>
            </trkpt>
            <trkpt lon="9.565457" lat="47.715505">
                <ele>426.16438239999917</ele>
                <time>2012-05-17T19:13:10.000Z</time>
                <name>Position 2368</name>
            </trkpt>
            <trkpt lon="9.565606" lat="47.715629">
                <ele>425.7081433600068</ele>
                <time>2012-05-17T19:13:16.000Z</time>
                <name>Position 2369</name>
            </trkpt>
            <trkpt lon="9.565753" lat="47.715747">
                <ele>425.6103222400035</ele>
                <time>2012-05-17T19:13:22.000Z</time>
                <name>Position 2370</name>
            </trkpt>
            <trkpt lon="9.565803" lat="47.715813">
                <ele>425.4213289600309</ele>
                <time>2012-05-17T19:13:25.000Z</time>
                <name>Position 2371</name>
            </trkpt>
            <trkpt lon="9.565878" lat="47.715934">
                <ele>425.3053753600142</ele>
                <time>2012-05-17T19:13:31.000Z</time>
                <name>Position 2372</name>
            </trkpt>
            <trkpt lon="9.565922" lat="47.716027">
                <ele>425.1150179200242</ele>
                <time>2012-05-17T19:13:35.000Z</time>
                <name>Position 2373</name>
            </trkpt>
            <trkpt lon="9.566005" lat="47.71611">
                <ele>425.28282400000137</ele>
                <time>2012-05-17T19:13:39.000Z</time>
                <name>Position 2374</name>
            </trkpt>
            <trkpt lon="9.566122" lat="47.716229">
                <ele>425.40378784001143</ele>
                <time>2012-05-17T19:13:44.000Z</time>
                <name>Position 2375</name>
            </trkpt>
            <trkpt lon="9.566201" lat="47.716287">
                <ele>425.5870321599871</ele>
                <time>2012-05-17T19:13:47.000Z</time>
                <name>Position 2376</name>
            </trkpt>
            <trkpt lon="9.56628" lat="47.716281">
                <ele>426.238182399989</ele>
                <time>2012-05-17T19:13:50.000Z</time>
                <name>Position 2377</name>
            </trkpt>
            <trkpt lon="9.566358" lat="47.716268">
                <ele>426.9436019199989</ele>
                <time>2012-05-17T19:13:52.000Z</time>
                <name>Position 2378</name>
            </trkpt>
            <trkpt lon="9.566446" lat="47.716247">
                <ele>427.80474015996964</ele>
                <time>2012-05-17T19:13:54.000Z</time>
                <name>Position 2379</name>
            </trkpt>
            <trkpt lon="9.566485" lat="47.716238">
                <ele>428.1887824000273</ele>
                <time>2012-05-17T19:13:55.000Z</time>
                <name>Position 2380</name>
            </trkpt>
            <trkpt lon="9.566499" lat="47.716236">
                <ele>428.3164595199841</ele>
                <time>2012-05-17T19:13:56.000Z</time>
                <name>Position 2381</name>
            </trkpt>
            <trkpt lon="9.566501" lat="47.716243">
                <ele>428.269990240017</ele>
                <time>2012-05-17T19:13:56.000Z</time>
                <name>Position 2382</name>
            </trkpt>
            <trkpt lon="9.566499" lat="47.716236">
                <ele>428.3164595199841</ele>
                <time>2012-05-17T19:13:56.000Z</time>
                <name>Position 2383</name>
            </trkpt>
            <trkpt lon="9.566499" lat="47.71623">
                <ele>428.3697135999758</ele>
                <time>2012-05-17T19:13:57.000Z</time>
                <name>Position 2384</name>
            </trkpt>
            <trkpt lon="9.566501" lat="47.716237">
                <ele>428.32329616000874</ele>
                <time>2012-05-17T19:13:57.000Z</time>
                <name>Position 2385</name>
            </trkpt>
            <trkpt lon="9.566488" lat="47.716238">
                <ele>428.2123379200237</ele>
                <time>2012-05-17T19:13:57.000Z</time>
                <name>Position 2386</name>
            </trkpt>
            <trkpt lon="9.566503" lat="47.716244">
                <ele>428.2767577599785</ele>
                <time>2012-05-17T19:13:58.000Z</time>
                <name>Position 2387</name>
            </trkpt>
            <trkpt lon="9.566532" lat="47.716254">
                <ele>428.41352704001054</ele>
                <time>2012-05-17T19:13:59.000Z</time>
                <name>Position 2388</name>
            </trkpt>
            <trkpt lon="9.566532" lat="47.71626">
                <ele>428.35941760001896</ele>
                <time>2012-05-17T19:13:59.000Z</time>
                <name>Position 2389</name>
            </trkpt>
            <trkpt lon="9.566545" lat="47.716247">
                <ele>428.57822319997257</ele>
                <time>2012-05-17T19:13:59.000Z</time>
                <name>Position 2390</name>
            </trkpt>
            <trkpt lon="9.566597" lat="47.716236">
                <ele>429.08678655997926</ele>
                <time>2012-05-17T19:14:01.000Z</time>
                <name>Position 2391</name>
            </trkpt>
            <trkpt lon="9.566626" lat="47.716247">
                <ele>429.2110729599699</ele>
                <time>2012-05-17T19:14:02.000Z</time>
                <name>Position 2392</name>
            </trkpt>
            <trkpt lon="9.566639" lat="47.716252">
                <ele>429.2652390400293</ele>
                <time>2012-05-17T19:14:02.000Z</time>
                <name>Position 2393</name>
            </trkpt>
            <trkpt lon="9.566643" lat="47.716271">
                <ele>429.11594704000316</ele>
                <time>2012-05-17T19:14:03.000Z</time>
                <name>Position 2394</name>
            </trkpt>
            <trkpt lon="9.566661" lat="47.716283">
                <ele>429.1398078400269</ele>
                <time>2012-05-17T19:14:04.000Z</time>
                <name>Position 2395</name>
            </trkpt>
            <trkpt lon="9.566674" lat="47.716288">
                <ele>429.2248051200232</ele>
                <time>2012-05-17T19:14:04.000Z</time>
                <name>Position 2396</name>
            </trkpt>
            <trkpt lon="9.566689" lat="47.716305">
                <ele>429.24707520001886</ele>
                <time>2012-05-17T19:14:05.000Z</time>
                <name>Position 2397</name>
            </trkpt>
            <trkpt lon="9.566692" lat="47.716306">
                <ele>429.27457151996975</ele>
                <time>2012-05-17T19:14:05.000Z</time>
                <name>Position 2398</name>
            </trkpt>
            <trkpt lon="9.566705" lat="47.716305">
                <ele>429.4441440000244</ele>
                <time>2012-05-17T19:14:05.000Z</time>
                <name>Position 2399</name>
            </trkpt>
            <trkpt lon="9.566707" lat="47.716311">
                <ele>429.4125715200147</ele>
                <time>2012-05-17T19:14:06.000Z</time>
                <name>Position 2400</name>
            </trkpt>
            <trkpt lon="9.566738" lat="47.716334">
                <ele>429.5841139199809</ele>
                <time>2012-05-17T19:14:07.000Z</time>
                <name>Position 2401</name>
            </trkpt>
            <trkpt lon="9.566821" lat="47.716418">
                <ele>429.88854528001303</ele>
                <time>2012-05-17T19:14:11.000Z</time>
                <name>Position 2402</name>
            </trkpt>
            <trkpt lon="9.566918" lat="47.716494">
                <ele>430.52683392001455</ele>
                <time>2012-05-17T19:14:15.000Z</time>
                <name>Position 2403</name>
            </trkpt>
            <trkpt lon="9.566968" lat="47.716529">
                <ele>430.9218547199805</ele>
                <time>2012-05-17T19:14:17.000Z</time>
                <name>Position 2404</name>
            </trkpt>
            <trkpt lon="9.567054" lat="47.716631">
                <ele>431.3404262400128</ele>
                <time>2012-05-17T19:14:21.000Z</time>
                <name>Position 2405</name>
            </trkpt>
            <trkpt lon="9.567159" lat="47.71674">
                <ele>431.88964799998877</ele>
                <time>2012-05-17T19:14:27.000Z</time>
                <name>Position 2406</name>
            </trkpt>
            <trkpt lon="9.567298" lat="47.716878">
                <ele>432.3625631999768</ele>
                <time>2012-05-17T19:14:33.000Z</time>
                <name>Position 2407</name>
            </trkpt>
            <trkpt lon="9.567418" lat="47.717016">
                <ele>432.33344639998876</ele>
                <time>2012-05-17T19:14:40.000Z</time>
                <name>Position 2408</name>
            </trkpt>
            <trkpt lon="9.567511" lat="47.717137">
                <ele>431.9914003199836</ele>
                <time>2012-05-17T19:14:45.000Z</time>
                <name>Position 2409</name>
            </trkpt>
            <trkpt lon="9.567642" lat="47.717262">
                <ele>432.2061350400127</ele>
                <time>2012-05-17T19:14:51.000Z</time>
                <name>Position 2410</name>
            </trkpt>
            <trkpt lon="9.567796" lat="47.717417">
                <ele>432.61688832001886</ele>
                <time>2012-05-17T19:14:59.000Z</time>
                <name>Position 2411</name>
            </trkpt>
            <trkpt lon="9.567917" lat="47.717555">
                <ele>432.87761520002516</ele>
                <time>2012-05-17T19:15:05.000Z</time>
                <name>Position 2412</name>
            </trkpt>
            <trkpt lon="9.568009" lat="47.717707">
                <ele>432.2771409600345</ele>
                <time>2012-05-17T19:15:12.000Z</time>
                <name>Position 2413</name>
            </trkpt>
            <trkpt lon="9.568104" lat="47.717853">
                <ele>431.5068230400252</ele>
                <time>2012-05-17T19:15:18.000Z</time>
                <name>Position 2414</name>
            </trkpt>
            <trkpt lon="9.568198" lat="47.717981">
                <ele>430.7037609599815</ele>
                <time>2012-05-17T19:15:24.000Z</time>
                <name>Position 2415</name>
            </trkpt>
            <trkpt lon="9.568277" lat="47.718092">
                <ele>429.7897612800223</ele>
                <time>2012-05-17T19:15:29.000Z</time>
                <name>Position 2416</name>
            </trkpt>
            <trkpt lon="9.56837" lat="47.718208">
                <ele>428.4925824000457</ele>
                <time>2012-05-17T19:15:34.000Z</time>
                <name>Position 2417</name>
            </trkpt>
            <trkpt lon="9.56846" lat="47.718323">
                <ele>426.81131520003044</ele>
                <time>2012-05-17T19:15:39.000Z</time>
                <name>Position 2418</name>
            </trkpt>
            <trkpt lon="9.568532" lat="47.718432">
                <ele>426.46787967999916</ele>
                <time>2012-05-17T19:15:44.000Z</time>
                <name>Position 2419</name>
            </trkpt>
            <trkpt lon="9.56862" lat="47.71854">
                <ele>426.3559360000049</ele>
                <time>2012-05-17T19:15:49.000Z</time>
                <name>Position 2420</name>
            </trkpt>
            <trkpt lon="9.568675" lat="47.718625">
                <ele>426.2904999999955</ele>
                <time>2012-05-17T19:15:53.000Z</time>
                <name>Position 2421</name>
            </trkpt>
            <trkpt lon="9.568728" lat="47.718692">
                <ele>426.29391232000563</ele>
                <time>2012-05-17T19:15:56.000Z</time>
                <name>Position 2422</name>
            </trkpt>
            <trkpt lon="9.568798" lat="47.718776">
                <ele>426.35259136000036</ele>
                <time>2012-05-17T19:16:00.000Z</time>
                <name>Position 2423</name>
            </trkpt>
            <trkpt lon="9.568886" lat="47.718896">
                <ele>426.4809779199957</ele>
                <time>2012-05-17T19:16:05.000Z</time>
                <name>Position 2424</name>
            </trkpt>
            <trkpt lon="9.568989" lat="47.719029">
                <ele>426.75286192000146</ele>
                <time>2012-05-17T19:16:11.000Z</time>
                <name>Position 2425</name>
            </trkpt>
            <trkpt lon="9.569077" lat="47.719149">
                <ele>427.07644335999953</ele>
                <time>2012-05-17T19:16:16.000Z</time>
                <name>Position 2426</name>
            </trkpt>
            <trkpt lon="9.569182" lat="47.719276">
                <ele>427.79678592000056</ele>
                <time>2012-05-17T19:16:22.000Z</time>
                <name>Position 2427</name>
            </trkpt>
            <trkpt lon="9.569288" lat="47.719408">
                <ele>428.3282342400033</ele>
                <time>2012-05-17T19:16:28.000Z</time>
                <name>Position 2428</name>
            </trkpt>
            <trkpt lon="9.56938" lat="47.719542">
                <ele>428.79749759999476</ele>
                <time>2012-05-17T19:16:34.000Z</time>
                <name>Position 2429</name>
            </trkpt>
            <trkpt lon="9.569472" lat="47.71967">
                <ele>429.21949440000003</ele>
                <time>2012-05-17T19:16:40.000Z</time>
                <name>Position 2430</name>
            </trkpt>
            <trkpt lon="9.569565" lat="47.719809">
                <ele>429.62915759999714</ele>
                <time>2012-05-17T19:16:46.000Z</time>
                <name>Position 2431</name>
            </trkpt>
            <trkpt lon="9.569644" lat="47.719944">
                <ele>429.97689215999696</ele>
                <time>2012-05-17T19:16:52.000Z</time>
                <name>Position 2432</name>
            </trkpt>
            <trkpt lon="9.569719" lat="47.720066">
                <ele>430.4261875200095</ele>
                <time>2012-05-17T19:16:57.000Z</time>
                <name>Position 2433</name>
            </trkpt>
            <trkpt lon="9.569798" lat="47.720207">
                <ele>431.13077568000904</ele>
                <time>2012-05-17T19:17:03.000Z</time>
                <name>Position 2434</name>
            </trkpt>
            <trkpt lon="9.569859" lat="47.720324">
                <ele>431.75443007998894</ele>
                <time>2012-05-17T19:17:08.000Z</time>
                <name>Position 2435</name>
            </trkpt>
            <trkpt lon="9.569923" lat="47.720453">
                <ele>432.48154271999374</ele>
                <time>2012-05-17T19:17:13.000Z</time>
                <name>Position 2436</name>
            </trkpt>
            <trkpt lon="9.570009" lat="47.720607">
                <ele>433.4115998400047</ele>
                <time>2012-05-17T19:17:20.000Z</time>
                <name>Position 2437</name>
            </trkpt>
            <trkpt lon="9.570088" lat="47.720742">
                <ele>433.9907212800054</ele>
                <time>2012-05-17T19:17:26.000Z</time>
                <name>Position 2438</name>
            </trkpt>
            <trkpt lon="9.570193" lat="47.720869">
                <ele>434.3440875200013</ele>
                <time>2012-05-17T19:17:32.000Z</time>
                <name>Position 2439</name>
            </trkpt>
            <trkpt lon="9.570273" lat="47.720998">
                <ele>434.5028662400029</ele>
                <time>2012-05-17T19:17:37.000Z</time>
                <name>Position 2440</name>
            </trkpt>
            <trkpt lon="9.570288" lat="47.721144">
                <ele>434.7711603200055</ele>
                <time>2012-05-17T19:17:43.000Z</time>
                <name>Position 2441</name>
            </trkpt>
            <trkpt lon="9.570205" lat="47.721292">
                <ele>435.2194015999972</ele>
                <time>2012-05-17T19:17:49.000Z</time>
                <name>Position 2442</name>
            </trkpt>
            <trkpt lon="9.570107" lat="47.721433">
                <ele>435.71840335999434</ele>
                <time>2012-05-17T19:17:56.000Z</time>
                <name>Position 2443</name>
            </trkpt>
            <trkpt lon="9.569982" lat="47.721565">
                <ele>436.19119999999396</ele>
                <time>2012-05-17T19:18:02.000Z</time>
                <name>Position 2444</name>
            </trkpt>
            <trkpt lon="9.569842" lat="47.721691">
                <ele>435.95486367999797</ele>
                <time>2012-05-17T19:18:08.000Z</time>
                <name>Position 2445</name>
            </trkpt>
            <trkpt lon="9.569718" lat="47.721823">
                <ele>435.6089161600001</ele>
                <time>2012-05-17T19:18:14.000Z</time>
                <name>Position 2446</name>
            </trkpt>
            <trkpt lon="9.569604" lat="47.721947">
                <ele>435.2509427199999</ele>
                <time>2012-05-17T19:18:20.000Z</time>
                <name>Position 2447</name>
            </trkpt>
            <trkpt lon="9.569482" lat="47.722085">
                <ele>434.82515680000273</ele>
                <time>2012-05-17T19:18:27.000Z</time>
                <name>Position 2448</name>
            </trkpt>
            <trkpt lon="9.569353" lat="47.722198">
                <ele>434.3133673599975</ele>
                <time>2012-05-17T19:18:32.000Z</time>
                <name>Position 2449</name>
            </trkpt>
            <trkpt lon="9.569189" lat="47.722321">
                <ele>433.6014433599986</ele>
                <time>2012-05-17T19:18:39.000Z</time>
                <name>Position 2450</name>
            </trkpt>
            <trkpt lon="9.569024" lat="47.722456">
                <ele>432.26544256000625</ele>
                <time>2012-05-17T19:18:46.000Z</time>
                <name>Position 2451</name>
            </trkpt>
            <trkpt lon="9.568863" lat="47.722597">
                <ele>430.80123232000204</ele>
                <time>2012-05-17T19:18:53.000Z</time>
                <name>Position 2452</name>
            </trkpt>
            <trkpt lon="9.568692" lat="47.722765">
                <ele>429.2390656000004</ele>
                <time>2012-05-17T19:19:01.000Z</time>
                <name>Position 2453</name>
            </trkpt>
            <trkpt lon="9.568497" lat="47.722936">
                <ele>427.66928704000617</ele>
                <time>2012-05-17T19:19:10.000Z</time>
                <name>Position 2454</name>
            </trkpt>
            <trkpt lon="9.56827" lat="47.723148">
                <ele>425.7990976000007</ele>
                <time>2012-05-17T19:19:20.000Z</time>
                <name>Position 2455</name>
            </trkpt>
            <trkpt lon="9.568036" lat="47.723405">
                <ele>423.2948543999928</ele>
                <time>2012-05-17T19:19:32.000Z</time>
                <name>Position 2456</name>
            </trkpt>
            <trkpt lon="9.567877" lat="47.723688">
                <ele>421.8451756799956</ele>
                <time>2012-05-17T19:19:44.000Z</time>
                <name>Position 2457</name>
            </trkpt>
            <trkpt lon="9.567807" lat="47.723975">
                <ele>421.5045960000044</ele>
                <time>2012-05-17T19:19:56.000Z</time>
                <name>Position 2458</name>
            </trkpt>
            <trkpt lon="9.567768" lat="47.724209">
                <ele>421.58021184000023</ele>
                <time>2012-05-17T19:20:06.000Z</time>
                <name>Position 2459</name>
            </trkpt>
            <trkpt lon="9.567628" lat="47.724354">
                <ele>420.9747878399874</ele>
                <time>2012-05-17T19:20:12.000Z</time>
                <name>Position 2460</name>
            </trkpt>
            <trkpt lon="9.567496" lat="47.724171">
                <ele>419.491199999997</ele>
                <time>2012-05-17T19:20:21.000Z</time>
                <name>Position 2461</name>
            </trkpt>
            <trkpt lon="9.567538" lat="47.723968">
                <ele>419.3294131200044</ele>
                <time>2012-05-17T19:20:29.000Z</time>
                <name>Position 2462</name>
            </trkpt>
            <trkpt lon="9.567603" lat="47.723744">
                <ele>419.41526976000745</ele>
                <time>2012-05-17T19:20:38.000Z</time>
                <name>Position 2463</name>
            </trkpt>
            <trkpt lon="9.567684" lat="47.723532">
                <ele>419.8060838399964</ele>
                <time>2012-05-17T19:20:47.000Z</time>
                <name>Position 2464</name>
            </trkpt>
            <trkpt lon="9.567628" lat="47.723394">
                <ele>418.99445375998886</ele>
                <time>2012-05-17T19:20:52.000Z</time>
                <name>Position 2465</name>
            </trkpt>
            <trkpt lon="9.567403" lat="47.723342">
                <ele>416.9400105600093</ele>
                <time>2012-05-17T19:20:59.000Z</time>
                <name>Position 2466</name>
            </trkpt>
            <trkpt lon="9.567155" lat="47.723317">
                <ele>415.4185143999989</ele>
                <time>2012-05-17T19:21:06.000Z</time>
                <name>Position 2467</name>
            </trkpt>
            <trkpt lon="9.566872" lat="47.723308">
                <ele>413.7245094400012</ele>
                <time>2012-05-17T19:21:13.000Z</time>
                <name>Position 2468</name>
            </trkpt>
            <trkpt lon="9.566598" lat="47.723285">
                <ele>412.83437919999665</ele>
                <time>2012-05-17T19:21:21.000Z</time>
                <name>Position 2469</name>
            </trkpt>
            <trkpt lon="9.566309" lat="47.723263">
                <ele>414.253024479997</ele>
                <time>2012-05-17T19:21:28.000Z</time>
                <name>Position 2470</name>
            </trkpt>
            <trkpt lon="9.566066" lat="47.723269">
                <ele>415.4388457600022</ele>
                <time>2012-05-17T19:21:35.000Z</time>
                <name>Position 2471</name>
            </trkpt>
            <trkpt lon="9.565974" lat="47.723407">
                <ele>415.7226095999953</ele>
                <time>2012-05-17T19:21:41.000Z</time>
                <name>Position 2472</name>
            </trkpt>
            <trkpt lon="9.56594" lat="47.723564">
                <ele>415.61155199999683</ele>
                <time>2012-05-17T19:21:47.000Z</time>
                <name>Position 2473</name>
            </trkpt>
            <trkpt lon="9.565892" lat="47.723736">
                <ele>415.42208639999586</ele>
                <time>2012-05-17T19:21:54.000Z</time>
                <name>Position 2474</name>
            </trkpt>
            <trkpt lon="9.565815" lat="47.723908">
                <ele>415.2990879999905</ele>
                <time>2012-05-17T19:22:02.000Z</time>
                <name>Position 2475</name>
            </trkpt>
            <trkpt lon="9.565713" lat="47.724089">
                <ele>415.5429807999993</ele>
                <time>2012-05-17T19:22:09.000Z</time>
                <name>Position 2476</name>
            </trkpt>
            <trkpt lon="9.565608" lat="47.724264">
                <ele>415.8108864000053</ele>
                <time>2012-05-17T19:22:17.000Z</time>
                <name>Position 2477</name>
            </trkpt>
            <trkpt lon="9.565505" lat="47.724445">
                <ele>416.1460199999973</ele>
                <time>2012-05-17T19:22:25.000Z</time>
                <name>Position 2478</name>
            </trkpt>
            <trkpt lon="9.565416" lat="47.724625">
                <ele>416.1767999999924</ele>
                <time>2012-05-17T19:22:32.000Z</time>
                <name>Position 2479</name>
            </trkpt>
            <trkpt lon="9.565331" lat="47.724818">
                <ele>415.93985760000186</ele>
                <time>2012-05-17T19:22:40.000Z</time>
                <name>Position 2480</name>
            </trkpt>
            <trkpt lon="9.565283" lat="47.725007">
                <ele>415.50570527999827</ele>
                <time>2012-05-17T19:22:48.000Z</time>
                <name>Position 2481</name>
            </trkpt>
            <trkpt lon="9.565198" lat="47.7252">
                <ele>415.61404800000076</ele>
                <time>2012-05-17T19:22:56.000Z</time>
                <name>Position 2482</name>
            </trkpt>
            <trkpt lon="9.565152" lat="47.72539">
                <ele>415.6707263999981</ele>
                <time>2012-05-17T19:23:04.000Z</time>
                <name>Position 2483</name>
            </trkpt>
            <trkpt lon="9.565109" lat="47.725592">
                <ele>415.6858406399989</ele>
                <time>2012-05-17T19:23:12.000Z</time>
                <name>Position 2484</name>
            </trkpt>
            <trkpt lon="9.565091" lat="47.725787">
                <ele>415.70625696000053</ele>
                <time>2012-05-17T19:23:20.000Z</time>
                <name>Position 2485</name>
            </trkpt>
            <trkpt lon="9.565088" lat="47.725986">
                <ele>415.5279999999997</ele>
                <time>2012-05-17T19:23:28.000Z</time>
                <name>Position 2486</name>
            </trkpt>
            <trkpt lon="9.565084" lat="47.726185">
                <ele>415.27960000000013</ele>
                <time>2012-05-17T19:23:36.000Z</time>
                <name>Position 2487</name>
            </trkpt>
            <trkpt lon="9.565064" lat="47.72636">
                <ele>415.02159999999924</ele>
                <time>2012-05-17T19:23:43.000Z</time>
                <name>Position 2488</name>
            </trkpt>
            <trkpt lon="9.565019" lat="47.726544">
                <ele>414.6928000000023</ele>
                <time>2012-05-17T19:23:50.000Z</time>
                <name>Position 2489</name>
            </trkpt>
            <trkpt lon="9.564984" lat="47.726726">
                <ele>414.5150988799993</ele>
                <time>2012-05-17T19:23:58.000Z</time>
                <name>Position 2490</name>
            </trkpt>
            <trkpt lon="9.564923" lat="47.72691">
                <ele>414.5114576000011</ele>
                <time>2012-05-17T19:24:05.000Z</time>
                <name>Position 2491</name>
            </trkpt>
            <trkpt lon="9.564875" lat="47.727093">
                <ele>414.4197799999985</ele>
                <time>2012-05-17T19:24:13.000Z</time>
                <name>Position 2492</name>
            </trkpt>
            <trkpt lon="9.564812" lat="47.727271">
                <ele>414.23478463999834</ele>
                <time>2012-05-17T19:24:20.000Z</time>
                <name>Position 2493</name>
            </trkpt>
            <trkpt lon="9.564735" lat="47.72745">
                <ele>413.9212400000042</ele>
                <time>2012-05-17T19:24:27.000Z</time>
                <name>Position 2494</name>
            </trkpt>
            <trkpt lon="9.564646" lat="47.72763">
                <ele>413.8063999999966</ele>
                <time>2012-05-17T19:24:35.000Z</time>
                <name>Position 2495</name>
            </trkpt>
            <trkpt lon="9.564541" lat="47.727798">
                <ele>413.7560000000002</ele>
                <time>2012-05-17T19:24:42.000Z</time>
                <name>Position 2496</name>
            </trkpt>
            <trkpt lon="9.564436" lat="47.727961">
                <ele>413.6996000000019</ele>
                <time>2012-05-17T19:24:49.000Z</time>
                <name>Position 2497</name>
            </trkpt>
            <trkpt lon="9.564305" lat="47.728125">
                <ele>413.5819999999961</ele>
                <time>2012-05-17T19:24:57.000Z</time>
                <name>Position 2498</name>
            </trkpt>
            <trkpt lon="9.564198" lat="47.728287">
                <ele>413.5196000000002</ele>
                <time>2012-05-17T19:25:04.000Z</time>
                <name>Position 2499</name>
            </trkpt>
            <trkpt lon="9.564089" lat="47.728437">
                <ele>413.88882368000054</ele>
                <time>2012-05-17T19:25:11.000Z</time>
                <name>Position 2500</name>
            </trkpt>
            <trkpt lon="9.563977" lat="47.728579">
                <ele>414.27641408000494</ele>
                <time>2012-05-17T19:25:17.000Z</time>
                <name>Position 2501</name>
            </trkpt>
            <trkpt lon="9.563916" lat="47.728711">
                <ele>414.4627097599969</ele>
                <time>2012-05-17T19:25:22.000Z</time>
                <name>Position 2502</name>
            </trkpt>
            <trkpt lon="9.56385" lat="47.728817">
                <ele>414.53859199999977</ele>
                <time>2012-05-17T19:25:27.000Z</time>
                <name>Position 2503</name>
            </trkpt>
            <trkpt lon="9.563761" lat="47.728927">
                <ele>414.51121471999943</ele>
                <time>2012-05-17T19:25:32.000Z</time>
                <name>Position 2504</name>
            </trkpt>
            <trkpt lon="9.563743" lat="47.72901">
                <ele>414.4895168000007</ele>
                <time>2012-05-17T19:25:35.000Z</time>
                <name>Position 2505</name>
            </trkpt>
            <trkpt lon="9.563835" lat="47.729097">
                <ele>414.6698911999998</ele>
                <time>2012-05-17T19:25:40.000Z</time>
                <name>Position 2506</name>
            </trkpt>
            <trkpt lon="9.563949" lat="47.729169">
                <ele>414.9775999999979</ele>
                <time>2012-05-17T19:25:44.000Z</time>
                <name>Position 2507</name>
            </trkpt>
            <trkpt lon="9.564066" lat="47.729229">
                <ele>415.2584000000009</ele>
                <time>2012-05-17T19:25:48.000Z</time>
                <name>Position 2508</name>
            </trkpt>
            <trkpt lon="9.5642" lat="47.729277">
                <ele>415.65707199999895</ele>
                <time>2012-05-17T19:25:52.000Z</time>
                <name>Position 2509</name>
            </trkpt>
            <trkpt lon="9.564355" lat="47.729304">
                <ele>416.438713600002</ele>
                <time>2012-05-17T19:25:56.000Z</time>
                <name>Position 2510</name>
            </trkpt>
            <trkpt lon="9.564487" lat="47.729363">
                <ele>417.2871524799959</ele>
                <time>2012-05-17T19:26:01.000Z</time>
                <name>Position 2511</name>
            </trkpt>
            <trkpt lon="9.564647" lat="47.729427">
                <ele>418.4896715200099</ele>
                <time>2012-05-17T19:26:06.000Z</time>
                <name>Position 2512</name>
            </trkpt>
            <trkpt lon="9.564816" lat="47.729518">
                <ele>420.1371750399943</ele>
                <time>2012-05-17T19:26:11.000Z</time>
                <name>Position 2513</name>
            </trkpt>
            <trkpt lon="9.564963" lat="47.729595">
                <ele>421.80504880003014</ele>
                <time>2012-05-17T19:26:16.000Z</time>
                <name>Position 2514</name>
            </trkpt>
            <trkpt lon="9.565042" lat="47.729665">
                <ele>423.30067839997463</ele>
                <time>2012-05-17T19:26:20.000Z</time>
                <name>Position 2515</name>
            </trkpt>
            <trkpt lon="9.564985" lat="47.729786">
                <ele>423.55475679997625</ele>
                <time>2012-05-17T19:26:25.000Z</time>
                <name>Position 2516</name>
            </trkpt>
            <trkpt lon="9.564924" lat="47.72994">
                <ele>424.1299647999872</ele>
                <time>2012-05-17T19:26:31.000Z</time>
                <name>Position 2517</name>
            </trkpt>
            <trkpt lon="9.564931" lat="47.730101">
                <ele>424.33850608000324</ele>
                <time>2012-05-17T19:26:38.000Z</time>
                <name>Position 2518</name>
            </trkpt>
            <trkpt lon="9.564958" lat="47.730246">
                <ele>424.15503424000434</ele>
                <time>2012-05-17T19:26:44.000Z</time>
                <name>Position 2519</name>
            </trkpt>
            <trkpt lon="9.564984" lat="47.730379">
                <ele>423.96979648001115</ele>
                <time>2012-05-17T19:26:49.000Z</time>
                <name>Position 2520</name>
            </trkpt>
            <trkpt lon="9.56498" lat="47.730502">
                <ele>423.4961727999979</ele>
                <time>2012-05-17T19:26:54.000Z</time>
                <name>Position 2521</name>
            </trkpt>
            <trkpt lon="9.564985" lat="47.730604">
                <ele>423.18473920000207</ele>
                <time>2012-05-17T19:26:58.000Z</time>
                <name>Position 2522</name>
            </trkpt>
            <trkpt lon="9.56498" lat="47.73072">
                <ele>422.7302080000092</ele>
                <time>2012-05-17T19:27:03.000Z</time>
                <name>Position 2523</name>
            </trkpt>
            <trkpt lon="9.565009" lat="47.730847">
                <ele>422.90618303995166</ele>
                <time>2012-05-17T19:27:08.000Z</time>
                <name>Position 2524</name>
            </trkpt>
            <trkpt lon="9.565047" lat="47.730955">
                <ele>425.34732480001963</ele>
                <time>2012-05-17T19:27:12.000Z</time>
                <name>Position 2525</name>
            </trkpt>
            <trkpt lon="9.565054" lat="47.731045">
                <ele>426.8367264000236</ele>
                <time>2012-05-17T19:27:16.000Z</time>
                <name>Position 2526</name>
            </trkpt>
            <trkpt lon="9.565073" lat="47.731147">
                <ele>428.70621887999766</ele>
                <time>2012-05-17T19:27:20.000Z</time>
                <name>Position 2527</name>
            </trkpt>
            <trkpt lon="9.56508" lat="47.731172">
                <ele>429.1990848000115</ele>
                <time>2012-05-17T19:27:21.000Z</time>
                <name>Position 2528</name>
            </trkpt>
            <trkpt lon="9.565091" lat="47.731242">
                <ele>430.41238656003554</ele>
                <time>2012-05-17T19:27:24.000Z</time>
                <name>Position 2529</name>
            </trkpt>
            <trkpt lon="9.5651" lat="47.73131">
                <ele>431.54687999999555</ele>
                <time>2012-05-17T19:27:27.000Z</time>
                <name>Position 2530</name>
            </trkpt>
            <trkpt lon="9.565129" lat="47.731421">
                <ele>433.5806803199727</ele>
                <time>2012-05-17T19:27:31.000Z</time>
                <name>Position 2531</name>
            </trkpt>
            <trkpt lon="9.565142" lat="47.731515">
                <ele>435.08610240002025</ele>
                <time>2012-05-17T19:27:35.000Z</time>
                <name>Position 2532</name>
            </trkpt>
            <trkpt lon="9.565149" lat="47.731553">
                <ele>435.70990655997184</ele>
                <time>2012-05-17T19:27:36.000Z</time>
                <name>Position 2533</name>
            </trkpt>
            <trkpt lon="9.56516" lat="47.731628">
                <ele>436.88807040001456</ele>
                <time>2012-05-17T19:27:39.000Z</time>
                <name>Position 2534</name>
            </trkpt>
            <trkpt lon="9.565173" lat="47.731704">
                <ele>437.9681971200017</ele>
                <time>2012-05-17T19:27:43.000Z</time>
                <name>Position 2535</name>
            </trkpt>
            <trkpt lon="9.565182" lat="47.731819">
                <ele>439.27245888001613</ele>
                <time>2012-05-17T19:27:47.000Z</time>
                <name>Position 2536</name>
            </trkpt>
            <trkpt lon="9.565193" lat="47.73187">
                <ele>439.9169376000137</ele>
                <time>2012-05-17T19:27:49.000Z</time>
                <name>Position 2537</name>
            </trkpt>
            <trkpt lon="9.565195" lat="47.731883">
                <ele>440.07152160002636</ele>
                <time>2012-05-17T19:27:50.000Z</time>
                <name>Position 2538</name>
            </trkpt>
            <trkpt lon="9.565189" lat="47.73198">
                <ele>441.01633920000154</ele>
                <time>2012-05-17T19:27:54.000Z</time>
                <name>Position 2539</name>
            </trkpt>
            <trkpt lon="9.565218" lat="47.732055">
                <ele>442.0445664000233</ele>
                <time>2012-05-17T19:27:57.000Z</time>
                <name>Position 2540</name>
            </trkpt>
            <trkpt lon="9.565229" lat="47.732177">
                <ele>443.3622748800034</ele>
                <time>2012-05-17T19:28:02.000Z</time>
                <name>Position 2541</name>
            </trkpt>
            <trkpt lon="9.56524" lat="47.732264">
                <ele>444.3093696000015</ele>
                <time>2012-05-17T19:28:05.000Z</time>
                <name>Position 2542</name>
            </trkpt>
            <trkpt lon="9.56524" lat="47.732371">
                <ele>445.37149440000076</ele>
                <time>2012-05-17T19:28:09.000Z</time>
                <name>Position 2543</name>
            </trkpt>
            <trkpt lon="9.56524" lat="47.732484">
                <ele>446.49317759999076</ele>
                <time>2012-05-17T19:28:14.000Z</time>
                <name>Position 2544</name>
            </trkpt>
            <trkpt lon="9.565256" lat="47.732609">
                <ele>446.6886182399999</ele>
                <time>2012-05-17T19:28:19.000Z</time>
                <name>Position 2545</name>
            </trkpt>
            <trkpt lon="9.565247" lat="47.73273">
                <ele>446.60379359999826</ele>
                <time>2012-05-17T19:28:24.000Z</time>
                <name>Position 2546</name>
            </trkpt>
            <trkpt lon="9.565249" lat="47.732874">
                <ele>446.56109855999745</ele>
                <time>2012-05-17T19:28:30.000Z</time>
                <name>Position 2547</name>
            </trkpt>
            <trkpt lon="9.56523" lat="47.732981">
                <ele>446.4446927999977</ele>
                <time>2012-05-17T19:28:34.000Z</time>
                <name>Position 2548</name>
            </trkpt>
            <trkpt lon="9.565236" lat="47.733079">
                <ele>446.436032640003</ele>
                <time>2012-05-17T19:28:38.000Z</time>
                <name>Position 2549</name>
            </trkpt>
            <trkpt lon="9.565239" lat="47.733223">
                <ele>446.39837231999917</ele>
                <time>2012-05-17T19:28:44.000Z</time>
                <name>Position 2550</name>
            </trkpt>
            <trkpt lon="9.565189" lat="47.733347">
                <ele>446.156560959997</ele>
                <time>2012-05-17T19:28:49.000Z</time>
                <name>Position 2551</name>
            </trkpt>
            <trkpt lon="9.565143" lat="47.733478">
                <ele>445.7816204800057</ele>
                <time>2012-05-17T19:28:54.000Z</time>
                <name>Position 2552</name>
            </trkpt>
            <trkpt lon="9.565117" lat="47.733628">
                <ele>445.4683091199973</ele>
                <time>2012-05-17T19:29:00.000Z</time>
                <name>Position 2553</name>
            </trkpt>
            <trkpt lon="9.565108" lat="47.733777">
                <ele>445.21840191999564</ele>
                <time>2012-05-17T19:29:06.000Z</time>
                <name>Position 2554</name>
            </trkpt>
            <trkpt lon="9.565135" lat="47.733929">
                <ele>445.0396047999941</ele>
                <time>2012-05-17T19:29:12.000Z</time>
                <name>Position 2555</name>
            </trkpt>
            <trkpt lon="9.565151" lat="47.734069">
                <ele>444.8408732800034</ele>
                <time>2012-05-17T19:29:18.000Z</time>
                <name>Position 2556</name>
            </trkpt>
            <trkpt lon="9.565179" lat="47.734227">
                <ele>444.425200000015</ele>
                <time>2012-05-17T19:29:24.000Z</time>
                <name>Position 2557</name>
            </trkpt>
            <trkpt lon="9.565261" lat="47.734403">
                <ele>443.6787999999981</ele>
                <time>2012-05-17T19:29:32.000Z</time>
                <name>Position 2558</name>
            </trkpt>
            <trkpt lon="9.565351" lat="47.734583">
                <ele>442.92279999999687</ele>
                <time>2012-05-17T19:29:39.000Z</time>
                <name>Position 2559</name>
            </trkpt>
            <trkpt lon="9.565433" lat="47.73473">
                <ele>442.31560000000576</ele>
                <time>2012-05-17T19:29:45.000Z</time>
                <name>Position 2560</name>
            </trkpt>
            <trkpt lon="9.565472" lat="47.734832">
                <ele>441.87280000001317</ele>
                <time>2012-05-17T19:29:50.000Z</time>
                <name>Position 2561</name>
            </trkpt>
            <trkpt lon="9.565519" lat="47.734895">
                <ele>441.6267999999926</ele>
                <time>2012-05-17T19:29:53.000Z</time>
                <name>Position 2562</name>
            </trkpt>
            <trkpt lon="9.565576" lat="47.734997">
                <ele>441.2056000000009</ele>
                <time>2012-05-17T19:29:57.000Z</time>
                <name>Position 2563</name>
            </trkpt>
            <trkpt lon="9.565611" lat="47.735039">
                <ele>440.85879999999725</ele>
                <time>2012-05-17T19:29:59.000Z</time>
                <name>Position 2564</name>
            </trkpt>
            <trkpt lon="9.565668" lat="47.735124">
                <ele>440.111200000011</ele>
                <time>2012-05-17T19:30:03.000Z</time>
                <name>Position 2565</name>
            </trkpt>
            <trkpt lon="9.565958" lat="47.735561">
                <ele>436.01368928002995</ele>
                <time>2012-05-17T19:30:22.000Z</time>
                <name>Position 2566</name>
            </trkpt>
            <trkpt lon="9.566022" lat="47.735666">
                <ele>434.9254611199817</ele>
                <time>2012-05-17T19:30:26.000Z</time>
                <name>Position 2567</name>
            </trkpt>
            <trkpt lon="9.56607" lat="47.735741">
                <ele>434.13386720002796</ele>
                <time>2012-05-17T19:30:30.000Z</time>
                <name>Position 2568</name>
            </trkpt>
            <trkpt lon="9.566305" lat="47.735968">
                <ele>432.5833280000008</ele>
                <time>2012-05-17T19:30:41.000Z</time>
                <name>Position 2569</name>
            </trkpt>
            <trkpt lon="9.566648" lat="47.736234">
                <ele>432.46855040000065</ele>
                <time>2012-05-17T19:30:55.000Z</time>
                <name>Position 2570</name>
            </trkpt>
            <trkpt lon="9.566964" lat="47.736335">
                <ele>433.3556064000027</ele>
                <time>2012-05-17T19:31:04.000Z</time>
                <name>Position 2571</name>
            </trkpt>
            <trkpt lon="9.56728" lat="47.736466">
                <ele>434.14922880000057</ele>
                <time>2012-05-17T19:31:14.000Z</time>
                <name>Position 2572</name>
            </trkpt>
            <trkpt lon="9.567545" lat="47.736479">
                <ele>434.6347175999955</ele>
                <time>2012-05-17T19:31:21.000Z</time>
                <name>Position 2573</name>
            </trkpt>
            <trkpt lon="9.567861" lat="47.736594">
                <ele>434.0406748799979</ele>
                <time>2012-05-17T19:31:31.000Z</time>
                <name>Position 2574</name>
            </trkpt>
            <trkpt lon="9.568106" lat="47.736648">
                <ele>433.74633216000313</ele>
                <time>2012-05-17T19:31:38.000Z</time>
                <name>Position 2575</name>
            </trkpt>
            <trkpt lon="9.5684" lat="47.736708">
                <ele>433.13500799999827</ele>
                <time>2012-05-17T19:31:46.000Z</time>
                <name>Position 2576</name>
            </trkpt>
            <trkpt lon="9.568714" lat="47.736792">
                <ele>432.0906163199998</ele>
                <time>2012-05-17T19:31:55.000Z</time>
                <name>Position 2577</name>
            </trkpt>
            <trkpt lon="9.568968" lat="47.736855">
                <ele>431.5699295999973</ele>
                <time>2012-05-17T19:32:03.000Z</time>
                <name>Position 2578</name>
            </trkpt>
            <trkpt lon="9.569266" lat="47.736857">
                <ele>431.2499494400021</ele>
                <time>2012-05-17T19:32:11.000Z</time>
                <name>Position 2579</name>
            </trkpt>
            <trkpt lon="9.569518" lat="47.736855">
                <ele>431.4090367999962</ele>
                <time>2012-05-17T19:32:17.000Z</time>
                <name>Position 2580</name>
            </trkpt>
            <trkpt lon="9.569764" lat="47.736849">
                <ele>431.5595283199983</ele>
                <time>2012-05-17T19:32:24.000Z</time>
                <name>Position 2581</name>
            </trkpt>
            <trkpt lon="9.569976" lat="47.736826">
                <ele>431.6734131200011</ele>
                <time>2012-05-17T19:32:30.000Z</time>
                <name>Position 2582</name>
            </trkpt>
            <trkpt lon="9.570195" lat="47.736806">
                <ele>432.0178256000004</ele>
                <time>2012-05-17T19:32:36.000Z</time>
                <name>Position 2583</name>
            </trkpt>
            <trkpt lon="9.570439" lat="47.73683">
                <ele>432.4398416000021</ele>
                <time>2012-05-17T19:32:42.000Z</time>
                <name>Position 2584</name>
            </trkpt>
            <trkpt lon="9.570649" lat="47.736818">
                <ele>432.81490975999986</ele>
                <time>2012-05-17T19:32:48.000Z</time>
                <name>Position 2585</name>
            </trkpt>
            <trkpt lon="9.570903" lat="47.736845">
                <ele>433.3227999999921</ele>
                <time>2012-05-17T19:32:55.000Z</time>
                <name>Position 2586</name>
            </trkpt>
            <trkpt lon="9.571129" lat="47.736915">
                <ele>433.968399999995</ele>
                <time>2012-05-17T19:33:02.000Z</time>
                <name>Position 2587</name>
            </trkpt>
            <trkpt lon="9.571351" lat="47.737019">
                <ele>434.5180000000079</ele>
                <time>2012-05-17T19:33:09.000Z</time>
                <name>Position 2588</name>
            </trkpt>
            <trkpt lon="9.571592" lat="47.737095">
                <ele>435.2032000000109</ele>
                <time>2012-05-17T19:33:16.000Z</time>
                <name>Position 2589</name>
            </trkpt>
            <trkpt lon="9.571796" lat="47.737163">
                <ele>435.2460371199942</ele>
                <time>2012-05-17T19:33:22.000Z</time>
                <name>Position 2590</name>
            </trkpt>
            <trkpt lon="9.572007" lat="47.737238">
                <ele>435.0003990400045</ele>
                <time>2012-05-17T19:33:29.000Z</time>
                <name>Position 2591</name>
            </trkpt>
            <trkpt lon="9.572239" lat="47.737304">
                <ele>434.8088646399974</ele>
                <time>2012-05-17T19:33:35.000Z</time>
                <name>Position 2592</name>
            </trkpt>
            <trkpt lon="9.572504" lat="47.7374">
                <ele>434.62959999999975</ele>
                <time>2012-05-17T19:33:43.000Z</time>
                <name>Position 2593</name>
            </trkpt>
            <trkpt lon="9.572783" lat="47.737501">
                <ele>435.17756991999573</ele>
                <time>2012-05-17T19:33:52.000Z</time>
                <name>Position 2594</name>
            </trkpt>
            <trkpt lon="9.573031" lat="47.737626">
                <ele>435.38902144000434</ele>
                <time>2012-05-17T19:34:00.000Z</time>
                <name>Position 2595</name>
            </trkpt>
            <trkpt lon="9.573255" lat="47.737709">
                <ele>435.4031007999894</ele>
                <time>2012-05-17T19:34:07.000Z</time>
                <name>Position 2596</name>
            </trkpt>
            <trkpt lon="9.573474" lat="47.737836">
                <ele>434.6857203199949</ele>
                <time>2012-05-17T19:34:15.000Z</time>
                <name>Position 2597</name>
            </trkpt>
            <trkpt lon="9.573654" lat="47.737955">
                <ele>433.9666016000029</ele>
                <time>2012-05-17T19:34:22.000Z</time>
                <name>Position 2598</name>
            </trkpt>
            <trkpt lon="9.573753" lat="47.738092">
                <ele>433.36671487999394</ele>
                <time>2012-05-17T19:34:28.000Z</time>
                <name>Position 2599</name>
            </trkpt>
            <trkpt lon="9.573876" lat="47.738215">
                <ele>432.8830592000106</ele>
                <time>2012-05-17T19:34:34.000Z</time>
                <name>Position 2600</name>
            </trkpt>
            <trkpt lon="9.57401" lat="47.738364">
                <ele>432.56447359999396</ele>
                <time>2012-05-17T19:34:41.000Z</time>
                <name>Position 2601</name>
            </trkpt>
            <trkpt lon="9.57413" lat="47.738502">
                <ele>432.7380223999953</ele>
                <time>2012-05-17T19:34:47.000Z</time>
                <name>Position 2602</name>
            </trkpt>
            <trkpt lon="9.574247" lat="47.738667">
                <ele>432.4762014400011</ele>
                <time>2012-05-17T19:34:55.000Z</time>
                <name>Position 2603</name>
            </trkpt>
            <trkpt lon="9.574256" lat="47.738871">
                <ele>432.647234560003</ele>
                <time>2012-05-17T19:35:03.000Z</time>
                <name>Position 2604</name>
            </trkpt>
            <trkpt lon="9.574228" lat="47.739044">
                <ele>432.9956339200015</ele>
                <time>2012-05-17T19:35:10.000Z</time>
                <name>Position 2605</name>
            </trkpt>
            <trkpt lon="9.574213" lat="47.739205">
                <ele>433.18367280000024</ele>
                <time>2012-05-17T19:35:16.000Z</time>
                <name>Position 2606</name>
            </trkpt>
            <trkpt lon="9.57418" lat="47.739353">
                <ele>433.2071327999982</ele>
                <time>2012-05-17T19:35:22.000Z</time>
                <name>Position 2607</name>
            </trkpt>
            <trkpt lon="9.574148" lat="47.739507">
                <ele>433.1903481600006</ele>
                <time>2012-05-17T19:35:28.000Z</time>
                <name>Position 2608</name>
            </trkpt>
            <trkpt lon="9.574117" lat="47.739619">
                <ele>433.2279508800067</ele>
                <time>2012-05-17T19:35:33.000Z</time>
                <name>Position 2609</name>
            </trkpt>
            <trkpt lon="9.574111" lat="47.739711">
                <ele>433.15763375999904</ele>
                <time>2012-05-17T19:35:37.000Z</time>
                <name>Position 2610</name>
            </trkpt>
            <trkpt lon="9.574063" lat="47.739858">
                <ele>433.27120223999844</ele>
                <time>2012-05-17T19:35:43.000Z</time>
                <name>Position 2611</name>
            </trkpt>
            <trkpt lon="9.574048" lat="47.739947">
                <ele>433.26654336000274</ele>
                <time>2012-05-17T19:35:46.000Z</time>
                <name>Position 2612</name>
            </trkpt>
            <trkpt lon="9.574053" lat="47.740049">
                <ele>433.2327796800035</ele>
                <time>2012-05-17T19:35:50.000Z</time>
                <name>Position 2613</name>
            </trkpt>
            <trkpt lon="9.574101" lat="47.740149">
                <ele>433.058710559999</ele>
                <time>2012-05-17T19:35:55.000Z</time>
                <name>Position 2614</name>
            </trkpt>
            <trkpt lon="9.574209" lat="47.740217">
                <ele>432.6588000000021</ele>
                <time>2012-05-17T19:35:58.000Z</time>
                <name>Position 2615</name>
            </trkpt>
            <trkpt lon="9.57434" lat="47.740289">
                <ele>432.43079999999793</ele>
                <time>2012-05-17T19:36:03.000Z</time>
                <name>Position 2616</name>
            </trkpt>
            <trkpt lon="9.574483" lat="47.740335">
                <ele>432.1428000000003</ele>
                <time>2012-05-17T19:36:07.000Z</time>
                <name>Position 2617</name>
            </trkpt>
            <trkpt lon="9.574634" lat="47.740337">
                <ele>431.7827999999969</ele>
                <time>2012-05-17T19:36:11.000Z</time>
                <name>Position 2618</name>
            </trkpt>
            <trkpt lon="9.574803" lat="47.740338">
                <ele>431.37840000000324</ele>
                <time>2012-05-17T19:36:16.000Z</time>
                <name>Position 2619</name>
            </trkpt>
            <trkpt lon="9.574967" lat="47.740332">
                <ele>430.97760000000477</ele>
                <time>2012-05-17T19:36:20.000Z</time>
                <name>Position 2620</name>
            </trkpt>
            <trkpt lon="9.575149" lat="47.740292">
                <ele>430.7877484799967</ele>
                <time>2012-05-17T19:36:26.000Z</time>
                <name>Position 2621</name>
            </trkpt>
            <trkpt lon="9.575318" lat="47.740241">
                <ele>430.6788412799983</ele>
                <time>2012-05-17T19:36:30.000Z</time>
                <name>Position 2622</name>
            </trkpt>
            <trkpt lon="9.575515" lat="47.7402">
                <ele>430.59168000000085</ele>
                <time>2012-05-17T19:36:36.000Z</time>
                <name>Position 2623</name>
            </trkpt>
            <trkpt lon="9.575723" lat="47.740158">
                <ele>430.52510304000015</ele>
                <time>2012-05-17T19:36:42.000Z</time>
                <name>Position 2624</name>
            </trkpt>
            <trkpt lon="9.575936" lat="47.740128">
                <ele>430.5189235199998</ele>
                <time>2012-05-17T19:36:48.000Z</time>
                <name>Position 2625</name>
            </trkpt>
            <trkpt lon="9.576161" lat="47.740104">
                <ele>430.54907136000116</ele>
                <time>2012-05-17T19:36:54.000Z</time>
                <name>Position 2626</name>
            </trkpt>
            <trkpt lon="9.576372" lat="47.740068">
                <ele>430.5527462400005</ele>
                <time>2012-05-17T19:37:00.000Z</time>
                <name>Position 2627</name>
            </trkpt>
            <trkpt lon="9.5766" lat="47.740044">
                <ele>430.54857599999707</ele>
                <time>2012-05-17T19:37:06.000Z</time>
                <name>Position 2628</name>
            </trkpt>
            <trkpt lon="9.576828" lat="47.740026">
                <ele>430.7248000000012</ele>
                <time>2012-05-17T19:37:12.000Z</time>
                <name>Position 2629</name>
            </trkpt>
            <trkpt lon="9.577045" lat="47.74001">
                <ele>430.9659999999976</ele>
                <time>2012-05-17T19:37:18.000Z</time>
                <name>Position 2630</name>
            </trkpt>
            <trkpt lon="9.577251" lat="47.740002">
                <ele>431.2035999999967</ele>
                <time>2012-05-17T19:37:24.000Z</time>
                <name>Position 2631</name>
            </trkpt>
            <trkpt lon="9.577463" lat="47.740019">
                <ele>431.4783999999957</ele>
                <time>2012-05-17T19:37:29.000Z</time>
                <name>Position 2632</name>
            </trkpt>
            <trkpt lon="9.577646" lat="47.740066">
                <ele>431.3901241599992</ele>
                <time>2012-05-17T19:37:35.000Z</time>
                <name>Position 2633</name>
            </trkpt>
            <trkpt lon="9.577769" lat="47.740168">
                <ele>431.31372351999755</ele>
                <time>2012-05-17T19:37:40.000Z</time>
                <name>Position 2634</name>
            </trkpt>
            <trkpt lon="9.57783" lat="47.740313">
                <ele>431.33086239999943</ele>
                <time>2012-05-17T19:37:46.000Z</time>
                <name>Position 2635</name>
            </trkpt>
            <trkpt lon="9.577853" lat="47.740474">
                <ele>431.40425632000057</ele>
                <time>2012-05-17T19:37:52.000Z</time>
                <name>Position 2636</name>
            </trkpt>
            <trkpt lon="9.57789" lat="47.740652">
                <ele>431.44823679999814</ele>
                <time>2012-05-17T19:38:00.000Z</time>
                <name>Position 2637</name>
            </trkpt>
            <trkpt lon="9.577928" lat="47.74083">
                <ele>431.4708544000015</ele>
                <time>2012-05-17T19:38:07.000Z</time>
                <name>Position 2638</name>
            </trkpt>
            <trkpt lon="9.577946" lat="47.740996">
                <ele>430.94847103999064</ele>
                <time>2012-05-17T19:38:13.000Z</time>
                <name>Position 2639</name>
            </trkpt>
            <trkpt lon="9.577977" lat="47.741166">
                <ele>430.3861020799995</ele>
                <time>2012-05-17T19:38:20.000Z</time>
                <name>Position 2640</name>
            </trkpt>
            <trkpt lon="9.577993" lat="47.741325">
                <ele>429.89584399999154</ele>
                <time>2012-05-17T19:38:27.000Z</time>
                <name>Position 2641</name>
            </trkpt>
            <trkpt lon="9.578028" lat="47.741456">
                <ele>429.46462592000194</ele>
                <time>2012-05-17T19:38:32.000Z</time>
                <name>Position 2642</name>
            </trkpt>
            <trkpt lon="9.578134" lat="47.741589">
                <ele>428.94789344000594</ele>
                <time>2012-05-17T19:38:38.000Z</time>
                <name>Position 2643</name>
            </trkpt>
            <trkpt lon="9.578318" lat="47.741626">
                <ele>428.616897920009</ele>
                <time>2012-05-17T19:38:43.000Z</time>
                <name>Position 2644</name>
            </trkpt>
            <trkpt lon="9.578517" lat="47.741592">
                <ele>429.08050432000465</ele>
                <time>2012-05-17T19:38:49.000Z</time>
                <name>Position 2645</name>
            </trkpt>
            <trkpt lon="9.578712" lat="47.741544">
                <ele>429.569424640002</ele>
                <time>2012-05-17T19:38:54.000Z</time>
                <name>Position 2646</name>
            </trkpt>
            <trkpt lon="9.578896" lat="47.741505">
                <ele>429.97642240000323</ele>
                <time>2012-05-17T19:38:59.000Z</time>
                <name>Position 2647</name>
            </trkpt>
            <trkpt lon="9.579102" lat="47.741496">
                <ele>430.3765849600016</ele>
                <time>2012-05-17T19:39:05.000Z</time>
                <name>Position 2648</name>
            </trkpt>
            <trkpt lon="9.579289" lat="47.741445">
                <ele>430.3532000000009</ele>
                <time>2012-05-17T19:39:10.000Z</time>
                <name>Position 2649</name>
            </trkpt>
            <trkpt lon="9.579468" lat="47.741315">
                <ele>430.1383999999997</ele>
                <time>2012-05-17T19:39:18.000Z</time>
                <name>Position 2650</name>
            </trkpt>
            <trkpt lon="9.579558" lat="47.741194">
                <ele>430.03039999999953</ele>
                <time>2012-05-17T19:39:23.000Z</time>
                <name>Position 2651</name>
            </trkpt>
            <trkpt lon="9.579656" lat="47.741058">
                <ele>429.9128000000001</ele>
                <time>2012-05-17T19:39:29.000Z</time>
                <name>Position 2652</name>
            </trkpt>
            <trkpt lon="9.579744" lat="47.740924">
                <ele>429.8072000000003</ele>
                <time>2012-05-17T19:39:35.000Z</time>
                <name>Position 2653</name>
            </trkpt>
            <trkpt lon="9.579759" lat="47.740746">
                <ele>429.8636918399997</ele>
                <time>2012-05-17T19:39:42.000Z</time>
                <name>Position 2654</name>
            </trkpt>
            <trkpt lon="9.579785" lat="47.740685">
                <ele>429.89007600000156</ele>
                <time>2012-05-17T19:39:45.000Z</time>
                <name>Position 2655</name>
            </trkpt>
            <trkpt lon="9.579855" lat="47.740723">
                <ele>429.78336239999726</ele>
                <time>2012-05-17T19:39:47.000Z</time>
                <name>Position 2656</name>
            </trkpt>
            <trkpt lon="9.57991" lat="47.740873">
                <ele>429.6080000000002</ele>
                <time>2012-05-17T19:39:53.000Z</time>
                <name>Position 2657</name>
            </trkpt>
            <trkpt lon="9.580123" lat="47.741015">
                <ele>429.35239999999965</ele>
                <time>2012-05-17T19:40:01.000Z</time>
                <name>Position 2658</name>
            </trkpt>
            <trkpt lon="9.580408" lat="47.741101">
                <ele>429.0103999999998</ele>
                <time>2012-05-17T19:40:10.000Z</time>
                <name>Position 2659</name>
            </trkpt>
            <trkpt lon="9.580709" lat="47.741198">
                <ele>428.6491999999994</ele>
                <time>2012-05-17T19:40:19.000Z</time>
                <name>Position 2660</name>
            </trkpt>
            <trkpt lon="9.581" lat="47.741322">
                <ele>428.9691199999952</ele>
                <time>2012-05-17T19:40:28.000Z</time>
                <name>Position 2661</name>
            </trkpt>
            <trkpt lon="9.581277" lat="47.74144">
                <ele>430.05034879999266</ele>
                <time>2012-05-17T19:40:37.000Z</time>
                <name>Position 2662</name>
            </trkpt>
            <trkpt lon="9.581553" lat="47.741546">
                <ele>431.45420287999605</ele>
                <time>2012-05-17T19:40:45.000Z</time>
                <name>Position 2663</name>
            </trkpt>
            <trkpt lon="9.581803" lat="47.741654">
                <ele>433.42826015999236</ele>
                <time>2012-05-17T19:40:53.000Z</time>
                <name>Position 2664</name>
            </trkpt>
            <trkpt lon="9.582036" lat="47.741751">
                <ele>435.6881926400073</ele>
                <time>2012-05-17T19:41:01.000Z</time>
                <name>Position 2665</name>
            </trkpt>
            <trkpt lon="9.582196" lat="47.741827">
                <ele>437.1691500800017</ele>
                <time>2012-05-17T19:41:06.000Z</time>
                <name>Position 2666</name>
            </trkpt>
            <trkpt lon="9.582328" lat="47.741898">
                <ele>438.3235865599979</ele>
                <time>2012-05-17T19:41:11.000Z</time>
                <name>Position 2667</name>
            </trkpt>
            <trkpt lon="9.582473" lat="47.742016">
                <ele>439.6175283199995</ele>
                <time>2012-05-17T19:41:17.000Z</time>
                <name>Position 2668</name>
            </trkpt>
            <trkpt lon="9.582598" lat="47.742096">
                <ele>440.0348748799903</ele>
                <time>2012-05-17T19:41:21.000Z</time>
                <name>Position 2669</name>
            </trkpt>
            <trkpt lon="9.582771" lat="47.742218">
                <ele>440.1694860800023</ele>
                <time>2012-05-17T19:41:28.000Z</time>
                <name>Position 2670</name>
            </trkpt>
            <trkpt lon="9.582995" lat="47.742251">
                <ele>439.8865231999974</ele>
                <time>2012-05-17T19:41:34.000Z</time>
                <name>Position 2671</name>
            </trkpt>
            <trkpt lon="9.583249" lat="47.742296">
                <ele>439.38935743999036</ele>
                <time>2012-05-17T19:41:41.000Z</time>
                <name>Position 2672</name>
            </trkpt>
            <trkpt lon="9.583541" lat="47.742313">
                <ele>438.9799204799886</ele>
                <time>2012-05-17T19:41:49.000Z</time>
                <name>Position 2673</name>
            </trkpt>
            <trkpt lon="9.583787" lat="47.74239">
                <ele>438.42346079999965</ele>
                <time>2012-05-17T19:41:56.000Z</time>
                <name>Position 2674</name>
            </trkpt>
            <trkpt lon="9.583997" lat="47.742513">
                <ele>437.76889536001187</ele>
                <time>2012-05-17T19:42:04.000Z</time>
                <name>Position 2675</name>
            </trkpt>
            <trkpt lon="9.584197" lat="47.742651">
                <ele>438.53523456001017</ele>
                <time>2012-05-17T19:42:12.000Z</time>
                <name>Position 2676</name>
            </trkpt>
            <trkpt lon="9.584406" lat="47.742814">
                <ele>439.95426432000755</ele>
                <time>2012-05-17T19:42:20.000Z</time>
                <name>Position 2677</name>
            </trkpt>
            <trkpt lon="9.584571" lat="47.742987">
                <ele>440.5795929599993</ele>
                <time>2012-05-17T19:42:29.000Z</time>
                <name>Position 2678</name>
            </trkpt>
            <trkpt lon="9.584659" lat="47.743202">
                <ele>440.6844806399984</ele>
                <time>2012-05-17T19:42:37.000Z</time>
                <name>Position 2679</name>
            </trkpt>
            <trkpt lon="9.584672" lat="47.743348">
                <ele>440.55760000002425</ele>
                <time>2012-05-17T19:42:43.000Z</time>
                <name>Position 2680</name>
            </trkpt>
            <trkpt lon="9.584643" lat="47.743298">
                <ele>440.7670867200023</ele>
                <time>2012-05-17T19:42:45.000Z</time>
                <name>Position 2681</name>
            </trkpt>
            <trkpt lon="9.584635" lat="47.743301">
                <ele>440.7944448000001</ele>
                <time>2012-05-17T19:42:46.000Z</time>
                <name>Position 2682</name>
            </trkpt>
            <trkpt lon="9.584587" lat="47.743608">
                <ele>438.6795999999824</ele>
                <time>2012-05-17T19:42:58.000Z</time>
                <name>Position 2683</name>
            </trkpt>
            <trkpt lon="9.584639" lat="47.744021">
                <ele>435.023200000033</ele>
                <time>2012-05-17T19:43:15.000Z</time>
                <name>Position 2684</name>
            </trkpt>
            <trkpt lon="9.584819" lat="47.744346">
                <ele>431.7669171200009</ele>
                <time>2012-05-17T19:43:29.000Z</time>
                <name>Position 2685</name>
            </trkpt>
            <trkpt lon="9.584942" lat="47.74458">
                <ele>429.66375680000755</ele>
                <time>2012-05-17T19:43:38.000Z</time>
                <name>Position 2686</name>
            </trkpt>
            <trkpt lon="9.585052" lat="47.744802">
                <ele>427.8811212800016</ele>
                <time>2012-05-17T19:43:48.000Z</time>
                <name>Position 2687</name>
            </trkpt>
            <trkpt lon="9.585169" lat="47.745004">
                <ele>426.49422655999774</ele>
                <time>2012-05-17T19:43:57.000Z</time>
                <name>Position 2688</name>
            </trkpt>
            <trkpt lon="9.585288" lat="47.745206">
                <ele>426.16736767999487</ele>
                <time>2012-05-17T19:44:05.000Z</time>
                <name>Position 2689</name>
            </trkpt>
            <trkpt lon="9.58542" lat="47.745407">
                <ele>425.76544640000026</ele>
                <time>2012-05-17T19:44:14.000Z</time>
                <name>Position 2690</name>
            </trkpt>
            <trkpt lon="9.585578" lat="47.745606">
                <ele>425.26841407999564</ele>
                <time>2012-05-17T19:44:23.000Z</time>
                <name>Position 2691</name>
            </trkpt>
            <trkpt lon="9.585747" lat="47.745785">
                <ele>424.7135912000053</ele>
                <time>2012-05-17T19:44:32.000Z</time>
                <name>Position 2692</name>
            </trkpt>
            <trkpt lon="9.585941" lat="47.745962">
                <ele>424.47480000000166</ele>
                <time>2012-05-17T19:44:40.000Z</time>
                <name>Position 2693</name>
            </trkpt>
            <trkpt lon="9.586143" lat="47.746118">
                <ele>424.52999999999656</ele>
                <time>2012-05-17T19:44:49.000Z</time>
                <name>Position 2694</name>
            </trkpt>
            <trkpt lon="9.586345" lat="47.746262">
                <ele>424.5995999999978</ele>
                <time>2012-05-17T19:44:57.000Z</time>
                <name>Position 2695</name>
            </trkpt>
            <trkpt lon="9.586545" lat="47.746405">
                <ele>424.66799999999563</ele>
                <time>2012-05-17T19:45:04.000Z</time>
                <name>Position 2696</name>
            </trkpt>
            <trkpt lon="9.586731" lat="47.746556">
                <ele>424.64305216000236</ele>
                <time>2012-05-17T19:45:12.000Z</time>
                <name>Position 2697</name>
            </trkpt>
            <trkpt lon="9.586968" lat="47.74673">
                <ele>424.45148160000053</ele>
                <time>2012-05-17T19:45:22.000Z</time>
                <name>Position 2698</name>
            </trkpt>
            <trkpt lon="9.587206" lat="47.746922">
                <ele>424.391902080001</ele>
                <time>2012-05-17T19:45:32.000Z</time>
                <name>Position 2699</name>
            </trkpt>
            <trkpt lon="9.587462" lat="47.747086">
                <ele>424.4770540800001</ele>
                <time>2012-05-17T19:45:41.000Z</time>
                <name>Position 2700</name>
            </trkpt>
            <trkpt lon="9.587739" lat="47.747217">
                <ele>424.59739727999994</ele>
                <time>2012-05-17T19:45:50.000Z</time>
                <name>Position 2701</name>
            </trkpt>
            <trkpt lon="9.588011" lat="47.747322">
                <ele>424.63097952000226</ele>
                <time>2012-05-17T19:45:59.000Z</time>
                <name>Position 2702</name>
            </trkpt>
            <trkpt lon="9.58827" lat="47.747404">
                <ele>424.6064447999966</ele>
                <time>2012-05-17T19:46:06.000Z</time>
                <name>Position 2703</name>
            </trkpt>
            <trkpt lon="9.588529" lat="47.747486">
                <ele>424.7515999999968</ele>
                <time>2012-05-17T19:46:14.000Z</time>
                <name>Position 2704</name>
            </trkpt>
            <trkpt lon="9.588788" lat="47.747562">
                <ele>424.93060735999535</ele>
                <time>2012-05-17T19:46:22.000Z</time>
                <name>Position 2705</name>
            </trkpt>
            <trkpt lon="9.589033" lat="47.747651">
                <ele>425.0062644800059</ele>
                <time>2012-05-17T19:46:29.000Z</time>
                <name>Position 2706</name>
            </trkpt>
            <trkpt lon="9.589246" lat="47.747763">
                <ele>424.994045120001</ele>
                <time>2012-05-17T19:46:37.000Z</time>
                <name>Position 2707</name>
            </trkpt>
            <trkpt lon="9.58945" lat="47.747895">
                <ele>425.05315999999937</ele>
                <time>2012-05-17T19:46:44.000Z</time>
                <name>Position 2708</name>
            </trkpt>
            <trkpt lon="9.589615" lat="47.748043">
                <ele>425.0853607999957</ele>
                <time>2012-05-17T19:46:52.000Z</time>
                <name>Position 2709</name>
            </trkpt>
            <trkpt lon="9.589743" lat="47.748213">
                <ele>425.07213296000106</ele>
                <time>2012-05-17T19:46:59.000Z</time>
                <name>Position 2710</name>
            </trkpt>
            <trkpt lon="9.589794" lat="47.748396">
                <ele>424.81717888000014</ele>
                <time>2012-05-17T19:47:07.000Z</time>
                <name>Position 2711</name>
            </trkpt>
            <trkpt lon="9.589737" lat="47.748593">
                <ele>424.1306819200004</ele>
                <time>2012-05-17T19:47:15.000Z</time>
                <name>Position 2712</name>
            </trkpt>
            <trkpt lon="9.589551" lat="47.748762">
                <ele>423.433517440002</ele>
                <time>2012-05-17T19:47:23.000Z</time>
                <name>Position 2713</name>
            </trkpt>
            <trkpt lon="9.58935" lat="47.748913">
                <ele>422.93833599999687</ele>
                <time>2012-05-17T19:47:31.000Z</time>
                <name>Position 2714</name>
            </trkpt>
            <trkpt lon="9.589166" lat="47.749082">
                <ele>422.6015999999985</ele>
                <time>2012-05-17T19:47:40.000Z</time>
                <name>Position 2715</name>
            </trkpt>
            <trkpt lon="9.589037" lat="47.749259">
                <ele>422.3547190399966</ele>
                <time>2012-05-17T19:47:47.000Z</time>
                <name>Position 2716</name>
            </trkpt>
            <trkpt lon="9.589062" lat="47.749451">
                <ele>422.07309055999946</ele>
                <time>2012-05-17T19:47:55.000Z</time>
                <name>Position 2717</name>
            </trkpt>
            <trkpt lon="9.589187" lat="47.74962">
                <ele>421.9427263999994</ele>
                <time>2012-05-17T19:48:03.000Z</time>
                <name>Position 2718</name>
            </trkpt>
            <trkpt lon="9.589339" lat="47.749769">
                <ele>421.6277249599987</ele>
                <time>2012-05-17T19:48:10.000Z</time>
                <name>Position 2719</name>
            </trkpt>
            <trkpt lon="9.589502" lat="47.749916">
                <ele>421.23896192000257</ele>
                <time>2012-05-17T19:48:17.000Z</time>
                <name>Position 2720</name>
            </trkpt>
            <trkpt lon="9.589664" lat="47.750057">
                <ele>421.0124211199957</ele>
                <time>2012-05-17T19:48:24.000Z</time>
                <name>Position 2721</name>
            </trkpt>
            <trkpt lon="9.589827" lat="47.750205">
                <ele>421.14853040000276</ele>
                <time>2012-05-17T19:48:32.000Z</time>
                <name>Position 2722</name>
            </trkpt>
            <trkpt lon="9.589978" lat="47.750366">
                <ele>421.393205119999</ele>
                <time>2012-05-17T19:48:39.000Z</time>
                <name>Position 2723</name>
            </trkpt>
            <trkpt lon="9.59008" lat="47.750556">
                <ele>421.9304000000078</ele>
                <time>2012-05-17T19:48:48.000Z</time>
                <name>Position 2724</name>
            </trkpt>
            <trkpt lon="9.590113" lat="47.750739">
                <ele>422.4092000000076</ele>
                <time>2012-05-17T19:48:55.000Z</time>
                <name>Position 2725</name>
            </trkpt>
            <trkpt lon="9.590159" lat="47.750915">
                <ele>422.5928000000008</ele>
                <time>2012-05-17T19:49:02.000Z</time>
                <name>Position 2726</name>
            </trkpt>
            <trkpt lon="9.590204" lat="47.751084">
                <ele>422.4440000000013</ele>
                <time>2012-05-17T19:49:09.000Z</time>
                <name>Position 2727</name>
            </trkpt>
            <trkpt lon="9.590184" lat="47.751272">
                <ele>422.19440000000054</ele>
                <time>2012-05-17T19:49:16.000Z</time>
                <name>Position 2728</name>
            </trkpt>
            <trkpt lon="9.590121" lat="47.751444">
                <ele>421.91240000000056</ele>
                <time>2012-05-17T19:49:24.000Z</time>
                <name>Position 2729</name>
            </trkpt>
            <trkpt lon="9.590041" lat="47.751597">
                <ele>421.63280000000304</ele>
                <time>2012-05-17T19:49:30.000Z</time>
                <name>Position 2730</name>
            </trkpt>
            <trkpt lon="9.589988" lat="47.751755">
                <ele>421.5885472000031</ele>
                <time>2012-05-17T19:49:37.000Z</time>
                <name>Position 2731</name>
            </trkpt>
            <trkpt lon="9.589925" lat="47.751909">
                <ele>421.648455999996</ele>
                <time>2012-05-17T19:49:43.000Z</time>
                <name>Position 2732</name>
            </trkpt>
            <trkpt lon="9.589875" lat="47.752073">
                <ele>421.6913200000005</ele>
                <time>2012-05-17T19:49:50.000Z</time>
                <name>Position 2733</name>
            </trkpt>
            <trkpt lon="9.589878" lat="47.752234">
                <ele>421.8350617600026</ele>
                <time>2012-05-17T19:49:56.000Z</time>
                <name>Position 2734</name>
            </trkpt>
            <trkpt lon="9.589922" lat="47.752403">
                <ele>422.1245900799995</ele>
                <time>2012-05-17T19:50:03.000Z</time>
                <name>Position 2735</name>
            </trkpt>
            <trkpt lon="9.589927" lat="47.752493">
                <ele>422.23027167999885</ele>
                <time>2012-05-17T19:50:07.000Z</time>
                <name>Position 2736</name>
            </trkpt>
            <trkpt lon="9.589986" lat="47.752662">
                <ele>422.06733183999694</ele>
                <time>2012-05-17T19:50:14.000Z</time>
                <name>Position 2737</name>
            </trkpt>
            <trkpt lon="9.590171" lat="47.752864">
                <ele>422.0367999999936</ele>
                <time>2012-05-17T19:50:23.000Z</time>
                <name>Position 2738</name>
            </trkpt>
            <trkpt lon="9.590362" lat="47.753022">
                <ele>422.1159999999983</ele>
                <time>2012-05-17T19:50:31.000Z</time>
                <name>Position 2739</name>
            </trkpt>
            <trkpt lon="9.590562" lat="47.753147">
                <ele>422.29600000000426</ele>
                <time>2012-05-17T19:50:39.000Z</time>
                <name>Position 2740</name>
            </trkpt>
            <trkpt lon="9.590775" lat="47.753266">
                <ele>422.52159999999316</ele>
                <time>2012-05-17T19:50:46.000Z</time>
                <name>Position 2741</name>
            </trkpt>
            <trkpt lon="9.590972" lat="47.753378">
                <ele>422.56251903999697</ele>
                <time>2012-05-17T19:50:53.000Z</time>
                <name>Position 2742</name>
            </trkpt>
            <trkpt lon="9.591161" lat="47.753517">
                <ele>422.80706128000344</ele>
                <time>2012-05-17T19:51:00.000Z</time>
                <name>Position 2743</name>
            </trkpt>
            <trkpt lon="9.591295" lat="47.75366">
                <ele>423.1091680000068</ele>
                <time>2012-05-17T19:51:07.000Z</time>
                <name>Position 2744</name>
            </trkpt>
            <trkpt lon="9.591429" lat="47.753809">
                <ele>423.4788078399932</ele>
                <time>2012-05-17T19:51:14.000Z</time>
                <name>Position 2745</name>
            </trkpt>
            <trkpt lon="9.591566" lat="47.753965">
                <ele>423.9244336000021</ele>
                <time>2012-05-17T19:51:21.000Z</time>
                <name>Position 2746</name>
            </trkpt>
            <trkpt lon="9.591698" lat="47.754101">
                <ele>424.35425151999635</ele>
                <time>2012-05-17T19:51:28.000Z</time>
                <name>Position 2747</name>
            </trkpt>
            <trkpt lon="9.591887" lat="47.754234">
                <ele>424.3978364800051</ele>
                <time>2012-05-17T19:51:35.000Z</time>
                <name>Position 2748</name>
            </trkpt>
            <trkpt lon="9.592102" lat="47.754371">
                <ele>424.1267075200018</ele>
                <time>2012-05-17T19:51:43.000Z</time>
                <name>Position 2749</name>
            </trkpt>
            <trkpt lon="9.592332" lat="47.754501">
                <ele>423.77848192000494</ele>
                <time>2012-05-17T19:51:51.000Z</time>
                <name>Position 2750</name>
            </trkpt>
            <trkpt lon="9.592572" lat="47.754611">
                <ele>423.56606848000797</ele>
                <time>2012-05-17T19:51:59.000Z</time>
                <name>Position 2751</name>
            </trkpt>
            <trkpt lon="9.592798" lat="47.754728">
                <ele>423.7512793600003</ele>
                <time>2012-05-17T19:52:07.000Z</time>
                <name>Position 2752</name>
            </trkpt>
            <trkpt lon="9.593035" lat="47.754832">
                <ele>424.05777280000035</ele>
                <time>2012-05-17T19:52:14.000Z</time>
                <name>Position 2753</name>
            </trkpt>
            <trkpt lon="9.593281" lat="47.754927">
                <ele>424.4675012799957</ele>
                <time>2012-05-17T19:52:22.000Z</time>
                <name>Position 2754</name>
            </trkpt>
            <trkpt lon="9.593459" lat="47.75508">
                <ele>424.8038303999979</ele>
                <time>2012-05-17T19:52:30.000Z</time>
                <name>Position 2755</name>
            </trkpt>
            <trkpt lon="9.593571" lat="47.755244">
                <ele>425.02051968000654</ele>
                <time>2012-05-17T19:52:37.000Z</time>
                <name>Position 2756</name>
            </trkpt>
            <trkpt lon="9.593644" lat="47.755418">
                <ele>425.17618943999776</ele>
                <time>2012-05-17T19:52:44.000Z</time>
                <name>Position 2757</name>
            </trkpt>
            <trkpt lon="9.593666" lat="47.755526">
                <ele>425.19112512000066</ele>
                <time>2012-05-17T19:52:49.000Z</time>
                <name>Position 2758</name>
            </trkpt>
            <trkpt lon="9.593712" lat="47.755637">
                <ele>425.37643007999975</ele>
                <time>2012-05-17T19:52:53.000Z</time>
                <name>Position 2759</name>
            </trkpt>
            <trkpt lon="9.593824" lat="47.755801">
                <ele>426.04186367999796</ele>
                <time>2012-05-17T19:53:01.000Z</time>
                <name>Position 2760</name>
            </trkpt>
            <trkpt lon="9.593908" lat="47.755961">
                <ele>425.8610598400097</ele>
                <time>2012-05-17T19:53:07.000Z</time>
                <name>Position 2761</name>
            </trkpt>
            <trkpt lon="9.594009" lat="47.756139">
                <ele>425.37219568001524</ele>
                <time>2012-05-17T19:53:15.000Z</time>
                <name>Position 2762</name>
            </trkpt>
            <trkpt lon="9.59412" lat="47.756344">
                <ele>424.59015040001094</ele>
                <time>2012-05-17T19:53:24.000Z</time>
                <name>Position 2763</name>
            </trkpt>
            <trkpt lon="9.594214" lat="47.756531">
                <ele>423.7224940799769</ele>
                <time>2012-05-17T19:53:32.000Z</time>
                <name>Position 2764</name>
            </trkpt>
            <trkpt lon="9.594329" lat="47.756689">
                <ele>423.3439380800044</ele>
                <time>2012-05-17T19:53:39.000Z</time>
                <name>Position 2765</name>
            </trkpt>
            <trkpt lon="9.594426" lat="47.756836">
                <ele>424.1646924800006</ele>
                <time>2012-05-17T19:53:45.000Z</time>
                <name>Position 2766</name>
            </trkpt>
            <trkpt lon="9.594525" lat="47.756978">
                <ele>424.8588559999957</ele>
                <time>2012-05-17T19:53:51.000Z</time>
                <name>Position 2767</name>
            </trkpt>
            <trkpt lon="9.594609" lat="47.757119">
                <ele>425.38724528000523</ele>
                <time>2012-05-17T19:53:57.000Z</time>
                <name>Position 2768</name>
            </trkpt>
            <trkpt lon="9.594664" lat="47.757257">
                <ele>425.74408064000346</ele>
                <time>2012-05-17T19:54:03.000Z</time>
                <name>Position 2769</name>
            </trkpt>
            <trkpt lon="9.594688" lat="47.757402">
                <ele>425.99351167999794</ele>
                <time>2012-05-17T19:54:09.000Z</time>
                <name>Position 2770</name>
            </trkpt>
            <trkpt lon="9.594717" lat="47.75756">
                <ele>426.2093023999975</ele>
                <time>2012-05-17T19:54:15.000Z</time>
                <name>Position 2771</name>
            </trkpt>
            <trkpt lon="9.594759" lat="47.757722">
                <ele>426.36488576000056</ele>
                <time>2012-05-17T19:54:22.000Z</time>
                <name>Position 2772</name>
            </trkpt>
            <trkpt lon="9.594799" lat="47.757885">
                <ele>426.48166880000093</ele>
                <time>2012-05-17T19:54:29.000Z</time>
                <name>Position 2773</name>
            </trkpt>
            <trkpt lon="9.59481" lat="47.758037">
                <ele>426.5658464000006</ele>
                <time>2012-05-17T19:54:35.000Z</time>
                <name>Position 2774</name>
            </trkpt>
            <trkpt lon="9.594843" lat="47.758173">
                <ele>426.6159036800004</ele>
                <time>2012-05-17T19:54:40.000Z</time>
                <name>Position 2775</name>
            </trkpt>
            <trkpt lon="9.594868" lat="47.758312">
                <ele>426.6502899199988</ele>
                <time>2012-05-17T19:54:46.000Z</time>
                <name>Position 2776</name>
            </trkpt>
            <trkpt lon="9.59489" lat="47.758468">
                <ele>426.7722688000011</ele>
                <time>2012-05-17T19:54:52.000Z</time>
                <name>Position 2777</name>
            </trkpt>
            <trkpt lon="9.594919" lat="47.75865">
                <ele>426.94026400000246</ele>
                <time>2012-05-17T19:54:59.000Z</time>
                <name>Position 2778</name>
            </trkpt>
            <trkpt lon="9.594961" lat="47.758831">
                <ele>427.1160510400009</ele>
                <time>2012-05-17T19:55:07.000Z</time>
                <name>Position 2779</name>
            </trkpt>
            <trkpt lon="9.595001" lat="47.758994">
                <ele>427.2892432000021</ele>
                <time>2012-05-17T19:55:13.000Z</time>
                <name>Position 2780</name>
            </trkpt>
            <trkpt lon="9.595028" lat="47.759163">
                <ele>427.36193920000494</ele>
                <time>2012-05-17T19:55:20.000Z</time>
                <name>Position 2781</name>
            </trkpt>
            <trkpt lon="9.595043" lat="47.759316">
                <ele>426.96294016000246</ele>
                <time>2012-05-17T19:55:26.000Z</time>
                <name>Position 2782</name>
            </trkpt>
            <trkpt lon="9.595053" lat="47.759508">
                <ele>426.50455168000735</ele>
                <time>2012-05-17T19:55:34.000Z</time>
                <name>Position 2783</name>
            </trkpt>
            <trkpt lon="9.59506" lat="47.759681">
                <ele>426.110915199999</ele>
                <time>2012-05-17T19:55:41.000Z</time>
                <name>Position 2784</name>
            </trkpt>
            <trkpt lon="9.595064" lat="47.759854">
                <ele>425.73323392000515</ele>
                <time>2012-05-17T19:55:48.000Z</time>
                <name>Position 2785</name>
            </trkpt>
            <trkpt lon="9.595078" lat="47.760047">
                <ele>425.36583711999907</ele>
                <time>2012-05-17T19:55:56.000Z</time>
                <name>Position 2786</name>
            </trkpt>
            <trkpt lon="9.595109" lat="47.760235">
                <ele>425.19785679999876</ele>
                <time>2012-05-17T19:56:03.000Z</time>
                <name>Position 2787</name>
            </trkpt>
            <trkpt lon="9.595116" lat="47.760415">
                <ele>425.07076479999915</ele>
                <time>2012-05-17T19:56:10.000Z</time>
                <name>Position 2788</name>
            </trkpt>
            <trkpt lon="9.595156" lat="47.760583">
                <ele>425.00609536000064</ele>
                <time>2012-05-17T19:56:17.000Z</time>
                <name>Position 2789</name>
            </trkpt>
            <trkpt lon="9.595172" lat="47.76076">
                <ele>424.9463104000005</ele>
                <time>2012-05-17T19:56:24.000Z</time>
                <name>Position 2790</name>
            </trkpt>
            <trkpt lon="9.595212" lat="47.760935">
                <ele>424.7048735999897</ele>
                <time>2012-05-17T19:56:31.000Z</time>
                <name>Position 2791</name>
            </trkpt>
            <trkpt lon="9.595249" lat="47.761096">
                <ele>424.34036351999663</ele>
                <time>2012-05-17T19:56:38.000Z</time>
                <name>Position 2792</name>
            </trkpt>
            <trkpt lon="9.595302" lat="47.761282">
                <ele>423.9998323199969</ele>
                <time>2012-05-17T19:56:45.000Z</time>
                <name>Position 2793</name>
            </trkpt>
            <trkpt lon="9.595347" lat="47.761487">
                <ele>423.63284831999454</ele>
                <time>2012-05-17T19:56:54.000Z</time>
                <name>Position 2794</name>
            </trkpt>
            <trkpt lon="9.595376" lat="47.761664">
                <ele>423.3115123199911</ele>
                <time>2012-05-17T19:57:01.000Z</time>
                <name>Position 2795</name>
            </trkpt>
            <trkpt lon="9.595378" lat="47.76183">
                <ele>423.90240000001234</ele>
                <time>2012-05-17T19:57:07.000Z</time>
                <name>Position 2796</name>
            </trkpt>
            <trkpt lon="9.595385" lat="47.762015">
                <ele>424.60199999999395</ele>
                <time>2012-05-17T19:57:15.000Z</time>
                <name>Position 2797</name>
            </trkpt>
            <trkpt lon="9.595392" lat="47.762182">
                <ele>425.23680000001127</ele>
                <time>2012-05-17T19:57:22.000Z</time>
                <name>Position 2798</name>
            </trkpt>
            <trkpt lon="9.595382" lat="47.762319">
                <ele>425.6819999999957</ele>
                <time>2012-05-17T19:57:27.000Z</time>
                <name>Position 2799</name>
            </trkpt>
            <trkpt lon="9.595371" lat="47.762462">
                <ele>426.1439999999974</ele>
                <time>2012-05-17T19:57:33.000Z</time>
                <name>Position 2800</name>
            </trkpt>
            <trkpt lon="9.595369" lat="47.762609">
                <ele>426.41696351999553</ele>
                <time>2012-05-17T19:57:39.000Z</time>
                <name>Position 2801</name>
            </trkpt>
            <trkpt lon="9.595403" lat="47.762792">
                <ele>426.79629311999344</ele>
                <time>2012-05-17T19:57:46.000Z</time>
                <name>Position 2802</name>
            </trkpt>
            <trkpt lon="9.595436" lat="47.762963">
                <ele>427.12262015999664</ele>
                <time>2012-05-17T19:57:53.000Z</time>
                <name>Position 2803</name>
            </trkpt>
            <trkpt lon="9.595447" lat="47.763097">
                <ele>427.309846080002</ele>
                <time>2012-05-17T19:57:58.000Z</time>
                <name>Position 2804</name>
            </trkpt>
            <trkpt lon="9.595452" lat="47.763234">
                <ele>427.47570815999615</ele>
                <time>2012-05-17T19:58:04.000Z</time>
                <name>Position 2805</name>
            </trkpt>
            <trkpt lon="9.595439" lat="47.763376">
                <ele>427.52662784000097</ele>
                <time>2012-05-17T19:58:10.000Z</time>
                <name>Position 2806</name>
            </trkpt>
            <trkpt lon="9.595416" lat="47.763526">
                <ele>427.38298496000095</ele>
                <time>2012-05-17T19:58:16.000Z</time>
                <name>Position 2807</name>
            </trkpt>
            <trkpt lon="9.595438" lat="47.763693">
                <ele>427.3243510399971</ele>
                <time>2012-05-17T19:58:22.000Z</time>
                <name>Position 2808</name>
            </trkpt>
            <trkpt lon="9.595474" lat="47.763853">
                <ele>427.28289632000065</ele>
                <time>2012-05-17T19:58:29.000Z</time>
                <name>Position 2809</name>
            </trkpt>
            <trkpt lon="9.595573" lat="47.764">
                <ele>427.3251199999974</ele>
                <time>2012-05-17T19:58:35.000Z</time>
                <name>Position 2810</name>
            </trkpt>
            <trkpt lon="9.595707" lat="47.764137">
                <ele>427.37860304000304</ele>
                <time>2012-05-17T19:58:42.000Z</time>
                <name>Position 2811</name>
            </trkpt>
            <trkpt lon="9.595834" lat="47.764242">
                <ele>427.3183999999929</ele>
                <time>2012-05-17T19:58:47.000Z</time>
                <name>Position 2812</name>
            </trkpt>
            <trkpt lon="9.595986" lat="47.764338">
                <ele>426.9055999999949</ele>
                <time>2012-05-17T19:58:53.000Z</time>
                <name>Position 2813</name>
            </trkpt>
            <trkpt lon="9.596153" lat="47.764434">
                <ele>426.4747999999975</ele>
                <time>2012-05-17T19:58:59.000Z</time>
                <name>Position 2814</name>
            </trkpt>
            <trkpt lon="9.596317" lat="47.764511">
                <ele>426.09320000000173</ele>
                <time>2012-05-17T19:59:04.000Z</time>
                <name>Position 2815</name>
            </trkpt>
            <trkpt lon="9.596449" lat="47.764571">
                <ele>425.7908000000085</ele>
                <time>2012-05-17T19:59:08.000Z</time>
                <name>Position 2816</name>
            </trkpt>
            <trkpt lon="9.596592" lat="47.764639">
                <ele>425.45599999999473</ele>
                <time>2012-05-17T19:59:13.000Z</time>
                <name>Position 2817</name>
            </trkpt>
            <trkpt lon="9.596713" lat="47.764712">
                <ele>425.26396927999235</ele>
                <time>2012-05-17T19:59:17.000Z</time>
                <name>Position 2818</name>
            </trkpt>
            <trkpt lon="9.596851" lat="47.764804">
                <ele>425.30874752000204</ele>
                <time>2012-05-17T19:59:23.000Z</time>
                <name>Position 2819</name>
            </trkpt>
            <trkpt lon="9.596985" lat="47.764876">
                <ele>425.4479167999987</ele>
                <time>2012-05-17T19:59:27.000Z</time>
                <name>Position 2820</name>
            </trkpt>
            <trkpt lon="9.59713" lat="47.764941">
                <ele>425.6748703999995</ele>
                <time>2012-05-17T19:59:32.000Z</time>
                <name>Position 2821</name>
            </trkpt>
            <trkpt lon="9.59724" lat="47.76501">
                <ele>425.8797439999971</ele>
                <time>2012-05-17T19:59:36.000Z</time>
                <name>Position 2822</name>
            </trkpt>
            <trkpt lon="9.59735" lat="47.765085">
                <ele>426.1583600000009</ele>
                <time>2012-05-17T19:59:40.000Z</time>
                <name>Position 2823</name>
            </trkpt>
            <trkpt lon="9.597481" lat="47.765132">
                <ele>426.45801152000035</ele>
                <time>2012-05-17T19:59:44.000Z</time>
                <name>Position 2824</name>
            </trkpt>
            <trkpt lon="9.597644" lat="47.76519">
                <ele>426.4606016000005</ele>
                <time>2012-05-17T19:59:49.000Z</time>
                <name>Position 2825</name>
            </trkpt>
            <trkpt lon="9.59773" lat="47.765292">
                <ele>426.40328959999914</ele>
                <time>2012-05-17T19:59:54.000Z</time>
                <name>Position 2826</name>
            </trkpt>
            <trkpt lon="9.597754" lat="47.765425">
                <ele>426.3445519999998</ele>
                <time>2012-05-17T19:59:59.000Z</time>
                <name>Position 2827</name>
            </trkpt>
            <trkpt lon="9.597781" lat="47.765552">
                <ele>426.2766387200006</ele>
                <time>2012-05-17T20:00:04.000Z</time>
                <name>Position 2828</name>
            </trkpt>
            <trkpt lon="9.597792" lat="47.765668">
                <ele>426.2191193600008</ele>
                <time>2012-05-17T20:00:09.000Z</time>
                <name>Position 2829</name>
            </trkpt>
            <trkpt lon="9.59781" lat="47.765803">
                <ele>426.14154079999986</ele>
                <time>2012-05-17T20:00:14.000Z</time>
                <name>Position 2830</name>
            </trkpt>
            <trkpt lon="9.597826" lat="47.765932">
                <ele>426.27351807999946</ele>
                <time>2012-05-17T20:00:20.000Z</time>
                <name>Position 2831</name>
            </trkpt>
            <trkpt lon="9.597833" lat="47.766069">
                <ele>426.4962068800031</ele>
                <time>2012-05-17T20:00:25.000Z</time>
                <name>Position 2832</name>
            </trkpt>
            <trkpt lon="9.597895" lat="47.766216">
                <ele>426.7028608000004</ele>
                <time>2012-05-17T20:00:31.000Z</time>
                <name>Position 2833</name>
            </trkpt>
            <trkpt lon="9.597897" lat="47.766358">
                <ele>426.95314143999434</ele>
                <time>2012-05-17T20:00:37.000Z</time>
                <name>Position 2834</name>
            </trkpt>
            <trkpt lon="9.597873" lat="47.766502">
                <ele>427.2139542400046</ele>
                <time>2012-05-17T20:00:43.000Z</time>
                <name>Position 2835</name>
            </trkpt>
            <trkpt lon="9.59781" lat="47.766644">
                <ele>427.462681599999</ele>
                <time>2012-05-17T20:00:49.000Z</time>
                <name>Position 2836</name>
            </trkpt>
            <trkpt lon="9.597769" lat="47.766788">
                <ele>427.59860031999864</ele>
                <time>2012-05-17T20:00:55.000Z</time>
                <name>Position 2837</name>
            </trkpt>
            <trkpt lon="9.597712" lat="47.766921">
                <ele>427.72755712000327</ele>
                <time>2012-05-17T20:01:00.000Z</time>
                <name>Position 2838</name>
            </trkpt>
            <trkpt lon="9.597684" lat="47.76707">
                <ele>427.87713279999747</ele>
                <time>2012-05-17T20:01:06.000Z</time>
                <name>Position 2839</name>
            </trkpt>
            <trkpt lon="9.597654" lat="47.767212">
                <ele>428.03346688000033</ele>
                <time>2012-05-17T20:01:12.000Z</time>
                <name>Position 2840</name>
            </trkpt>
            <trkpt lon="9.597663" lat="47.767352">
                <ele>428.16153856000165</ele>
                <time>2012-05-17T20:01:17.000Z</time>
                <name>Position 2841</name>
            </trkpt>
            <trkpt lon="9.597679" lat="47.76744">
                <ele>428.2286656000012</ele>
                <time>2012-05-17T20:01:21.000Z</time>
                <name>Position 2842</name>
            </trkpt>
            <trkpt lon="9.597692" lat="47.76751">
                <ele>428.27789440000083</ele>
                <time>2012-05-17T20:01:24.000Z</time>
                <name>Position 2843</name>
            </trkpt>
            <trkpt lon="9.597749" lat="47.767625">
                <ele>428.33566000000235</ele>
                <time>2012-05-17T20:01:29.000Z</time>
                <name>Position 2844</name>
            </trkpt>
            <trkpt lon="9.597769" lat="47.767668">
                <ele>428.3724294400007</ele>
                <time>2012-05-17T20:01:31.000Z</time>
                <name>Position 2845</name>
            </trkpt>
            <trkpt lon="9.597868" lat="47.767728">
                <ele>428.42086527999703</ele>
                <time>2012-05-17T20:01:34.000Z</time>
                <name>Position 2846</name>
            </trkpt>
            <trkpt lon="9.598001" lat="47.767738">
                <ele>428.41390816000285</ele>
                <time>2012-05-17T20:01:38.000Z</time>
                <name>Position 2847</name>
            </trkpt>
            <trkpt lon="9.598229" lat="47.767786">
                <ele>428.52589408000284</ele>
                <time>2012-05-17T20:01:44.000Z</time>
                <name>Position 2848</name>
            </trkpt>
            <trkpt lon="9.598453" lat="47.767798">
                <ele>428.5727999999965</ele>
                <time>2012-05-17T20:01:50.000Z</time>
                <name>Position 2849</name>
            </trkpt>
            <trkpt lon="9.598679" lat="47.76781">
                <ele>428.61599999998975</ele>
                <time>2012-05-17T20:01:56.000Z</time>
                <name>Position 2850</name>
            </trkpt>
            <trkpt lon="9.598953" lat="47.767869">
                <ele>428.82839999999067</ele>
                <time>2012-05-17T20:02:04.000Z</time>
                <name>Position 2851</name>
            </trkpt>
            <trkpt lon="9.599209" lat="47.767916">
                <ele>428.9214406399983</ele>
                <time>2012-05-17T20:02:11.000Z</time>
                <name>Position 2852</name>
            </trkpt>
            <trkpt lon="9.599477" lat="47.768001">
                <ele>428.70731311999356</ele>
                <time>2012-05-17T20:02:19.000Z</time>
                <name>Position 2853</name>
            </trkpt>
            <trkpt lon="9.599716" lat="47.768065">
                <ele>428.42786239999833</ele>
                <time>2012-05-17T20:02:26.000Z</time>
                <name>Position 2854</name>
            </trkpt>
            <trkpt lon="9.599936" lat="47.768144">
                <ele>428.1817510399996</ele>
                <time>2012-05-17T20:02:33.000Z</time>
                <name>Position 2855</name>
            </trkpt>
            <trkpt lon="9.600155" lat="47.768235">
                <ele>428.2639999999929</ele>
                <time>2012-05-17T20:02:40.000Z</time>
                <name>Position 2856</name>
            </trkpt>
            <trkpt lon="9.600379" lat="47.76834">
                <ele>428.5298304000087</ele>
                <time>2012-05-17T20:02:47.000Z</time>
                <name>Position 2857</name>
            </trkpt>
            <trkpt lon="9.600592" lat="47.768446">
                <ele>429.21147647998293</ele>
                <time>2012-05-17T20:02:54.000Z</time>
                <name>Position 2858</name>
            </trkpt>
            <trkpt lon="9.600781" lat="47.768555">
                <ele>430.26177119999204</ele>
                <time>2012-05-17T20:03:01.000Z</time>
                <name>Position 2859</name>
            </trkpt>
            <trkpt lon="9.600959" lat="47.768683">
                <ele>431.19887568002486</ele>
                <time>2012-05-17T20:03:08.000Z</time>
                <name>Position 2860</name>
            </trkpt>
            <trkpt lon="9.601124" lat="47.768819">
                <ele>432.08528064000365</ele>
                <time>2012-05-17T20:03:15.000Z</time>
                <name>Position 2861</name>
            </trkpt>
            <trkpt lon="9.601245" lat="47.768939">
                <ele>432.95863920002677</ele>
                <time>2012-05-17T20:03:21.000Z</time>
                <name>Position 2862</name>
            </trkpt>
            <trkpt lon="9.601369" lat="47.769065">
                <ele>433.92477839997775</ele>
                <time>2012-05-17T20:03:27.000Z</time>
                <name>Position 2863</name>
            </trkpt>
            <trkpt lon="9.601424" lat="47.769203">
                <ele>434.753111040003</ele>
                <time>2012-05-17T20:03:32.000Z</time>
                <name>Position 2864</name>
            </trkpt>
            <trkpt lon="9.601442" lat="47.76935">
                <ele>434.591663999997</ele>
                <time>2012-05-17T20:03:38.000Z</time>
                <name>Position 2865</name>
            </trkpt>
            <trkpt lon="9.60146" lat="47.769498">
                <ele>434.45218560000103</ele>
                <time>2012-05-17T20:03:44.000Z</time>
                <name>Position 2866</name>
            </trkpt>
            <trkpt lon="9.601469" lat="47.769635">
                <ele>434.337280799999</ele>
                <time>2012-05-17T20:03:50.000Z</time>
                <name>Position 2867</name>
            </trkpt>
            <trkpt lon="9.601518" lat="47.7698">
                <ele>434.2716480000029</ele>
                <time>2012-05-17T20:03:57.000Z</time>
                <name>Position 2868</name>
            </trkpt>
            <trkpt lon="9.601588" lat="47.769936">
                <ele>434.33294975999866</ele>
                <time>2012-05-17T20:04:02.000Z</time>
                <name>Position 2869</name>
            </trkpt>
            <trkpt lon="9.60167" lat="47.770048">
                <ele>434.250291199985</ele>
                <time>2012-05-17T20:04:07.000Z</time>
                <name>Position 2870</name>
            </trkpt>
            <trkpt lon="9.601815" lat="47.770141">
                <ele>433.02355279998903</ele>
                <time>2012-05-17T20:04:13.000Z</time>
                <name>Position 2871</name>
            </trkpt>
            <trkpt lon="9.601916" lat="47.770248">
                <ele>432.0807257599955</ele>
                <time>2012-05-17T20:04:18.000Z</time>
                <name>Position 2872</name>
            </trkpt>
            <trkpt lon="9.602055" lat="47.770357">
                <ele>431.05530320000923</ele>
                <time>2012-05-17T20:04:24.000Z</time>
                <name>Position 2873</name>
            </trkpt>
            <trkpt lon="9.60218" lat="47.770474">
                <ele>430.1959423999975</ele>
                <time>2012-05-17T20:04:29.000Z</time>
                <name>Position 2874</name>
            </trkpt>
            <trkpt lon="9.602325" lat="47.770581">
                <ele>429.4135639999986</ele>
                <time>2012-05-17T20:04:35.000Z</time>
                <name>Position 2875</name>
            </trkpt>
            <trkpt lon="9.602463" lat="47.770697">
                <ele>428.77419152000164</ele>
                <time>2012-05-17T20:04:41.000Z</time>
                <name>Position 2876</name>
            </trkpt>
            <trkpt lon="9.602593" lat="47.770808">
                <ele>428.7434220799994</ele>
                <time>2012-05-17T20:04:47.000Z</time>
                <name>Position 2877</name>
            </trkpt>
            <trkpt lon="9.602725" lat="47.770927">
                <ele>429.3771999999999</ele>
                <time>2012-05-17T20:04:53.000Z</time>
                <name>Position 2878</name>
            </trkpt>
            <trkpt lon="9.602855" lat="47.77105">
                <ele>430.1320000000085</ele>
                <time>2012-05-17T20:04:59.000Z</time>
                <name>Position 2879</name>
            </trkpt>
            <trkpt lon="9.602995" lat="47.77116">
                <ele>430.8640000000063</ele>
                <time>2012-05-17T20:05:04.000Z</time>
                <name>Position 2880</name>
            </trkpt>
            <trkpt lon="9.603105" lat="47.771253">
                <ele>431.46280000000365</ele>
                <time>2012-05-17T20:05:09.000Z</time>
                <name>Position 2881</name>
            </trkpt>
            <trkpt lon="9.603184" lat="47.771336">
                <ele>431.9511999999942</ele>
                <time>2012-05-17T20:05:13.000Z</time>
                <name>Position 2882</name>
            </trkpt>
            <trkpt lon="9.603294" lat="47.77137">
                <ele>432.3375999999906</ele>
                <time>2012-05-17T20:05:16.000Z</time>
                <name>Position 2883</name>
            </trkpt>
            <trkpt lon="9.603452" lat="47.771434">
                <ele>432.5995161599972</ele>
                <time>2012-05-17T20:05:21.000Z</time>
                <name>Position 2884</name>
            </trkpt>
            <trkpt lon="9.603582" lat="47.771588">
                <ele>432.9747379200042</ele>
                <time>2012-05-17T20:05:28.000Z</time>
                <name>Position 2885</name>
            </trkpt>
            <trkpt lon="9.603766" lat="47.771772">
                <ele>432.540826880006</ele>
                <time>2012-05-17T20:05:37.000Z</time>
                <name>Position 2886</name>
            </trkpt>
            <trkpt lon="9.603879" lat="47.771943">
                <ele>431.7359316799999</ele>
                <time>2012-05-17T20:05:45.000Z</time>
                <name>Position 2887</name>
            </trkpt>
            <trkpt lon="9.603962" lat="47.772097">
                <ele>431.06957215999194</ele>
                <time>2012-05-17T20:05:51.000Z</time>
                <name>Position 2888</name>
            </trkpt>
            <trkpt lon="9.604048" lat="47.772257">
                <ele>430.4163238399876</ele>
                <time>2012-05-17T20:05:58.000Z</time>
                <name>Position 2889</name>
            </trkpt>
        </trkseg>
    </trk>
</gpx>
